<
# Wetter Temperatur Luftdruck Luftfeuchtigkeit Sichtweite Windgeschwindigkeit Windrichtung Zeit
1 Clouds 11 1013 66 10000 4.6 280 20:36 02.04.2020
2 Clouds 11 1013 54 10000 5.7 290 20:18 02.04.2020
3 Clouds 12 1013 54 10000 5.7 290 19:42 02.04.2020
4 Clouds 12 1013 58 10000 6.7 270 19:20 02.04.2020
5 Clouds 12 1013 58 10000 6.7 270 18:56 02.04.2020
6 Clouds 12 1013 58 10000 6.7 270 18:38 02.04.2020
7 Clouds 12 1013 58 10000 6.2 260 18:19 02.04.2020
8 Clouds 13 1013 54 10000 6.7 270 17:43 02.04.2020
9 Clouds 13 1013 50 10000 6.7 280 17:24 02.04.2020
10 Clouds 13 1013 50 10000 6.7 280 16:59 02.04.2020
11 Clouds 13 1014 54 10000 6.7 270 16:40 02.04.2020
12 Clouds 13 1014 50 10000 4.6 270 16:22 02.04.2020
13 Clouds 13 1014 50 10000 4.6 270 15:57 02.04.2020
14 Clouds 13 1014 50 10000 4.6 260 15:39 02.04.2020
15 Clouds 13 1014 50 10000 4.6 260 15:20 02.04.2020
16 Clouds 12 1014 50 10000 4.6 260 14:58 02.04.2020
17 Clouds 12 1015 50 10000 5.1 280 14:38 02.04.2020
18 Clouds 12 1015 50 10000 4.6 300 14:19 02.04.2020
19 Clouds 12 1015 50 10000 4.6 300 14:19 02.04.2020
20 Clouds 12 1015 50 10000 4.1 290 13:55 02.04.2020
21 Clouds 12 1015 50 10000 4.1 290 13:37 02.04.2020
22 Clouds 11 1015 57 10000 6.2 270 13:19 02.04.2020
23 Clouds 11 1016 62 10000 4.1 260 12:46 02.04.2020
24 Clouds 10 1016 62 10000 4.1 270 12:20 02.04.2020
25 Clouds 10 1016 62 10000 4.1 270 12:20 02.04.2020
26 Clouds 9 1016 61 10000 3.6 280 11:58 02.04.2020
27 Clouds 9 1016 61 10000 3.6 280 11:39 02.04.2020
28 Clouds 9 1016 61 10000 3.6 280 11:39 02.04.2020
29 Clouds 9 1016 61 10000 3.6 280 11:39 02.04.2020
30 Clouds 9 1016 66 10000 3.1 260 11:21 02.04.2020
31 Clouds 8 1016 66 10000 3.1 260 10:57 02.04.2020
32 Clouds 8 1016 66 10000 3.6 280 10:39 02.04.2020
33 Clouds 8 1016 70 10000 4.1 280 10:21 02.04.2020
34 Clouds 7 1016 70 10000 4.1 280 09:59 02.04.2020
35 Clouds 7 1017 65 10000 2.6 270 09:41 02.04.2020
36 Clouds 6 1017 75 10000 4.1 280 09:22 02.04.2020
37 Clouds 6 1017 75 10000 4.1 280 08:57 02.04.2020
38 Clouds 6 1017 70 10000 2.6 260 08:38 02.04.2020
39 Clouds 6 1017 70 10000 3.1 280 08:19 02.04.2020
40 Clouds 5 1017 78 10000 2.6 260 07:42 02.04.2020
41 Clouds 5 1017 75 10000 2.1 270 07:19 02.04.2020
42 Clouds 6 1017 70 10000 2.1 280 06:46 02.04.2020
43 Clouds 5 1017 70 10000 2.1 280 06:20 02.04.2020
44 Clouds 6 1018 70 10000 2.1 290 05:41 02.04.2020
45 Clouds 6 1019 70 10000 2.1 290 02:59 02.04.2020
46 Clouds 6 1020 70 10000 2.1 290 01:31 02.04.2020
47 Clouds 6 1020 70 10000 1.5 320 00:42 02.04.2020
48 Clouds 6 1020 64 10000 2.1 310 00:24 02.04.2020
49 Rain 6 1020 58 10000 2.6 300 23:41 01.04.2020
50 Clouds 7 1020 56 10000 2.1 330 23:20 01.04.2020
51 Clouds 7 1020 56 10000 2.1 330 22:59 01.04.2020
52 Clouds 7 1020 58 10000 1.5 0 22:39 01.04.2020
53 Clouds 7 1020 56 10000 3.1 330 22:21 01.04.2020
54 Clouds 7 1020 60 10000 3.1 330 21:42 01.04.2020
55 Clouds 7 1020 56 10000 3.6 300 21:22 01.04.2020
56 -273 0 0 0 0 0 21:22 01.04.2020
57 Clouds 7 1020 56 10000 3.6 300 21:21 01.04.2020
58 Clouds 7 1020 56 10000 3.6 300 21:21 01.04.2020
59 Clouds 7 1020 56 10000 3.6 300 21:20 01.04.2020
60 Clouds 7 1020 56 10000 3.6 300 20:57 01.04.2020
61 Clouds 8 1020 65 10000 3.1 330 20:39 01.04.2020
62 Clouds 8 1020 58 10000 4.1 290 20:20 01.04.2020
63 Clouds 8 1020 58 10000 4.1 290 20:20 01.04.2020
64 Clouds 8 1020 49 10000 3.6 300 19:59 01.04.2020
65 Clouds 8 1020 49 10000 3.6 300 19:41 01.04.2020
66 Clouds 8 1020 49 10000 3.6 290 19:20 01.04.2020
67 Clouds 8 1021 49 10000 3.1 310 18:44 01.04.2020
68 Clouds 8 1021 49 10000 3.1 300 18:25 01.04.2020
69 Clouds 9 1021 45 10000 3.6 310 17:58 01.04.2020
70 Clouds 9 1021 45 10000 3.6 310 17:38 01.04.2020
71 Clouds 9 1021 49 10000 3.1 300 17:20 01.04.2020
72 Clouds 9 1021 49 10000 3.1 300 16:59 01.04.2020
73 Clouds 9 1022 45 10000 3.1 320 16:39 01.04.2020
74 Clouds 9 1022 49 10000 3.6 310 16:21 01.04.2020
75 Clouds 9 1022 49 10000 3.6 310 15:58 01.04.2020
76 Clouds 9 1022 49 10000 3.6 280 15:38 01.04.2020
77 Clouds 9 1023 49 10000 2.1 320 15:20 01.04.2020
78 Clouds 9 1023 49 10000 2.1 320 14:56 01.04.2020
79 Clouds 9 1023 45 10000 3.1 300 14:38 01.04.2020
80 Clouds 9 1023 49 10000 2.6 320 14:19 01.04.2020
81 Clouds 9 1023 49 10000 2.6 320 13:57 01.04.2020
82 Clouds 9 1024 49 10000 3.1 300 13:37 01.04.2020
83 Clouds 9 1024 49 10000 1.5 0 13:18 01.04.2020
84 Clouds 8 1024 49 10000 1.5 0 12:54 01.04.2020
85 Clouds 8 1024 49 10000 1.5 0 12:36 01.04.2020
86 Clouds 7 1025 52 10000 1 0 12:18 01.04.2020
87 Clear 7 1025 58 10000 0.5 0 11:40 01.04.2020
88 Clear 6 1025 58 10000 0.9 343 11:21 01.04.2020
89 Clear 6 1025 58 10000 0.9 343 10:57 01.04.2020
90 Clear 5 1025 58 10000 0.5 0 10:37 01.04.2020
91 Clear 4 1025 58 10000 1 0 10:18 01.04.2020
92 Clear 4 1025 58 10000 1 0 10:18 01.04.2020
93 Clear 2 1026 74 10000 1.5 270 09:55 01.04.2020
94 Clear 2 1026 74 10000 1.5 270 09:37 01.04.2020
95 Clear 1 1026 80 10000 1.5 0 09:18 01.04.2020
96 Clouds 0 1025 92 10000 1 270 08:40 01.04.2020
97 Clear -1 1026 80 10000 2.1 290 08:18 01.04.2020
98 Clear -1 1025 92 10000 1 0 07:44 01.04.2020
99 Clear -1 1026 92 10000 1.5 310 07:21 01.04.2020
100 Clear -1 1026 80 10000 1 0 06:48 01.04.2020
101 Clear -1 1026 80 10000 1.5 330 06:26 01.04.2020
102 Clear -1 1027 80 10000 1 0 05:56 01.04.2020
103 Clear 0 1027 74 10000 1.65 17 04:32 01.04.2020
104 Clear 0 1028 74 10000 1 0 03:32 01.04.2020
105 Clear 1 1028 74 10000 1.5 0 02:56 01.04.2020
106 Clear 1 1029 69 10000 2.1 50 01:59 01.04.2020
107 Clear 2 1029 69 10000 2.1 50 01:39 01.04.2020
108 Clear 2 1029 69 10000 2.1 50 01:18 01.04.2020
109 Clear 2 1029 64 10000 2.1 60 00:46 01.04.2020
110 Clear 2 1029 65 10000 1.5 0 00:21 01.04.2020
111 Clear 3 1029 65 10000 2.1 40 23:48 31.03.2020
112 Clear 3 1029 65 10000 2.1 40 23:27 31.03.2020
113 Clear 4 1030 65 10000 4.1 70 22:59 31.03.2020
114 Clear 4 1030 65 10000 4.1 70 22:37 31.03.2020
115 Clear 4 1030 60 10000 3.6 100 22:19 31.03.2020
116 Clear 5 1030 56 10000 4.1 100 21:57 31.03.2020
117 Clear 5 1030 56 10000 4.1 100 21:39 31.03.2020
118 Clouds 6 1030 56 10000 4.6 100 21:20 31.03.2020
119 Clouds 6 1030 56 10000 4.6 100 20:55 31.03.2020
120 Clouds 7 1030 55 10000 4.6 110 20:37 31.03.2020
121 Rain 7 1030 55 10000 4.6 110 20:18 31.03.2020
122 Rain 8 1030 55 10000 5.1 100 19:42 31.03.2020
123 Clouds 9 1030 57 10000 6.2 90 19:24 31.03.2020
124 Clouds 9 1030 57 10000 6.2 90 18:59 31.03.2020
125 Clouds 9 1030 57 10000 6.2 90 18:41 31.03.2020
126 Clouds 10 1030 57 10000 6.7 90 18:19 31.03.2020
127 Clouds 10 1030 57 10000 5.7 90 17:55 31.03.2020
128 Clouds 10 1030 57 10000 5.7 90 17:37 31.03.2020
129 Clouds 10 1030 57 10000 5.7 90 17:37 31.03.2020
130 Clouds 10 1031 53 10000 6.2 90 17:19 31.03.2020
131 Clouds 10 1031 48 10000 5.7 60 16:41 31.03.2020
132 Clouds 10 1031 48 10000 4.6 60 16:20 31.03.2020
133 Clouds 10 1031 48 10000 4.6 60 15:59 31.03.2020
134 Clouds 10 1031 57 10000 5.1 60 15:41 31.03.2020
135 Clouds 10 1032 49 10000 3.6 60 15:23 31.03.2020
136 Clouds 10 1032 49 10000 3.6 60 14:59 31.03.2020
137 Clouds 10 1032 57 10000 6.2 90 14:40 31.03.2020
138 Clouds 9 1032 57 10000 5.1 80 14:21 31.03.2020
139 Clouds 9 1032 57 10000 5.1 80 13:55 31.03.2020
140 Clouds 9 1032 49 10000 6.7 70 13:37 31.03.2020
141 Clouds 9 1032 57 10000 5.1 50 13:18 31.03.2020
142 Clouds 9 1032 61 10000 5.1 60 12:44 31.03.2020
143 Clouds 8 1033 61 10000 6.2 60 12:20 31.03.2020
144 Clouds 8 1033 65 10000 6.2 70 11:55 31.03.2020
145 Clouds 8 1033 65 10000 6.2 70 11:36 31.03.2020
146 Clouds 8 1033 65 10000 6.2 70 11:36 31.03.2020
147 Clouds 7 1033 70 10000 6.2 60 11:18 31.03.2020
148 Clouds 7 1033 70 10000 6.2 60 10:55 31.03.2020
149 Clouds 7 1033 70 10000 5.1 60 10:37 31.03.2020
150 Clouds 7 1033 70 10000 5.1 60 10:37 31.03.2020
151 Clouds 6 1032 75 10000 4.6 60 10:18 31.03.2020
152 Clouds 5 1032 75 10000 4.6 60 09:43 31.03.2020
153 Clouds 4 1032 80 10000 3.1 0 09:24 31.03.2020
154 Clouds 3 1032 80 10000 3.1 0 08:58 31.03.2020
155 Clouds 3 1032 80 10000 3.1 0 08:39 31.03.2020
156 Clouds 3 1032 80 10000 3.1 0 08:20 31.03.2020
157 Clouds 3 1032 80 10000 3.1 0 07:56 31.03.2020
158 Clouds 3 1032 80 10000 2.1 0 07:38 31.03.2020
159 Clouds 3 1032 80 10000 2.1 0 07:20 31.03.2020
160 Clouds 3 1031 80 10000 1.5 0 06:51 31.03.2020
161 Clouds 3 1031 80 10000 1.5 0 06:30 31.03.2020
162 Clouds 3 1031 80 10000 2.1 0 05:40 31.03.2020
163 Clouds 4 1032 75 10000 2.6 0 03:57 31.03.2020
164 Clouds 4 1032 80 10000 3.1 40 02:26 31.03.2020
165 Clouds 5 1032 75 10000 2.6 0 01:46 31.03.2020
166 Clouds 5 1032 75 10000 2.6 0 00:52 31.03.2020
167 Clouds 5 1032 75 10000 3.1 30 00:25 31.03.2020
168 Clouds 5 1032 75 10000 3.1 30 23:59 30.03.2020
169 Clouds 6 1032 70 10000 4.1 10 23:38 30.03.2020
170 Clouds 6 1032 75 10000 2.6 0 23:19 30.03.2020
171 Clouds 6 1032 75 10000 2.6 0 22:56 30.03.2020
172 Clouds 6 1031 80 10000 4.6 20 22:37 30.03.2020
173 Clouds 6 1031 80 10000 4.6 20 22:37 30.03.2020
174 Clouds 6 1031 80 10000 5.1 10 22:18 30.03.2020
175 Clouds 6 1031 80 10000 5.1 10 21:55 30.03.2020
176 Clouds 7 1031 70 10000 3.6 360 21:37 30.03.2020
177 Clouds 7 1031 70 10000 3.6 10 21:18 30.03.2020
178 Clouds 7 1031 70 10000 3.6 10 20:55 30.03.2020
179 Clouds 7 1031 75 10000 4.1 20 20:36 30.03.2020
180 Clouds 8 1031 57 10000 3.1 0 20:18 30.03.2020
181 Clouds 8 1031 57 10000 3.1 0 19:40 30.03.2020
182 Clouds 8 1031 57 10000 4.1 60 19:22 30.03.2020
183 Clouds 8 1031 57 10000 4.1 60 18:57 30.03.2020
184 Clouds 9 1031 64 10000 4.1 50 18:39 30.03.2020
185 Clouds 9 1031 64 10000 6.7 0 18:20 30.03.2020
186 Rain 9 1032 53 10000 5.1 50 17:57 30.03.2020
187 Rain 9 1032 53 10000 5.1 50 17:38 30.03.2020
188 Rain 9 1032 61 10000 4.1 60 17:19 30.03.2020
189 Rain 9 1032 66 10000 3.6 30 16:56 30.03.2020
190 Rain 9 1032 66 10000 3.6 30 16:38 30.03.2020
191 Rain 9 1032 75 10000 3.1 40 16:20 30.03.2020
192 Rain 8 1032 75 10000 3.1 40 15:55 30.03.2020
193 Clouds 8 1032 61 10000 3.1 50 15:36 30.03.2020
194 Clouds 8 1033 61 10000 3.6 0 15:18 30.03.2020
195 Clouds 8 1033 61 10000 3.6 0 14:55 30.03.2020
196 Clouds 8 1033 61 10000 3.1 30 14:36 30.03.2020
197 Clouds 7 1034 70 10000 3.1 10 14:18 30.03.2020
198 Clouds 7 1034 70 10000 4.1 10 13:44 30.03.2020
199 Rain 7 1034 70 10000 3.6 360 13:21 30.03.2020
200 Rain 7 1034 70 10000 3.6 360 12:59 30.03.2020
201 Clouds 6 1034 70 10000 2.6 20 12:41 30.03.2020
202 Clouds 6 1035 70 10000 3.6 330 12:19 30.03.2020
203 Clouds 6 1035 71 10000 3.6 350 11:57 30.03.2020
204 Clouds 6 1035 71 10000 3.6 350 11:39 30.03.2020
205 Clouds 5 1035 65 10000 3.1 350 11:20 30.03.2020
206 Clouds 4 1035 65 10000 3.1 340 10:41 30.03.2020
207 Clouds 4 1036 60 10000 3.1 340 10:22 30.03.2020
208 Clouds 4 1036 60 10000 3.1 340 09:58 30.03.2020
209 Clouds 4 1036 69 10000 2.6 360 09:39 30.03.2020
210 Clouds 3 1036 69 10000 2.6 340 09:19 30.03.2020
211 Clouds 3 1036 69 10000 2.1 360 08:43 30.03.2020
212 Clouds 2 1036 86 10000 4.1 350 08:23 30.03.2020
213 Clouds 2 1035 86 10000 4.6 340 07:55 30.03.2020
214 Clouds 2 1035 86 10000 4.6 340 07:37 30.03.2020
215 Clouds 2 1036 85 10000 2.1 350 06:59 30.03.2020
216 Clouds 2 1037 85 10000 2.6 350 06:37 30.03.2020
217 Clouds 2 1037 80 10000 2.1 360 06:18 30.03.2020
218 Clouds 2 1037 74 10000 3.6 20 05:38 30.03.2020
219 Clouds 3 1038 69 10000 2.6 360 04:27 30.03.2020
220 Clouds 3 1038 69 10000 3.1 10 03:50 30.03.2020
221 Clouds 2 1039 59 10000 2.1 360 02:44 30.03.2020
222 Clouds 2 1039 59 10000 2.1 360 01:54 30.03.2020
223 Clouds 2 1039 55 10000 2.1 0 00:56 30.03.2020
224 Clouds 2 1039 55 10000 2.1 0 00:25 30.03.2020
225 Clouds 2 1039 59 10000 4.1 30 00:25 30.03.2020
226 Clouds 3 1039 51 10000 2.1 0 23:55 29.03.2020
227 Clouds 3 1039 51 10000 3.6 0 23:36 29.03.2020
228 Clouds 3 1039 51 10000 3.6 60 23:18 29.03.2020
229 Clouds 3 1039 51 10000 3.6 0 22:39 29.03.2020
230 Clouds 3 1039 48 10000 5.7 60 22:20 29.03.2020
231 Clouds 4 1039 48 10000 5.7 60 21:59 29.03.2020
232 Clouds 4 1039 44 10000 4.1 50 21:37 29.03.2020
233 Clouds 4 1039 44 10000 5.7 60 21:19 29.03.2020
234 Clouds 4 1038 55 10000 9.3 20 20:55 29.03.2020
235 Clouds 4 1039 44 10000 6.7 30 20:37 29.03.2020
236 Clouds 5 1039 41 10000 6.2 0 20:18 29.03.2020
237 Clouds 5 1039 41 10000 6.2 0 20:18 29.03.2020
238 Clouds 5 1037 48 10000 9.8 30 19:55 29.03.2020
239 Clouds 6 1038 41 10000 8.7 40 19:37 29.03.2020
240 Clouds 6 1038 36 10000 6.7 60 19:19 29.03.2020
241 Clouds 6 1038 36 10000 5.1 0 18:55 29.03.2020
242 Clouds 6 1038 36 10000 5.1 0 18:37 29.03.2020
243 Clouds 7 1038 39 10000 9.8 60 18:18 29.03.2020
244 Clouds 7 1038 45 10000 6.7 50 17:55 29.03.2020
245 Clouds 7 1038 45 10000 6.7 50 17:36 29.03.2020
246 Clouds 7 1038 48 10000 8.2 60 17:18 29.03.2020
247 Clouds 7 1038 52 10000 5.1 60 16:55 29.03.2020
248 Clouds 7 1038 52 10000 5.1 60 16:36 29.03.2020
249 Clouds 7 1038 56 10000 5.7 0 16:18 29.03.2020
250 Rain 6 1038 60 10000 6.2 40 15:41 29.03.2020
251 Rain 7 1038 60 10000 6.2 20 15:23 29.03.2020
252 Rain 7 1038 60 10000 6.2 20 15:23 29.03.2020
253 Rain 6 1038 60 10000 6.2 20 14:57 29.03.2020
254 Clouds 7 1038 75 10000 6.2 20 14:39 29.03.2020
255 Clouds 6 1038 49 10000 6.7 0 14:20 29.03.2020
256 Rain 7 1038 60 10000 6.7 40 13:57 29.03.2020
257 Rain 7 1038 60 10000 6.7 40 13:57 29.03.2020
258 Rain 6 1038 60 10000 6.7 40 13:39 29.03.2020
259 Clouds 6 1038 52 10000 5.7 0 13:19 29.03.2020
260 Clouds 6 1037 52 10000 7.2 30 12:55 29.03.2020
261 Clouds 6 1037 52 10000 7.2 30 12:37 29.03.2020
262 Rain 6 1037 52 10000 6.2 50 12:18 29.03.2020
263 Clouds 6 1037 45 10000 6.2 50 11:55 29.03.2020
264 Clouds 6 1037 45 10000 6.2 50 11:36 29.03.2020
265 Clouds 6 1037 48 10000 6.2 0 11:18 29.03.2020
266 Clouds 5 1037 45 10000 6.7 0 10:38 29.03.2020
267 Clouds 5 1036 48 10000 6.2 10 10:19 29.03.2020
268 Clouds 5 1036 56 10000 4.6 0 09:41 29.03.2020
269 Clouds 4 1036 56 10000 4.6 0 09:41 29.03.2020
270 Clouds 4 1036 56 10000 4.1 20 09:20 29.03.2020
271 Clouds 4 1036 60 10000 3.6 30 08:54 29.03.2020
272 Clouds 3 1036 60 10000 4.1 0 08:36 29.03.2020
273 Clouds 3 1036 64 10000 4.1 10 08:18 29.03.2020
274 Clouds 3 1036 60 10000 6.7 30 07:42 29.03.2020
275 Clouds 3 1036 60 10000 6.7 30 07:21 29.03.2020
276 Clouds 4 1035 60 10000 4.1 0 05:50 29.03.2020
277 Clouds 4 1035 64 10000 3.6 20 04:29 29.03.2020
278 Clouds 4 1035 65 10000 4.1 0 03:31 29.03.2020
279 Clouds 4 1035 67 10000 3.1 0 01:51 29.03.2020
280 Clouds 4 1034 75 10000 4.1 20 01:24 29.03.2020
281 Clouds 4 1034 75 10000 4.1 20 00:58 29.03.2020
282 Clouds 4 1034 75 10000 4.1 50 00:33 29.03.2020
283 Clouds 5 1034 70 10000 4.1 50 23:57 28.03.2020
284 Clouds 5 1034 70 10000 4.1 50 23:39 28.03.2020
285 Clouds 5 1034 65 10000 5.1 0 23:20 28.03.2020
286 Clouds 5 1033 65 10000 3.1 0 22:41 28.03.2020
287 Clouds 5 1033 60 10000 3.6 20 22:22 28.03.2020
288 Clouds 5 1033 60 10000 3.6 20 21:56 28.03.2020
289 Clouds 6 1033 60 10000 3.6 30 21:38 28.03.2020
290 Clouds 6 1033 56 10000 4.6 20 21:19 28.03.2020
291 Clouds 6 1031 65 10000 9.8 20 20:54 28.03.2020
292 Clouds 6 1032 61 10000 4.1 40 20:36 28.03.2020
293 Clouds 7 1032 56 10000 4.6 0 20:18 28.03.2020
294 Clouds 7 1030 60 10000 10.3 30 19:54 28.03.2020
295 Clouds 8 1031 56 10000 5.1 60 19:36 28.03.2020
296 Clouds 8 1030 52 10000 9.8 30 19:18 28.03.2020
297 Clouds 9 1030 43 10000 6.7 50 18:39 28.03.2020
298 Clouds 9 1030 46 10000 7.2 0 18:20 28.03.2020
299 Clouds 9 1030 56 10000 6.7 60 17:41 28.03.2020
300 Clouds 9 1030 53 10000 8.2 60 17:22 28.03.2020
301 Clouds 10 1030 53 10000 8.7 60 16:59 28.03.2020
302 Clouds 10 1030 53 10000 8.7 60 16:38 28.03.2020
303 Clouds 10 1030 53 10000 6.7 60 16:18 28.03.2020
304 Clouds 10 1030 53 10000 6.7 60 16:18 28.03.2020
305 Clouds 10 1030 57 10000 5.7 40 15:40 28.03.2020
306 Clouds 9 1030 61 10000 7.2 60 15:19 28.03.2020
307 Clouds 9 1030 61 10000 7.2 60 15:19 28.03.2020
308 Clouds 9 1030 61 10000 7.2 60 14:58 28.03.2020
309 Clouds 9 1030 61 10000 6.2 60 14:40 28.03.2020
310 Clouds 10 1030 61 10000 6.2 60 14:21 28.03.2020
311 Clouds 10 1029 61 10000 7.2 60 13:43 28.03.2020
312 Clouds 10 1029 53 10000 5.7 50 13:23 28.03.2020
313 Clouds 10 1029 50 10000 5.1 0 12:41 28.03.2020
314 Clouds 10 1029 50 10000 7.2 0 12:22 28.03.2020
315 Clouds 10 1029 57 10000 4.6 50 11:55 28.03.2020
316 Clouds 10 1029 57 10000 4.6 50 11:37 28.03.2020
317 Clouds 10 1028 57 10000 7.7 60 11:18 28.03.2020
318 Clouds 9 1028 57 10000 6.7 60 10:39 28.03.2020
319 Clouds 8 1028 61 10000 4.6 60 10:20 28.03.2020
320 Clouds 8 1028 61 10000 4.1 50 09:43 28.03.2020
321 Clouds 7 1028 61 10000 4.1 50 09:24 28.03.2020
322 Clouds 6 1027 75 10000 3.1 40 08:58 28.03.2020
323 Clouds 6 1027 75 10000 3.1 40 08:40 28.03.2020
324 Clear 5 1027 75 10000 2.6 20 08:21 28.03.2020
325 Clouds 5 1026 75 10000 3.1 0 07:46 28.03.2020
326 Clouds 4 1026 75 10000 2.1 0 07:28 28.03.2020
327 Clouds 4 1026 75 10000 2.1 0 06:36 28.03.2020
328 Clouds 4 1026 75 10000 2.6 0 06:18 28.03.2020
329 Clouds 4 1025 75 10000 5.7 30 05:21 28.03.2020
330 Clouds 4 1025 75 10000 5.7 30 04:42 28.03.2020
331 Clouds 4 1025 80 10000 3.1 10 03:55 28.03.2020
332 Clouds 5 1025 70 10000 2.1 40 02:33 28.03.2020
333 Clear 5 1025 70 10000 3.1 60 01:45 28.03.2020
334 Clear 5 1025 70 10000 2.1 0 01:20 28.03.2020
335 Clear 5 1025 70 10000 2.1 0 00:46 28.03.2020
336 Clear 5 1024 69 10000 5.1 20 00:20 28.03.2020
337 Clear 5 1024 69 10000 5.1 20 23:43 27.03.2020
338 Clear 6 1025 71 10000 4.1 50 23:23 27.03.2020
339 Clear 6 1024 65 10000 6.2 20 22:56 27.03.2020
340 Clear 6 1024 65 10000 6.2 20 22:56 27.03.2020
341 Clear 6 1024 65 10000 6.2 20 22:38 27.03.2020
342 Clear 6 1024 52 10000 3.6 0 22:20 27.03.2020
343 Clear 7 1024 56 10000 7.2 20 21:56 27.03.2020
344 Clear 7 1024 56 10000 7.2 20 21:38 27.03.2020
345 Clear 7 1024 49 10000 3.1 0 21:20 27.03.2020
346 Clear 8 1024 49 10000 3.1 0 20:55 27.03.2020
347 Clear 8 1024 43 10000 3.6 60 20:37 27.03.2020
348 Clouds 9 1023 40 10000 4.6 0 20:18 27.03.2020
349 Clouds 10 1023 40 10000 4.6 60 19:42 27.03.2020
350 Clouds 10 1023 37 10000 5.1 60 19:22 27.03.2020
351 Clouds 11 1023 37 10000 6.7 60 18:56 27.03.2020
352 Clouds 11 1023 37 10000 6.7 60 18:38 27.03.2020
353 Clouds 11 1023 37 10000 6.7 60 18:38 27.03.2020
354 Clouds 12 1022 37 10000 7.7 60 18:19 27.03.2020
355 Clouds 12 1022 37 10000 7.7 60 18:19 27.03.2020
356 Clouds 12 1022 37 10000 6.7 60 17:40 27.03.2020
357 Clouds 13 1022 35 10000 4.6 0 17:20 27.03.2020
358 Clouds 13 1022 37 10000 5.7 60 16:55 27.03.2020
359 Clouds 13 1022 37 10000 5.7 60 16:37 27.03.2020
360 Clouds 13 1022 35 10000 5.1 0 16:19 27.03.2020
361 Clouds 13 1023 35 10000 6.2 50 15:42 27.03.2020
362 Clouds 13 1023 35 10000 6.7 60 15:24 27.03.2020
363 Clouds 13 1023 35 10000 4.6 50 14:46 27.03.2020
364 Clouds 13 1023 37 10000 5.7 60 14:25 27.03.2020
365 Clear 13 1023 37 10000 5.7 60 13:58 27.03.2020
366 Clear 13 1023 49 10000 7.2 70 13:40 27.03.2020
367 Clear 13 1024 40 10000 7.7 80 13:21 27.03.2020
368 Clear 13 1024 40 10000 7.2 60 12:57 27.03.2020
369 Clear 12 1024 40 10000 7.2 60 12:39 27.03.2020
370 Clear 12 1024 43 10000 8.2 70 12:19 27.03.2020
371 Clear 11 1024 43 10000 6.2 60 11:41 27.03.2020
372 Clear 10 1024 53 10000 4.6 60 11:23 27.03.2020
373 Clear 10 1024 53 10000 4.6 60 11:23 27.03.2020
374 Clear 10 1024 53 10000 4.6 60 11:23 27.03.2020
375 Clear 9 1024 57 10000 5.1 60 10:55 27.03.2020
376 Clear 9 1024 57 10000 5.1 60 10:37 27.03.2020
377 Clear 8 1024 65 10000 3.6 0 10:19 27.03.2020
378 Clear 8 1024 65 10000 3.6 0 09:57 27.03.2020
379 Clear 7 1024 75 10000 3.1 40 09:37 27.03.2020
380 Clear 6 1024 80 8000 3.1 60 09:18 27.03.2020
381 Clear 5 1024 80 8000 3.1 60 08:56 27.03.2020
382 Clear 5 1024 80 7000 1.5 0 08:38 27.03.2020
383 Clear 4 1024 80 7000 1.5 0 08:20 27.03.2020
384 Clear 3 1024 86 7000 1 0 07:50 27.03.2020
385 Clear 3 1024 86 7000 0.5 0 07:24 27.03.2020
386 Clear 3 1024 86 7000 1.5 0 06:53 27.03.2020
387 Clear 3 1024 86 7000 1.5 0 06:35 27.03.2020
388 Clear 3 1023 80 8000 1 0 04:59 27.03.2020
389 Clear 4 1024 76 10000 1 0 02:36 27.03.2020
390 Clouds 4 1024 70 10000 1.5 0 01:23 27.03.2020
391 Clouds 5 1024 69 10000 2.1 0 00:51 27.03.2020
392 Clouds 5 1024 69 10000 2.1 0 00:31 27.03.2020
393 Clouds 5 1024 60 10000 1.5 0 23:44 26.03.2020
394 Clouds 5 1024 56 10000 1.5 0 23:23 26.03.2020
395 Clouds 6 1024 60 10000 1.5 0 22:59 26.03.2020
396 Clouds 6 1024 60 10000 1.5 0 22:39 26.03.2020
397 Clouds 6 1024 56 10000 3.6 60 22:20 26.03.2020
398 Clouds 6 1024 56 10000 3.6 60 21:58 26.03.2020
399 Clouds 6 1024 62 10000 4.6 70 21:39 26.03.2020
400 Clouds 6 1023 56 10000 4.1 70 21:21 26.03.2020
401 Clouds 7 1023 49 10000 4.6 70 20:58 26.03.2020
402 Clouds 7 1023 49 10000 4.6 70 20:38 26.03.2020
403 Clouds 8 1023 45 10000 5.1 80 20:20 26.03.2020
404 Clouds 8 1023 45 10000 5.1 90 19:56 26.03.2020
405 Clouds 8 1023 45 10000 5.1 90 19:38 26.03.2020
406 Clouds 9 1022 45 10000 6.2 90 19:20 26.03.2020
407 Clouds 10 1022 43 10000 5.7 90 18:55 26.03.2020
408 Clouds 10 1022 43 10000 5.7 90 18:37 26.03.2020
409 Clouds 11 1022 37 10000 6.7 90 18:19 26.03.2020
410 Clouds 12 1022 34 10000 6.2 90 17:42 26.03.2020
411 Clouds 12 1022 34 10000 5.7 80 17:19 26.03.2020
412 Clouds 12 1022 34 10000 5.7 80 17:19 26.03.2020
413 Clouds 12 1022 34 10000 5.7 80 17:19 26.03.2020
414 Clouds 12 1022 32 10000 6.2 70 16:46 26.03.2020
415 Clouds 13 1022 32 10000 6.2 90 16:28 26.03.2020
416 Clouds 12 1022 32 10000 6.2 90 15:59 26.03.2020
417 Clouds 12 1023 32 10000 6.2 90 15:41 26.03.2020
418 Clouds 12 1023 32 10000 7.7 90 15:22 26.03.2020
419 Clouds 12 1023 32 10000 7.7 90 14:58 26.03.2020
420 Clouds 12 1023 30 10000 7.2 80 14:39 26.03.2020
421 Clouds 12 1023 40 10000 7.7 80 14:19 26.03.2020
422 Clouds 12 1024 43 10000 8.2 90 13:44 26.03.2020
423 Clouds 12 1024 43 10000 8.7 90 13:24 26.03.2020
424 Clouds 11 1024 43 10000 8.7 90 12:58 26.03.2020
425 Clouds 11 1024 43 10000 6.7 70 12:38 26.03.2020
426 Clouds 11 1024 43 10000 7.7 70 12:20 26.03.2020
427 Clouds 11 1024 45 10000 6.2 80 11:46 26.03.2020
428 Clouds 9 1024 45 10000 6.7 70 11:22 26.03.2020
429 Clouds 9 1024 57 10000 5.1 60 10:56 26.03.2020
430 Clouds 9 1024 57 10000 5.1 60 10:56 26.03.2020
431 Clouds 9 1024 57 10000 5.1 60 10:56 26.03.2020
432 Clouds 9 1024 57 10000 5.1 60 10:38 26.03.2020
433 Clouds 8 1024 65 10000 2.6 60 10:19 26.03.2020
434 Clouds 7 1024 70 10000 2.6 50 09:44 26.03.2020
435 Clouds 6 1023 75 10000 2.6 50 09:20 26.03.2020
436 Clouds 5 1023 57 9000 1.5 0 08:56 26.03.2020
437 Clouds 4 1023 57 9000 1.5 0 08:37 26.03.2020
438 Clouds 3 1023 76 7000 1 0 08:19 26.03.2020
439 Clouds 2 1023 76 8000 1.5 0 07:44 26.03.2020
440 Clouds 2 1023 80 8000 1 0 07:22 26.03.2020
441 Clouds 2 1023 76 9000 1.5 0 06:56 26.03.2020
442 Clouds 2 1023 80 10000 1.5 0 05:59 26.03.2020
443 Clouds 3 1023 71 10000 2.1 340 05:22 26.03.2020
444 Clouds 3 1023 74 10000 1.5 340 03:45 26.03.2020
445 Clouds 3 1023 74 10000 2.1 350 02:56 26.03.2020
446 Clouds 3 1024 69 10000 1.5 10 01:50 26.03.2020
447 Clouds 4 1024 64 10000 1 0 00:55 26.03.2020
448 Clouds 4 1024 65 10000 2.1 40 00:22 26.03.2020
449 Clouds 5 1024 65 10000 2.6 60 23:41 25.03.2020
450 Clouds 5 1024 56 10000 2.6 50 23:22 25.03.2020
451 Clouds 5 1024 56 10000 3.6 60 22:42 25.03.2020
452 Clouds 6 1024 60 10000 3.6 70 22:22 25.03.2020
453 Clouds 6 1024 56 10000 3.6 70 21:57 25.03.2020
454 Clouds 6 1024 56 10000 3.6 70 21:38 25.03.2020
455 Clouds 6 1024 52 10000 3.6 80 21:20 25.03.2020
456 Clouds 6 1024 52 10000 3.6 80 20:56 25.03.2020
457 Clouds 7 1024 52 10000 4.1 80 20:37 25.03.2020
458 Clouds 7 1023 49 10000 4.1 80 20:18 25.03.2020
459 Clouds 7 1023 49 10000 4.1 80 20:18 25.03.2020
460 Clouds 8 1023 52 10000 4.1 90 19:43 25.03.2020
461 Clouds 8 1023 45 10000 5.1 100 19:23 25.03.2020
462 Clouds 9 1023 29 10000 5.7 110 18:59 25.03.2020
463 Clouds 9 1023 29 10000 5.7 110 18:40 25.03.2020
464 Clouds 10 1023 27 10000 6.7 110 18:22 25.03.2020
465 Clouds 11 1023 27 10000 6.2 110 17:57 25.03.2020
466 Clouds 11 1023 27 10000 6.2 110 17:39 25.03.2020
467 Clear 12 1023 27 10000 6.2 110 17:21 25.03.2020
468 Clear 12 1024 27 10000 6.2 100 16:55 25.03.2020
469 Clear 13 1024 27 10000 6.2 100 16:36 25.03.2020
470 Clear 13 1024 32 10000 5.1 80 16:18 25.03.2020
471 Clear 13 1024 32 10000 5.1 90 15:41 25.03.2020
472 Clear 13 1024 34 10000 5.1 90 15:20 25.03.2020
473 Clear 13 1025 32 10000 5.1 90 14:56 25.03.2020
474 Clear 13 1025 32 10000 5.1 90 14:37 25.03.2020
475 Clear 13 1025 34 10000 5.1 70 14:19 25.03.2020
476 Clear 12 1025 32 10000 5.7 80 13:42 25.03.2020
477 Clear 12 1025 32 10000 5.1 90 13:22 25.03.2020
478 Clear 12 1025 32 10000 5.1 90 13:22 25.03.2020
479 Clear 12 1025 32 10000 5.1 100 12:38 25.03.2020
480 Clear 12 1025 37 10000 4.1 90 12:20 25.03.2020
481 Clear 12 1025 43 10000 3.1 90 11:57 25.03.2020
482 Clear 12 1025 43 10000 3.1 90 11:39 25.03.2020
483 Clear 9 1025 49 10000 2.6 90 11:20 25.03.2020
484 Clear 9 1025 49 10000 2.6 90 11:20 25.03.2020
485 Clear 8 1025 52 10000 3.6 80 10:58 25.03.2020
486 Clear 9 1025 52 10000 3.6 80 10:39 25.03.2020
487 Clear 9 1025 52 10000 3.6 80 10:39 25.03.2020
488 Clear 9 1025 52 10000 3.6 80 10:39 25.03.2020
489 Clear 9 1026 52 10000 2.1 90 10:18 25.03.2020
490 Clear 8 1026 52 10000 2.1 90 09:56 25.03.2020
491 Clear 8 1026 55 10000 2.1 80 09:38 25.03.2020
492 Clear 7 1026 75 10000 1.5 80 09:19 25.03.2020
493 Clear 5 1026 75 10000 2.1 100 08:41 25.03.2020
494 Clear 5 1025 80 10000 1.5 100 08:23 25.03.2020
495 Clear 4 1025 80 10000 1.5 100 07:56 25.03.2020
496 Clear 4 1025 86 10000 1.5 90 07:37 25.03.2020
497 Clear 4 1025 80 10000 1.5 80 07:18 25.03.2020
498 Clear 4 1025 80 10000 1.5 80 06:41 25.03.2020
499 Clear 4 1025 80 10000 1 0 06:23 25.03.2020
500 Clear 4 1025 69 10000 1 0 05:47 25.03.2020
501 Clear 4 1025 80 10000 1 0 04:42 25.03.2020
502 Clear 3 1025 66 10000 1 0 03:57 25.03.2020
503 Clear 3 1025 66 10000 1 0 03:32 25.03.2020
504 Clear 4 1025 64 10000 1.5 10 01:40 25.03.2020
505 Clear 5 1025 60 10000 2.6 80 00:50 25.03.2020
506 Clear 6 1025 63 10000 2.6 70 00:27 25.03.2020
507 Clear 6 1025 48 10000 1.5 80 23:57 24.03.2020
508 Clear 6 1025 48 10000 1.5 80 23:37 24.03.2020
509 Clear 7 1025 42 10000 1.5 120 23:19 24.03.2020
510 Clear 7 1025 48 10000 2.6 110 22:54 24.03.2020
511 Clear 7 1025 48 10000 2.6 110 22:36 24.03.2020
512 Clear 7 1025 42 10000 2.1 120 22:18 24.03.2020
513 Clear 8 1025 36 10000 2.6 140 21:42 24.03.2020
514 Clear 8 1025 39 10000 3.6 130 21:19 24.03.2020
515 Clear 9 1025 39 10000 3.6 130 20:59 24.03.2020
516 Clear 9 1025 43 10000 4.1 120 20:40 24.03.2020
517 Clouds 10 1025 37 10000 3.6 130 20:22 24.03.2020
518 Clear 11 1025 37 10000 4.1 130 19:48 24.03.2020
519 Clear 12 1024 37 10000 4.1 120 19:22 24.03.2020
520 Clear 12 1024 37 10000 4.1 120 18:59 24.03.2020
521 Clear 13 1024 33 10000 3.1 130 18:39 24.03.2020
522 Clear 14 1024 26 10000 3.1 160 18:20 24.03.2020
523 Clear 14 1024 26 10000 2.6 160 17:58 24.03.2020
524 Clear 14 1024 26 10000 2.6 160 17:40 24.03.2020
525 Clear 15 1024 26 10000 2.6 200 17:22 24.03.2020
526 Clouds 14 1025 30 10000 3.1 160 16:57 24.03.2020
527 Clouds 14 1025 30 10000 3.1 160 16:38 24.03.2020
528 Clouds 14 1025 30 10000 3.6 140 16:20 24.03.2020
529 Clouds 14 1025 33 10000 4.1 140 15:44 24.03.2020
530 Clouds 14 1025 33 10000 4.1 140 15:44 24.03.2020
531 Clouds 14 1025 33 10000 4.1 140 15:25 24.03.2020
532 Clouds 14 1025 30 10000 4.1 160 14:57 24.03.2020
533 Clouds 14 1025 35 10000 4.1 140 14:39 24.03.2020
534 Clouds 14 1026 35 10000 3.6 150 14:18 24.03.2020
535 Clouds 13 1026 37 10000 4.6 140 13:42 24.03.2020
536 Clear 13 1026 37 10000 4.1 150 13:23 24.03.2020
537 Clear 13 1026 37 10000 4.1 150 13:23 24.03.2020
538 Clear 12 1026 40 10000 4.1 150 12:47 24.03.2020
539 Clear 12 1026 40 10000 4.1 150 12:28 24.03.2020
540 Clear 11 1027 45 10000 3.1 130 11:59 24.03.2020
541 Clear 11 1027 45 10000 3.1 130 11:39 24.03.2020
542 Clear 9 1027 58 10000 3.6 120 11:19 24.03.2020
543 Clear 8 1027 58 10000 3.1 130 10:42 24.03.2020
544 Clear 8 1027 52 10000 3.6 140 10:20 24.03.2020
545 Clear 8 1027 52 10000 3.6 140 09:58 24.03.2020
546 Clear 7 1027 56 10000 3.1 140 09:39 24.03.2020
547 Clear 6 1027 60 10000 2.1 110 09:20 24.03.2020
548 Clear 5 1027 60 10000 2.6 80 08:38 24.03.2020
549 Clear 3 1027 64 10000 3.1 100 08:20 24.03.2020
550 Clear 2 1027 64 10000 2.1 80 07:47 24.03.2020
551 Clear 2 1027 64 10000 2.1 90 07:24 24.03.2020
552 Clear 2 1027 64 10000 2.1 90 07:24 24.03.2020
553 Clear 2 1027 64 10000 2.6 120 06:53 24.03.2020
554 Clear 2 1026 65 10000 2.1 80 06:27 24.03.2020
555 Clear 2 1026 64 10000 2.6 100 05:22 24.03.2020
556 Clear 2 1026 69 10000 4.1 120 04:27 24.03.2020
557 Clear 3 1026 60 10000 3.1 110 03:18 24.03.2020
558 Clear 4 1026 64 10000 2.6 100 01:49 24.03.2020
559 Clear 4 1026 75 10000 2.1 110 00:49 24.03.2020
560 Clear 4 1026 75 10000 2.6 90 00:26 24.03.2020
561 Clear 4 1027 75 10000 2.6 110 23:46 23.03.2020
562 Clear 4 1027 70 10000 2.1 100 23:26 23.03.2020
563 Clear 4 1027 75 10000 2.1 80 22:56 23.03.2020
564 Clear 4 1027 75 10000 2.1 80 22:37 23.03.2020
565 Clear 4 1027 70 10000 1.5 70 22:19 23.03.2020
566 Clear 5 1027 65 10000 2.1 100 21:44 23.03.2020
567 Clear 5 1027 70 10000 3.1 100 21:21 23.03.2020
568 Clear 5 1027 65 10000 4.1 100 20:58 23.03.2020
569 Clear 6 1027 65 10000 4.1 100 20:40 23.03.2020
570 Clear 6 1026 52 10000 4.1 100 20:22 23.03.2020
571 Clear 7 1026 45 10000 4.6 90 19:54 23.03.2020
572 Clear 8 1026 45 10000 4.6 90 19:36 23.03.2020
573 Clear 9 1026 45 10000 5.1 90 19:18 23.03.2020
574 Clear 9 1026 45 10000 6.2 90 18:42 23.03.2020
575 Clear 10 1026 46 10000 7.2 90 18:23 23.03.2020
576 Clear 10 1026 45 10000 6.7 90 17:56 23.03.2020
577 Clear 10 1026 45 10000 6.7 90 17:38 23.03.2020
578 Clear 11 1026 36 10000 7.2 80 17:19 23.03.2020
579 Clear 11 1026 36 10000 6.7 80 16:43 23.03.2020
580 Clear 11 1026 36 10000 7.7 90 16:25 23.03.2020
581 Clear 11 1026 36 10000 7.2 80 15:44 23.03.2020
582 Clear 11 1026 36 10000 7.2 80 15:21 23.03.2020
583 Clear 11 1026 36 10000 7.2 80 14:57 23.03.2020
584 Clear 11 1026 36 10000 6.7 90 14:37 23.03.2020
585 Clear 11 1026 46 10000 7.2 90 14:18 23.03.2020
586 Clear 10 1027 49 10000 7.7 90 13:54 23.03.2020
587 Clear 10 1027 49 10000 7.7 90 13:54 23.03.2020
588 Clear 10 1027 49 10000 7.7 90 13:36 23.03.2020
589 Clear 10 1027 49 10000 7.7 90 13:36 23.03.2020
590 Clear 10 1027 49 10000 6.7 90 13:18 23.03.2020
591 Clear 10 1028 42 10000 6.2 90 12:41 23.03.2020
592 Clear 9 1028 42 10000 6.7 100 12:22 23.03.2020
593 Clear 9 1028 45 10000 6.7 100 11:55 23.03.2020
594 Clear 8 1028 45 10000 6.7 100 11:37 23.03.2020
595 Clear 7 1028 48 10000 6.7 100 11:18 23.03.2020
596 Clear 7 1029 48 10000 5.7 100 10:41 23.03.2020
597 Clear 6 1029 52 10000 5.7 90 10:23 23.03.2020
598 Clear 6 1029 52 10000 5.7 90 09:59 23.03.2020
599 Clear 6 1028 52 10000 6.2 100 09:41 23.03.2020
600 Clear 5 1028 60 10000 5.7 100 09:19 23.03.2020
601 Clear 4 1028 64 10000 4.1 100 08:38 23.03.2020
602 Clear 3 1027 60 10000 4.1 100 08:20 23.03.2020
603 Clear 2 1027 64 10000 4.6 90 07:52 23.03.2020
604 Clear 2 1027 64 10000 4.6 90 07:33 23.03.2020
605 Clear 2 1027 69 10000 4.1 100 06:58 23.03.2020
606 Clear 2 1027 69 10000 4.1 100 06:40 23.03.2020
607 Clear 2 1027 69 10000 4.6 100 05:44 23.03.2020
608 Clear 2 1027 69 10000 4.6 100 05:44 23.03.2020
609 Clear 3 1027 65 10000 5.7 100 04:41 23.03.2020
610 Clear 3 1027 69 10000 2.6 80 02:59 23.03.2020
611 Clear 4 1027 75 10000 5.7 90 01:50 23.03.2020
612 Clear 4 1027 70 10000 4.6 80 00:50 23.03.2020
613 Clear 5 1027 70 10000 4.1 70 00:31 23.03.2020
614 Clear 5 1027 70 10000 4.1 70 23:45 22.03.2020
615 Clear 5 1027 70 10000 4.6 80 23:25 22.03.2020
616 Clear 5 1027 70 10000 4.6 70 22:44 22.03.2020
617 Clear 5 1027 65 10000 5.1 80 22:22 22.03.2020
618 Clear 5 1027 65 10000 4.6 70 21:55 22.03.2020
619 Clear 5 1027 65 10000 4.6 70 21:37 22.03.2020
620 Clear 6 1027 65 10000 5.1 80 21:18 22.03.2020
621 Clear 6 1027 65 10000 5.1 70 20:46 22.03.2020
622 Clear 6 1027 65 10000 6.2 80 20:25 22.03.2020
623 Clear 6 1027 65 10000 6.2 80 19:58 22.03.2020
624 Clear 6 1026 46 10000 5.1 60 19:39 22.03.2020
625 Clear 7 1027 61 10000 7.7 80 19:20 22.03.2020
626 Clear 7 1027 61 10000 7.7 80 18:59 22.03.2020
627 Clear 8 1027 61 10000 8.2 80 18:41 22.03.2020
628 Clear 8 1026 61 10000 8.2 90 18:22 22.03.2020
629 Clear 8 1026 46 10000 8.7 90 17:58 22.03.2020
630 Clear 9 1026 46 10000 8.7 90 17:38 22.03.2020
631 Clear 9 1026 57 10000 9.8 80 17:20 22.03.2020
632 Clear 9 1026 57 10000 9.8 80 16:57 22.03.2020
633 Clear 10 1026 57 10000 9.3 80 16:39 22.03.2020
634 Clear 10 1026 45 10000 8.7 70 16:21 22.03.2020
635 Clear 10 1026 45 10000 8.7 70 15:56 22.03.2020
636 Clear 10 1026 45 10000 8.2 80 15:38 22.03.2020
637 Clear 10 1027 45 10000 8.2 80 14:46 22.03.2020
638 Clear 10 1027 46 10000 9.3 80 14:19 22.03.2020
639 Clear 10 1027 57 10000 8.2 70 13:55 22.03.2020
640 Clear 10 1027 57 10000 8.2 70 13:37 22.03.2020
641 Clear 9 1027 61 10000 9.3 80 13:19 22.03.2020
642 Clear 9 1027 61 10000 9.3 80 12:43 22.03.2020
643 Clouds 8 1027 61 10000 8.2 90 12:20 22.03.2020
644 Clouds 8 1028 61 10000 7.2 90 11:56 22.03.2020
645 Clouds 8 1028 61 10000 7.2 90 11:37 22.03.2020
646 Clear 7 1028 65 10000 7.7 90 11:19 22.03.2020
647 Clear 7 1028 65 10000 8.2 90 10:43 22.03.2020
648 Clouds 7 1027 70 10000 8.7 80 10:23 22.03.2020
649 Clouds 6 1027 70 10000 7.2 80 09:48 22.03.2020
650 Clouds 6 1027 70 10000 7.2 80 09:29 22.03.2020
651 Clouds 5 1027 70 10000 6.7 70 08:55 22.03.2020
652 Clouds 4 1027 60 10000 3.6 60 08:36 22.03.2020
653 Clouds 4 1027 67 10000 2.6 50 08:18 22.03.2020
654 Clouds 3 1027 67 10000 2.6 40 07:48 22.03.2020
655 Clear 3 1027 67 10000 3.6 50 07:18 22.03.2020
656 Clear 3 1026 75 10000 3.6 70 05:55 22.03.2020
657 Clear 3 1026 70 10000 3.6 70 04:58 22.03.2020
658 Clear 4 1026 63 10000 4.1 60 02:43 22.03.2020
659 Clear 5 1026 70 10000 4.6 70 01:21 22.03.2020
660 Clear 5 1026 65 10000 4.6 80 00:39 22.03.2020
661 Clear 5 1026 65 10000 4.6 80 00:21 22.03.2020
662 Clear 5 1026 65 10000 4.6 70 23:41 21.03.2020
663 Clouds 5 1026 65 10000 5.1 80 23:19 21.03.2020
664 Clouds 5 1026 65 10000 5.1 70 22:38 21.03.2020
665 Clouds 5 1026 70 10000 4.6 70 22:20 21.03.2020
666 Clouds 5 1026 70 10000 4.6 70 21:59 21.03.2020
667 Clouds 5 1025 70 10000 4.1 70 21:40 21.03.2020
668 Clear 5 1025 70 10000 5.1 70 21:22 21.03.2020
669 Clear 5 1025 70 10000 5.1 70 20:56 21.03.2020
670 Clear 6 1025 70 10000 5.7 80 20:38 21.03.2020
671 Clear 6 1025 70 10000 6.2 80 20:18 21.03.2020
672 Clear 6 1025 65 10000 6.2 80 19:43 21.03.2020
673 Clear 6 1025 65 10000 7.2 80 19:23 21.03.2020
674 Clear 7 1025 54 10000 8.2 70 18:55 21.03.2020
675 Clear 7 1025 54 10000 8.2 70 18:37 21.03.2020
676 Clear 7 1025 54 10000 8.2 80 18:19 21.03.2020
677 Clear 8 1025 54 10000 8.2 80 17:55 21.03.2020
678 Clear 8 1025 49 10000 8.7 80 17:37 21.03.2020
679 Clear 8 1025 49 10000 8.7 80 17:18 21.03.2020
680 Clear 9 1025 42 10000 9.3 80 16:40 21.03.2020
681 Clear 9 1025 42 10000 8.2 80 16:19 21.03.2020
682 Clear 9 1025 42 10000 8.2 80 15:55 21.03.2020
683 Clear 9 1026 42 10000 8.7 70 15:37 21.03.2020
684 Clear 9 1026 42 10000 9.8 80 15:18 21.03.2020
685 Clear 10 1026 42 10000 8.2 90 14:54 21.03.2020
686 Clear 10 1026 42 10000 8.2 90 14:36 21.03.2020
687 Clear 10 1026 31 10000 10.3 100 14:18 21.03.2020
688 Clear 10 1026 31 10000 10.3 100 13:56 21.03.2020
689 Clear 10 1026 36 10000 11.3 90 13:38 21.03.2020
690 Clear 10 1027 37 10000 10.8 90 13:19 21.03.2020
691 Clear 10 1027 37 10000 10.3 90 12:39 21.03.2020
692 Clear 10 1027 39 10000 11.8 90 12:19 21.03.2020
693 Clear 9 1027 49 10000 10.8 90 11:58 21.03.2020
694 Clear 9 1027 49 10000 10.8 90 11:38 21.03.2020
695 Clouds 9 1027 57 10000 11.3 90 11:19 21.03.2020
696 Clouds 8 1027 61 10000 11.3 80 10:57 21.03.2020
697 Clouds 8 1027 61 10000 11.3 80 10:57 21.03.2020
698 Clouds 8 1027 61 10000 11.3 80 10:39 21.03.2020
699 Clouds 8 1027 65 10000 10.8 90 10:20 21.03.2020
700 Clouds 7 1027 65 10000 10.8 90 09:57 21.03.2020
701 Clouds 7 1027 65 10000 9.3 80 09:37 21.03.2020
702 Clouds 7 1027 65 10000 9.3 80 09:37 21.03.2020
703 Clouds 7 1027 65 10000 8.2 80 09:19 21.03.2020
704 Clouds 6 1027 75 10000 5.7 70 08:55 21.03.2020
705 Clouds 6 1027 75 10000 5.7 70 08:37 21.03.2020
706 Clouds 5 1027 81 10000 5.1 70 08:18 21.03.2020
707 Clouds 4 1027 80 10000 3.6 60 07:32 21.03.2020
708 Clouds 4 1027 80 10000 4.1 60 06:49 21.03.2020
709 Clouds 4 1027 80 10000 4.1 60 06:29 21.03.2020
710 -273 0 0 0 0 0 05:50 21.03.2020
711 Clouds 4 1027 80 10000 4.1 60 05:23 21.03.2020
712 Clouds 5 1028 75 10000 4.6 60 03:38 21.03.2020
713 Clouds 5 1028 75 10000 4.6 60 02:36 21.03.2020
714 Clouds 5 1029 75 10000 5.1 60 01:43 21.03.2020
715 Clouds 5 1029 80 10000 5.1 60 01:22 21.03.2020
716 Clouds 5 1029 81 10000 5.7 60 00:39 21.03.2020
717 Clouds 5 1029 81 10000 5.1 60 00:20 21.03.2020
718 Clouds 5 1029 81 10000 5.1 60 23:41 20.03.2020
719 Clouds 5 1029 81 10000 5.7 60 23:20 20.03.2020
720 Clouds 5 1029 75 10000 5.7 60 22:44 20.03.2020
721 Clouds 6 1029 70 10000 6.2 50 22:25 20.03.2020
722 Clouds 6 1029 70 10000 6.2 50 21:58 20.03.2020
723 Clouds 6 1029 70 10000 6.7 60 21:40 20.03.2020
724 Clouds 6 1028 80 10000 8.2 50 21:20 20.03.2020
725 Clouds 6 1028 80 10000 8.2 50 20:58 20.03.2020
726 Clouds 6 1028 80 10000 7.7 50 20:40 20.03.2020
727 Clouds 7 1029 70 10000 5.1 60 20:19 20.03.2020
728 Clouds 7 1029 70 10000 6.7 60 19:47 20.03.2020
729 Clouds 7 1028 61 10000 7.2 70 19:20 20.03.2020
730 Clouds 8 1029 61 10000 6.2 60 18:57 20.03.2020
731 Clouds 8 1029 61 10000 6.2 60 18:38 20.03.2020
732 Clouds 8 1029 61 10000 7.2 70 18:20 20.03.2020
733 Clouds 8 1029 61 10000 7.2 70 17:56 20.03.2020
734 Clouds 9 1029 61 10000 7.2 70 17:37 20.03.2020
735 Clouds 9 1028 56 10000 7.7 60 17:18 20.03.2020
736 Clouds 9 1028 53 10000 7.7 60 16:41 20.03.2020
737 Clouds 9 1028 53 10000 7.2 70 16:21 20.03.2020
738 Clouds 9 1029 53 10000 6.2 70 15:55 20.03.2020
739 Clouds 9 1029 53 10000 6.2 70 15:37 20.03.2020
740 Clouds 9 1029 53 10000 7.7 70 15:18 20.03.2020
741 Clouds 9 1029 57 10000 7.7 60 14:42 20.03.2020
742 Clouds 9 1029 61 10000 7.2 60 14:21 20.03.2020
743 Clouds 9 1029 61 10000 6.2 60 13:49 20.03.2020
744 Clouds 9 1029 61 10000 6.2 60 13:49 20.03.2020
745 Clouds 9 1029 61 10000 6.7 60 13:25 20.03.2020
746 Clouds 9 1029 61 10000 6.7 60 12:59 20.03.2020
747 Clouds 9 1029 57 10000 6.7 60 12:38 20.03.2020
748 Clouds 9 1029 57 10000 7.2 70 12:20 20.03.2020
749 Clouds 8 1029 61 10000 7.2 60 11:40 20.03.2020
750 Clouds 8 1029 65 10000 6.7 50 11:21 20.03.2020
751 Clouds 8 1029 65 10000 6.7 60 10:57 20.03.2020
752 Clouds 8 1029 65 10000 6.7 60 10:57 20.03.2020
753 Clouds 8 1029 65 10000 6.7 60 10:38 20.03.2020
754 Clouds 7 1029 70 10000 6.2 60 10:18 20.03.2020
755 Clouds 7 1029 75 10000 5.7 60 09:46 20.03.2020
756 Clouds 6 1029 81 10000 5.7 50 09:21 20.03.2020
757 Clouds 6 1029 81 10000 5.7 50 08:59 20.03.2020
758 Clouds 6 1029 75 10000 4.6 60 08:40 20.03.2020
759 Clouds 6 1028 75 10000 4.6 60 08:19 20.03.2020
760 Clouds 6 1028 75 10000 5.1 60 07:45 20.03.2020
761 Clouds 6 1028 75 10000 4.1 50 07:26 20.03.2020
762 Clouds 6 1028 70 10000 4.6 60 06:47 20.03.2020
763 Clouds 6 1028 70 10000 4.1 60 06:29 20.03.2020
764 Clouds 6 1027 75 10000 3.6 60 04:49 20.03.2020
765 Clouds 6 1027 81 10000 4.1 60 03:19 20.03.2020
766 Clouds 6 1027 81 10000 3.1 0 01:51 20.03.2020
767 Clouds 6 1027 75 10000 3.6 60 00:46 20.03.2020
768 Clouds 6 1027 81 10000 3.6 60 00:26 20.03.2020
769 Clouds 7 1027 81 10000 4.1 60 23:45 19.03.2020
770 Clouds 7 1027 81 10000 4.1 60 23:26 19.03.2020
771 Clouds 7 1027 81 10000 4.6 60 22:56 19.03.2020
772 Clouds 7 1027 81 10000 4.6 60 22:38 19.03.2020
773 Clouds 7 1027 81 10000 4.6 60 22:38 19.03.2020
774 Clouds 7 1026 93 10000 5.7 60 22:18 19.03.2020
775 Clouds 7 1026 93 10000 4.6 60 21:41 19.03.2020
776 Clouds 7 1026 93 10000 5.1 60 21:20 19.03.2020
777 Clouds 7 1026 93 10000 5.1 60 20:59 19.03.2020
778 Rain 7 1026 100 10000 5.1 60 20:41 19.03.2020
779 Rain 7 1026 100 10000 4.6 60 20:22 19.03.2020
780 Drizzle 7 1026 81 9000 4.6 60 19:55 19.03.2020
781 Drizzle 7 1026 81 9000 4.6 60 19:37 19.03.2020
782 Rain 7 1026 93 6000 2.6 60 19:19 19.03.2020
783 Drizzle 7 1026 100 4300 2.6 50 18:54 19.03.2020
784 Drizzle 8 1026 100 4300 2.6 50 18:36 19.03.2020
785 Drizzle 8 1026 93 2500 2.1 60 18:18 19.03.2020
786 Drizzle 8 1026 87 5000 3.6 60 17:41 19.03.2020
787 Rain 8 1026 87 9000 3.6 60 17:19 19.03.2020
788 Clouds 8 1026 87 10000 4.1 70 16:44 19.03.2020
789 Clouds 8 1026 87 10000 4.1 60 16:24 19.03.2020
790 Clouds 8 1026 81 10000 3.1 60 15:46 19.03.2020
791 Clouds 8 1026 81 10000 3.1 60 15:27 19.03.2020
792 Clouds 8 1026 93 8000 2.6 50 14:58 19.03.2020
793 Clouds 7 1026 93 8000 2.6 50 14:40 19.03.2020
794 Clouds 7 1027 93 6000 2.6 50 14:19 19.03.2020
795 Clouds 7 1027 87 8000 3.6 60 13:40 19.03.2020
796 Clouds 7 1027 87 8000 3.6 60 13:40 19.03.2020
797 Clouds 7 1027 87 7000 3.6 50 13:19 19.03.2020
798 Drizzle 7 1027 93 4500 3.6 60 12:56 19.03.2020
799 Drizzle 7 1027 93 4500 3.6 60 12:38 19.03.2020
800 Clouds 7 1027 87 8000 4.6 70 12:19 19.03.2020
801 Clouds 7 1027 87 10000 4.1 80 11:42 19.03.2020
802 Clouds 7 1027 87 10000 5.1 90 11:23 19.03.2020
803 Clouds 7 1027 93 8000 4.1 70 10:57 19.03.2020
804 Clouds 7 1027 93 8000 4.1 70 10:38 19.03.2020
805 Haze 7 1027 93 5000 3.6 60 10:19 19.03.2020
806 Clouds 6 1026 93 6000 3.1 60 09:45 19.03.2020
807 Clouds 6 1026 93 6000 3.1 60 09:27 19.03.2020
808 Clouds 6 1026 87 6000 4.6 60 08:58 19.03.2020
809 Clouds 6 1026 87 6000 4.1 60 08:40 19.03.2020
810 Clouds 6 1026 87 6000 4.1 70 08:19 19.03.2020
811 Rain 6 1026 93 4400 3.1 60 07:44 19.03.2020
812 Drizzle 6 1026 93 2600 5.1 60 07:23 19.03.2020
813 Drizzle 7 1026 93 2400 2.6 60 06:34 19.03.2020
814 Drizzle 7 1025 100 2000 3.6 60 05:47 19.03.2020
815 Rain 7 1025 93 4100 3.6 60 04:53 19.03.2020
816 Rain 7 1025 93 4100 3.6 60 04:34 19.03.2020
817 Drizzle 8 1025 93 3900 1.5 0 02:37 19.03.2020
818 Haze 8 1025 93 4900 1.5 0 00:58 19.03.2020
819 Drizzle 9 1025 93 4600 3.1 310 00:28 19.03.2020
820 Clouds 9 1025 81 10000 3.6 240 23:48 18.03.2020
821 Clouds 9 1025 81 10000 3.6 240 23:29 18.03.2020
822 Clouds 9 1025 81 10000 3.6 240 22:56 18.03.2020
823 Clouds 10 1025 81 10000 3.6 240 22:38 18.03.2020
824 Clouds 10 1025 81 10000 4.1 240 22:20 18.03.2020
825 Clouds 10 1024 81 10000 3.6 230 21:42 18.03.2020
826 Clouds 10 1024 76 10000 4.6 240 21:21 18.03.2020
827 Clouds 10 1024 76 10000 4.6 240 20:58 18.03.2020
828 Clouds 10 1024 76 10000 5.1 230 20:40 18.03.2020
829 Clouds 11 1024 87 10000 5.7 220 20:20 18.03.2020
830 Clouds 11 1024 71 10000 4.1 220 19:56 18.03.2020
831 Clouds 11 1024 71 10000 4.1 230 19:38 18.03.2020
832 Clouds 11 1023 71 10000 5.1 230 19:19 18.03.2020
833 Clouds 12 1023 67 10000 4.6 250 18:41 18.03.2020
834 Clouds 12 1024 81 10000 6.7 210 18:20 18.03.2020
835 Clouds 13 1023 67 10000 5.7 250 17:58 18.03.2020
836 Clouds 13 1023 67 10000 5.7 250 17:40 18.03.2020
837 Clouds 13 1023 62 10000 5.1 230 17:21 18.03.2020
838 Clouds 14 1023 67 10000 4.6 230 16:58 18.03.2020
839 Clouds 14 1023 67 10000 4.6 230 16:40 18.03.2020
840 Clouds 14 1023 62 10000 5.1 240 16:20 18.03.2020
841 Clouds 14 1024 67 10000 6.7 250 15:45 18.03.2020
842 Clouds 14 1024 67 10000 5.7 240 15:23 18.03.2020
843 Clouds 14 1024 67 10000 5.7 240 14:57 18.03.2020
844 Clouds 14 1024 67 10000 6.7 240 14:39 18.03.2020
845 Clouds 13 1024 71 10000 5.7 240 14:20 18.03.2020
846 Clouds 13 1025 71 10000 6.7 230 13:39 18.03.2020
847 Clouds 13 1025 71 10000 6.7 240 13:19 18.03.2020
848 Clouds 13 1025 71 10000 6.7 240 12:42 18.03.2020
849 Clouds 13 1025 76 10000 5.7 240 12:20 18.03.2020
850 Clouds 12 1025 76 10000 5.7 240 11:57 18.03.2020
851 Clouds 12 1025 76 10000 5.7 240 11:37 18.03.2020
852 Clouds 12 1025 76 10000 5.1 240 11:18 18.03.2020
853 Clouds 12 1025 76 10000 4.6 250 10:54 18.03.2020
854 Clouds 12 1025 76 10000 4.6 250 10:36 18.03.2020
855 Clouds 12 1025 81 10000 4.6 240 10:18 18.03.2020
856 Clouds 11 1025 81 10000 5.7 240 09:41 18.03.2020
857 Clouds 11 1024 81 10000 5.1 240 09:22 18.03.2020
858 Clouds 11 1024 81 10000 5.1 240 08:40 18.03.2020
859 Clouds 10 1024 87 10000 4.6 250 08:21 18.03.2020
860 Clouds 10 1024 87 10000 5.1 240 07:49 18.03.2020
861 Clouds 10 1024 87 10000 5.1 240 07:31 18.03.2020
862 Clouds 10 1024 81 10000 5.1 240 06:55 18.03.2020
863 Clouds 10 1024 81 10000 5.1 240 06:37 18.03.2020
864 Clouds 10 1024 81 10000 5.7 240 05:37 18.03.2020
865 Clouds 10 1024 81 10000 6.7 240 04:38 18.03.2020
866 Clouds 10 1025 87 10000 5.1 240 03:21 18.03.2020
867 Clouds 10 1025 81 10000 5.7 230 02:36 18.03.2020
868 Clouds 10 1025 81 10000 5.1 240 01:43 18.03.2020
869 Clouds 10 1026 87 10000 4.6 240 00:45 18.03.2020
870 Clouds 10 1026 87 10000 4.6 220 00:21 18.03.2020
871 Clouds 9 1026 81 10000 4.6 230 23:42 17.03.2020
872 Clouds 9 1026 81 10000 4.1 240 23:21 17.03.2020
873 Clouds 9 1026 81 10000 5.7 210 22:46 17.03.2020
874 Clouds 9 1027 81 10000 4.6 220 22:28 17.03.2020
875 Clouds 9 1027 81 10000 3.6 220 21:57 17.03.2020
876 Clouds 9 1027 81 10000 3.6 220 21:36 17.03.2020
877 Clouds 9 1027 76 10000 3.6 230 21:18 17.03.2020
878 Clouds 10 1027 76 10000 4.1 210 20:38 17.03.2020
879 Clouds 10 1027 71 10000 5.7 240 20:20 17.03.2020
880 Clouds 10 1027 71 10000 4.6 230 19:54 17.03.2020
881 Clouds 10 1027 71 10000 4.6 230 19:36 17.03.2020
882 Clouds 11 1027 87 10000 7.2 210 19:18 17.03.2020
883 Clouds 11 1027 66 10000 4.1 230 18:54 17.03.2020
884 Clouds 11 1027 66 10000 4.1 230 18:36 17.03.2020
885 Clouds 11 1027 66 10000 4.1 230 18:36 17.03.2020
886 Clouds 11 1027 66 10000 6.7 230 18:18 17.03.2020
887 Clouds 12 1027 66 10000 4.6 240 17:39 17.03.2020
888 Clouds 12 1027 66 10000 5.7 250 17:20 17.03.2020
889 Clouds 12 1027 66 10000 6.7 230 16:44 17.03.2020
890 Clouds 12 1027 66 10000 5.7 230 16:19 17.03.2020
891 Clouds 12 1027 66 10000 5.7 230 15:56 17.03.2020
892 Clouds 13 1027 62 10000 5.1 230 15:38 17.03.2020
893 Clouds 13 1027 62 10000 5.7 210 15:18 17.03.2020
894 Clouds 13 1027 62 10000 6.7 230 14:41 17.03.2020
895 Clouds 13 1028 62 10000 5.1 230 14:18 17.03.2020
896 Clouds 13 1028 62 10000 6.2 240 13:41 17.03.2020
897 Clouds 13 1028 66 10000 5.1 230 13:22 17.03.2020
898 Clouds 12 1028 66 10000 6.2 230 12:48 17.03.2020
899 Clouds 12 1028 66 10000 6.2 240 12:26 17.03.2020
900 Clouds 12 1028 66 10000 5.1 230 11:59 17.03.2020
901 Clouds 12 1028 66 10000 5.1 230 11:40 17.03.2020
902 Clouds 11 1028 66 10000 5.1 240 11:22 17.03.2020
903 Clouds 10 1028 71 10000 5.1 240 10:56 17.03.2020
904 Clouds 10 1028 71 10000 5.1 240 10:37 17.03.2020
905 Clouds 9 1028 71 10000 5.1 240 10:18 17.03.2020
906 Clouds 9 1028 76 10000 4.6 230 09:46 17.03.2020
907 Clouds 8 1027 76 10000 3.6 230 09:20 17.03.2020
908 Clouds 8 1027 76 10000 3.6 230 08:59 17.03.2020
909 Clouds 7 1027 76 10000 4.1 240 08:41 17.03.2020
910 Clouds 6 1027 81 10000 4.1 240 08:20 17.03.2020
911 Clouds 5 1027 81 10000 3.1 240 07:49 17.03.2020
912 Clouds 5 1027 81 10000 3.1 230 07:21 17.03.2020
913 Clouds 5 1027 81 10000 3.6 240 06:52 17.03.2020
914 Clouds 5 1027 81 10000 3.1 230 06:25 17.03.2020
915 Clouds 5 1026 75 10000 4.1 240 05:34 17.03.2020
916 Clear 4 1026 81 10000 2.6 230 03:36 17.03.2020
917 Clear 4 1026 81 10000 3.1 230 02:31 17.03.2020
918 Clouds 4 1026 70 10000 2.1 230 01:39 17.03.2020
919 Clouds 4 1025 75 10000 2.6 230 00:54 17.03.2020
920 Clouds 4 1025 62 10000 3.1 220 00:19 17.03.2020
921 Clouds 5 1026 80 10000 4.1 210 23:43 16.03.2020
922 Clouds 5 1026 80 10000 3.1 210 23:22 16.03.2020
923 Clouds 5 1025 47 10000 1.5 230 22:38 16.03.2020
924 Clouds 6 1025 75 10000 3.1 230 22:20 16.03.2020
925 Clouds 6 1025 75 10000 3.6 230 21:55 16.03.2020
926 Clouds 6 1025 75 10000 3.6 230 21:36 16.03.2020
927 Clouds 7 1025 70 10000 4.1 220 21:18 16.03.2020
928 Clouds 7 1024 47 10000 2.1 230 20:42 16.03.2020
929 Clouds 8 1024 47 10000 2.1 230 20:24 16.03.2020
930 Clear 8 1024 61 10000 3.1 250 19:56 16.03.2020
931 Clear 9 1024 61 10000 3.1 250 19:37 16.03.2020
932 Clear 9 1023 47 10000 2.1 230 19:18 16.03.2020
933 Clear 10 1023 50 10000 3.1 260 18:41 16.03.2020
934 Clear 11 1022 46 10000 3.6 250 18:20 16.03.2020
935 Clear 12 1022 43 10000 3.6 240 17:46 16.03.2020
936 Clear 12 1022 43 10000 3.1 240 17:26 16.03.2020
937 Clear 12 1023 47 10000 3.6 250 16:58 16.03.2020
938 Clear 12 1023 47 10000 3.6 250 16:40 16.03.2020
939 Clouds 12 1022 47 10000 3.1 240 16:22 16.03.2020
940 Clouds 12 1022 50 10000 3.1 280 15:43 16.03.2020
941 Clouds 12 1022 54 10000 3.6 250 15:25 16.03.2020
942 Clouds 12 1022 54 10000 4.1 290 14:49 16.03.2020
943 Clouds 11 1022 54 10000 4.1 290 14:25 16.03.2020
944 Clouds 11 1022 57 10000 3.1 300 13:55 16.03.2020
945 Clouds 11 1022 57 10000 3.1 300 13:37 16.03.2020
946 Clear 11 1022 57 10000 1.5 0 13:18 16.03.2020
947 Clouds 10 1022 61 10000 2.1 0 12:42 16.03.2020
948 Clouds 10 1022 70 10000 2.1 280 12:23 16.03.2020
949 Clouds 9 1021 70 10000 1.5 0 11:46 16.03.2020
950 Clear 8 1021 70 10000 2.6 290 11:27 16.03.2020
951 Clear 8 1021 70 10000 2.1 290 10:55 16.03.2020
952 Clear 7 1021 70 10000 2.1 290 10:37 16.03.2020
953 Rain 7 1020 70 10000 2.6 290 10:18 16.03.2020
954 Rain 6 1020 75 10000 2.6 290 09:40 16.03.2020
955 Clear 5 1020 75 10000 3.1 280 09:20 16.03.2020
956 Clear 4 1019 81 10000 3.1 290 08:49 16.03.2020
957 Clear 3 1019 93 10000 2.6 280 08:25 16.03.2020
958 Clear 3 1019 93 10000 3.1 280 07:45 16.03.2020
959 Clear 3 1018 100 10000 1.5 290 07:25 16.03.2020
960 Clear 3 1018 93 10000 3.1 270 06:52 16.03.2020
961 Clear 3 1017 100 10000 0.5 260 06:24 16.03.2020
962 Clear 3 1016 81 10000 2.1 280 04:54 16.03.2020
963 Clear 5 1015 87 10000 1.5 310 02:41 16.03.2020
964 Clouds 6 1013 93 10000 2.1 310 00:52 16.03.2020
965 Clouds 6 1013 93 10000 2.1 310 00:33 16.03.2020
966 Clouds 6 1013 81 10000 2.1 290 23:46 15.03.2020
967 Clouds 6 1012 81 10000 3.6 300 23:20 15.03.2020
968 Clouds 7 1012 81 10000 3.6 290 22:42 15.03.2020
969 Clouds 7 1011 81 10000 4.1 290 22:23 15.03.2020
970 Clouds 7 1011 81 10000 4.1 290 22:23 15.03.2020
971 Clouds 7 1011 81 10000 4.1 290 21:58 15.03.2020
972 Clouds 7 1011 81 10000 3.1 290 21:38 15.03.2020
973 Clouds 7 1010 81 10000 3.1 290 21:18 15.03.2020
974 Rain 8 1010 81 10000 4.1 290 20:42 15.03.2020
975 Rain 8 1009 93 10000 2.6 310 20:20 15.03.2020
976 Rain 8 1009 93 10000 2.6 310 19:58 15.03.2020
977 Rain 8 1009 87 10000 2.1 300 19:39 15.03.2020
978 Rain 8 1008 87 10000 3.1 300 19:20 15.03.2020
979 Rain 8 1008 87 10000 3.6 290 18:55 15.03.2020
980 Rain 9 1008 87 10000 3.6 290 18:37 15.03.2020
981 Rain 9 1007 87 10000 6.2 210 18:19 15.03.2020
982 Rain 9 1006 76 10000 4.6 220 17:41 15.03.2020
983 Rain 10 1006 100 10000 4.6 320 17:21 15.03.2020
984 Clouds 10 1006 71 10000 6.2 230 16:58 15.03.2020
985 Clouds 10 1006 71 10000 6.2 230 16:40 15.03.2020
986 Clouds 10 1006 71 10000 6.2 220 16:21 15.03.2020
987 Clouds 11 1006 71 10000 6.7 230 15:48 15.03.2020
988 Clouds 11 1006 71 10000 6.7 230 15:30 15.03.2020
989 Clouds 11 1006 71 10000 7.2 220 14:58 15.03.2020
990 Clouds 11 1006 71 10000 8.2 210 14:38 15.03.2020
991 Clouds 11 1006 71 10000 5.7 220 14:19 15.03.2020
992 Clouds 11 1006 71 10000 7.2 210 13:55 15.03.2020
993 Clouds 11 1006 71 10000 7.2 210 13:37 15.03.2020
994 Clouds 11 1007 71 10000 5.7 210 13:18 15.03.2020
995 Clouds 11 1007 71 10000 5.7 210 13:18 15.03.2020
996 Clouds 11 1007 71 10000 6.7 220 12:40 15.03.2020
997 Clouds 11 1007 66 10000 6.7 210 12:22 15.03.2020
998 Clouds 10 1007 71 10000 7.7 200 11:44 15.03.2020
999 Clouds 10 1007 71 10000 6.2 200 11:25 15.03.2020
1000 Clouds 10 1007 71 10000 6.2 210 10:59 15.03.2020
1001 Clouds 10 1006 81 10000 7.7 200 10:40 15.03.2020
1002 Clouds 10 1007 76 10000 5.1 200 10:22 15.03.2020
1003 Clouds 10 1007 76 10000 5.1 200 09:59 15.03.2020
1004 Clouds 9 1008 76 10000 5.7 210 09:38 15.03.2020
1005 Clouds 9 1007 76 10000 5.7 210 09:20 15.03.2020
1006 Clouds 9 1007 76 10000 5.1 200 08:41 15.03.2020
1007 Clouds 9 1008 76 10000 5.1 200 08:19 15.03.2020
1008 Clouds 9 1008 76 10000 5.7 200 07:49 15.03.2020
1009 Clouds 9 1008 76 10000 7.7 200 07:23 15.03.2020
1010 Clouds 9 1008 76 10000 6.2 200 06:44 15.03.2020
1011 Clouds 9 1009 81 10000 5.7 220 05:49 15.03.2020
1012 Clouds 9 1009 81 10000 6.2 220 04:58 15.03.2020
1013 Clouds 9 1009 81 10000 6.2 220 04:40 15.03.2020
1014 Rain 9 1009 76 10000 6.7 210 04:20 15.03.2020
1015 Clouds 9 1010 76 10000 7.2 210 03:24 15.03.2020
1016 Clouds 10 1010 76 10000 6.2 210 02:28 15.03.2020
1017 Clouds 10 1011 87 10000 5.1 220 01:19 15.03.2020
1018 Clouds 10 1012 76 10000 5.7 230 00:42 15.03.2020
1019 Clouds 9 1011 87 10000 6.2 220 00:19 15.03.2020
1020 Clouds 9 1012 87 10000 5.7 220 23:41 14.03.2020
1021 Clouds 9 1012 87 10000 5.1 220 23:20 14.03.2020
1022 Clouds 9 1012 87 10000 6.2 220 22:57 14.03.2020
1023 Clouds 9 1012 87 10000 6.2 220 22:38 14.03.2020
1024 Clouds 9 1012 81 10000 5.7 220 22:20 14.03.2020
1025 Clouds 9 1012 81 10000 5.7 210 21:56 14.03.2020
1026 Clouds 9 1012 81 10000 5.7 210 21:36 14.03.2020
1027 Clouds 9 1013 71 10000 5.7 230 21:18 14.03.2020
1028 Clouds 10 1013 71 10000 5.7 230 20:58 14.03.2020
1029 Clouds 10 1013 71 10000 5.1 220 20:39 14.03.2020
1030 Clouds 10 1013 76 10000 4.1 230 20:19 14.03.2020
1031 Clouds 10 1012 66 10000 5.1 240 19:42 14.03.2020
1032 Clouds 10 1013 81 10000 6.7 210 19:24 14.03.2020
1033 Clouds 11 1012 71 10000 4.1 210 18:41 14.03.2020
1034 Clouds 11 1013 81 10000 5.1 220 18:23 14.03.2020
1035 Clouds 11 1012 71 10000 4.6 210 17:56 14.03.2020
1036 Clouds 11 1012 71 10000 4.6 210 17:38 14.03.2020
1037 Clouds 12 1012 66 10000 5.7 230 17:20 14.03.2020
1038 Clouds 12 1012 71 10000 4.1 220 16:41 14.03.2020
1039 Clouds 12 1012 71 10000 4.6 240 16:23 14.03.2020
1040 Clouds 12 1012 71 10000 4.6 240 15:58 14.03.2020
1041 Rain 12 1012 76 10000 4.1 220 15:27 14.03.2020
1042 Rain 12 1013 87 7000 5.1 210 14:58 14.03.2020
1043 Rain 12 1013 87 7000 5.1 210 14:36 14.03.2020
1044 Rain 12 1013 71 10000 4.6 200 14:18 14.03.2020
1045 Clouds 12 1013 71 10000 4.6 210 13:42 14.03.2020
1046 Clouds 11 1013 71 10000 4.1 210 13:23 14.03.2020
1047 Clouds 11 1013 71 10000 4.6 200 12:55 14.03.2020
1048 Clouds 11 1013 71 10000 4.6 200 12:37 14.03.2020
1049 Clouds 11 1013 71 10000 4.1 210 12:19 14.03.2020
1050 Clouds 10 1014 76 10000 4.6 170 11:40 14.03.2020
1051 Clouds 10 1014 81 10000 2.6 190 11:20 14.03.2020
1052 Clouds 9 1014 87 10000 3.1 170 10:46 14.03.2020
1053 Clouds 9 1014 87 10000 3.6 160 10:27 14.03.2020
1054 Rain 8 1014 87 10000 3.6 160 09:58 14.03.2020
1055 Rain 8 1014 93 10000 3.6 150 09:40 14.03.2020
1056 Rain 8 1014 87 10000 4.6 150 09:20 14.03.2020
1057 Rain 7 1014 87 10000 4.1 150 08:45 14.03.2020
1058 Rain 7 1014 87 10000 4.6 160 08:24 14.03.2020
1059 Rain 7 1014 81 10000 4.1 140 07:39 14.03.2020
1060 Rain 7 1013 93 10000 4.1 150 07:21 14.03.2020
1061 Rain 7 1014 87 10000 4.6 150 06:41 14.03.2020
1062 Rain 7 1014 87 8000 4.6 150 05:58 14.03.2020
1063 Rain 7 1015 81 10000 4.1 150 04:52 14.03.2020
1064 Clouds 6 1016 93 10000 3.6 150 03:25 14.03.2020
1065 Rain 6 1017 81 10000 3.1 150 02:35 14.03.2020
1066 Rain 6 1017 81 10000 3.6 160 01:39 14.03.2020
1067 Clouds 7 1018 70 10000 3.6 210 00:23 14.03.2020
1068 Clouds 7 1019 70 10000 3.1 210 23:42 13.03.2020
1069 Clouds 7 1019 70 10000 3.1 210 23:22 13.03.2020
1070 Clouds 6 1019 70 10000 2.1 210 22:41 13.03.2020
1071 Clouds 7 1019 70 10000 2.6 230 22:21 13.03.2020
1072 Clouds 7 1019 80 10000 4.1 200 21:40 13.03.2020
1073 Clouds 7 1019 75 10000 4.6 210 21:18 13.03.2020
1074 Clouds 7 1019 61 10000 4.6 230 20:42 13.03.2020
1075 Rain 7 1019 75 10000 3.6 210 20:22 13.03.2020
1076 Clouds 8 1019 75 10000 3.6 220 19:57 13.03.2020
1077 Clouds 8 1019 75 10000 3.6 220 19:39 13.03.2020
1078 Clouds 8 1019 65 10000 3.1 210 19:18 13.03.2020
1079 Rain 10 1018 50 10000 2.1 250 18:40 13.03.2020
1080 Rain 10 1018 50 10000 3.6 250 18:22 13.03.2020
1081 Rain 11 1019 50 10000 4.1 280 17:42 13.03.2020
1082 Rain 11 1019 50 10000 4.1 280 17:21 13.03.2020
1083 Rain 11 1019 53 10000 5.7 280 16:57 13.03.2020
1084 Rain 11 1019 53 10000 5.7 280 16:38 13.03.2020
1085 Clouds 11 1019 53 10000 3.1 280 16:20 13.03.2020
1086 Clouds 11 1019 57 10000 4.1 270 15:45 13.03.2020
1087 Clouds 11 1019 57 10000 5.1 280 15:23 13.03.2020
1088 Clouds 11 1019 57 10000 5.1 280 14:59 13.03.2020
1089 Clouds 11 1019 57 10000 4.6 270 14:40 13.03.2020
1090 Clouds 11 1019 61 10000 4.6 290 14:21 13.03.2020
1091 Clouds 10 1019 61 10000 5.7 290 13:43 13.03.2020
1092 Clouds 10 1019 61 10000 6.7 270 13:24 13.03.2020
1093 Clouds 10 1019 61 10000 6.7 270 12:59 13.03.2020
1094 Clouds 10 1019 61 10000 6.2 260 12:38 13.03.2020
1095 Clouds 10 1019 61 10000 6.7 270 12:20 13.03.2020
1096 Clouds 10 1018 61 10000 6.2 260 11:56 13.03.2020
1097 Clouds 9 1018 61 10000 6.2 260 11:37 13.03.2020
1098 Clouds 9 1018 66 10000 5.7 260 11:19 13.03.2020
1099 Clouds 9 1018 66 10000 6.7 270 10:47 13.03.2020
1100 Clouds 9 1017 70 10000 8.2 270 10:26 13.03.2020
1101 Clear 8 1017 61 10000 7.7 260 09:56 13.03.2020
1102 Clear 8 1017 61 10000 7.7 260 09:38 13.03.2020
1103 Clear 7 1017 65 10000 6.7 250 09:18 13.03.2020
1104 Clear 7 1016 65 10000 6.7 250 08:41 13.03.2020
1105 Clear 6 1016 70 10000 6.2 260 08:22 13.03.2020
1106 Clear 6 1015 70 10000 7.2 260 07:45 13.03.2020
1107 Clear 6 1015 75 10000 4.1 260 07:27 13.03.2020
1108 Clouds 6 1015 70 10000 6.7 260 06:46 13.03.2020
1109 Clear 6 1014 70 10000 5.1 260 06:24 13.03.2020
1110 Clouds 6 1015 70 10000 6.7 260 05:46 13.03.2020
1111 Clouds 6 1014 65 10000 7.2 250 05:19 13.03.2020
1112 Clouds 6 1014 70 10000 5.7 250 04:35 13.03.2020
1113 Clear 6 1013 70 10000 6.7 250 02:58 13.03.2020
1114 Clouds 6 1012 75 10000 7.2 250 01:43 13.03.2020
1115 Clouds 6 1012 70 10000 8.2 250 01:18 13.03.2020
1116 Clouds 6 1012 70 10000 8.2 250 00:46 13.03.2020
1117 Clouds 6 1012 70 10000 7.2 260 00:20 13.03.2020
1118 Clouds 6 1012 65 10000 7.2 250 23:47 12.03.2020
1119 Clouds 6 1012 61 10000 7.2 240 23:26 12.03.2020
1120 Clouds 6 1012 60 10000 7.2 240 22:55 12.03.2020
1121 Clouds 6 1012 65 10000 7.7 250 22:37 12.03.2020
1122 Clouds 6 1011 60 10000 6.7 230 22:19 12.03.2020
1123 Clouds 6 1011 60 10000 7.2 240 21:42 12.03.2020
1124 Clouds 7 1010 65 10000 9.3 250 21:24 12.03.2020
1125 Clouds 7 1010 65 10000 8.7 250 20:56 12.03.2020
1126 Clouds 7 1010 61 10000 9.3 250 20:37 12.03.2020
1127 Clouds 7 1010 65 10000 6.7 240 20:18 12.03.2020
1128 Clouds 7 1010 65 10000 8.2 250 19:39 12.03.2020
1129 Clouds 7 1010 61 10000 7.7 240 19:20 12.03.2020
1130 Clouds 7 1010 61 10000 7.7 240 19:20 12.03.2020
1131 Clouds 7 1010 61 10000 8.2 240 18:43 12.03.2020
1132 Clouds 7 1010 57 10000 9.3 240 18:24 12.03.2020
1133 Clouds 8 1010 57 10000 7.2 250 17:57 12.03.2020
1134 Clouds 8 1010 57 10000 7.2 250 17:37 12.03.2020
1135 Rain 8 1010 57 10000 7.7 240 17:18 12.03.2020
1136 Clouds 8 1009 53 10000 8.2 240 16:54 12.03.2020
1137 Clouds 9 1009 53 10000 8.2 240 16:36 12.03.2020
1138 Rain 9 1010 38 10000 9.8 250 16:18 12.03.2020
1139 Rain 9 1010 38 10000 8.2 250 15:43 12.03.2020
1140 Rain 10 1010 53 10000 7.7 250 15:24 12.03.2020
1141 Rain 10 1010 57 10000 8.2 250 14:39 12.03.2020
1142 Rain 9 1011 65 10000 9.8 280 14:19 12.03.2020
1143 Rain 9 1011 70 10000 7.2 240 13:41 12.03.2020
1144 Clouds 9 1010 46 10000 7.7 260 13:22 12.03.2020
1145 Clouds 9 1011 46 10000 8.2 260 12:56 12.03.2020
1146 Clouds 8 1011 46 10000 8.2 260 12:38 12.03.2020
1147 Rain 8 1011 65 10000 7.7 270 12:20 12.03.2020
1148 Clouds 8 1010 57 10000 9.8 290 11:56 12.03.2020
1149 Clouds 8 1010 57 10000 9.8 290 11:38 12.03.2020
1150 Clouds 8 1010 57 10000 9.3 250 11:19 12.03.2020
1151 Clouds 8 1010 57 10000 8.7 250 10:58 12.03.2020
1152 Clouds 8 1010 57 10000 8.7 250 10:40 12.03.2020
1153 Clouds 8 1010 51 10000 8.7 240 10:22 12.03.2020
1154 Clouds 7 1010 51 10000 6.7 240 09:46 12.03.2020
1155 Clouds 6 1010 51 10000 6.7 240 09:25 12.03.2020
1156 Clouds 5 1010 51 10000 5.7 240 08:44 12.03.2020
1157 Clouds 5 1010 43 10000 4.6 240 08:20 12.03.2020
1158 Clouds 4 1010 43 10000 4.6 240 07:56 12.03.2020
1159 Clouds 4 1010 43 10000 5.1 240 07:38 12.03.2020
1160 Clouds 4 1009 60 10000 7.2 250 07:20 12.03.2020
1161 Clouds 5 1008 43 10000 9.8 260 05:51 12.03.2020
1162 Clouds 6 1008 56 10000 8.7 260 05:25 12.03.2020
1163 Rain 8 1005 66 10000 10.8 270 02:41 12.03.2020
1164 Rain 9 1004 71 10000 9.8 250 01:36 12.03.2020
1165 Rain 9 1003 71 10000 8.2 240 01:18 12.03.2020
1166 Clouds 10 1004 71 10000 8.7 230 00:40 12.03.2020
1167 Clouds 10 1003 71 10000 9.8 240 23:51 11.03.2020
1168 Rain 10 1004 87 10000 8.7 240 23:26 11.03.2020
1169 Rain 10 1004 76 10000 9.8 240 22:55 11.03.2020
1170 Rain 10 1004 76 10000 9.8 240 22:37 11.03.2020
1171 Rain 10 1004 76 10000 9.8 240 22:37 11.03.2020
1172 Rain 10 1005 81 10000 8.7 220 22:18 11.03.2020
1173 Clouds 11 1004 71 10000 8.2 230 21:41 11.03.2020
1174 Clouds 11 1005 71 10000 9.3 230 21:23 11.03.2020
1175 Clouds 11 1005 71 10000 9.3 230 20:59 11.03.2020
1176 Clouds 11 1006 71 10000 9.3 240 20:40 11.03.2020
1177 Rain 11 1006 76 10000 7.7 230 20:20 11.03.2020
1178 Rain 11 1006 76 10000 7.7 230 19:58 11.03.2020
1179 Clouds 11 1007 87 10000 9.3 220 19:39 11.03.2020
1180 Clouds 11 1006 71 10000 8.7 230 19:21 11.03.2020
1181 Clouds 11 1007 81 10000 7.7 220 18:44 11.03.2020
1182 Clouds 12 1007 62 10000 6.7 230 18:25 11.03.2020
1183 Clouds 12 1007 66 10000 7.7 210 17:59 11.03.2020
1184 Clouds 13 1007 58 10000 9.3 230 17:40 11.03.2020
1185 Clouds 13 1008 62 10000 8.2 240 17:21 11.03.2020
1186 Clouds 13 1008 62 10000 8.2 230 16:55 11.03.2020
1187 Clouds 13 1008 62 10000 8.2 230 16:37 11.03.2020
1188 Clouds 13 1008 62 10000 8.7 250 16:19 11.03.2020
1189 Clouds 14 1009 62 10000 7.7 230 15:42 11.03.2020
1190 Clouds 14 1009 58 10000 6.2 240 15:22 11.03.2020
1191 Clouds 14 1009 62 10000 5.7 250 14:44 11.03.2020
1192 Clouds 14 1010 62 10000 5.1 240 14:23 11.03.2020
1193 Clouds 13 1011 62 10000 7.7 250 13:58 11.03.2020
1194 Clouds 13 1011 62 10000 7.7 250 13:39 11.03.2020
1195 Clouds 13 1011 62 10000 6.7 230 13:21 11.03.2020
1196 Clouds 12 1011 71 10000 4.1 240 12:41 11.03.2020
1197 Clouds 12 1011 76 10000 6.2 260 12:21 11.03.2020
1198 Clouds 12 1011 81 10000 4.6 250 11:57 11.03.2020
1199 Clouds 11 1011 81 10000 4.6 250 11:39 11.03.2020
1200 Clouds 11 1012 81 10000 4.6 250 11:19 11.03.2020
1201 Clouds 11 1012 76 10000 5.1 250 10:46 11.03.2020
1202 Clouds 10 1011 81 10000 5.1 240 10:20 11.03.2020
1203 Clouds 10 1011 81 10000 5.1 240 09:55 11.03.2020
1204 Clouds 9 1011 81 10000 5.1 240 09:36 11.03.2020
1205 Clouds 9 1011 87 10000 4.1 240 09:18 11.03.2020
1206 Clouds 8 1011 81 10000 4.1 240 08:42 11.03.2020
1207 Clouds 8 1011 81 10000 4.1 240 08:42 11.03.2020
1208 Clouds 8 1011 81 10000 4.1 240 08:23 11.03.2020
1209 Clouds 8 1010 81 10000 3.6 240 07:47 11.03.2020
1210 Clouds 8 1010 81 10000 3.1 240 07:20 11.03.2020
1211 Clouds 9 1010 81 10000 2.6 240 06:49 11.03.2020
1212 Clouds 9 1010 81 10000 2.6 240 06:30 11.03.2020
1213 Clouds 9 1010 81 10000 4.6 250 05:32 11.03.2020
1214 Rain 10 1009 87 10000 4.1 290 02:45 11.03.2020
1215 Rain 10 1008 87 6000 4.6 250 01:52 11.03.2020
1216 Rain 10 1008 87 9000 5.7 250 01:23 11.03.2020
1217 Clouds 10 1008 87 10000 5.1 250 00:37 11.03.2020
1218 Rain 10 1008 87 10000 5.7 250 23:50 10.03.2020
1219 Rain 10 1008 81 10000 7.2 260 23:28 10.03.2020
1220 Clouds 11 1007 81 10000 7.2 260 22:58 10.03.2020
1221 Clouds 11 1007 81 10000 7.2 260 22:37 10.03.2020
1222 Clouds 11 1007 100 10000 5.7 230 22:19 10.03.2020
1223 Rain 11 1007 87 10000 6.2 250 21:56 10.03.2020
1224 Rain 11 1007 87 10000 6.2 250 21:38 10.03.2020
1225 Rain 12 1006 87 10000 6.2 240 21:18 10.03.2020
1226 Rain 12 1006 93 10000 5.7 250 20:43 10.03.2020
1227 Rain 12 1006 82 10000 6.2 260 20:21 10.03.2020
1228 Rain 12 1006 82 10000 6.2 260 19:59 10.03.2020
1229 Rain 13 1005 82 9000 8.2 240 19:41 10.03.2020
1230 Clouds 13 1005 72 10000 8.2 250 19:23 10.03.2020
1231 Clouds 13 1005 72 10000 8.2 250 18:58 10.03.2020
1232 Clouds 13 1006 93 10000 8.2 220 18:40 10.03.2020
1233 Clouds 14 1004 67 10000 8.2 250 18:21 10.03.2020
1234 Clouds 14 1004 67 10000 8.7 250 17:56 10.03.2020
1235 Clouds 14 1004 67 10000 8.7 250 17:37 10.03.2020
1236 Clouds 14 1004 67 10000 9.8 260 17:18 10.03.2020
1237 Clouds 14 1004 72 10000 10.8 260 16:38 10.03.2020
1238 Clouds 14 1003 72 10000 9.3 250 16:18 10.03.2020
1239 Clouds 14 1003 77 10000 10.3 250 15:43 10.03.2020
1240 Rain 14 1003 72 10000 10.3 250 15:20 10.03.2020
1241 Rain 14 1003 72 10000 10.3 250 14:59 10.03.2020
1242 Clouds 14 1003 82 10000 6.7 250 14:40 10.03.2020
1243 Clouds 14 1003 82 10000 7.2 250 14:19 10.03.2020
1244 Clouds 14 1004 82 10000 8.2 240 13:45 10.03.2020
1245 Clouds 14 1004 82 10000 8.2 240 13:26 10.03.2020
1246 Clouds 14 1004 82 10000 7.2 240 12:57 10.03.2020
1247 Clouds 13 1004 82 10000 7.2 240 12:37 10.03.2020
1248 Clouds 13 1004 82 10000 7.2 240 12:37 10.03.2020
1249 Clouds 13 1004 82 10000 6.7 240 12:18 10.03.2020
1250 Clouds 13 1004 82 10000 8.7 250 11:42 10.03.2020
1251 Clouds 13 1003 82 10000 8.2 250 11:24 10.03.2020
1252 Clouds 13 1004 82 10000 7.7 240 10:58 10.03.2020
1253 Clouds 12 1004 82 10000 7.7 240 10:40 10.03.2020
1254 Clouds 12 1003 87 10000 7.2 250 10:21 10.03.2020
1255 Clouds 12 1004 87 10000 7.2 250 09:56 10.03.2020
1256 Clouds 12 1004 87 10000 7.2 250 09:37 10.03.2020
1257 Clouds 12 1004 87 10000 7.2 250 09:18 10.03.2020
1258 Clouds 12 1003 87 10000 7.7 250 08:43 10.03.2020
1259 Clouds 11 1004 93 10000 6.7 230 08:25 10.03.2020
1260 Clouds 11 1004 100 10000 6.7 230 07:46 10.03.2020
1261 Clouds 11 1004 100 10000 6.7 230 07:28 10.03.2020
1262 Clouds 11 1004 87 10000 7.2 240 06:42 10.03.2020
1263 Rain 11 1003 87 10000 7.2 250 06:23 10.03.2020
1264 Clouds 11 1003 87 10000 7.7 250 05:39 10.03.2020
1265 Rain 11 1003 87 10000 8.7 250 04:35 10.03.2020
1266 Rain 11 1004 93 10000 7.2 240 03:35 10.03.2020
1267 Rain 10 1004 87 10000 7.2 240 02:18 10.03.2020
1268 Rain 10 1004 93 7000 8.2 240 01:20 10.03.2020
1269 Rain 10 1004 87 10000 8.2 240 00:41 10.03.2020
1270 Rain 10 1005 93 10000 6.2 230 00:22 10.03.2020
1271 Rain 9 1005 87 10000 7.2 230 23:40 09.03.2020
1272 Rain 9 1006 87 10000 7.2 220 23:21 09.03.2020
1273 Rain 8 1006 93 10000 6.7 220 22:41 09.03.2020
1274 Rain 8 1007 87 8000 7.2 220 22:22 09.03.2020
1275 Rain 8 1007 87 8000 7.2 220 21:57 09.03.2020
1276 Rain 8 1008 87 10000 7.2 220 21:39 09.03.2020
1277 Rain 8 1009 87 10000 5.7 210 21:20 09.03.2020
1278 Rain 7 1010 87 10000 6.2 200 20:56 09.03.2020
1279 Rain 7 1010 87 10000 6.2 200 20:37 09.03.2020
1280 Rain 7 1011 87 10000 5.1 210 20:19 09.03.2020
1281 Rain 7 1011 87 10000 4.6 200 19:44 09.03.2020
1282 Rain 6 1012 87 10000 4.1 210 19:25 09.03.2020
1283 Rain 6 1013 75 9000 5.1 240 18:58 09.03.2020
1284 Rain 6 1013 75 9000 5.1 240 18:38 09.03.2020
1285 Rain 7 1013 66 10000 8.2 250 18:19 09.03.2020
1286 Rain 8 1014 65 10000 5.1 240 17:57 09.03.2020
1287 Clouds 8 1014 65 10000 5.1 240 17:38 09.03.2020
1288 Clouds 9 1013 53 10000 5.1 250 17:20 09.03.2020
1289 Clouds 9 1013 53 10000 7.7 250 16:58 09.03.2020
1290 Clouds 10 1013 53 10000 7.7 250 16:39 09.03.2020
1291 Clouds 10 1013 57 10000 7.2 250 16:20 09.03.2020
1292 Clouds 10 1013 57 10000 7.2 250 15:58 09.03.2020
1293 Clouds 10 1013 57 10000 5.7 240 15:38 09.03.2020
1294 Clouds 10 1013 57 10000 5.7 240 15:19 09.03.2020
1295 Clouds 11 1014 57 10000 5.1 240 14:55 09.03.2020
1296 Clouds 11 1014 61 10000 6.2 250 14:36 09.03.2020
1297 Clouds 11 1014 61 10000 6.2 250 14:18 09.03.2020
1298 Clouds 10 1014 61 10000 5.7 260 13:54 09.03.2020
1299 Clouds 10 1014 61 10000 5.7 250 13:36 09.03.2020
1300 Clouds 10 1014 61 10000 5.7 250 13:18 09.03.2020
1301 Clouds 10 1014 61 10000 5.7 250 13:18 09.03.2020
1302 Clouds 10 1014 66 10000 6.7 250 12:41 09.03.2020
1303 Clouds 10 1014 61 10000 6.7 260 12:21 09.03.2020
1304 Clouds 9 1014 66 10000 6.2 250 11:41 09.03.2020
1305 Clouds 9 1014 70 10000 6.2 260 11:22 09.03.2020
1306 Clouds 9 1013 66 10000 6.2 260 10:59 09.03.2020
1307 Clouds 8 1013 70 10000 6.7 250 10:40 09.03.2020
1308 Clouds 8 1013 70 10000 6.7 250 10:40 09.03.2020
1309 Clouds 8 1013 70 10000 6.7 250 10:20 09.03.2020
1310 Clouds 8 1013 70 10000 5.7 250 09:59 09.03.2020
1311 Clouds 7 1012 75 10000 5.7 250 09:37 09.03.2020
1312 Clouds 6 1012 75 10000 5.7 250 09:19 09.03.2020
1313 Clouds 5 1011 81 10000 5.1 250 08:43 09.03.2020
1314 Clouds 5 1011 81 10000 5.1 250 08:25 09.03.2020
1315 Clouds 5 1011 81 10000 5.7 250 07:41 09.03.2020
1316 Clouds 5 1010 81 10000 5.1 250 07:22 09.03.2020
1317 Clouds 5 1010 81 10000 5.1 250 06:46 09.03.2020
1318 Clouds 5 1010 81 10000 4.6 240 06:26 09.03.2020
1319 Clouds 5 1009 81 10000 5.1 250 05:57 09.03.2020
1320 Clouds 5 1009 81 10000 4.6 240 05:39 09.03.2020
1321 Clear 5 1009 81 10000 5.7 250 04:43 09.03.2020
1322 Clear 5 1009 81 10000 5.1 250 04:22 09.03.2020
1323 Clear 5 1008 86 10000 5.1 260 03:21 09.03.2020
1324 Clear 5 1007 81 10000 5.1 250 01:50 09.03.2020
1325 Clouds 6 1007 87 10000 4.1 250 00:39 09.03.2020
1326 Clouds 6 1007 87 10000 4.1 250 00:21 09.03.2020
1327 Clouds 6 1007 81 10000 5.7 240 23:52 08.03.2020
1328 Clouds 6 1007 81 10000 5.1 250 23:25 08.03.2020
1329 Rain 6 1007 81 10000 6.2 240 22:58 08.03.2020
1330 Clouds 7 1007 93 10000 5.1 220 22:39 08.03.2020
1331 Clouds 7 1007 93 10000 5.1 220 22:20 08.03.2020
1332 Clouds 7 1006 93 10000 4.6 220 21:57 08.03.2020
1333 Clouds 7 1006 87 10000 5.1 220 21:38 08.03.2020
1334 Clouds 7 1006 87 10000 5.1 220 21:19 08.03.2020
1335 Clouds 7 1006 76 10000 4.6 240 20:40 08.03.2020
1336 Clouds 7 1006 76 10000 4.6 240 20:21 08.03.2020
1337 Clouds 7 1006 76 10000 4.6 240 20:21 08.03.2020
1338 Clouds 8 1005 65 10000 5.7 240 19:57 08.03.2020
1339 Clouds 8 1006 87 10000 4.6 220 19:37 08.03.2020
1340 Rain 8 1006 87 10000 4.6 220 19:19 08.03.2020
1341 Rain 9 1005 71 10000 4.6 240 18:42 08.03.2020
1342 Rain 9 1005 71 10000 4.6 240 18:24 08.03.2020
1343 Rain 10 1005 71 10000 4.6 250 17:57 08.03.2020
1344 Rain 10 1004 76 10000 4.1 250 17:38 08.03.2020
1345 Clouds 10 1004 76 10000 4.1 250 17:19 08.03.2020
1346 Clouds 10 1004 76 10000 4.1 250 16:47 08.03.2020
1347 Clouds 10 1004 76 10000 4.1 250 16:28 08.03.2020
1348 Rain 10 1005 76 10000 6.2 250 15:58 08.03.2020
1349 Rain 10 1004 71 10000 9.3 220 15:40 08.03.2020
1350 Clouds 10 1004 93 10000 5.1 280 15:21 08.03.2020
1351 Rain 10 1005 81 9000 7.2 230 14:55 08.03.2020
1352 Rain 10 1004 58 10000 5.7 240 14:37 08.03.2020
1353 Rain 10 1004 58 10000 5.7 240 14:18 08.03.2020
1354 Clouds 11 1005 54 10000 7.7 240 13:40 08.03.2020
1355 Clouds 12 1005 58 10000 7.2 240 13:20 08.03.2020
1356 Clouds 12 1005 58 10000 6.2 250 12:43 08.03.2020
1357 Clouds 12 1005 58 10000 6.2 250 12:25 08.03.2020
1358 Clouds 11 1005 62 10000 7.2 240 11:57 08.03.2020
1359 Rain 11 1005 62 10000 8.2 250 11:39 08.03.2020
1360 Rain 11 1005 62 10000 8.2 250 11:39 08.03.2020
1361 Rain 11 1005 62 10000 8.2 250 11:21 08.03.2020
1362 Clouds 11 1005 66 10000 8.2 240 10:42 08.03.2020
1363 Clouds 10 1005 66 10000 8.2 240 10:23 08.03.2020
1364 Clouds 10 1005 76 10000 7.7 240 09:58 08.03.2020
1365 Rain 10 1005 76 10000 6.2 240 09:37 08.03.2020
1366 Clouds 10 1005 76 10000 6.7 230 09:18 08.03.2020
1367 Clouds 9 1005 81 10000 6.2 240 08:41 08.03.2020
1368 Clouds 9 1004 87 10000 6.2 240 08:20 08.03.2020
1369 Clouds 9 1005 81 10000 6.2 220 07:45 08.03.2020
1370 Rain 9 1003 93 10000 10.3 220 07:25 08.03.2020
1371 Rain 9 1004 87 10000 7.7 220 06:43 08.03.2020
1372 Rain 9 1004 87 10000 7.7 220 06:23 08.03.2020
1373 Rain 9 1005 87 10000 8.2 210 05:39 08.03.2020
1374 Clouds 10 1007 76 10000 8.7 220 03:52 08.03.2020
1375 Clouds 10 1009 71 10000 7.2 220 02:38 08.03.2020
1376 Clouds 10 1009 71 10000 6.7 220 01:34 08.03.2020
1377 Clouds 10 1010 71 10000 6.2 220 00:55 08.03.2020
1378 Clouds 10 1011 76 10000 6.7 220 00:28 08.03.2020
1379 Clouds 10 1012 76 10000 7.7 240 23:47 07.03.2020
1380 Clouds 10 1011 81 10000 7.7 230 23:24 07.03.2020
1381 Clouds 10 1012 76 10000 8.7 220 22:56 07.03.2020
1382 Clouds 10 1012 81 10000 8.7 240 22:37 07.03.2020
1383 Clouds 10 1012 81 10000 8.7 240 22:19 07.03.2020
1384 Clouds 10 1012 81 10000 8.2 230 21:43 07.03.2020
1385 Clouds 10 1013 76 10000 4.6 210 21:19 07.03.2020
1386 Clouds 10 1013 76 10000 5.7 220 20:41 07.03.2020
1387 Clouds 10 1013 76 10000 5.7 220 20:21 07.03.2020
1388 Clouds 10 1014 87 10000 7.7 210 19:42 07.03.2020
1389 Clouds 11 1013 71 10000 6.2 230 19:23 07.03.2020
1390 Clouds 11 1014 71 10000 5.7 230 18:59 07.03.2020
1391 Clouds 11 1014 81 10000 7.2 210 18:39 07.03.2020
1392 Clouds 11 1014 81 10000 7.2 210 18:20 07.03.2020
1393 Clouds 12 1014 71 10000 5.1 230 17:42 07.03.2020
1394 Clouds 12 1014 71 10000 4.6 210 17:20 07.03.2020
1395 Clouds 12 1014 71 10000 5.1 220 16:56 07.03.2020
1396 Clouds 12 1014 71 10000 5.1 220 16:38 07.03.2020
1397 Clouds 12 1015 71 10000 5.7 240 16:20 07.03.2020
1398 Clouds 12 1015 71 10000 5.1 230 15:55 07.03.2020
1399 Clouds 12 1015 71 10000 5.7 240 15:36 07.03.2020
1400 Clouds 12 1015 71 10000 5.7 240 15:18 07.03.2020
1401 Clouds 12 1015 71 10000 5.7 240 14:41 07.03.2020
1402 Clouds 11 1015 76 10000 5.7 240 14:23 07.03.2020
1403 Clouds 11 1016 76 10000 6.2 230 13:43 07.03.2020
1404 Clouds 10 1016 71 10000 5.7 240 13:22 07.03.2020
1405 Clouds 10 1017 76 10000 5.1 240 12:59 07.03.2020
1406 Clouds 10 1017 76 10000 5.1 240 12:39 07.03.2020
1407 Clouds 9 1017 76 10000 5.7 240 12:19 07.03.2020
1408 Clouds 9 1016 81 10000 5.1 240 11:55 07.03.2020
1409 Clouds 8 1016 70 10000 5.7 240 11:36 07.03.2020
1410 Clouds 7 1016 70 10000 5.7 240 11:18 07.03.2020
1411 Clouds 6 1017 75 10000 5.7 250 10:39 07.03.2020
1412 Clouds 6 1017 75 10000 5.7 250 10:19 07.03.2020
1413 Clouds 5 1017 81 10000 3.1 230 09:41 07.03.2020
1414 Clouds 4 1017 81 10000 2.1 230 09:20 07.03.2020
1415 Clouds 4 1016 80 10000 3.1 230 08:59 07.03.2020
1416 Clouds 4 1016 80 10000 3.1 230 08:41 07.03.2020
1417 Clouds 3 1016 80 10000 3.1 230 08:20 07.03.2020
1418 Clouds 3 1017 93 10000 2.6 210 07:48 07.03.2020
1419 Clouds 2 1016 86 10000 3.6 230 07:22 07.03.2020
1420 Clouds 2 1016 90 0 2.14 238 06:54 07.03.2020
1421 Clouds 2 1016 89 0 2.24 222 06:29 07.03.2020
1422 Clouds 2 1016 89 0 2.24 222 06:29 07.03.2020
1423 Clouds 2 1016 86 10000 3.1 230 05:46 07.03.2020
1424 Clear 1 1015 80 10000 3.1 240 04:34 07.03.2020
1425 Clear 1 1015 79 9000 2.6 280 02:46 07.03.2020
1426 Clear 2 1015 75 10000 2.6 230 02:24 07.03.2020
1427 Clear 2 1014 75 10000 2.6 230 01:23 07.03.2020
1428 Clear 2 1014 79 10000 2.6 230 00:38 07.03.2020
1429 Clear 2 1014 79 10000 2.6 230 00:19 07.03.2020
1430 Clear 2 1013 79 10000 2.6 230 23:43 06.03.2020
1431 Clear 2 1013 64 10000 2.6 230 23:25 06.03.2020
1432 Clear 2 1013 64 10000 2.1 230 22:47 06.03.2020
1433 Clear 2 1012 65 10000 0.5 0 22:21 06.03.2020
1434 Clear 3 1012 64 10000 1 270 21:54 06.03.2020
1435 Clear 3 1011 64 10000 1.5 0 21:36 06.03.2020
1436 Clear 3 1011 64 10000 1.5 0 21:18 06.03.2020
1437 Clear 4 1011 60 10000 1.5 290 20:37 06.03.2020
1438 Clear 4 1011 60 10000 1.5 290 20:19 06.03.2020
1439 Clear 5 1010 56 10000 1 0 19:44 06.03.2020
1440 Clear 6 1009 52 10000 2.6 310 19:26 06.03.2020
1441 Clouds 7 1009 52 10000 2.6 300 18:44 06.03.2020
1442 Clear 8 1008 45 10000 4.6 300 18:21 06.03.2020
1443 Clear 8 1008 45 10000 5.1 290 17:59 06.03.2020
1444 Clear 8 1008 45 10000 5.1 290 17:41 06.03.2020
1445 Clear 9 1007 43 10000 4.6 310 17:22 06.03.2020
1446 Clear 9 1007 49 10000 4.1 310 16:58 06.03.2020
1447 Clear 9 1007 49 10000 4.1 310 16:40 06.03.2020
1448 Clear 9 1007 49 10000 4.1 310 16:19 06.03.2020
1449 Clouds 9 1007 49 10000 4.1 290 15:44 06.03.2020
1450 Clouds 9 1006 45 10000 5.7 300 15:24 06.03.2020
1451 Clouds 9 1006 49 10000 5.1 290 14:45 06.03.2020
1452 Clouds 9 1006 49 10000 5.1 300 14:25 06.03.2020
1453 Clouds 8 1005 52 10000 4.1 290 13:59 06.03.2020
1454 Clouds 8 1005 52 10000 4.1 290 13:41 06.03.2020
1455 Clouds 8 1005 49 10000 4.1 300 13:21 06.03.2020
1456 Clouds 8 1005 61 10000 3.1 300 12:56 06.03.2020
1457 Clouds 7 1004 65 10000 3.6 290 12:37 06.03.2020
1458 Clouds 7 1004 65 10000 3.6 290 12:18 06.03.2020
1459 Clouds 7 1004 65 10000 3.1 330 11:56 06.03.2020
1460 Clouds 7 1004 75 10000 3.1 290 11:38 06.03.2020
1461 Clouds 6 1004 75 10000 3.1 290 11:19 06.03.2020
1462 Clouds 5 1003 80 10000 2.6 280 10:38 06.03.2020
1463 Clouds 4 1003 80 10000 2.6 280 10:20 06.03.2020
1464 Clouds 4 1002 80 10000 3.1 290 09:54 06.03.2020
1465 Clouds 3 1002 86 10000 2.6 300 09:36 06.03.2020
1466 Clouds 3 1002 86 10000 2.6 300 09:18 06.03.2020
1467 Clouds 2 1001 80 10000 2.6 300 08:42 06.03.2020
1468 Clouds 2 1001 80 10000 2.6 300 08:42 06.03.2020
1469 Clouds 2 1001 80 10000 3.6 290 08:24 06.03.2020
1470 Clouds 2 1001 80 10000 3.1 290 07:47 06.03.2020
1471 Clouds 2 1000 80 10000 3.1 290 07:26 06.03.2020
1472 Clouds 2 1000 80 10000 2.6 300 06:56 06.03.2020
1473 Clouds 3 999 86 10000 3.6 300 06:38 06.03.2020
1474 Clouds 3 999 86 10000 3.1 300 05:42 06.03.2020
1475 Clouds 3 998 86 10000 3.1 300 05:22 06.03.2020
1476 Clouds 3 998 86 10000 3.1 300 04:57 06.03.2020
1477 Clouds 4 998 86 10000 2.6 310 01:59 06.03.2020
1478 Clouds 4 998 86 10000 2.6 310 01:39 06.03.2020
1479 Clouds 4 997 86 10000 3.6 350 01:20 06.03.2020
1480 Clouds 4 997 86 10000 4.6 340 00:32 06.03.2020
1481 Rain 4 997 86 10000 3.1 320 23:56 05.03.2020
1482 Clouds 5 996 93 10000 4.6 350 23:38 05.03.2020
1483 Rain 5 996 93 10000 4.6 350 23:19 05.03.2020
1484 Rain 5 994 93 7000 6.7 340 22:40 05.03.2020
1485 Rain 5 994 93 7000 6.7 340 22:21 05.03.2020
1486 Rain 5 994 93 8000 6.7 340 21:57 05.03.2020
1487 Rain 5 995 93 10000 5.7 360 21:38 05.03.2020
1488 Rain 5 995 93 10000 5.7 360 21:20 05.03.2020
1489 Rain 5 995 93 10000 6.2 360 20:57 05.03.2020
1490 Rain 5 995 86 8000 4.6 350 20:39 05.03.2020
1491 Rain 5 994 93 10000 6.2 10 20:20 05.03.2020
1492 Rain 5 994 93 9000 6.7 10 19:58 05.03.2020
1493 Rain 5 992 93 4500 7.7 360 19:39 05.03.2020
1494 Rain 5 992 93 4500 7.7 360 19:19 05.03.2020
1495 Rain 5 992 87 10000 5.1 10 18:55 05.03.2020
1496 Rain 5 991 87 9000 5.1 360 18:36 05.03.2020
1497 Rain 5 991 87 9000 5.1 360 18:18 05.03.2020
1498 Rain 5 991 87 8000 4.1 10 17:42 05.03.2020
1499 Rain 5 991 87 8000 4.1 10 17:42 05.03.2020
1500 Rain 5 991 87 10000 7.2 20 17:22 05.03.2020
1501 Rain 5 991 93 9000 8.2 20 16:58 05.03.2020
1502 Rain 5 991 93 9000 8.2 20 16:40 05.03.2020
1503 Rain 6 991 93 9000 6.7 20 16:21 05.03.2020
1504 Rain 6 991 87 9000 5.1 20 15:45 05.03.2020
1505 Rain 6 990 93 10000 8.2 30 15:24 05.03.2020
1506 Rain 6 988 100 4000 8.2 20 14:59 05.03.2020
1507 Rain 6 990 87 6000 3.1 0 14:41 05.03.2020
1508 Rain 6 990 87 8000 3.6 0 14:21 05.03.2020
1509 Rain 6 990 87 10000 4.6 60 13:57 05.03.2020
1510 Rain 6 990 87 10000 4.6 60 13:38 05.03.2020
1511 Rain 6 991 87 8000 5.7 60 13:20 05.03.2020
1512 Rain 6 991 87 9000 5.1 60 12:42 05.03.2020
1513 Rain 6 992 87 7000 5.7 60 12:21 05.03.2020
1514 Rain 6 992 87 6000 6.2 60 11:57 05.03.2020
1515 Rain 6 991 100 1600 7.2 50 11:37 05.03.2020
1516 Rain 6 991 100 1600 7.2 50 11:37 05.03.2020
1517 Rain 6 991 100 1600 7.2 50 11:19 05.03.2020
1518 Rain 6 992 100 1600 6.7 50 10:58 05.03.2020
1519 Drizzle 6 992 100 1800 7.2 60 10:40 05.03.2020
1520 Drizzle 6 992 100 1800 7.2 60 10:21 05.03.2020
1521 Drizzle 6 993 100 1700 7.2 60 09:49 05.03.2020
1522 Drizzle 5 993 100 1600 5.7 50 09:28 05.03.2020
1523 Haze 5 995 93 5000 5.1 60 08:59 05.03.2020
1524 Haze 5 995 93 5000 5.1 60 08:41 05.03.2020
1525 Drizzle 5 995 93 4000 5.1 60 08:22 05.03.2020
1526 Clouds 5 996 93 10000 5.1 60 07:42 05.03.2020
1527 Clouds 5 996 93 10000 4.6 60 07:21 05.03.2020
1528 Clouds 5 997 93 10000 5.1 60 06:44 05.03.2020
1529 Rain 5 997 93 9000 5.1 60 06:20 05.03.2020
1530 Rain 5 998 93 7000 4.6 60 05:36 05.03.2020
1531 Clouds 5 999 93 7000 3.6 50 04:24 05.03.2020
1532 Clouds 5 1000 93 6000 3.6 60 03:58 05.03.2020
1533 Clouds 5 1001 93 9000 2.6 60 02:41 05.03.2020
1534 Rain 5 1001 93 10000 4.1 60 01:28 05.03.2020
1535 Clouds 5 1002 87 10000 2.6 60 00:56 05.03.2020
1536 Clouds 5 1002 93 10000 4.1 60 23:58 04.03.2020
1537 Clouds 5 1002 93 10000 4.1 60 23:58 04.03.2020
1538 Clouds 5 1003 93 10000 4.6 60 23:40 04.03.2020
1539 Clouds 5 1003 93 10000 4.6 60 23:21 04.03.2020
1540 Clouds 5 1003 93 10000 4.6 70 22:56 04.03.2020
1541 Rain 5 1003 93 7000 5.1 70 22:37 04.03.2020
1542 Rain 5 1003 93 7000 5.1 70 22:19 04.03.2020
1543 Rain 5 1003 93 7000 4.6 70 21:56 04.03.2020
1544 Rain 5 1003 93 7000 4.6 60 21:38 04.03.2020
1545 Rain 5 1003 93 7000 4.6 60 21:18 04.03.2020
1546 Rain 5 1004 93 9000 4.6 70 20:41 04.03.2020
1547 Rain 5 1004 93 10000 4.1 70 20:23 04.03.2020
1548 Rain 6 1004 93 10000 5.1 80 19:59 04.03.2020
1549 Rain 6 1004 93 10000 5.1 80 19:41 04.03.2020
1550 Rain 6 1005 93 10000 4.1 80 19:22 04.03.2020
1551 Rain 6 1005 93 10000 4.6 90 18:42 04.03.2020
1552 Rain 6 1005 87 10000 3.6 90 18:24 04.03.2020
1553 Rain 6 1005 81 10000 3.1 110 17:59 04.03.2020
1554 Rain 6 1005 81 10000 3.1 110 17:40 04.03.2020
1555 Rain 6 1005 87 8000 3.6 140 17:21 04.03.2020
1556 Rain 6 1005 93 6000 2.6 120 16:58 04.03.2020
1557 Rain 7 1005 87 6000 3.1 170 16:38 04.03.2020
1558 Rain 7 1006 75 10000 2.6 170 16:20 04.03.2020
1559 Rain 7 1006 87 10000 5.7 160 15:55 04.03.2020
1560 Rain 7 1006 81 10000 4.1 160 15:36 04.03.2020
1561 Rain 7 1006 66 10000 3.6 140 15:18 04.03.2020
1562 Clouds 8 1007 66 10000 3.6 160 14:41 04.03.2020
1563 Rain 8 1008 66 10000 3.1 130 14:21 04.03.2020
1564 Rain 8 1008 66 10000 3.6 200 13:59 04.03.2020
1565 Rain 8 1008 66 10000 3.6 200 13:39 04.03.2020
1566 Clouds 8 1008 61 10000 3.1 170 13:21 04.03.2020
1567 Clouds 8 1009 70 10000 2.6 170 12:56 04.03.2020
1568 Clouds 8 1009 70 10000 2.6 170 12:38 04.03.2020
1569 Clouds 8 1009 65 10000 1.5 0 12:20 04.03.2020
1570 Clouds 7 1009 75 10000 2.6 180 11:55 04.03.2020
1571 Clouds 6 1009 75 10000 2.6 210 11:37 04.03.2020
1572 Clouds 6 1009 75 10000 2.6 210 11:19 04.03.2020
1573 Clouds 5 1009 81 10000 2.1 0 10:41 04.03.2020
1574 Clouds 5 1010 81 10000 2.1 0 10:22 04.03.2020
1575 Clouds 4 1010 80 10000 1.5 0 09:55 04.03.2020
1576 Clouds 3 1010 80 10000 1.5 0 09:37 04.03.2020
1577 Clouds 3 1010 80 10000 2.1 220 09:18 04.03.2020
1578 Clouds 2 1009 93 10000 3.1 190 08:41 04.03.2020
1579 Clouds 2 1010 93 10000 3.1 190 08:23 04.03.2020
1580 Clouds 2 1009 93 10000 3.1 170 07:47 04.03.2020
1581 Clouds 2 1009 77 10000 0.5 160 07:28 04.03.2020
1582 Clouds 1 1010 93 10000 1.5 0 06:51 04.03.2020
1583 Clouds 1 1010 77 10000 1 110 06:26 04.03.2020
1584 Clouds 1 1010 86 10000 2.1 220 05:58 04.03.2020
1585 Clouds 1 1010 100 10000 0.5 190 05:21 04.03.2020
1586 Clouds 1 1010 100 10000 0.5 190 05:21 04.03.2020
1587 Clouds 1 1010 80 10000 3.6 230 03:54 04.03.2020
1588 Clouds 2 1010 73 10000 2.6 230 03:35 04.03.2020
1589 Clouds 2 1011 73 10000 3.1 230 02:58 04.03.2020
1590 Clouds 2 1010 86 10000 2.6 290 02:27 04.03.2020
1591 Clouds 2 1010 75 10000 3.6 230 01:56 04.03.2020
1592 Clouds 2 1010 70 10000 1.5 270 01:37 04.03.2020
1593 Clouds 2 1010 66 10000 3.1 270 00:42 04.03.2020
1594 Clouds 3 1010 66 10000 1.5 300 00:22 04.03.2020
1595 Clouds 3 1009 80 10000 2.6 250 23:43 03.03.2020
1596 Clouds 3 1009 74 10000 2.6 250 23:23 03.03.2020
1597 Clear 4 1009 67 10000 2.6 260 22:56 03.03.2020
1598 Clear 4 1008 67 10000 3.1 270 22:37 03.03.2020
1599 Clear 4 1008 70 10000 3.6 270 22:19 03.03.2020
1600 Clouds 4 1008 80 10000 3.1 250 21:55 03.03.2020
1601 Clouds 4 1008 86 10000 2.6 240 21:36 03.03.2020
1602 Clouds 5 1008 86 10000 2.6 240 21:18 03.03.2020
1603 Clear 5 1007 86 10000 2.1 250 20:40 03.03.2020
1604 Clouds 6 1007 86 10000 2.1 250 20:19 03.03.2020
1605 Clouds 6 1006 70 10000 3.6 270 19:56 03.03.2020
1606 Rain 6 1006 86 10000 2.1 270 19:37 03.03.2020
1607 Rain 7 1006 86 10000 2.1 270 19:19 03.03.2020
1608 Rain 7 1005 66 10000 4.6 290 18:57 03.03.2020
1609 Rain 8 1004 66 10000 7.7 280 18:39 03.03.2020
1610 Rain 8 1004 66 10000 7.7 280 18:19 03.03.2020
1611 Rain 8 1004 66 10000 7.7 280 18:19 03.03.2020
1612 Clouds 8 1004 61 10000 6.2 280 17:55 03.03.2020
1613 Rain 8 1003 61 10000 6.7 290 17:37 03.03.2020
1614 Rain 9 1003 61 10000 6.7 290 17:18 03.03.2020
1615 Rain 9 1003 61 10000 4.1 250 16:55 03.03.2020
1616 Rain 9 1003 66 10000 4.6 250 16:36 03.03.2020
1617 Rain 9 1003 66 10000 4.6 250 16:18 03.03.2020
1618 Clouds 8 1002 66 10000 4.6 260 15:43 03.03.2020
1619 Clouds 8 1002 66 10000 4.6 260 15:21 03.03.2020
1620 Clouds 8 1001 65 10000 5.7 250 14:55 03.03.2020
1621 Clouds 8 1001 65 10000 6.7 260 14:37 03.03.2020
1622 Clouds 8 1001 65 10000 6.7 260 14:18 03.03.2020
1623 Rain 8 1001 65 10000 6.2 250 13:42 03.03.2020
1624 Clouds 8 1001 61 10000 6.2 270 13:24 03.03.2020
1625 Clouds 8 1001 57 10000 6.7 260 12:55 03.03.2020
1626 Clouds 8 1000 61 10000 4.6 260 12:37 03.03.2020
1627 Clouds 8 1000 61 10000 4.6 260 12:19 03.03.2020
1628 Clouds 8 1000 65 10000 5.1 260 11:55 03.03.2020
1629 Clouds 7 1000 65 10000 5.1 250 11:37 03.03.2020
1630 Clouds 7 1000 65 10000 5.1 250 11:18 03.03.2020
1631 Clouds 6 1000 65 10000 3.6 240 10:54 03.03.2020
1632 Clouds 6 1000 75 10000 5.1 250 10:36 03.03.2020
1633 Clouds 5 1000 75 10000 5.1 250 10:18 03.03.2020
1634 Clouds 5 1000 75 10000 5.1 250 10:18 03.03.2020
1635 Clouds 5 1000 75 10000 5.1 250 10:18 03.03.2020
1636 Clouds 4 1000 75 10000 3.1 240 09:42 03.03.2020
1637 Clouds 3 999 80 10000 2.6 240 09:21 03.03.2020
1638 Clouds 2 999 80 10000 2.6 220 08:42 03.03.2020
1639 Clouds 2 999 86 10000 2.6 220 08:24 03.03.2020
1640 Clouds 2 999 72 10000 3.1 220 07:56 03.03.2020
1641 Clouds 2 999 72 10000 3.1 220 07:56 03.03.2020
1642 Clouds 1 999 72 10000 2.6 220 07:38 03.03.2020
1643 Clouds 2 999 72 10000 2.6 220 07:19 03.03.2020
1644 Clouds 2 999 80 10000 3.6 210 06:40 03.03.2020
1645 Clouds 2 999 80 10000 3.1 210 06:21 03.03.2020
1646 Clouds 2 999 80 10000 3.6 230 05:43 03.03.2020
1647 Clear 2 999 80 10000 4.6 240 04:56 03.03.2020
1648 Clear 2 998 80 10000 2.6 230 03:26 03.03.2020
1649 Clear 3 998 66 10000 4.6 250 01:35 03.03.2020
1650 Clouds 3 998 64 10000 3.1 240 00:46 03.03.2020
1651 Clouds 3 998 64 10000 4.6 240 00:24 03.03.2020
1652 Clouds 3 998 64 10000 4.1 250 23:51 02.03.2020
1653 Clouds 3 997 80 10000 4.6 240 23:23 02.03.2020
1654 Clouds 3 997 59 10000 4.1 260 22:58 02.03.2020
1655 Clouds 4 997 74 10000 4.6 250 22:39 02.03.2020
1656 Clouds 4 997 74 10000 4.6 250 22:20 02.03.2020
1657 Clouds 4 996 69 10000 3.6 250 21:58 02.03.2020
1658 Clouds 4 996 74 10000 4.1 250 21:39 02.03.2020
1659 Clouds 4 996 59 10000 5.1 250 21:20 02.03.2020
1660 Clouds 4 996 59 10000 3.1 250 20:56 02.03.2020
1661 Clouds 4 995 70 10000 1.5 0 20:38 02.03.2020
1662 Clouds 5 995 70 10000 1.5 0 20:19 02.03.2020
1663 Rain 5 995 70 10000 6.2 310 19:54 02.03.2020
1664 Rain 5 994 60 10000 4.1 260 19:36 02.03.2020
1665 Rain 6 994 60 10000 4.1 260 19:18 02.03.2020
1666 Clouds 6 994 56 10000 3.6 260 18:44 02.03.2020
1667 Clouds 7 993 45 10000 5.7 280 18:19 02.03.2020
1668 Clouds 7 993 45 10000 6.2 280 17:58 02.03.2020
1669 Clouds 8 992 45 10000 7.7 290 17:39 02.03.2020
1670 Clouds 8 992 45 10000 7.7 290 17:21 02.03.2020
1671 Clouds 9 992 49 10000 6.7 300 16:54 02.03.2020
1672 Clouds 9 991 49 10000 6.7 290 16:36 02.03.2020
1673 Clouds 9 991 49 10000 6.7 290 16:18 02.03.2020
1674 Clouds 9 990 53 10000 6.2 290 15:42 02.03.2020
1675 Clouds 9 990 53 10000 6.2 290 15:20 02.03.2020
1676 Clouds 9 990 57 10000 6.2 300 14:42 02.03.2020
1677 Clouds 8 990 57 10000 4.1 310 14:20 02.03.2020
1678 Clouds 8 990 65 10000 5.7 300 13:59 02.03.2020
1679 Clouds 8 990 65 10000 4.1 340 13:39 02.03.2020
1680 Clouds 8 990 65 10000 4.1 340 13:18 02.03.2020
1681 Clouds 7 989 70 10000 3.6 300 12:44 02.03.2020
1682 Clouds 7 989 75 10000 3.6 310 12:20 02.03.2020
1683 Clouds 6 988 81 10000 3.6 310 11:56 02.03.2020
1684 Clouds 6 988 86 10000 3.1 320 11:37 02.03.2020
1685 Rain 5 988 86 10000 3.1 320 11:18 02.03.2020
1686 Rain 5 987 93 10000 2.6 330 10:54 02.03.2020
1687 Drizzle 5 987 93 7000 2.6 320 10:36 02.03.2020
1688 Drizzle 5 987 93 7000 2.6 320 10:18 02.03.2020
1689 Mist 4 986 93 5000 2.6 310 09:42 02.03.2020
1690 Clouds 4 986 93 9000 2.1 340 09:24 02.03.2020
1691 Clouds 4 985 93 10000 2.6 350 08:47 02.03.2020
1692 Clouds 4 985 93 10000 1.5 0 08:22 02.03.2020
1693 Rain 4 985 93 10000 1.5 0 07:43 02.03.2020
1694 Rain 4 985 93 10000 1.5 0 07:20 02.03.2020
1695 Rain 4 985 93 10000 1 0 06:47 02.03.2020
1696 Rain 4 984 93 10000 2.1 0 05:55 02.03.2020
1697 Drizzle 4 985 93 4600 3.1 340 04:51 02.03.2020
1698 Rain 5 986 87 10000 1.5 0 03:23 02.03.2020
1699 Rain 5 986 87 10000 2.6 200 02:49 02.03.2020
1700 Rain 5 987 86 10000 3.1 200 01:54 02.03.2020
1701 Clouds 5 987 93 10000 1.5 210 01:33 02.03.2020
1702 Rain 5 987 93 10000 2.1 180 00:24 02.03.2020
1703 Rain 5 987 93 10000 2.1 180 00:24 02.03.2020
1704 Rain 4 989 81 10000 3.6 200 23:59 01.03.2020
1705 Rain 4 989 81 10000 3.1 200 23:41 01.03.2020
1706 Clear 4 989 81 10000 3.1 200 23:21 01.03.2020
1707 Clear 4 989 75 10000 3.6 210 22:44 01.03.2020
1708 Clear 4 989 75 10000 3.6 210 22:21 01.03.2020
1709 Clear 4 989 93 10000 4.1 210 21:57 01.03.2020
1710 Clear 4 989 86 10000 6.2 210 21:39 01.03.2020
1711 Clear 4 989 86 10000 6.2 210 21:20 01.03.2020
1712 Clear 5 989 70 10000 4.6 230 20:45 01.03.2020
1713 Clouds 5 990 80 10000 6.2 210 20:26 01.03.2020
1714 Clouds 6 989 75 10000 8.2 210 19:59 01.03.2020
1715 Clouds 6 989 75 10000 6.7 220 19:41 01.03.2020
1716 Clouds 6 989 75 10000 6.7 220 19:21 01.03.2020
1717 Clouds 6 989 75 10000 6.7 220 19:21 01.03.2020
1718 Clouds 7 989 53 10000 5.1 220 18:57 01.03.2020
1719 Rain 7 988 49 10000 7.2 250 18:39 01.03.2020
1720 Rain 8 988 49 10000 7.2 250 18:19 01.03.2020
1721 Clouds 8 989 49 10000 6.2 250 17:55 01.03.2020
1722 Rain 9 988 46 10000 8.7 260 17:37 01.03.2020
1723 Rain 9 988 46 10000 8.7 260 17:18 01.03.2020
1724 Rain 9 988 46 10000 7.7 240 16:54 01.03.2020
1725 Rain 9 988 46 10000 8.2 250 16:36 01.03.2020
1726 Rain 9 988 46 10000 8.2 250 16:18 01.03.2020
1727 Rain 10 988 46 10000 7.2 250 15:55 01.03.2020
1728 Rain 10 988 46 10000 7.7 250 15:36 01.03.2020
1729 Rain 10 988 46 10000 7.7 250 15:18 01.03.2020
1730 Rain 10 988 46 10000 8.2 240 14:54 01.03.2020
1731 Clouds 9 989 46 10000 8.7 250 14:36 01.03.2020
1732 Clouds 9 989 46 10000 8.7 250 14:36 01.03.2020
1733 Clouds 9 989 46 10000 8.7 250 14:18 01.03.2020
1734 Clear 9 989 46 10000 8.7 250 13:43 01.03.2020
1735 Clouds 9 989 39 10000 7.7 240 13:21 01.03.2020
1736 Clouds 9 989 39 10000 8.7 260 12:59 01.03.2020
1737 Clouds 9 989 39 10000 7.2 250 12:40 01.03.2020
1738 Clouds 8 989 39 10000 7.2 250 12:20 01.03.2020
1739 Clouds 8 989 39 10000 9.3 250 11:41 01.03.2020
1740 Clear 7 989 61 10000 7.7 240 11:22 01.03.2020
1741 Clouds 7 989 57 10000 7.2 240 10:57 01.03.2020
1742 Clouds 7 989 57 10000 7.2 240 10:37 01.03.2020
1743 Clouds 6 989 57 10000 7.2 240 10:19 01.03.2020
1744 Clear 6 989 65 10000 6.7 240 09:46 01.03.2020
1745 Clear 5 989 52 10000 7.2 240 09:27 01.03.2020
1746 Clear 5 988 70 10000 6.7 240 08:57 01.03.2020
1747 Clouds 5 988 70 10000 6.7 240 08:38 01.03.2020
1748 Clouds 4 988 56 10000 7.2 240 08:19 01.03.2020
1749 Clouds 4 988 59 10000 6.7 230 07:42 01.03.2020
1750 Clouds 4 988 59 10000 5.7 250 07:23 01.03.2020
1751 Clouds 4 988 59 10000 8.7 240 06:53 01.03.2020
1752 Clouds 4 988 59 10000 8.7 240 06:53 01.03.2020
1753 Clouds 4 988 59 10000 7.7 260 06:33 01.03.2020
1754 Clouds 5 987 75 10000 8.2 250 04:24 01.03.2020
1755 Clouds 5 987 60 10000 8.2 250 02:29 01.03.2020
1756 Clear 5 987 59 10000 8.7 230 01:53 01.03.2020
1757 Clear 5 987 57 10000 7.2 240 01:22 01.03.2020
1758 Clear 5 987 57 10000 8.2 220 00:43 01.03.2020
1759 Clear 5 987 75 10000 7.7 230 00:21 01.03.2020
1760 Clear 5 987 57 10000 9.3 230 23:49 29.02.2020
1761 Rain 5 987 70 10000 8.7 240 23:31 29.02.2020
1762 Clear 5 987 52 10000 8.2 230 22:44 29.02.2020
1763 Clear 5 987 52 10000 8.7 210 22:25 29.02.2020
1764 Rain 5 987 69 10000 9.8 220 21:44 29.02.2020
1765 Clouds 5 987 52 10000 9.8 220 21:26 29.02.2020
1766 Rain 5 986 70 10000 7.7 230 20:45 29.02.2020
1767 Rain 5 987 48 10000 7.2 220 20:22 29.02.2020
1768 Snow 5 987 48 10000 6.2 230 19:59 29.02.2020
1769 Snow 5 986 70 10000 6.2 230 19:40 29.02.2020
1770 Snow 5 986 70 10000 6.2 230 19:22 29.02.2020
1771 Snow 5 986 70 10000 7.2 230 18:56 29.02.2020
1772 Snow 5 986 70 10000 7.2 230 18:38 29.02.2020
1773 Snow 5 987 70 10000 8.2 240 18:19 29.02.2020
1774 Rain 5 987 75 10000 7.7 230 17:54 29.02.2020
1775 Rain 5 986 60 6000 11.3 230 17:36 29.02.2020
1776 Rain 6 986 60 6000 11.3 230 17:18 29.02.2020
1777 Rain 6 986 65 10000 10.8 240 16:42 29.02.2020
1778 Rain 7 985 45 10000 10.3 240 16:18 29.02.2020
1779 Rain 7 985 45 10000 10.3 240 15:42 29.02.2020
1780 Rain 7 986 75 4000 7.2 290 15:24 29.02.2020
1781 Rain 7 986 45 10000 10.8 270 14:56 29.02.2020
1782 Rain 7 985 57 10000 10.3 250 14:38 29.02.2020
1783 Rain 7 985 57 10000 10.3 250 14:20 29.02.2020
1784 Clouds 7 985 60 3000 12.3 260 13:42 29.02.2020
1785 Clouds 7 985 70 10000 8.7 250 13:23 29.02.2020
1786 Rain 7 984 81 10000 9.8 260 12:54 29.02.2020
1787 Rain 7 983 81 10000 8.2 260 12:36 29.02.2020
1788 Rain 6 983 81 10000 8.2 260 12:18 29.02.2020
1789 Rain 6 983 87 10000 6.7 250 11:43 29.02.2020
1790 Rain 6 982 87 10000 6.7 250 11:24 29.02.2020
1791 Rain 6 982 81 8000 7.7 270 10:50 29.02.2020
1792 Rain 6 982 87 7000 7.7 280 10:29 29.02.2020
1793 Drizzle 6 981 93 4000 8.7 210 09:51 29.02.2020
1794 Drizzle 6 981 93 4000 10.8 180 09:27 29.02.2020
1795 Rain 7 981 93 3000 7.2 240 08:58 29.02.2020
1796 Rain 8 982 81 9000 7.2 190 08:38 29.02.2020
1797 Rain 8 983 76 10000 8.2 180 08:19 29.02.2020
1798 Rain 9 983 76 10000 8.7 190 07:46 29.02.2020
1799 Rain 9 984 81 8000 7.7 190 07:21 29.02.2020
1800 Rain 9 984 81 8000 10.8 200 06:54 29.02.2020
1801 Rain 9 986 71 10000 8.2 200 06:27 29.02.2020
1802 Clouds 10 986 76 10000 8.7 200 05:49 29.02.2020
1803 Clouds 10 987 76 10000 8.7 200 05:29 29.02.2020
1804 Rain 10 989 81 10000 9.8 200 03:53 29.02.2020
1805 Clouds 10 990 87 10000 9.3 220 03:23 29.02.2020
1806 Rain 10 991 87 9000 8.7 210 02:51 29.02.2020
1807 Clouds 10 993 87 8000 6.7 220 01:49 29.02.2020
1808 Clouds 10 994 87 10000 6.2 220 00:49 29.02.2020
1809 Clouds 10 994 87 10000 6.2 220 00:27 29.02.2020
1810 Drizzle 10 996 93 4000 9.8 210 23:40 28.02.2020
1811 Drizzle 10 996 93 4000 9.8 210 23:22 28.02.2020
1812 Rain 10 995 87 10000 9.3 220 22:42 28.02.2020
1813 Rain 11 995 93 10000 8.7 240 22:22 28.02.2020
1814 Rain 11 996 93 8000 8.2 230 21:42 28.02.2020
1815 Rain 11 996 93 8000 8.2 230 21:22 28.02.2020
1816 Drizzle 11 996 93 10000 7.7 240 20:58 28.02.2020
1817 Drizzle 11 998 93 6000 9.8 210 20:39 28.02.2020
1818 Drizzle 11 998 93 6000 9.8 210 20:20 28.02.2020
1819 Drizzle 11 998 93 10000 9.8 220 19:57 28.02.2020
1820 Drizzle 11 998 93 10000 9.8 220 19:57 28.02.2020
1821 Drizzle 11 998 93 10000 9.8 220 19:57 28.02.2020
1822 Drizzle 11 998 93 10000 10.3 220 19:38 28.02.2020
1823 Drizzle 11 998 93 10000 10.3 220 19:20 28.02.2020
1824 Drizzle 11 998 87 10000 10.8 220 18:47 28.02.2020
1825 Clouds 11 998 87 10000 6.2 230 18:27 28.02.2020
1826 -273 0 0 0 0 0 17:57 28.02.2020
1827 Clouds 10 998 87 10000 6.2 230 17:38 28.02.2020
1828 Clouds 10 999 87 10000 6.2 220 17:20 28.02.2020
1829 Rain 10 999 87 10000 6.2 210 16:41 28.02.2020
1830 Clouds 9 1000 87 10000 5.1 200 16:20 28.02.2020
1831 Rain 9 1000 93 8000 5.1 180 15:57 28.02.2020
1832 Rain 8 1001 87 10000 5.7 170 15:39 28.02.2020
1833 Rain 7 1001 87 10000 5.7 170 15:19 28.02.2020
1834 Rain 7 1003 87 10000 6.7 180 14:55 28.02.2020
1835 Rain 7 1004 87 8000 6.2 180 14:37 28.02.2020
1836 Rain 6 1004 87 8000 6.2 180 14:18 28.02.2020
1837 Rain 6 1005 87 10000 5.1 170 13:41 28.02.2020
1838 Rain 6 1006 81 7000 6.7 170 13:20 28.02.2020
1839 Rain 6 1007 87 10000 6.2 160 12:56 28.02.2020
1840 Rain 6 1008 87 10000 4.6 160 12:37 28.02.2020
1841 Rain 6 1008 87 10000 4.6 160 12:19 28.02.2020
1842 Rain 5 1009 87 10000 5.1 160 11:41 28.02.2020
1843 Rain 5 1009 81 10000 4.6 170 11:22 28.02.2020
1844 Rain 5 1010 81 10000 4.6 160 10:55 28.02.2020
1845 Rain 5 1011 81 10000 4.1 160 10:36 28.02.2020
1846 Rain 5 1011 81 10000 4.1 160 10:18 28.02.2020
1847 Rain 4 1011 70 10000 3.6 170 09:42 28.02.2020
1848 Clouds 4 1012 75 10000 3.6 150 09:20 28.02.2020
1849 Rain 3 1012 79 10000 3.1 130 08:54 28.02.2020
1850 Rain 3 1013 69 10000 3.1 130 08:36 28.02.2020
1851 Clouds 2 1013 69 10000 3.1 130 08:18 28.02.2020
1852 Clouds 2 1013 68 10000 2.6 130 07:38 28.02.2020
1853 Clouds 1 1014 69 10000 2.1 150 07:19 28.02.2020
1854 Clouds 1 1013 80 10000 3.1 150 06:41 28.02.2020
1855 Clouds 1 1015 74 10000 1.5 0 05:37 28.02.2020
1856 Clouds 0 1015 74 10000 2.1 220 04:33 28.02.2020
1857 Clouds 0 1015 74 10000 3.6 240 03:39 28.02.2020
1858 Clouds 0 1015 74 10000 3.6 230 02:43 28.02.2020
1859 Clear 0 1015 74 10000 3.6 230 02:20 28.02.2020
1860 Clear 2 1014 74 10000 2.6 300 00:36 28.02.2020
1861 Clear 2 1014 69 10000 3.6 290 23:58 27.02.2020
1862 Clear 2 1014 74 10000 3.6 250 23:38 27.02.2020
1863 Clear 2 1014 74 10000 3.6 250 23:18 27.02.2020
1864 Clear 3 1013 69 10000 2.6 270 22:40 27.02.2020
1865 Clear 3 1013 69 10000 2.6 270 22:22 27.02.2020
1866 Clear 3 1012 64 10000 2.6 280 21:56 27.02.2020
1867 Clear 3 1012 64 10000 3.6 290 21:37 27.02.2020
1868 Clear 3 1012 64 10000 3.6 290 21:18 27.02.2020
1869 Clear 4 1011 60 10000 3.1 310 20:54 27.02.2020
1870 Clear 4 1011 60 10000 4.6 290 20:36 27.02.2020
1871 Clouds 4 1011 60 10000 4.6 290 20:18 27.02.2020
1872 Clouds 5 1010 60 10000 5.1 300 19:42 27.02.2020
1873 Clouds 5 1009 52 10000 6.7 300 19:23 27.02.2020
1874 Clouds 5 1008 56 10000 6.2 300 18:58 27.02.2020
1875 Clouds 6 1007 56 10000 9.3 310 18:39 27.02.2020
1876 Clouds 6 1007 56 10000 9.3 310 18:20 27.02.2020
1877 Clouds 6 1007 56 10000 9.3 310 18:20 27.02.2020
1878 Clouds 7 1006 49 10000 9.3 300 17:56 27.02.2020
1879 Clouds 7 1006 49 10000 9.3 300 17:38 27.02.2020
1880 Clouds 7 1005 49 10000 9.8 300 17:19 27.02.2020
1881 Clouds 7 1005 52 10000 8.2 300 16:54 27.02.2020
1882 Clouds 7 1004 49 10000 10.8 300 16:36 27.02.2020
1883 Clouds 7 1004 49 10000 10.8 300 16:18 27.02.2020
1884 Clouds 7 1003 50 10000 8.7 300 15:40 27.02.2020
1885 Clouds 7 1002 50 10000 8.2 310 15:21 27.02.2020
1886 Clouds 7 1002 50 10000 8.2 310 15:21 27.02.2020
1887 Clouds 6 1001 65 10000 7.7 300 14:59 27.02.2020
1888 Clouds 6 1001 65 10000 7.7 300 14:40 27.02.2020
1889 Clouds 6 1001 75 10000 5.7 310 14:21 27.02.2020
1890 Clouds 5 1000 86 10000 5.1 310 13:56 27.02.2020
1891 Clouds 5 1000 86 10000 5.7 310 13:37 27.02.2020
1892 Clouds 4 1000 86 10000 5.7 310 13:19 27.02.2020
1893 Rain 4 999 86 10000 5.1 310 12:44 27.02.2020
1894 Rain 3 998 93 10000 4.1 300 12:20 27.02.2020
1895 -273 0 0 0 0 0 11:46 27.02.2020
1896 Rain 2 997 93 8000 2.6 330 11:23 27.02.2020
1897 Rain 2 996 93 5000 3.6 340 10:56 27.02.2020
1898 Rain 2 996 100 6000 3.6 360 10:37 27.02.2020
1899 Rain 2 996 100 6000 3.6 360 10:19 27.02.2020
1900 Rain 2 996 93 4000 4.6 20 09:41 27.02.2020
1901 Rain 2 995 86 9000 3.1 50 09:23 27.02.2020
1902 Rain 2 995 86 10000 3.6 70 08:55 27.02.2020
1903 Rain 3 995 86 10000 4.6 90 08:37 27.02.2020
1904 Rain 3 995 86 10000 4.6 90 08:18 27.02.2020
1905 Rain 3 996 86 9000 4.1 100 07:41 27.02.2020
1906 Rain 3 997 86 9000 3.6 100 07:20 27.02.2020
1907 Rain 3 998 86 9000 2.6 120 06:21 27.02.2020
1908 Rain 3 999 86 9000 1 140 05:19 27.02.2020
1909 Clouds 3 1003 69 10000 2.1 160 02:58 27.02.2020
1910 Clouds 3 1005 65 10000 2.6 210 01:32 27.02.2020
1911 Clouds 3 1005 65 10000 2.6 210 00:41 27.02.2020
1912 Clouds 3 1007 80 10000 3.6 230 23:56 26.02.2020
1913 Clouds 3 1007 80 10000 4.1 220 23:37 26.02.2020
1914 Clouds 3 1007 80 10000 4.1 220 23:18 26.02.2020
1915 Clouds 3 1007 80 10000 3.6 220 22:55 26.02.2020
1916 Clouds 3 1007 80 10000 4.1 240 22:37 26.02.2020
1917 Clouds 3 1007 80 10000 4.1 240 22:18 26.02.2020
1918 Clouds 3 1008 69 10000 3.6 250 21:39 26.02.2020
1919 Clouds 3 1008 69 10000 3.6 250 21:20 26.02.2020
1920 Clouds 3 1008 69 10000 3.1 250 20:56 26.02.2020
1921 Clouds 3 1008 69 10000 3.1 250 20:56 26.02.2020
1922 Clouds 4 1008 74 10000 3.6 240 20:38 26.02.2020
1923 Clouds 4 1008 74 10000 3.6 240 20:19 26.02.2020
1924 Clouds 4 1008 74 10000 3.6 240 19:56 26.02.2020
1925 Clouds 4 1008 74 10000 2.6 250 19:37 26.02.2020
1926 Clouds 5 1008 74 10000 2.6 250 19:19 26.02.2020
1927 Clouds 5 1007 50 10000 3.1 280 18:56 26.02.2020
1928 Clouds 5 1007 50 10000 5.7 290 18:37 26.02.2020
1929 Clouds 6 1007 50 10000 5.7 290 18:19 26.02.2020
1930 Clouds 6 1007 61 10000 6.2 290 17:41 26.02.2020
1931 Rain 7 1006 53 10000 9.8 280 17:20 26.02.2020
1932 Rain 7 1006 53 10000 9.8 280 17:20 26.02.2020
1933 Rain 7 1006 53 10000 9.8 280 16:57 26.02.2020
1934 Rain 7 1006 53 10000 9.8 280 16:38 26.02.2020
1935 Clouds 7 1005 49 10000 7.2 280 16:20 26.02.2020
1936 Clouds 8 1005 53 10000 7.2 300 15:45 26.02.2020
1937 Clouds 8 1005 53 10000 5.7 290 15:27 26.02.2020
1938 Rain 8 1005 53 10000 6.7 290 14:55 26.02.2020
1939 Rain 8 1005 53 10000 6.7 290 14:55 26.02.2020
1940 Clouds 7 1005 53 10000 7.2 290 14:37 26.02.2020
1941 Clouds 7 1005 63 10000 7.2 290 14:18 26.02.2020
1942 Clouds 7 1005 63 10000 8.7 280 13:42 26.02.2020
1943 Clouds 7 1005 56 10000 8.2 280 13:20 26.02.2020
1944 Clouds 6 1004 56 10000 8.2 290 12:39 26.02.2020
1945 Clouds 5 1004 56 10000 7.2 300 12:20 26.02.2020
1946 Clouds 5 1003 56 10000 7.2 280 11:57 26.02.2020
1947 Clouds 5 1003 56 10000 8.7 280 11:39 26.02.2020
1948 Clouds 5 1003 66 10000 8.7 280 11:21 26.02.2020
1949 Clouds 5 1003 66 10000 7.2 270 10:43 26.02.2020
1950 Clouds 4 1002 66 10000 6.7 270 10:23 26.02.2020
1951 Clouds 4 1002 66 10000 6.7 260 09:57 26.02.2020
1952 Clouds 3 1002 66 10000 6.7 260 09:39 26.02.2020
1953 Clouds 3 1002 74 10000 5.7 260 09:21 26.02.2020
1954 Clouds 2 1001 74 10000 7.2 260 08:40 26.02.2020
1955 Clouds 2 1000 74 10000 6.2 260 08:22 26.02.2020
1956 Clouds 1 1000 71 10000 6.2 260 07:59 26.02.2020
1957 Clouds 1 1000 74 10000 5.7 280 07:39 26.02.2020
1958 Clouds 1 1000 74 10000 5.7 280 07:20 26.02.2020
1959 Clouds 1 999 74 10000 5.7 260 06:44 26.02.2020
1960 Clouds 2 999 74 10000 6.7 270 06:22 26.02.2020
1961 Clouds 2 999 80 10000 5.1 270 05:48 26.02.2020
1962 Clouds 2 998 80 10000 5.1 280 05:18 26.02.2020
1963 Clouds 2 997 74 10000 6.2 280 03:27 26.02.2020
1964 Clouds 2 997 69 10000 7.7 270 01:58 26.02.2020
1965 Clouds 2 996 74 10000 5.7 280 01:25 26.02.2020
1966 Clouds 2 997 69 10000 6.2 270 00:44 26.02.2020
1967 Clouds 3 996 74 10000 6.2 280 00:20 26.02.2020
1968 Rain 3 995 80 10000 6.7 260 23:42 25.02.2020
1969 Rain 3 995 80 10000 6.7 260 23:24 25.02.2020
1970 Rain 3 995 80 10000 6.7 250 22:57 25.02.2020
1971 Snow 3 995 70 10000 6.7 260 22:37 25.02.2020
1972 Snow 3 995 70 10000 6.7 260 22:18 25.02.2020
1973 Clouds 4 995 80 10000 8.2 250 21:38 25.02.2020
1974 Clouds 4 995 80 10000 8.2 250 21:20 25.02.2020
1975 Rain 4 995 80 10000 7.2 250 20:57 25.02.2020
1976 Rain 4 995 80 10000 7.7 250 20:39 25.02.2020
1977 Rain 4 995 80 10000 7.7 250 20:20 25.02.2020
1978 Rain 4 996 80 10000 8.2 260 19:56 25.02.2020
1979 Rain 4 996 86 10000 5.7 240 19:37 25.02.2020
1980 Rain 4 996 86 10000 5.7 240 19:18 25.02.2020
1981 Rain 4 996 75 9000 4.6 230 18:40 25.02.2020
1982 Rain 5 996 75 9000 4.6 230 18:21 25.02.2020
1983 Rain 5 996 80 10000 10.8 260 17:56 25.02.2020
1984 Clouds 6 997 65 10000 6.2 250 17:37 25.02.2020
1985 Clouds 6 997 65 10000 6.2 250 17:19 25.02.2020
1986 Clouds 7 997 65 10000 6.7 240 16:57 25.02.2020
1987 Clouds 7 997 61 10000 6.2 250 16:38 25.02.2020
1988 Clouds 7 997 61 10000 6.2 250 16:20 25.02.2020
1989 Clouds 7 998 57 10000 7.2 270 15:55 25.02.2020
1990 Rain 8 998 57 10000 6.7 260 15:36 25.02.2020
1991 Rain 8 998 57 10000 6.7 260 15:18 25.02.2020
1992 Clouds 8 999 57 10000 6.2 260 14:54 25.02.2020
1993 Clouds 8 999 57 10000 6.7 260 14:36 25.02.2020
1994 Clouds 8 999 57 10000 6.7 260 14:18 25.02.2020
1995 Clouds 8 999 57 10000 6.7 260 14:18 25.02.2020
1996 Clouds 8 999 57 10000 6.7 260 13:42 25.02.2020
1997 Clouds 8 1000 57 10000 7.2 250 13:21 25.02.2020
1998 Clouds 8 1000 61 10000 8.7 260 12:59 25.02.2020
1999 Clouds 8 1000 61 10000 8.7 260 12:39 25.02.2020
2000 Clouds 8 1000 61 10000 8.2 250 12:20 25.02.2020
2001 Clouds 8 1001 65 10000 9.3 250 11:56 25.02.2020
2002 Clouds 7 1001 70 10000 7.2 250 11:38 25.02.2020
2003 Clouds 7 1001 70 10000 7.2 250 11:18 25.02.2020
2004 Clouds 7 1001 70 10000 6.7 250 10:56 25.02.2020
2005 Clouds 7 1002 75 10000 6.2 250 10:38 25.02.2020
2006 Clouds 6 1002 75 10000 6.2 250 10:19 25.02.2020
2007 Clouds 6 1002 75 10000 4.6 250 09:40 25.02.2020
2008 Clouds 5 1002 75 10000 4.6 250 09:19 25.02.2020
2009 Rain 5 1003 81 10000 4.6 240 08:43 25.02.2020
2010 Rain 5 1003 81 10000 4.6 240 08:24 25.02.2020
2011 Clouds 5 1003 81 10000 4.6 250 07:50 25.02.2020
2012 Clouds 4 1003 75 10000 5.1 250 07:25 25.02.2020
2013 Clouds 4 1003 75 10000 5.7 250 06:59 25.02.2020
2014 Clouds 4 1004 81 10000 5.1 250 06:26 25.02.2020
2015 Clouds 5 1004 75 10000 5.7 250 05:23 25.02.2020
2016 Clouds 6 1005 75 10000 5.7 250 02:44 25.02.2020
2017 Clouds 7 1005 75 10000 6.7 260 01:19 25.02.2020
2018 Clouds 7 1005 75 10000 6.2 270 00:34 25.02.2020
2019 Clouds 7 1005 76 10000 7.2 260 23:57 24.02.2020
2020 Clouds 7 1005 87 10000 6.2 260 23:38 24.02.2020
2021 Clouds 8 1005 87 10000 6.2 260 23:19 24.02.2020
2022 Clouds 8 1004 71 10000 8.7 250 22:38 24.02.2020
2023 Clouds 8 1004 71 10000 8.7 250 22:19 24.02.2020
2024 Clouds 9 1005 81 10000 8.2 250 21:56 24.02.2020
2025 Clouds 9 1004 71 10000 9.3 250 21:38 24.02.2020
2026 Clouds 9 1004 71 10000 9.3 250 21:19 24.02.2020
2027 Clouds 10 1005 81 10000 7.7 270 20:55 24.02.2020
2028 Clouds 10 1004 71 10000 10.3 270 20:37 24.02.2020
2029 Clouds 10 1005 81 10000 8.2 240 20:18 24.02.2020
2030 Clouds 10 1004 87 10000 6.2 240 19:56 24.02.2020
2031 Clouds 11 1004 87 10000 7.7 230 19:37 24.02.2020
2032 Clouds 11 1004 87 10000 7.7 230 19:19 24.02.2020
2033 Clouds 11 1003 81 10000 8.2 250 18:42 24.02.2020
2034 Drizzle 11 1003 87 10000 8.2 250 18:23 24.02.2020
2035 Clouds 11 1003 81 10000 9.3 240 17:57 24.02.2020
2036 Clouds 11 1003 81 10000 9.8 240 17:38 24.02.2020
2037 Clouds 11 1003 81 10000 9.8 240 17:19 24.02.2020
2038 Clouds 11 1003 81 10000 9.3 240 16:55 24.02.2020
2039 Clouds 11 1004 81 10000 10.3 240 16:37 24.02.2020
2040 Rain 11 1005 81 10000 8.7 240 16:18 24.02.2020
2041 Rain 11 1005 81 10000 8.7 240 15:56 24.02.2020
2042 Rain 11 1005 81 10000 9.3 230 15:38 24.02.2020
2043 Rain 11 1005 93 10000 8.7 240 15:19 24.02.2020
2044 Rain 10 1006 87 10000 8.7 240 14:42 24.02.2020
2045 Rain 10 1006 87 8000 7.7 240 14:23 24.02.2020
2046 -273 0 0 0 0 0 13:59 24.02.2020
2047 Rain 10 1007 93 10000 8.2 250 13:41 24.02.2020
2048 Rain 10 1007 93 10000 8.2 250 13:23 24.02.2020
2049 Rain 10 1007 93 10000 8.2 240 12:59 24.02.2020
2050 Rain 10 1007 93 10000 8.2 240 12:41 24.02.2020
2051 Rain 10 1007 93 10000 8.7 240 12:22 24.02.2020
2052 Rain 10 1008 87 10000 7.2 240 11:49 24.02.2020
2053 Drizzle 10 1008 87 10000 7.7 240 11:31 24.02.2020
2054 Drizzle 11 1009 81 6000 9.3 240 10:54 24.02.2020
2055 Clouds 11 1009 81 10000 10.8 240 10:36 24.02.2020
2056 Drizzle 10 1010 93 10000 8.7 230 10:18 24.02.2020
2057 Clouds 10 1010 93 10000 10.3 220 09:40 24.02.2020
2058 Clouds 10 1010 93 10000 12.9 220 09:19 24.02.2020
2059 Clouds 10 1010 93 10000 12.9 220 09:19 24.02.2020
2060 Clouds 10 1011 87 10000 5.1 220 08:51 24.02.2020
2061 Clouds 10 1012 93 6000 3.1 180 08:29 24.02.2020
2062 Clouds 10 1012 93 6000 3.1 180 08:29 24.02.2020
2063 Clouds 9 1013 93 10000 4.1 170 07:55 24.02.2020
2064 Rain 8 1015 93 8000 2.1 230 07:33 24.02.2020
2065 Rain 7 1016 93 7000 4.6 130 06:52 24.02.2020
2066 Drizzle 6 1017 100 4200 3.6 120 06:24 24.02.2020
2067 Drizzle 6 1018 93 4200 4.1 110 05:45 24.02.2020
2068 Rain 6 1019 93 2600 4.1 110 05:25 24.02.2020
2069 Rain 6 1023 76 10000 2.1 200 02:58 24.02.2020
2070 Rain 6 1023 63 10000 2.1 140 02:18 24.02.2020
2071 Clouds 7 1023 63 10000 3.1 110 01:31 24.02.2020
2072 Clouds 7 1024 61 10000 3.1 90 00:44 24.02.2020
2073 Clouds 6 1023 70 10000 0.5 190 00:20 24.02.2020
2074 Clouds 7 1023 70 10000 0.5 200 23:45 23.02.2020
2075 Clouds 7 1024 57 10000 1.5 0 23:24 23.02.2020
2076 Clouds 7 1024 57 10000 1.5 0 22:59 23.02.2020
2077 Clouds 7 1024 57 10000 1.5 0 22:41 23.02.2020
2078 Clouds 7 1024 75 10000 1.5 260 22:21 23.02.2020
2079 Clouds 7 1024 53 10000 3.6 260 21:55 23.02.2020
2080 Clouds 7 1023 70 10000 2.1 290 21:36 23.02.2020
2081 Clouds 7 1023 70 10000 2.1 290 21:18 23.02.2020
2082 Clouds 8 1023 53 10000 3.6 300 20:55 23.02.2020
2083 Clouds 8 1023 57 10000 3.1 280 20:36 23.02.2020
2084 Clouds 8 1023 57 10000 3.1 280 20:18 23.02.2020
2085 Clouds 8 1022 57 10000 3.6 300 19:41 23.02.2020
2086 Clouds 9 1022 57 10000 4.6 300 19:20 23.02.2020
2087 Clouds 9 1021 57 10000 4.1 300 18:59 23.02.2020
2088 Clouds 9 1020 57 10000 5.1 300 18:41 23.02.2020
2089 Clouds 9 1020 57 10000 5.1 300 18:21 23.02.2020
2090 Clouds 10 1020 57 10000 5.1 300 17:58 23.02.2020
2091 Clouds 10 1020 57 10000 5.1 300 17:58 23.02.2020
2092 Clouds 10 1019 62 10000 6.7 300 17:40 23.02.2020
2093 Clouds 10 1019 62 10000 6.7 300 17:21 23.02.2020
2094 Clouds 11 1018 62 10000 8.7 310 16:56 23.02.2020
2095 Clouds 11 1017 58 10000 10.3 300 16:38 23.02.2020
2096 Clouds 11 1017 58 10000 10.3 300 16:19 23.02.2020
2097 Clouds 12 1016 54 10000 10.8 280 15:54 23.02.2020
2098 Clouds 12 1015 62 10000 10.8 290 15:36 23.02.2020
2099 Rain 12 1015 62 10000 10.8 290 15:18 23.02.2020
2100 Rain 12 1014 81 10000 7.7 280 14:55 23.02.2020
2101 Rain 12 1014 71 10000 10.8 260 14:37 23.02.2020
2102 Rain 13 1013 67 10000 9.8 270 14:18 23.02.2020
2103 Rain 13 1012 67 10000 10.8 270 13:54 23.02.2020
2104 Rain 13 1012 72 10000 10.8 260 13:36 23.02.2020
2105 Rain 14 1012 72 10000 10.8 260 13:18 23.02.2020
2106 Clouds 13 1011 82 10000 10.3 250 12:40 23.02.2020
2107 Clouds 13 1011 82 10000 10.3 250 12:20 23.02.2020
2108 Clouds 13 1010 82 10000 11.3 250 11:39 23.02.2020
2109 Clouds 13 1010 82 10000 11.3 250 11:20 23.02.2020
2110 Clouds 13 1010 76 10000 9.8 250 10:58 23.02.2020
2111 Clouds 12 1010 76 10000 9.8 250 10:40 23.02.2020
2112 Rain 12 1011 93 10000 9.3 230 10:22 23.02.2020
2113 Clouds 12 1010 82 10000 10.8 240 09:56 23.02.2020
2114 Clouds 12 1010 82 10000 10.8 240 09:38 23.02.2020
2115 Rain 12 1010 82 10000 9.3 240 09:18 23.02.2020
2116 Clouds 12 1011 87 10000 10.3 240 08:45 23.02.2020
2117 Drizzle 11 1010 93 5000 10.3 250 08:25 23.02.2020
2118 Clouds 12 1010 87 6000 9.8 240 07:45 23.02.2020
2119 Rain 12 1010 93 10000 10.8 250 07:27 23.02.2020
2120 Clouds 12 1011 82 10000 9.8 240 06:24 23.02.2020
2121 Rain 11 1012 87 10000 7.7 230 05:19 23.02.2020
2122 Rain 10 1015 81 8000 5.1 210 04:23 23.02.2020
2123 Rain 9 1019 71 10000 6.7 230 02:49 23.02.2020
2124 Rain 9 1020 76 10000 5.1 250 01:42 23.02.2020
2125 Clouds 9 1020 76 10000 6.7 250 01:20 23.02.2020
2126 Clouds 9 1021 76 10000 5.1 240 00:44 23.02.2020
2127 Clouds 9 1021 76 10000 7.2 250 00:22 23.02.2020
2128 Clouds 9 1021 76 10000 6.7 250 23:43 22.02.2020
2129 Clouds 9 1021 71 10000 7.2 250 23:24 22.02.2020
2130 Clouds 9 1021 71 10000 7.7 250 22:45 22.02.2020
2131 Clouds 9 1021 75 10000 6.7 260 22:20 22.02.2020
2132 Clouds 9 1021 75 10000 8.2 250 21:55 22.02.2020
2133 Clouds 10 1021 62 10000 10.8 260 21:37 22.02.2020
2134 Clouds 10 1021 62 10000 10.8 260 21:18 22.02.2020
2135 Clouds 10 1021 62 10000 9.3 270 20:41 22.02.2020
2136 Clouds 10 1021 66 10000 6.7 250 20:22 22.02.2020
2137 Rain 10 1021 66 10000 8.2 250 19:43 22.02.2020
2138 Clouds 10 1021 66 10000 8.7 270 19:24 22.02.2020
2139 Clouds 11 1020 62 10000 8.2 260 18:58 22.02.2020
2140 Clouds 11 1019 62 10000 9.3 260 18:38 22.02.2020
2141 Clouds 11 1019 62 10000 9.3 260 18:20 22.02.2020
2142 Clouds 11 1019 62 10000 12.3 260 17:55 22.02.2020
2143 Clouds 11 1019 58 10000 13.4 260 17:37 22.02.2020
2144 Clouds 11 1019 58 10000 13.4 260 17:37 22.02.2020
2145 Clouds 11 1019 58 10000 13.4 260 17:19 22.02.2020
2146 Clouds 12 1018 54 10000 12.3 260 16:54 22.02.2020
2147 Clouds 12 1018 58 10000 10.8 260 16:36 22.02.2020
2148 Clouds 12 1018 58 10000 10.8 260 16:18 22.02.2020
2149 Clouds 12 1018 54 10000 11.3 270 15:42 22.02.2020
2150 Clouds 13 1018 54 10000 11.3 260 15:22 22.02.2020
2151 Clouds 13 1017 54 10000 11.3 270 14:43 22.02.2020
2152 Clouds 13 1018 54 10000 11.3 260 14:22 22.02.2020
2153 Clouds 13 1017 54 10000 11.8 260 13:56 22.02.2020
2154 Clouds 13 1017 62 10000 9.3 260 13:38 22.02.2020
2155 Clouds 13 1017 62 10000 9.3 260 13:18 22.02.2020
2156 Clouds 12 1017 67 10000 9.8 250 12:41 22.02.2020
2157 Rain 12 1017 76 10000 9.3 260 12:23 22.02.2020
2158 Clouds 11 1016 81 10000 9.3 250 11:46 22.02.2020
2159 Clouds 11 1016 81 10000 9.3 250 11:28 22.02.2020
2160 Drizzle 11 1016 87 7000 9.3 250 10:57 22.02.2020
2161 Clouds 11 1015 76 10000 9.8 250 10:39 22.02.2020
2162 Clouds 11 1015 76 10000 9.8 250 10:19 22.02.2020
2163 Clouds 11 1015 76 10000 10.3 240 09:57 22.02.2020
2164 Clouds 11 1016 81 10000 9.8 230 09:38 22.02.2020
2165 Clouds 11 1014 81 10000 10.3 240 09:19 22.02.2020
2166 Clouds 10 1014 81 10000 10.3 240 08:46 22.02.2020
2167 Clouds 10 1015 76 10000 8.2 240 08:27 22.02.2020
2168 Clouds 10 1014 76 10000 9.8 230 07:45 22.02.2020
2169 Clouds 10 1015 81 10000 9.8 240 07:19 22.02.2020
2170 Clouds 10 1015 76 7000 9.3 240 06:47 22.02.2020
2171 Clouds 10 1015 76 10000 9.3 250 06:27 22.02.2020
2172 Clouds 9 1016 71 10000 8.7 240 04:32 22.02.2020
2173 Clouds 9 1016 71 10000 9.8 230 03:21 22.02.2020
2174 Clouds 9 1017 71 10000 9.3 240 02:28 22.02.2020
2175 Clouds 9 1017 71 10000 9.3 240 01:43 22.02.2020
2176 Clouds 9 1018 71 10000 9.3 240 01:24 22.02.2020
2177 Clouds 9 1019 66 10000 11.3 230 00:43 22.02.2020
2178 Clouds 9 1018 71 10000 10.3 250 00:24 22.02.2020
2179 Clouds 9 1019 66 10000 11.3 240 23:45 21.02.2020
2180 Clouds 9 1019 71 10000 10.3 240 23:21 21.02.2020
2181 Clouds 9 1019 66 10000 10.8 240 22:54 21.02.2020
2182 Clouds 9 1019 71 10000 8.2 240 22:36 21.02.2020
2183 Clouds 9 1019 71 10000 8.2 240 22:18 21.02.2020
2184 Clouds 9 1020 81 10000 10.3 220 21:41 21.02.2020
2185 Clouds 9 1020 81 10000 9.3 230 21:23 21.02.2020
2186 Clouds 9 1021 81 10000 9.3 230 20:48 21.02.2020
2187 Clouds 9 1021 71 10000 6.7 250 20:29 21.02.2020
2188 Clouds 9 1021 71 10000 8.2 230 19:44 21.02.2020
2189 Clouds 9 1020 71 10000 6.7 230 19:25 21.02.2020
2190 Clouds 9 1020 71 10000 7.2 240 18:58 21.02.2020
2191 Clouds 10 1021 71 10000 6.7 240 18:39 21.02.2020
2192 Clouds 10 1021 71 10000 6.7 240 18:21 21.02.2020
2193 Clouds 10 1021 62 10000 9.3 240 17:41 21.02.2020
2194 Clouds 10 1021 62 10000 9.3 240 17:23 21.02.2020
2195 Clouds 10 1021 62 10000 7.7 240 16:58 21.02.2020
2196 Clouds 10 1021 62 10000 9.8 250 16:40 21.02.2020
2197 Clouds 10 1021 62 10000 9.8 250 16:20 21.02.2020
2198 Clouds 10 1022 62 10000 7.2 240 15:47 21.02.2020
2199 Clouds 10 1022 62 10000 8.7 250 15:19 21.02.2020
2200 Clouds 10 1022 62 10000 8.7 250 14:59 21.02.2020
2201 Clouds 10 1022 57 10000 7.2 240 14:41 21.02.2020
2202 Clouds 10 1022 57 10000 7.2 240 14:19 21.02.2020
2203 Clouds 9 1023 61 10000 8.2 240 13:43 21.02.2020
2204 Clouds 9 1023 61 10000 8.2 250 13:24 21.02.2020
2205 Clouds 9 1023 61 10000 7.7 240 12:55 21.02.2020
2206 Clouds 9 1024 61 10000 8.7 250 12:36 21.02.2020
2207 Clouds 9 1024 66 10000 7.2 240 12:18 21.02.2020
2208 Clouds 9 1024 66 10000 7.2 240 11:40 21.02.2020
2209 Clouds 8 1023 66 10000 7.2 240 11:21 21.02.2020
2210 Clouds 8 1024 70 10000 6.7 240 10:57 21.02.2020
2211 Clouds 7 1024 70 10000 5.7 240 10:38 21.02.2020
2212 Clouds 7 1024 70 10000 5.7 240 10:19 21.02.2020
2213 Clouds 6 1023 75 10000 6.2 240 09:57 21.02.2020
2214 Clouds 6 1023 75 10000 5.1 240 09:38 21.02.2020
2215 Clouds 5 1023 75 10000 5.1 240 09:19 21.02.2020
2216 Clouds 5 1024 75 10000 4.1 240 08:43 21.02.2020
2217 Clouds 5 1024 75 10000 4.6 250 08:22 21.02.2020
2218 Clouds 4 1023 75 10000 6.2 250 07:59 21.02.2020
2219 Clouds 4 1023 75 10000 6.2 250 07:40 21.02.2020
2220 Clouds 4 1023 75 10000 6.2 250 07:19 21.02.2020
2221 Clouds 4 1023 80 10000 6.7 250 06:52 21.02.2020
2222 Clouds 4 1023 75 10000 5.7 240 06:30 21.02.2020
2223 Clouds 4 1023 75 10000 4.1 230 05:47 21.02.2020
2224 Clouds 3 1023 75 10000 5.1 240 04:38 21.02.2020
2225 Clouds 3 1023 75 10000 5.1 240 04:19 21.02.2020
2226 Clouds 3 1023 75 10000 5.1 240 04:19 21.02.2020
2227 Clouds 3 1023 75 10000 5.1 240 03:42 21.02.2020
2228 Clouds 4 1023 75 10000 5.1 240 02:43 21.02.2020
2229 Clouds 3 1022 57 10000 6.2 250 01:24 21.02.2020
2230 Clouds 3 1021 57 10000 7.7 250 00:46 21.02.2020
2231 Clouds 4 1021 57 10000 7.7 250 00:23 21.02.2020
2232 Clouds 4 1020 57 10000 5.7 260 23:46 20.02.2020
2233 Clouds 4 1020 57 10000 6.7 250 23:26 20.02.2020
2234 Clear 4 1019 53 10000 6.7 250 22:59 20.02.2020
2235 Clear 4 1019 53 10000 6.7 250 22:39 20.02.2020
2236 Clear 4 1019 74 10000 4.6 250 22:20 20.02.2020
2237 Clear 4 1018 53 10000 5.7 280 21:56 20.02.2020
2238 Clear 4 1018 74 10000 5.7 260 21:37 20.02.2020
2239 Clear 4 1018 74 10000 5.7 260 21:37 20.02.2020
2240 Clear 4 1018 74 10000 5.7 260 21:19 20.02.2020
2241 Clear 4 1018 74 10000 5.7 260 21:19 20.02.2020
2242 Clouds 4 1017 65 10000 5.7 290 20:55 20.02.2020
2243 Clear 4 1016 53 10000 5.7 260 20:37 20.02.2020
2244 Rain 5 1016 52 10000 5.7 260 20:19 20.02.2020
2245 Rain 5 1015 60 10000 7.2 290 19:58 20.02.2020
2246 Rain 5 1015 52 10000 6.2 260 19:40 20.02.2020
2247 Clouds 5 1014 80 10000 5.7 260 19:21 20.02.2020
2248 Rain 5 1012 70 10000 7.7 280 18:40 20.02.2020
2249 Rain 6 1012 70 10000 7.7 280 18:20 20.02.2020
2250 Rain 6 1011 70 10000 8.7 260 17:56 20.02.2020
2251 Rain 6 1011 70 10000 8.7 260 17:38 20.02.2020
2252 Clouds 6 1011 70 10000 8.7 260 17:18 20.02.2020
2253 Rain 6 1009 75 10000 5.1 270 16:55 20.02.2020
2254 Rain 6 1009 81 10000 10.8 290 16:37 20.02.2020
2255 Rain 6 1009 81 10000 10.8 290 16:18 20.02.2020
2256 Rain 6 1006 87 8000 7.7 260 15:42 20.02.2020
2257 Rain 7 1006 87 8000 7.7 260 15:21 20.02.2020
2258 Rain 8 1004 81 10000 8.2 220 14:57 20.02.2020
2259 Rain 9 1004 81 10000 8.2 220 14:39 20.02.2020
2260 Rain 9 1005 87 8000 11.3 250 14:20 20.02.2020
2261 Drizzle 9 1006 93 1800 13.4 210 13:46 20.02.2020
2262 Clouds 10 1006 81 10000 9.3 210 13:21 20.02.2020
2263 Clouds 10 1006 81 10000 9.3 220 12:59 20.02.2020
2264 Clouds 10 1007 81 10000 8.2 210 12:40 20.02.2020
2265 Clouds 10 1007 81 10000 8.2 210 12:20 20.02.2020
2266 Clouds 10 1007 81 10000 7.2 220 11:57 20.02.2020
2267 Drizzle 10 1007 87 5000 9.3 230 11:39 20.02.2020
2268 Drizzle 10 1007 87 5000 9.3 230 11:39 20.02.2020
2269 Drizzle 10 1007 87 5000 9.3 230 11:20 20.02.2020
2270 Clouds 10 1008 87 10000 7.7 210 10:55 20.02.2020
2271 Clouds 9 1008 76 10000 7.2 210 10:37 20.02.2020
2272 Drizzle 9 1009 81 10000 7.7 210 10:19 20.02.2020
2273 Clouds 9 1009 81 8000 7.2 210 09:38 20.02.2020
2274 Clouds 9 1009 81 8000 7.2 210 09:19 20.02.2020
2275 Drizzle 9 1008 93 10000 6.7 220 08:42 20.02.2020
2276 Drizzle 9 1009 93 9000 7.2 220 08:24 20.02.2020
2277 Clouds 9 1010 87 6000 7.2 210 07:48 20.02.2020
2278 Clouds 9 1009 87 10000 6.7 230 07:27 20.02.2020
2279 Clouds 9 1010 87 10000 6.2 220 06:58 20.02.2020
2280 Clouds 9 1010 87 10000 7.2 220 06:40 20.02.2020
2281 Clouds 9 1011 81 10000 6.2 210 05:47 20.02.2020
2282 Clouds 9 1011 87 10000 5.7 230 05:25 20.02.2020
2283 Rain 9 1011 93 7000 4.1 230 04:48 20.02.2020
2284 Rain 9 1012 87 10000 6.2 220 03:46 20.02.2020
2285 Clouds 9 1013 87 10000 5.1 220 02:47 20.02.2020
2286 Clouds 9 1013 76 10000 5.1 230 01:25 20.02.2020
2287 Clouds 9 1014 81 10000 5.7 220 00:46 20.02.2020
2288 Clouds 9 1013 87 10000 5.7 230 00:24 20.02.2020
2289 Clouds 9 1014 87 10000 9.3 220 23:46 19.02.2020
2290 Clouds 9 1014 87 10000 9.3 220 23:46 19.02.2020
2291 Clouds 9 1015 87 10000 7.2 210 23:18 19.02.2020
2292 Clouds 9 1015 87 10000 6.7 220 22:43 19.02.2020
2293 Clouds 9 1015 87 10000 6.7 220 22:43 19.02.2020
2294 Clouds 9 1015 87 10000 7.7 220 22:24 19.02.2020
2295 Clouds 9 1015 81 10000 5.7 230 21:58 19.02.2020
2296 Drizzle 9 1016 93 10000 8.2 220 21:40 19.02.2020
2297 Clouds 9 1016 87 10000 7.2 220 21:19 19.02.2020
2298 Clouds 9 1016 93 10000 7.7 220 20:57 19.02.2020
2299 Clouds 9 1016 93 10000 7.7 220 20:57 19.02.2020
2300 Clouds 9 1016 87 10000 7.2 210 20:38 19.02.2020
2301 Clouds 9 1016 87 10000 7.2 210 20:38 19.02.2020
2302 Clouds 9 1016 87 10000 7.2 210 20:19 19.02.2020
2303 Rain 9 1016 87 10000 5.1 230 19:57 19.02.2020
2304 Clouds 9 1016 93 10000 6.2 200 19:38 19.02.2020
2305 Rain 8 1017 87 10000 3.6 220 19:19 19.02.2020
2306 Rain 8 1017 93 10000 6.7 210 18:57 19.02.2020
2307 Clouds 8 1017 87 10000 4.1 230 18:39 19.02.2020
2308 Clouds 8 1017 87 10000 4.1 230 18:21 19.02.2020
2309 Clouds 8 1018 87 10000 4.6 210 17:55 19.02.2020
2310 Rain 8 1018 81 10000 4.6 210 17:37 19.02.2020
2311 Rain 8 1018 81 10000 4.6 210 17:18 19.02.2020
2312 Rain 8 1019 87 10000 4.1 230 16:41 19.02.2020
2313 Rain 8 1019 87 10000 4.1 230 16:18 19.02.2020
2314 Rain 7 1020 81 10000 3.6 230 15:54 19.02.2020
2315 Rain 7 1020 81 10000 4.1 230 15:36 19.02.2020
2316 Rain 7 1020 81 10000 4.1 230 15:18 19.02.2020
2317 Rain 7 1021 87 10000 4.6 230 14:40 19.02.2020
2318 Rain 7 1021 81 10000 4.6 250 14:22 19.02.2020
2319 Rain 6 1021 81 10000 6.2 250 13:43 19.02.2020
2320 Rain 6 1021 75 10000 6.7 250 13:23 19.02.2020
2321 Clouds 6 1021 75 10000 5.1 250 12:58 19.02.2020
2322 Clouds 6 1022 70 10000 5.7 250 12:37 19.02.2020
2323 Clouds 6 1022 70 10000 5.7 250 12:18 19.02.2020
2324 Clouds 6 1022 75 10000 5.1 250 11:39 19.02.2020
2325 Clouds 6 1022 75 10000 5.1 250 11:20 19.02.2020
2326 Clouds 5 1022 75 10000 5.7 250 10:59 19.02.2020
2327 Clouds 5 1021 75 10000 6.2 250 10:39 19.02.2020
2328 Clouds 5 1021 75 10000 6.2 250 10:20 19.02.2020
2329 Clouds 4 1021 75 10000 5.7 250 09:59 19.02.2020
2330 Clouds 4 1021 80 10000 5.7 250 09:41 19.02.2020
2331 Clouds 4 1021 80 10000 5.7 250 09:41 19.02.2020
2332 Clouds 3 1021 80 10000 5.7 250 09:20 19.02.2020
2333 Clouds 3 1021 65 10000 5.7 240 08:48 19.02.2020
2334 Clear 3 1020 69 10000 6.7 250 08:24 19.02.2020
2335 Clear 3 1020 69 10000 6.7 250 08:24 19.02.2020
2336 Clear 3 1020 69 10000 6.7 250 08:24 19.02.2020
2337 Clear 3 1020 69 10000 6.7 250 08:24 19.02.2020
2338 Clear 3 1020 67 10000 7.2 250 07:59 19.02.2020
2339 Clear 3 1020 67 10000 6.7 250 07:39 19.02.2020
2340 Clear 3 1020 67 10000 6.7 250 07:18 19.02.2020
2341 Clear 3 1020 67 10000 4.6 270 06:45 19.02.2020
2342 Clear 3 1018 67 10000 6.2 290 05:26 19.02.2020
2343 Clear 4 1018 75 10000 5.7 260 03:53 19.02.2020
2344 Clear 4 1017 80 10000 5.7 290 02:36 19.02.2020
2345 Rain 4 1017 75 10000 7.2 290 01:44 19.02.2020
2346 Clouds 4 1016 81 10000 6.2 260 01:23 19.02.2020
2347 Clouds 5 1015 81 10000 6.2 250 00:41 19.02.2020
2348 Clouds 5 1015 81 10000 5.1 250 00:22 19.02.2020
2349 Rain 5 1015 80 10000 5.1 270 23:40 18.02.2020
2350 Rain 5 1015 75 10000 6.7 260 23:20 18.02.2020
2351 Rain 5 1015 81 6000 7.7 280 22:55 18.02.2020
2352 Rain 6 1014 80 10000 7.2 250 22:37 18.02.2020
2353 Rain 6 1014 80 10000 7.2 250 22:19 18.02.2020
2354 Rain 6 1014 87 6000 4.6 320 21:55 18.02.2020
2355 Clouds 6 1015 86 10000 6.2 230 21:36 18.02.2020
2356 Clouds 7 1015 86 10000 6.2 230 21:18 18.02.2020
2357 Rain 7 1014 75 10000 7.7 240 20:54 18.02.2020
2358 Rain 7 1015 81 6000 7.2 220 20:36 18.02.2020
2359 Rain 7 1014 81 8000 7.7 250 20:18 18.02.2020
2360 Rain 7 1015 87 10000 7.7 220 19:42 18.02.2020
2361 Clouds 8 1015 87 10000 9.3 220 19:19 18.02.2020
2362 Clouds 8 1015 76 10000 6.7 240 18:58 18.02.2020
2363 Rain 8 1016 76 10000 5.7 230 18:40 18.02.2020
2364 Rain 8 1016 76 10000 5.7 230 18:19 18.02.2020
2365 Rain 8 1017 81 10000 4.6 230 17:42 18.02.2020
2366 Rain 8 1017 81 10000 4.6 230 17:20 18.02.2020
2367 Rain 8 1017 87 10000 8.2 270 16:41 18.02.2020
2368 Rain 8 1017 81 10000 8.2 220 16:22 18.02.2020
2369 Rain 9 1017 62 10000 7.7 240 15:59 18.02.2020
2370 Clouds 9 1018 62 10000 7.2 240 15:40 18.02.2020
2371 Clouds 10 1018 62 10000 7.2 240 15:19 18.02.2020
2372 Clouds 10 1018 57 10000 8.2 250 14:56 18.02.2020
2373 Clouds 10 1019 61 10000 8.7 240 14:38 18.02.2020
2374 Clouds 10 1019 61 10000 8.7 240 14:20 18.02.2020
2375 Clouds 10 1019 61 10000 8.7 240 13:41 18.02.2020
2376 Clouds 9 1019 61 10000 8.7 240 13:22 18.02.2020
2377 Clouds 9 1020 61 10000 7.2 240 12:56 18.02.2020
2378 Clouds 9 1020 61 10000 7.2 240 12:38 18.02.2020
2379 Clouds 9 1020 66 10000 7.7 240 12:19 18.02.2020
2380 Clouds 8 1020 70 10000 6.2 230 11:44 18.02.2020
2381 Clouds 7 1020 70 10000 5.7 240 11:26 18.02.2020
2382 Clouds 7 1020 75 10000 6.2 240 10:57 18.02.2020
2383 Clouds 6 1020 75 10000 5.1 240 10:39 18.02.2020
2384 Clouds 6 1020 75 10000 5.1 240 10:18 18.02.2020
2385 Clouds 6 1020 81 10000 4.6 240 09:56 18.02.2020
2386 Clouds 5 1020 75 10000 5.1 250 09:37 18.02.2020
2387 Clouds 5 1020 75 10000 5.1 250 09:37 18.02.2020
2388 Clouds 5 1020 75 10000 5.1 250 09:19 18.02.2020
2389 Clouds 4 1020 75 10000 5.7 250 08:43 18.02.2020
2390 Clouds 4 1020 86 10000 5.7 220 08:21 18.02.2020
2391 Clouds 4 1020 86 10000 5.1 220 07:57 18.02.2020
2392 Clear 4 1019 80 10000 5.7 240 07:36 18.02.2020
2393 Clear 4 1019 80 10000 5.7 240 07:18 18.02.2020
2394 Clear 4 1019 75 10000 4.6 240 06:41 18.02.2020
2395 Clear 4 1019 80 10000 4.6 250 06:21 18.02.2020
2396 Clear 4 1019 75 10000 6.2 240 05:46 18.02.2020
2397 Clear 4 1019 80 10000 4.1 250 04:40 18.02.2020
2398 Clear 4 1019 75 10000 5.7 240 03:36 18.02.2020
2399 Clear 5 1019 75 10000 6.2 250 02:49 18.02.2020
2400 Clouds 5 1018 75 10000 6.7 250 01:21 18.02.2020
2401 Clear 5 1017 80 10000 6.2 250 00:22 18.02.2020
2402 Clear 5 1017 80 10000 6.7 250 23:58 17.02.2020
2403 Clear 5 1016 59 10000 7.2 250 23:38 17.02.2020
2404 Clouds 5 1016 62 10000 7.2 250 23:19 17.02.2020
2405 Clouds 6 1016 75 10000 7.2 240 22:56 17.02.2020
2406 Clouds 6 1016 80 10000 6.7 250 22:38 17.02.2020
2407 Clouds 6 1016 80 10000 6.7 250 22:18 17.02.2020
2408 Clouds 6 1015 75 10000 7.2 240 21:39 17.02.2020
2409 Clouds 7 1015 75 10000 7.2 240 21:18 17.02.2020
2410 Clouds 7 1014 81 10000 6.7 240 20:55 17.02.2020
2411 Clouds 7 1014 81 10000 7.2 240 20:36 17.02.2020
2412 Clouds 7 1014 81 10000 7.2 240 20:36 17.02.2020
2413 Clouds 7 1014 81 10000 7.2 240 20:18 17.02.2020
2414 Clouds 8 1013 81 10000 7.7 240 19:42 17.02.2020
2415 Clouds 8 1013 75 10000 6.2 240 19:21 17.02.2020
2416 Clouds 8 1012 75 10000 5.7 240 18:55 17.02.2020
2417 Clouds 8 1012 75 10000 6.7 230 18:36 17.02.2020
2418 Clouds 8 1011 66 10000 9.8 260 18:18 17.02.2020
2419 Rain 9 1011 75 10000 6.7 240 17:38 17.02.2020
2420 Clouds 9 1010 62 10000 7.2 260 17:19 17.02.2020
2421 Clouds 10 1009 66 10000 8.2 250 16:58 17.02.2020
2422 Clouds 10 1009 66 10000 8.2 250 16:40 17.02.2020
2423 Clouds 10 1009 66 10000 8.2 260 16:22 17.02.2020
2424 Rain 10 1009 71 10000 7.2 260 15:46 17.02.2020
2425 Rain 10 1009 71 10000 7.2 260 15:46 17.02.2020
2426 Rain 10 1009 62 10000 6.7 250 15:27 17.02.2020
2427 Clouds 10 1008 66 10000 7.7 250 14:58 17.02.2020
2428 Clouds 10 1008 66 10000 7.7 250 14:39 17.02.2020
2429 Clouds 10 1008 70 10000 8.2 260 14:20 17.02.2020
2430 Clouds 10 1008 61 10000 8.2 240 13:56 17.02.2020
2431 Clouds 9 1008 61 10000 8.2 250 13:38 17.02.2020
2432 Clouds 9 1008 61 10000 8.2 250 13:18 17.02.2020
2433 Clouds 9 1008 61 10000 8.7 240 12:42 17.02.2020
2434 Clouds 9 1008 61 10000 8.2 240 12:23 17.02.2020
2435 Clouds 9 1007 66 10000 7.7 240 11:57 17.02.2020
2436 Clouds 8 1007 66 10000 7.7 240 11:39 17.02.2020
2437 Clouds 8 1007 66 10000 7.7 240 11:39 17.02.2020
2438 Rain 8 1007 66 10000 8.2 240 11:20 17.02.2020
2439 Rain 7 1007 70 10000 6.7 230 10:41 17.02.2020
2440 Rain 7 1007 70 10000 6.7 230 10:41 17.02.2020
2441 Rain 6 1007 70 10000 7.2 240 10:22 17.02.2020
2442 Rain 7 1007 70 10000 7.2 240 10:22 17.02.2020
2443 Rain 6 1007 70 10000 7.7 240 09:59 17.02.2020
2444 Rain 6 1007 70 10000 7.7 240 09:41 17.02.2020
2445 Rain 6 1007 75 10000 6.7 240 09:21 17.02.2020
2446 Clouds 6 1006 75 10000 7.2 250 08:56 17.02.2020
2447 Rain 6 1006 70 10000 6.2 240 08:38 17.02.2020
2448 Rain 6 1006 70 10000 6.2 240 08:19 17.02.2020
2449 Clouds 7 1006 70 10000 5.1 220 07:43 17.02.2020
2450 Clouds 7 1006 70 10000 7.2 230 07:23 17.02.2020
2451 Clear 7 1006 65 10000 8.2 220 06:51 17.02.2020
2452 Clouds 7 1006 70 10000 5.1 230 06:32 17.02.2020
2453 Clouds 7 1006 65 10000 6.2 230 05:56 17.02.2020
2454 Clouds 7 1006 65 10000 5.7 230 05:37 17.02.2020
2455 Clear 6 1006 70 10000 8.2 240 03:21 17.02.2020
2456 Clouds 6 1006 65 10000 7.2 240 01:47 17.02.2020
2457 Clouds 6 1006 65 10000 7.2 240 01:47 17.02.2020
2458 Clouds 5 1005 70 10000 7.2 240 00:42 17.02.2020
2459 Clear 5 1004 70 10000 7.7 250 00:21 17.02.2020
2460 Clear 5 1003 70 10000 8.2 250 23:53 16.02.2020
2461 Clouds 5 1003 65 10000 7.7 240 23:30 16.02.2020
2462 Clear 6 1002 65 10000 11.3 250 22:57 16.02.2020
2463 Clouds 6 1002 75 10000 9.3 220 22:39 16.02.2020
2464 Clouds 6 1002 75 10000 9.3 220 22:20 16.02.2020
2465 Clear 7 1001 66 10000 9.8 240 21:57 16.02.2020
2466 Clear 7 1001 66 10000 9.8 240 21:39 16.02.2020
2467 Clouds 7 1001 87 10000 7.2 230 21:21 16.02.2020
2468 Clouds 7 1000 87 10000 9.3 220 20:57 16.02.2020
2469 Clouds 7 999 87 10000 8.7 220 20:38 16.02.2020
2470 Clouds 7 999 87 10000 8.7 220 20:20 16.02.2020
2471 Clouds 7 999 87 10000 8.7 220 20:20 16.02.2020
2472 Clouds 7 999 93 10000 9.8 220 19:58 16.02.2020
2473 Rain 7 998 87 10000 5.7 230 19:38 16.02.2020
2474 Rain 7 998 87 10000 5.7 230 19:18 16.02.2020
2475 Rain 7 997 81 10000 8.2 240 18:43 16.02.2020
2476 Rain 7 998 93 10000 5.7 230 18:23 16.02.2020
2477 Clouds 7 996 81 10000 6.7 230 17:55 16.02.2020
2478 Rain 7 996 81 10000 5.7 220 17:36 16.02.2020
2479 Rain 7 996 81 10000 5.7 220 17:18 16.02.2020
2480 Rain 7 996 81 10000 5.7 220 17:18 16.02.2020
2481 Rain 7 996 87 10000 6.2 230 16:54 16.02.2020
2482 Rain 7 996 81 8000 7.7 240 16:36 16.02.2020
2483 Rain 7 996 81 8000 7.7 240 16:18 16.02.2020
2484 Rain 7 994 93 10000 7.7 250 15:41 16.02.2020
2485 Drizzle 7 995 93 4000 6.7 260 15:21 16.02.2020
2486 Rain 8 994 87 3000 6.7 250 14:44 16.02.2020
2487 Rain 8 993 87 6000 7.7 260 14:24 16.02.2020
2488 Rain 9 994 87 7000 4.1 220 13:59 16.02.2020
2489 Rain 9 994 87 7000 4.1 220 13:41 16.02.2020
2490 Rain 9 993 87 8000 5.7 230 13:22 16.02.2020
2491 Rain 9 994 93 10000 7.2 220 12:39 16.02.2020
2492 Rain 10 994 93 10000 7.2 220 12:20 16.02.2020
2493 Rain 10 995 87 10000 7.2 220 11:54 16.02.2020
2494 Rain 10 995 93 10000 7.7 220 11:36 16.02.2020
2495 Rain 10 995 93 10000 7.7 220 11:18 16.02.2020
2496 Rain 11 994 81 10000 8.2 230 10:55 16.02.2020
2497 Rain 11 994 81 10000 6.2 240 10:37 16.02.2020
2498 Rain 11 994 81 10000 6.2 240 10:18 16.02.2020
2499 Rain 10 993 100 3500 12.9 210 09:39 16.02.2020
2500 Rain 11 993 100 3500 12.9 210 09:20 16.02.2020
2501 Rain 11 992 93 4000 11.3 240 08:58 16.02.2020
2502 Rain 12 991 82 7000 10.3 220 08:40 16.02.2020
2503 Rain 12 991 82 10000 9.8 220 08:19 16.02.2020
2504 Rain 12 991 87 5000 11.8 210 07:43 16.02.2020
2505 Rain 12 990 93 6000 12.3 220 07:23 16.02.2020
2506 Rain 12 991 93 6000 11.8 220 06:32 16.02.2020
2507 Rain 12 993 87 9000 10.8 220 04:37 16.02.2020
2508 Rain 12 994 87 7000 10.8 220 03:23 16.02.2020
2509 Rain 12 995 87 8000 10.8 220 02:27 16.02.2020
2510 Rain 12 997 87 5000 9.3 210 01:40 16.02.2020
2511 Rain 12 997 87 5000 9.3 210 01:21 16.02.2020
2512 Clouds 12 997 87 8000 9.3 210 00:51 16.02.2020
2513 Clouds 12 998 87 8000 9.3 210 00:28 16.02.2020
2514 Clouds 12 998 87 10000 9.3 210 23:45 15.02.2020
2515 Clouds 12 998 87 10000 9.3 220 23:26 15.02.2020
2516 Clouds 12 998 87 10000 9.3 220 23:26 15.02.2020
2517 Clouds 12 999 87 10000 8.7 220 22:59 15.02.2020
2518 Clouds 12 999 87 10000 8.7 220 22:41 15.02.2020
2519 Clouds 12 999 87 10000 8.7 220 22:21 15.02.2020
2520 Clouds 12 999 82 10000 9.3 220 21:58 15.02.2020
2521 Clouds 12 999 82 10000 10.3 220 21:39 15.02.2020
2522 Rain 12 998 93 10000 11.8 220 21:21 15.02.2020
2523 Rain 12 999 87 8000 10.8 210 20:40 15.02.2020
2524 Drizzle 12 998 87 7000 10.8 220 20:21 15.02.2020
2525 Rain 11 999 87 7000 12.3 210 19:44 15.02.2020
2526 Rain 11 998 87 10000 13.4 220 19:23 15.02.2020
2527 Rain 12 998 87 10000 11.8 210 18:55 15.02.2020
2528 Rain 11 999 87 10000 12.3 220 18:36 15.02.2020
2529 Rain 11 999 87 10000 12.3 220 18:18 15.02.2020
2530 Rain 11 1000 87 10000 10.8 210 17:43 15.02.2020
2531 Rain 11 1002 93 8000 15.4 190 17:22 15.02.2020
2532 Rain 11 1003 93 6000 15.4 190 16:59 15.02.2020
2533 Rain 11 1003 93 6000 15.4 190 16:39 15.02.2020
2534 Rain 11 1004 93 4000 15.9 200 16:19 15.02.2020
2535 Rain 11 1004 93 9000 15.4 200 15:43 15.02.2020
2536 Rain 11 1005 93 7000 15.9 200 15:24 15.02.2020
2537 Rain 11 1005 87 10000 10.3 210 14:45 15.02.2020
2538 Rain 11 1006 93 10000 13.9 200 14:24 15.02.2020
2539 Rain 12 1005 87 10000 9.8 220 13:58 15.02.2020
2540 Rain 12 1006 76 10000 8.7 210 13:39 15.02.2020
2541 Clouds 12 1007 76 10000 7.7 200 13:21 15.02.2020
2542 Clouds 12 1008 76 10000 7.7 200 12:44 15.02.2020
2543 Clouds 12 1008 76 10000 7.7 200 12:26 15.02.2020
2544 Clouds 12 1009 76 10000 8.7 200 11:56 15.02.2020
2545 Clouds 12 1009 76 10000 7.7 200 11:38 15.02.2020
2546 Clouds 12 1009 76 10000 7.7 200 11:18 15.02.2020
2547 Clouds 11 1010 93 10000 11.8 200 10:46 15.02.2020
2548 Clouds 11 1010 93 10000 11.3 200 10:27 15.02.2020
2549 Clouds 11 1010 93 10000 11.3 200 10:27 15.02.2020
2550 Rain 11 1011 93 9000 11.8 200 09:45 15.02.2020
2551 Rain 11 1011 93 9000 11.8 190 09:25 15.02.2020
2552 Rain 11 1011 87 10000 6.2 210 08:59 15.02.2020
2553 Rain 11 1011 87 10000 6.7 200 08:41 15.02.2020
2554 Rain 11 1011 87 10000 6.7 200 08:22 15.02.2020
2555 Drizzle 11 1011 93 4700 6.7 200 07:44 15.02.2020
2556 Rain 11 1010 93 8000 6.2 220 07:25 15.02.2020
2557 Rain 11 1011 93 7000 7.2 200 06:39 15.02.2020
2558 Rain 11 1011 100 2500 5.7 200 06:21 15.02.2020
2559 Rain 10 1013 93 10000 5.1 210 04:57 15.02.2020
2560 Clouds 10 1013 93 6000 4.1 200 04:31 15.02.2020
2561 Rain 10 1014 100 5000 5.1 210 03:21 15.02.2020
2562 Drizzle 10 1015 87 3900 4.6 200 02:41 15.02.2020
2563 Clouds 10 1015 87 10000 3.6 220 02:19 15.02.2020
2564 Clouds 10 1015 87 7000 6.2 210 01:38 15.02.2020
2565 Clouds 10 1014 93 2700 6.7 210 00:36 15.02.2020
2566 Clouds 10 1014 93 2700 6.7 210 00:18 15.02.2020
2567 Clouds 10 1016 87 10000 10.3 190 23:39 14.02.2020
2568 Clouds 10 1016 87 10000 10.3 190 23:18 14.02.2020
2569 Drizzle 10 1016 87 10000 10.3 190 22:43 14.02.2020
2570 Clouds 10 1017 87 10000 9.3 190 22:23 14.02.2020
2571 Clouds 10 1017 87 10000 10.3 190 21:51 14.02.2020
2572 Clouds 10 1017 87 10000 10.3 190 21:51 14.02.2020
2573 Clouds 10 1016 81 10000 6.7 220 21:33 14.02.2020
2574 Clouds 10 1017 76 10000 5.7 210 20:59 14.02.2020
2575 Clouds 10 1017 76 10000 5.7 210 20:40 14.02.2020
2576 Clouds 10 1017 76 10000 6.2 210 20:19 14.02.2020
2577 Clouds 10 1017 76 10000 6.2 210 20:19 14.02.2020
2578 Clouds 10 1017 76 10000 4.6 220 19:43 14.02.2020
2579 Clouds 10 1017 81 10000 5.7 210 19:25 14.02.2020
2580 Clouds 10 1016 87 10000 6.2 220 18:59 14.02.2020
2581 Drizzle 10 1016 87 10000 6.2 210 18:41 14.02.2020
2582 Drizzle 10 1016 87 10000 6.2 210 18:22 14.02.2020
2583 Clouds 10 1016 87 10000 7.2 220 17:59 14.02.2020
2584 Clouds 10 1017 71 10000 5.7 220 17:39 14.02.2020
2585 Clouds 10 1017 71 10000 5.7 220 17:18 14.02.2020
2586 Clouds 10 1017 76 10000 7.7 210 16:42 14.02.2020
2587 Clouds 10 1017 76 10000 7.7 210 16:42 14.02.2020
2588 Clouds 10 1016 71 10000 7.2 220 16:23 14.02.2020
2589 Clouds 11 1017 66 10000 6.2 230 15:57 14.02.2020
2590 Clouds 11 1017 66 10000 6.7 220 15:39 14.02.2020
2591 Clouds 11 1017 66 10000 6.7 220 15:20 14.02.2020
2592 Clouds 11 1017 66 10000 6.7 220 14:59 14.02.2020
2593 Clouds 11 1017 66 10000 6.7 220 14:59 14.02.2020
2594 Clouds 11 1017 66 10000 6.2 220 14:41 14.02.2020
2595 Clouds 11 1017 66 10000 6.2 220 14:22 14.02.2020
2596 Clouds 11 1017 71 10000 6.2 220 13:56 14.02.2020
2597 Clouds 10 1018 71 10000 6.7 220 13:38 14.02.2020
2598 Clouds 10 1018 71 10000 6.7 220 13:19 14.02.2020
2599 Clouds 10 1018 71 10000 5.1 220 12:56 14.02.2020
2600 Clouds 9 1018 76 10000 6.2 230 12:38 14.02.2020
2601 Clouds 9 1018 76 10000 6.2 230 12:20 14.02.2020
2602 Clouds 8 1019 70 10000 4.6 220 11:56 14.02.2020
2603 Clouds 8 1019 70 10000 4.6 210 11:37 14.02.2020
2604 Clouds 7 1019 70 10000 4.6 210 11:19 14.02.2020
2605 Clouds 5 1019 75 10000 2.6 0 10:41 14.02.2020
2606 Clouds 5 1019 75 10000 2.6 0 10:22 14.02.2020
2607 Clouds 3 1018 75 10000 2.6 220 09:56 14.02.2020
2608 Clouds 3 1018 80 10000 2.1 0 09:36 14.02.2020
2609 Clouds 2 1018 80 10000 2.1 0 09:18 14.02.2020
2610 Clouds 2 1018 80 10000 2.6 0 08:40 14.02.2020
2611 Clouds 2 1017 93 10000 3.1 190 08:22 14.02.2020
2612 Clouds 2 1017 93 10000 3.1 190 08:22 14.02.2020
2613 Clouds 2 1017 86 10000 2.1 230 07:50 14.02.2020
2614 Clouds 2 1017 100 10000 0.5 210 07:31 14.02.2020
2615 Clouds 2 1017 86 10000 2.1 200 06:48 14.02.2020
2616 Clouds 2 1016 100 10000 1 140 06:22 14.02.2020
2617 Clouds 3 1015 90 10000 0.5 290 05:41 14.02.2020
2618 Clouds 3 1015 90 10000 0.5 290 05:41 14.02.2020
2619 Clouds 4 1014 86 10000 1 280 03:51 14.02.2020
2620 Clouds 4 1014 86 10000 2.6 270 02:58 14.02.2020
2621 Clear 5 1013 86 10000 2.6 300 02:18 14.02.2020
2622 Clear 6 1012 81 10000 2.1 290 01:18 14.02.2020
2623 Clear 6 1010 81 10000 3.1 290 00:37 14.02.2020
2624 Clear 6 1010 81 10000 3.1 290 00:18 14.02.2020
2625 Clouds 6 1009 75 10000 6.2 280 23:41 13.02.2020
2626 Clouds 7 1009 75 10000 6.2 280 23:19 13.02.2020
2627 Clouds 7 1008 75 10000 6.2 270 22:41 13.02.2020
2628 Rain 7 1007 87 10000 5.7 270 22:20 13.02.2020
2629 Clouds 7 1006 87 10000 5.1 280 21:59 13.02.2020
2630 Clouds 7 1005 81 10000 5.7 280 21:40 13.02.2020
2631 Clouds 7 1005 81 10000 5.7 280 21:21 13.02.2020
2632 Clear 7 1004 81 10000 5.1 310 20:56 13.02.2020
2633 Clear 7 1002 81 10000 5.1 290 20:37 13.02.2020
2634 Clouds 7 1002 81 10000 5.1 290 20:19 13.02.2020
2635 Clouds 7 1002 81 10000 4.1 300 19:55 13.02.2020
2636 Clouds 7 1001 87 10000 6.2 290 19:36 13.02.2020
2637 Clouds 7 1001 87 10000 6.2 290 19:18 13.02.2020
2638 Clouds 8 999 76 10000 6.7 280 18:41 13.02.2020
2639 Clouds 8 997 70 10000 7.2 270 18:22 13.02.2020
2640 Clouds 8 996 70 10000 7.2 280 17:58 13.02.2020
2641 Rain 8 996 81 10000 6.2 290 17:38 13.02.2020
2642 Rain 8 996 81 10000 6.2 290 17:20 13.02.2020
2643 Clouds 8 994 66 10000 6.7 280 16:56 13.02.2020
2644 Clouds 9 993 71 10000 7.2 280 16:36 13.02.2020
2645 Clouds 9 993 71 10000 7.2 280 16:18 13.02.2020
2646 Clouds 9 992 71 10000 6.2 290 15:55 13.02.2020
2647 Clouds 9 991 81 10000 3.6 260 15:37 13.02.2020
2648 Clouds 9 991 81 10000 3.6 260 15:18 13.02.2020
2649 Rain 8 991 87 10000 4.6 240 14:55 13.02.2020
2650 Rain 8 991 87 10000 4.1 240 14:37 13.02.2020
2651 Rain 8 991 87 10000 4.1 240 14:37 13.02.2020
2652 Rain 8 991 87 10000 4.1 240 14:19 13.02.2020
2653 Rain 8 991 93 10000 4.1 220 13:42 13.02.2020
2654 Rain 8 991 93 10000 4.1 220 13:18 13.02.2020
2655 Rain 8 990 76 10000 5.7 250 12:54 13.02.2020
2656 Clouds 8 991 76 10000 5.7 220 12:36 13.02.2020
2657 Clouds 8 991 76 10000 5.7 220 12:18 13.02.2020
2658 Rain 8 991 76 10000 5.7 230 11:43 13.02.2020
2659 Clouds 7 992 76 10000 6.7 220 11:19 13.02.2020
2660 Rain 7 992 81 10000 5.1 220 10:46 13.02.2020
2661 Rain 7 992 87 10000 5.1 210 10:27 13.02.2020
2662 Rain 5 993 81 10000 5.1 220 09:51 13.02.2020
2663 Rain 5 993 81 10000 5.1 220 09:26 13.02.2020
2664 Clouds 5 993 93 10000 7.2 210 08:54 13.02.2020
2665 Clouds 5 994 93 10000 7.7 210 08:36 13.02.2020
2666 Clouds 5 994 93 10000 7.7 210 08:18 13.02.2020
2667 Rain 6 994 93 4000 4.1 230 07:39 13.02.2020
2668 Rain 6 994 93 4000 4.1 230 07:20 13.02.2020
2669 Rain 6 995 87 7000 6.7 160 06:44 13.02.2020
2670 Rain 6 996 87 10000 6.7 160 06:19 13.02.2020
2671 Rain 6 1000 81 10000 8.2 180 05:33 13.02.2020
2672 Rain 6 1001 93 10000 7.7 190 04:26 13.02.2020
2673 Rain 6 1003 81 10000 8.2 180 03:52 13.02.2020
2674 Rain 6 1003 87 6000 5.7 190 03:24 13.02.2020
2675 Rain 6 1005 87 10000 6.2 190 02:50 13.02.2020
2676 Rain 6 1007 87 10000 2.6 180 02:19 13.02.2020
2677 Rain 6 1009 93 10000 3.6 160 01:32 13.02.2020
2678 Rain 6 1011 87 10000 3.6 170 00:39 13.02.2020
2679 Rain 5 1011 87 10000 3.6 170 00:21 13.02.2020
2680 Rain 5 1012 81 9000 3.6 180 23:40 12.02.2020
2681 Rain 5 1012 81 9000 3.6 180 23:40 12.02.2020
2682 Rain 5 1012 93 10000 6.2 180 23:21 12.02.2020
2683 Rain 5 1012 81 10000 5.1 190 22:45 12.02.2020
2684 Rain 6 1013 93 10000 5.1 180 22:26 12.02.2020
2685 Rain 6 1014 86 10000 5.1 190 21:59 12.02.2020
2686 Clouds 6 1014 70 10000 4.1 0 21:40 12.02.2020
2687 Clouds 6 1014 70 10000 4.1 0 21:19 12.02.2020
2688 Clouds 6 1014 65 10000 3.6 0 20:58 12.02.2020
2689 Clouds 5 1015 80 10000 4.1 200 20:39 12.02.2020
2690 Clouds 5 1015 80 10000 4.1 200 20:20 12.02.2020
2691 Clouds 5 1015 60 10000 4.6 200 19:55 12.02.2020
2692 Clouds 5 1015 60 10000 4.6 200 19:55 12.02.2020
2693 Clouds 5 1015 75 10000 4.1 210 19:36 12.02.2020
2694 Clouds 5 1015 75 10000 4.1 210 19:36 12.02.2020
2695 Clouds 5 1015 75 10000 4.1 210 19:18 12.02.2020
2696 Clouds 6 1015 65 10000 2.6 210 18:46 12.02.2020
2697 Clouds 7 1015 57 10000 7.2 250 18:19 12.02.2020
2698 Clouds 7 1015 57 10000 7.2 250 17:56 12.02.2020
2699 Clouds 7 1015 60 10000 4.1 250 17:36 12.02.2020
2700 Clouds 7 1015 49 10000 5.7 250 17:18 12.02.2020
2701 Clouds 8 1015 49 10000 8.7 260 16:40 12.02.2020
2702 Clouds 8 1015 49 10000 8.7 260 16:20 12.02.2020
2703 Clouds 8 1015 49 10000 6.7 250 15:57 12.02.2020
2704 Clouds 8 1015 49 10000 8.7 250 15:36 12.02.2020
2705 Clouds 8 1015 49 10000 8.7 250 15:36 12.02.2020
2706 Clouds 8 1015 49 10000 8.7 250 15:18 12.02.2020
2707 Clouds 8 1015 49 10000 7.7 260 14:42 12.02.2020
2708 Clouds 8 1015 48 10000 7.7 260 14:21 12.02.2020
2709 Clouds 8 1015 52 10000 8.7 270 13:58 12.02.2020
2710 Clouds 8 1015 52 10000 9.3 270 13:40 12.02.2020
2711 Clouds 8 1015 52 10000 9.3 270 13:21 12.02.2020
2712 Clear 8 1015 52 10000 9.3 260 12:58 12.02.2020
2713 Clear 7 1015 48 10000 7.7 260 12:38 12.02.2020
2714 Clear 7 1015 48 10000 7.7 260 12:19 12.02.2020
2715 Clear 7 1015 48 10000 7.7 260 11:58 12.02.2020
2716 Clear 6 1015 70 10000 8.2 250 11:40 12.02.2020
2717 Clear 5 1015 70 10000 8.2 250 11:20 12.02.2020
2718 Clouds 5 1014 75 10000 7.2 250 10:56 12.02.2020
2719 Clear 4 1014 80 10000 6.7 250 10:38 12.02.2020
2720 Clear 4 1014 80 10000 6.7 250 10:20 12.02.2020
2721 Clear 3 1014 80 10000 6.7 250 09:42 12.02.2020
2722 Clear 3 1014 58 10000 6.7 250 09:24 12.02.2020
2723 Clear 3 1014 58 10000 6.7 250 09:24 12.02.2020
2724 Clear 2 1014 58 10000 6.7 240 08:58 12.02.2020
2725 Clear 2 1014 58 10000 6.7 240 08:38 12.02.2020
2726 Clouds 2 1013 60 10000 6.7 250 08:20 12.02.2020
2727 Clouds 2 1013 60 10000 7.2 250 07:47 12.02.2020
2728 Clouds 2 1013 60 10000 4.6 260 07:24 12.02.2020
2729 Clouds 2 1013 60 10000 6.2 250 06:59 12.02.2020
2730 Clouds 2 1013 60 10000 6.7 250 06:25 12.02.2020
2731 Clouds 2 1012 60 10000 7.7 250 05:47 12.02.2020
2732 Clouds 2 1012 59 10000 6.7 250 05:21 12.02.2020
2733 Clouds 2 1012 59 10000 6.7 240 04:41 12.02.2020
2734 Clouds 3 1012 59 10000 7.7 250 03:57 12.02.2020
2735 Clouds 3 1012 59 10000 7.2 250 03:28 12.02.2020
2736 Clouds 3 1012 59 10000 8.2 250 02:41 12.02.2020
2737 Clear 3 1012 55 10000 7.7 260 02:21 12.02.2020
2738 Clear 3 1012 55 10000 8.7 250 01:29 12.02.2020
2739 Clear 3 1012 53 10000 7.2 250 00:40 12.02.2020
2740 Clear 3 1011 53 10000 7.2 250 00:21 12.02.2020
2741 Clear 3 1012 53 10000 7.2 250 23:47 11.02.2020
2742 Clear 3 1011 65 10000 8.7 250 23:29 11.02.2020
2743 Clear 4 1011 65 10000 7.7 250 22:57 11.02.2020
2744 Clear 4 1012 69 10000 6.7 240 22:39 11.02.2020
2745 Clear 4 1012 69 10000 6.7 240 22:20 11.02.2020
2746 Clear 4 1012 69 10000 7.7 240 21:57 11.02.2020
2747 Clear 4 1011 69 10000 7.7 240 21:38 11.02.2020
2748 Clear 4 1011 60 10000 7.2 250 21:18 11.02.2020
2749 Clear 4 1011 56 10000 7.2 250 20:58 11.02.2020
2750 Clear 5 1011 60 10000 8.2 250 20:39 11.02.2020
2751 Clear 5 1011 60 10000 8.2 250 20:39 11.02.2020
2752 Clear 5 1011 60 10000 8.2 250 20:39 11.02.2020
2753 Clouds 5 1011 60 10000 8.2 250 20:19 11.02.2020
2754 Clouds 5 1011 56 10000 8.7 260 19:57 11.02.2020
2755 Clouds 5 1011 60 10000 6.2 250 19:39 11.02.2020
2756 Clouds 5 1011 60 10000 6.2 250 19:20 11.02.2020
2757 Clouds 5 1010 60 10000 7.2 250 18:45 11.02.2020
2758 Clouds 5 1010 55 10000 7.2 250 18:27 11.02.2020
2759 Clouds 6 1010 52 10000 5.7 260 17:57 11.02.2020
2760 Clouds 6 1009 45 10000 11.3 270 17:39 11.02.2020
2761 Clouds 6 1009 45 10000 11.3 270 17:19 11.02.2020
2762 Clouds 7 1008 42 10000 11.8 270 16:58 11.02.2020
2763 Clouds 7 1008 42 10000 12.3 270 16:39 11.02.2020
2764 Clouds 7 1008 42 10000 12.3 270 16:21 11.02.2020
2765 Clouds 7 1008 42 10000 12.3 270 16:21 11.02.2020
2766 Clouds 7 1008 42 10000 10.8 270 15:58 11.02.2020
2767 Clouds 7 1008 42 10000 13.9 270 15:39 11.02.2020
2768 Clouds 7 1008 42 10000 13.9 270 15:21 11.02.2020
2769 Clouds 7 1007 49 10000 10.8 260 14:42 11.02.2020
2770 Clouds 7 1007 49 10000 10.8 260 14:19 11.02.2020
2771 Clouds 7 1007 52 10000 9.8 260 13:56 11.02.2020
2772 Clouds 7 1007 56 10000 10.3 260 13:38 11.02.2020
2773 Clouds 7 1007 56 10000 10.3 260 13:19 11.02.2020
2774 Clouds 7 1007 56 10000 9.3 260 12:55 11.02.2020
2775 Clouds 6 1007 39 10000 9.8 250 12:36 11.02.2020
2776 Clouds 6 1007 39 10000 9.8 250 12:18 11.02.2020
2777 Clouds 6 1006 60 10000 10.8 250 11:41 11.02.2020
2778 Clouds 5 1006 60 10000 10.8 250 11:19 11.02.2020
2779 Clouds 5 1006 60 10000 10.8 250 11:19 11.02.2020
2780 Clouds 5 1006 56 10000 10.3 270 10:54 11.02.2020
2781 Clouds 5 1006 65 10000 7.7 250 10:36 11.02.2020
2782 Clouds 5 1006 65 10000 7.7 250 10:18 11.02.2020
2783 Clouds 4 1006 65 10000 6.2 250 09:43 11.02.2020
2784 Clouds 4 1005 65 10000 8.2 250 09:22 11.02.2020
2785 Clouds 4 1005 65 10000 7.2 250 08:56 11.02.2020
2786 Clouds 4 1005 60 10000 9.3 250 08:38 11.02.2020
2787 Clear 4 1005 60 10000 9.3 250 08:19 11.02.2020
2788 Clear 4 1005 60 10000 7.2 240 07:45 11.02.2020
2789 Clear 4 1005 65 10000 8.7 250 07:24 11.02.2020
2790 Clear 4 1004 65 10000 8.7 250 06:42 11.02.2020
2791 Clear 4 1004 65 10000 8.7 250 06:21 11.02.2020
2792 Clear 4 1003 65 10000 9.3 250 05:47 11.02.2020
2793 Clear 4 1003 65 10000 10.8 250 05:22 11.02.2020
2794 Clear 4 1003 60 10000 8.7 260 04:36 11.02.2020
2795 Clear 4 1002 65 10000 8.2 250 02:44 11.02.2020
2796 Clouds 4 1002 60 10000 8.7 270 02:23 11.02.2020
2797 Clouds 4 1001 65 10000 8.7 250 01:35 11.02.2020
2798 Clouds 4 1002 65 10000 8.7 250 00:38 11.02.2020
2799 Clouds 4 1000 75 10000 7.7 250 23:57 10.02.2020
2800 Clouds 4 1000 47 10000 9.3 260 23:38 10.02.2020
2801 Clouds 4 999 75 10000 8.2 250 22:58 10.02.2020
2802 Clouds 4 999 75 10000 8.2 250 22:39 10.02.2020
2803 Snow 4 999 75 10000 9.8 250 22:20 10.02.2020
2804 Snow 4 999 46 10000 8.7 260 21:45 10.02.2020
2805 Snow 4 998 75 10000 9.3 250 21:25 10.02.2020
2806 Snow 4 998 80 10000 7.7 250 20:58 10.02.2020
2807 Snow 4 998 80 10000 7.7 250 20:58 10.02.2020
2808 Rain 4 996 86 10000 8.7 250 20:39 10.02.2020
2809 Rain 4 998 86 10000 8.2 260 20:21 10.02.2020
2810 Rain 4 997 93 5000 8.7 290 19:59 10.02.2020
2811 Rain 4 997 93 4000 8.7 310 19:38 10.02.2020
2812 Rain 5 997 93 4000 8.7 310 19:19 10.02.2020
2813 Rain 5 997 93 4000 8.7 310 19:19 10.02.2020
2814 Rain 5 996 75 10000 10.3 250 18:59 10.02.2020
2815 Rain 6 996 75 10000 10.3 250 18:40 10.02.2020
2816 Rain 6 995 75 10000 10.3 260 18:21 10.02.2020
2817 Rain 6 995 70 10000 11.3 250 17:58 10.02.2020
2818 Rain 7 996 80 10000 8.7 240 17:38 10.02.2020
2819 Clouds 7 996 80 10000 8.7 240 17:20 10.02.2020
2820 Clouds 8 995 65 10000 11.3 260 16:59 10.02.2020
2821 Clouds 8 995 66 10000 8.7 260 16:40 10.02.2020
2822 Clouds 8 995 66 10000 8.7 260 16:20 10.02.2020
2823 Rain 8 996 70 10000 10.8 250 15:56 10.02.2020
2824 Rain 8 996 70 10000 10.8 250 15:38 10.02.2020
2825 Rain 8 996 66 10000 8.2 240 15:20 10.02.2020
2826 Rain 8 997 61 10000 9.8 230 14:56 10.02.2020
2827 Rain 8 998 61 10000 8.7 230 14:37 10.02.2020
2828 Rain 9 998 61 10000 8.7 230 14:18 10.02.2020
2829 Clouds 9 1000 57 10000 7.7 240 13:42 10.02.2020
2830 Clouds 9 1000 57 10000 7.7 240 13:24 10.02.2020
2831 Clouds 9 1001 53 10000 9.8 250 12:54 10.02.2020
2832 Clouds 9 1001 57 10000 10.3 250 12:36 10.02.2020
2833 Clouds 8 1001 57 10000 10.3 250 12:18 10.02.2020
2834 Clouds 8 1001 61 10000 9.8 240 11:43 10.02.2020
2835 Clouds 8 1001 65 10000 8.7 240 11:20 10.02.2020
2836 Clouds 7 1001 65 10000 9.3 250 10:48 10.02.2020
2837 Clouds 7 1000 43 10000 9.3 250 10:29 10.02.2020
2838 Clouds 6 1000 65 10000 10.8 260 09:48 10.02.2020
2839 Clouds 6 999 43 10000 12.3 260 09:27 10.02.2020
2840 Clouds 6 999 43 10000 11.3 260 08:59 10.02.2020
2841 Clouds 5 998 65 10000 9.8 260 08:38 10.02.2020
2842 Clouds 5 998 65 10000 9.8 260 08:20 10.02.2020
2843 Clouds 6 998 65 10000 9.8 260 07:52 10.02.2020
2844 Rain 6 997 65 10000 10.3 270 07:32 10.02.2020
2845 Rain 6 997 65 10000 10.8 270 06:44 10.02.2020
2846 Rain 7 993 75 10000 11.3 260 04:59 10.02.2020
2847 Rain 7 990 70 10000 10.3 250 03:54 10.02.2020
2848 Rain 8 990 75 10000 11.8 260 02:58 10.02.2020
2849 Rain 8 990 75 10000 11.8 260 02:40 10.02.2020
2850 Rain 9 988 66 10000 10.8 260 01:24 10.02.2020
2851 Rain 9 988 66 8000 9.3 250 00:40 10.02.2020
2852 Rain 9 988 66 8000 9.3 250 00:21 10.02.2020
2853 Clouds 9 988 66 10000 10.3 250 23:41 09.02.2020
2854 Clouds 9 988 66 10000 11.3 250 23:23 09.02.2020
2855 Rain 10 988 76 10000 11.3 250 22:44 09.02.2020
2856 Clouds 10 988 76 10000 10.3 240 22:23 09.02.2020
2857 Clouds 10 988 81 10000 8.7 240 21:57 09.02.2020
2858 Clouds 10 987 87 10000 7.2 230 21:38 09.02.2020
2859 Clouds 10 987 87 10000 7.2 230 21:19 09.02.2020
2860 Drizzle 10 987 81 10000 11.3 240 20:45 09.02.2020
2861 Rain 10 986 71 10000 11.8 260 20:21 09.02.2020
2862 Rain 10 986 81 10000 11.3 240 19:55 09.02.2020
2863 Rain 10 985 81 5000 13.4 250 19:37 09.02.2020
2864 Rain 10 985 81 5000 13.4 250 19:18 09.02.2020
2865 Rain 10 987 87 6000 9.8 230 18:42 09.02.2020
2866 Rain 11 986 76 10000 10.8 250 18:23 09.02.2020
2867 Rain 11 986 76 4000 14.9 260 17:59 09.02.2020
2868 Rain 11 986 76 4000 14.9 260 17:39 09.02.2020
2869 Rain 11 986 76 4000 14.9 260 17:39 09.02.2020
2870 Drizzle 11 987 93 4000 13.4 220 17:21 09.02.2020
2871 Rain 12 986 87 10000 11.3 230 16:41 09.02.2020
2872 Rain 12 986 87 10000 11.3 230 16:22 09.02.2020
2873 Rain 12 987 87 4900 10.8 230 15:58 09.02.2020
2874 Rain 12 987 87 4900 10.8 230 15:40 09.02.2020
2875 Rain 12 988 87 6000 10.8 230 15:21 09.02.2020
2876 Rain 12 988 93 3900 10.3 230 14:57 09.02.2020
2877 Thunderstorm 12 989 82 5000 11.8 220 14:38 09.02.2020
2878 Thunderstorm 12 989 82 5000 11.8 220 14:20 09.02.2020
2879 Rain 12 989 93 8000 11.8 230 13:43 09.02.2020
2880 Thunderstorm 12 990 87 7000 13.9 230 13:25 09.02.2020
2881 Rain 11 992 82 8000 11.8 210 12:56 09.02.2020
2882 Clouds 11 992 82 10000 13.4 210 12:37 09.02.2020
2883 Clouds 11 992 82 10000 13.4 210 12:18 09.02.2020
2884 Clouds 11 992 82 10000 13.4 210 12:18 09.02.2020
2885 Rain 11 994 81 6000 12.3 220 11:41 09.02.2020
2886 Rain 11 994 81 6000 12.3 220 11:20 09.02.2020
2887 Rain 11 995 87 6000 11.8 210 10:57 09.02.2020
2888 Rain 11 995 87 6000 11.8 210 10:38 09.02.2020
2889 Clouds 10 995 87 6000 11.8 210 10:20 09.02.2020
2890 Clouds 10 996 81 7000 10.8 220 09:41 09.02.2020
2891 Clouds 10 997 81 10000 10.8 220 09:22 09.02.2020
2892 Clouds 10 998 81 10000 11.8 210 08:45 09.02.2020
2893 Clouds 10 998 81 10000 11.8 210 08:45 09.02.2020
2894 Clouds 10 999 76 10000 11.3 210 08:26 09.02.2020
2895 Clouds 9 1000 81 10000 12.9 210 07:58 09.02.2020
2896 Clouds 9 1000 81 10000 10.3 210 07:34 09.02.2020
2897 Clouds 9 1002 81 10000 10.3 210 06:46 09.02.2020
2898 Clouds 9 1003 76 10000 9.8 220 06:26 09.02.2020
2899 Rain 9 1003 81 9000 11.8 210 05:38 09.02.2020
2900 Clouds 9 1004 71 10000 9.8 210 05:18 09.02.2020
2901 Clouds 9 1007 71 10000 8.7 210 03:52 09.02.2020
2902 Rain 8 1007 76 10000 10.3 210 02:44 09.02.2020
2903 Clouds 8 1007 70 10000 9.3 210 02:25 09.02.2020
2904 Clouds 8 1009 70 10000 8.2 220 01:35 09.02.2020
2905 Clouds 8 1011 76 10000 6.7 200 00:44 09.02.2020
2906 Clouds 8 1012 76 10000 6.2 200 00:24 09.02.2020
2907 Clouds 8 1013 70 10000 6.2 200 23:43 08.02.2020
2908 Clouds 8 1013 70 10000 5.7 200 23:21 08.02.2020
2909 Clouds 8 1014 70 10000 6.2 200 22:43 08.02.2020
2910 Clouds 8 1014 76 10000 4.6 200 22:22 08.02.2020
2911 Clouds 7 1015 76 10000 5.1 200 21:59 08.02.2020
2912 Clouds 7 1014 81 10000 3.1 190 21:40 08.02.2020
2913 Clouds 7 1014 81 10000 3.1 190 21:21 08.02.2020
2914 Clouds 7 1015 87 10000 6.7 180 20:57 08.02.2020
2915 Clouds 7 1015 87 10000 6.7 190 20:38 08.02.2020
2916 Clouds 7 1015 87 10000 6.7 190 20:19 08.02.2020
2917 Clouds 7 1016 87 10000 6.2 190 19:55 08.02.2020
2918 Clouds 7 1015 70 10000 5.7 210 19:37 08.02.2020
2919 Clouds 7 1016 70 10000 5.1 210 19:19 08.02.2020
2920 Clouds 8 1016 75 10000 7.7 200 18:43 08.02.2020
2921 Clouds 8 1016 75 10000 7.7 200 18:43 08.02.2020
2922 Clouds 8 1016 75 10000 6.7 210 18:24 08.02.2020
2923 Clouds 9 1016 57 10000 5.7 210 17:44 08.02.2020
2924 Clouds 9 1016 65 10000 6.2 210 17:22 08.02.2020
2925 Clouds 9 1016 57 10000 7.7 210 16:59 08.02.2020
2926 Clouds 10 1016 53 10000 5.1 220 16:40 08.02.2020
2927 Clouds 10 1016 53 10000 5.1 220 16:21 08.02.2020
2928 Clouds 10 1016 53 10000 4.6 230 15:56 08.02.2020
2929 Clouds 10 1016 53 10000 4.6 230 15:38 08.02.2020
2930 Clouds 10 1016 53 10000 4.6 230 15:18 08.02.2020
2931 Clouds 10 1016 53 10000 4.6 230 15:18 08.02.2020
2932 Clouds 10 1017 61 10000 4.6 240 14:41 08.02.2020
2933 Clouds 10 1016 66 10000 4.1 240 14:19 08.02.2020
2934 Clouds 10 1016 66 10000 4.1 240 14:19 08.02.2020
2935 Clouds 10 1016 66 10000 4.1 250 13:55 08.02.2020
2936 Clouds 9 1017 71 10000 4.1 250 13:37 08.02.2020
2937 Clouds 9 1017 71 10000 4.1 250 13:18 08.02.2020
2938 Clouds 9 1017 71 10000 4.1 250 12:39 08.02.2020
2939 Clouds 9 1017 71 10000 4.1 250 12:20 08.02.2020
2940 Clouds 9 1017 71 10000 4.6 250 11:47 08.02.2020
2941 Clouds 8 1017 93 10000 3.6 240 11:22 08.02.2020
2942 Clouds 8 1016 81 10000 4.1 250 10:59 08.02.2020
2943 Clouds 8 1016 81 10000 3.6 250 10:40 08.02.2020
2944 Clouds 8 1016 93 10000 2.6 230 10:20 08.02.2020
2945 Clouds 7 1015 93 10000 3.1 220 09:51 08.02.2020
2946 Clouds 7 1015 87 10000 3.6 230 09:26 08.02.2020
2947 Clouds 8 1014 87 10000 2.6 230 08:49 08.02.2020
2948 Clouds 8 1014 87 10000 3.6 240 08:29 08.02.2020
2949 Rain 8 1014 87 10000 3.6 240 07:59 08.02.2020
2950 Rain 8 1014 87 10000 3.6 240 07:40 08.02.2020
2951 Rain 8 1013 93 10000 3.1 260 06:56 08.02.2020
2952 Rain 9 1013 93 7000 5.7 260 06:23 08.02.2020
2953 Drizzle 9 1012 87 5000 5.1 200 05:47 08.02.2020
2954 Rain 9 1012 87 10000 3.6 190 05:28 08.02.2020
2955 Rain 10 1013 87 10000 4.1 200 04:37 08.02.2020
2956 Rain 10 1012 87 9000 6.2 200 03:48 08.02.2020
2957 Clouds 10 1013 87 10000 5.7 210 02:51 08.02.2020
2958 Clouds 10 1013 81 10000 5.7 210 01:37 08.02.2020
2959 Clouds 10 1013 81 10000 5.7 210 01:19 08.02.2020
2960 Clouds 10 1013 81 10000 5.1 200 00:38 08.02.2020
2961 Clouds 9 1013 87 10000 4.6 190 00:20 08.02.2020
2962 Clouds 9 1014 87 10000 3.6 190 23:42 07.02.2020
2963 Clouds 9 1014 81 10000 3.6 190 23:20 07.02.2020
2964 Clouds 9 1014 81 10000 4.1 180 22:56 07.02.2020
2965 Clouds 9 1014 87 10000 3.6 170 22:37 07.02.2020
2966 Clouds 9 1014 87 10000 3.6 170 22:19 07.02.2020
2967 Clouds 8 1014 87 10000 4.1 160 21:42 07.02.2020
2968 Clouds 8 1015 81 10000 4.1 160 21:22 07.02.2020
2969 Clouds 8 1015 81 10000 4.6 170 20:54 07.02.2020
2970 Clouds 8 1015 81 10000 4.1 180 20:36 07.02.2020
2971 Clouds 8 1015 81 10000 4.1 180 20:18 07.02.2020
2972 Clouds 7 1016 76 10000 4.1 170 19:40 07.02.2020
2973 Clouds 7 1015 87 10000 6.7 170 19:19 07.02.2020
2974 Clouds 7 1015 87 10000 7.2 180 18:55 07.02.2020
2975 Clouds 7 1015 87 10000 6.7 180 18:37 07.02.2020
2976 Clouds 7 1015 87 10000 6.7 180 18:18 07.02.2020
2977 Clouds 7 1016 87 10000 6.2 170 17:42 07.02.2020
2978 Clouds 8 1016 70 10000 3.6 160 17:21 07.02.2020
2979 Clouds 8 1016 66 10000 4.1 170 16:55 07.02.2020
2980 Clouds 8 1016 66 10000 3.6 160 16:37 07.02.2020
2981 Clouds 8 1016 66 10000 3.6 160 16:19 07.02.2020
2982 Clouds 8 1016 70 10000 4.6 150 15:44 07.02.2020
2983 Clouds 8 1017 57 10000 4.1 160 15:21 07.02.2020
2984 Clouds 8 1017 66 10000 4.1 150 14:44 07.02.2020
2985 Clouds 8 1017 66 10000 4.1 150 14:26 07.02.2020
2986 Clear 8 1018 61 10000 4.6 160 13:58 07.02.2020
2987 Clear 8 1018 66 10000 2.6 150 13:39 07.02.2020
2988 Clear 8 1018 66 10000 2.6 150 13:21 07.02.2020
2989 Clear 7 1019 65 10000 5.1 120 12:55 07.02.2020
2990 Clear 7 1020 70 10000 3.6 130 12:37 07.02.2020
2991 Clear 7 1020 70 10000 3.6 130 12:19 07.02.2020
2992 Clear 6 1020 81 7000 3.1 90 11:42 07.02.2020
2993 Clear 5 1021 80 7000 3.6 90 11:20 07.02.2020
2994 Haze 4 1021 86 5000 4.1 90 10:42 07.02.2020
2995 Haze 3 1021 93 3200 4.6 100 10:24 07.02.2020
2996 Haze 2 1022 93 3800 4.1 80 09:56 07.02.2020
2997 Haze 2 1022 93 3200 3.1 80 09:37 07.02.2020
2998 Haze 2 1022 93 3200 3.1 80 09:19 07.02.2020
2999 Mist 1 1021 64 2000 2.6 80 08:42 07.02.2020
3000 Haze 1 1022 93 4500 4.6 100 08:21 07.02.2020
3001 Haze 1 1023 93 2700 4.6 90 07:45 07.02.2020
3002 Haze 1 1023 93 2600 2.6 80 07:26 07.02.2020
3003 Haze 1 1023 93 2800 1.5 0 06:46 07.02.2020
3004 Haze 1 1024 93 3000 3.1 80 06:26 07.02.2020
3005 Haze 1 1024 93 3700 3.6 80 05:45 07.02.2020
3006 Mist 1 1026 93 3700 2.6 110 04:43 07.02.2020
3007 Haze 1 1027 93 4500 1.5 90 02:51 07.02.2020
3008 Clear 1 1027 84 6000 1.5 70 01:51 07.02.2020
3009 Clear 1 1028 93 6000 2.1 30 00:48 07.02.2020
3010 Haze 1 1028 93 5000 1.5 0 00:21 07.02.2020
3011 Clear 2 1028 93 10000 3.1 130 23:37 06.02.2020
3012 Clear 2 1028 93 10000 3.1 130 23:19 06.02.2020
3013 Clear 2 1028 93 10000 3.6 130 22:44 06.02.2020
3014 Clear 2 1028 86 10000 3.1 100 22:25 06.02.2020
3015 Clear 2 1029 86 9000 2.6 90 21:55 06.02.2020
3016 Clear 2 1028 93 10000 2.1 120 21:36 06.02.2020
3017 Clear 2 1028 93 10000 2.1 120 21:18 06.02.2020
3018 Haze 3 1029 79 9000 0.5 110 20:54 06.02.2020
3019 Clear 3 1029 93 10000 3.1 140 20:36 06.02.2020
3020 Clear 3 1029 93 10000 3.1 140 20:18 06.02.2020
3021 Clear 4 1029 86 10000 2.1 130 19:55 06.02.2020
3022 Clear 4 1029 93 10000 2.1 130 19:36 06.02.2020
3023 Clear 4 1029 93 10000 2.1 130 19:18 06.02.2020
3024 Clear 5 1029 80 10000 2.1 120 18:40 06.02.2020
3025 Clear 6 1029 75 10000 1.5 130 18:22 06.02.2020
3026 Clear 6 1029 75 10000 1.5 130 18:22 06.02.2020
3027 Clear 7 1029 75 10000 2.1 140 17:55 06.02.2020
3028 Clear 7 1030 70 10000 2.6 80 17:37 06.02.2020
3029 Clear 8 1030 70 10000 2.6 80 17:18 06.02.2020
3030 Clear 9 1030 61 10000 1.5 0 16:41 06.02.2020
3031 Clear 9 1030 61 10000 1.5 0 16:23 06.02.2020
3032 Clear 9 1030 61 10000 1.5 0 15:43 06.02.2020
3033 Clear 9 1030 61 10000 1.5 0 15:43 06.02.2020
3034 Clear 9 1030 66 10000 2.1 90 15:22 06.02.2020
3035 Clear 9 1031 70 10000 1.5 0 14:51 06.02.2020
3036 Clear 9 1031 70 10000 1 0 14:29 06.02.2020
3037 Clear 8 1031 70 10000 1 0 13:59 06.02.2020
3038 Clear 8 1031 70 10000 1 0 13:41 06.02.2020
3039 Clear 7 1032 75 10000 0.5 0 13:22 06.02.2020
3040 Clear 7 1032 75 10000 0.75 190 12:44 06.02.2020
3041 Clear 6 1032 81 10000 0.5 0 12:19 06.02.2020
3042 Clear 6 1032 81 10000 0.5 0 12:19 06.02.2020
3043 Clear 5 1032 87 10000 1.5 0 11:57 06.02.2020
3044 Clear 4 1032 86 10000 2.1 240 11:39 06.02.2020
3045 Clear 3 1032 86 10000 2.1 240 11:19 06.02.2020
3046 Clear 2 1032 86 10000 2.1 0 10:57 06.02.2020
3047 Clear 1 1032 86 10000 2.1 0 10:38 06.02.2020
3048 Clear 1 1032 86 10000 2.1 0 10:38 06.02.2020
3049 Fog 0 1032 100 9000 1.5 200 10:20 06.02.2020
3050 Fog -1 1032 100 10000 1.5 180 09:56 06.02.2020
3051 Clear -1 1032 93 10000 0.78 213 09:37 06.02.2020
3052 Clear -1 1032 93 10000 0.78 213 09:19 06.02.2020
3053 Fog -1 1032 100 100 0.5 350 08:41 06.02.2020
3054 Clear -1 1032 100 10000 1 220 08:22 06.02.2020
3055 Clear -1 1032 100 10000 1.5 230 07:48 06.02.2020
3056 Clouds -1 1033 85 100 1 350 07:27 06.02.2020
3057 Clouds -1 1033 100 100 0.5 350 06:37 06.02.2020
3058 Clouds -1 1033 100 100 0.5 350 06:37 06.02.2020
3059 Clouds -1 1033 100 100 0.5 350 06:18 06.02.2020
3060 Mist 0 1034 85 4000 1.34 230 04:53 06.02.2020
3061 Clear 1 1034 85 6000 0.5 50 03:21 06.02.2020
3062 Clear 1 1034 85 8000 0.5 130 02:37 06.02.2020
3063 Clouds 1 1035 93 7000 1 210 01:41 06.02.2020
3064 Clouds 2 1036 93 7000 1 260 00:59 06.02.2020
3065 Clouds 2 1035 80 10000 2.1 240 00:26 06.02.2020
3066 Clouds 2 1035 93 10000 1.5 200 23:48 05.02.2020
3067 Clouds 3 1035 86 10000 3.6 200 23:29 05.02.2020
3068 Clouds 3 1035 86 10000 0.5 110 22:59 05.02.2020
3069 Clouds 3 1035 86 10000 3.6 210 22:40 05.02.2020
3070 Clouds 3 1035 86 10000 3.6 210 22:22 05.02.2020
3071 Clouds 4 1035 86 10000 4.1 200 21:55 05.02.2020
3072 Clouds 4 1035 86 10000 4.1 200 21:55 05.02.2020
3073 Clouds 4 1035 86 10000 3.6 200 21:36 05.02.2020
3074 Clouds 4 1035 86 10000 3.6 200 21:18 05.02.2020
3075 Clouds 5 1035 80 10000 3.6 190 20:39 05.02.2020
3076 Clouds 5 1035 80 10000 3.6 190 20:39 05.02.2020
3077 Clouds 5 1035 80 10000 3.6 190 20:39 05.02.2020
3078 Clouds 5 1035 80 10000 3.6 190 20:20 05.02.2020
3079 Clouds 5 1035 75 10000 1.5 180 19:58 05.02.2020
3080 Clouds 5 1035 75 10000 1.5 180 19:40 05.02.2020
3081 Clouds 6 1036 80 10000 2.6 200 19:19 05.02.2020
3082 Clouds 6 1036 65 10000 2.6 230 18:56 05.02.2020
3083 Clouds 6 1036 61 10000 2.1 230 18:38 05.02.2020
3084 Clouds 7 1036 61 10000 2.1 230 18:18 05.02.2020
3085 Clouds 7 1036 65 10000 1.5 0 17:38 05.02.2020
3086 Clouds 8 1036 61 10000 2.1 240 17:20 05.02.2020
3087 Clouds 8 1037 61 10000 3.1 250 16:57 05.02.2020
3088 Clouds 8 1037 61 10000 3.1 250 16:39 05.02.2020
3089 Clouds 8 1037 61 10000 3.1 250 16:20 05.02.2020
3090 Clouds 8 1037 61 10000 3.1 250 15:46 05.02.2020
3091 Clouds 8 1037 61 10000 3.1 250 15:20 05.02.2020
3092 Clouds 8 1037 61 10000 2.6 270 14:58 05.02.2020
3093 Clouds 8 1037 61 10000 2.6 270 14:40 05.02.2020
3094 Clouds 8 1038 61 10000 2.1 230 14:21 05.02.2020
3095 Clouds 8 1038 66 10000 1.5 0 13:43 05.02.2020
3096 Clouds 7 1038 70 10000 1.5 0 13:23 05.02.2020
3097 Clouds 7 1038 70 10000 1.5 0 12:58 05.02.2020
3098 Clouds 7 1038 75 10000 1.5 0 12:36 05.02.2020
3099 Clouds 6 1038 75 10000 1.5 0 12:18 05.02.2020
3100 Clouds 5 1038 70 10000 1.5 0 11:41 05.02.2020
3101 Clouds 4 1038 81 10000 2.1 240 11:23 05.02.2020
3102 Clouds 4 1038 75 10000 1 290 10:57 05.02.2020
3103 Clouds 3 1038 80 10000 1 0 10:39 05.02.2020
3104 Clouds 3 1038 80 10000 1 0 10:18 05.02.2020
3105 Clouds 2 1037 86 10000 1 0 09:40 05.02.2020
3106 Clouds 2 1037 86 10000 1 0 09:22 05.02.2020
3107 Clouds 2 1037 86 10000 1 0 08:56 05.02.2020
3108 Clouds 2 1037 86 10000 1 0 08:37 05.02.2020
3109 Clear 2 1037 86 10000 1 0 08:19 05.02.2020
3110 Clear 2 1037 86 10000 1 350 07:42 05.02.2020
3111 Clear 2 1037 80 10000 1 0 07:19 05.02.2020
3112 Clear 2 1036 75 10000 2.6 300 06:40 05.02.2020
3113 Clear 2 1036 75 10000 2.6 300 06:21 05.02.2020
3114 Clear 2 1036 75 10000 3.1 290 05:47 05.02.2020
3115 Clear 2 1036 75 10000 2.6 290 05:18 05.02.2020
3116 Clear 3 1035 75 10000 1.5 0 04:27 05.02.2020
3117 Clouds 3 1035 93 8000 2.1 300 02:59 05.02.2020
3118 Clear 4 1034 93 10000 1.5 290 02:22 05.02.2020
3119 Clouds 5 1034 70 10000 2.6 300 01:34 05.02.2020
3120 Clear 5 1033 75 10000 2.1 20 00:25 05.02.2020
3121 Clouds 6 1033 65 10000 3.1 300 23:42 04.02.2020
3122 Clear 6 1032 65 10000 1.5 0 23:22 04.02.2020
3123 Clouds 6 1032 70 10000 2.6 340 22:58 04.02.2020
3124 Clouds 7 1031 75 10000 2.1 340 22:40 04.02.2020
3125 Clouds 7 1031 75 10000 2.1 340 22:20 04.02.2020
3126 Clouds 7 1031 87 10000 3.6 320 21:57 04.02.2020
3127 Clouds 7 1030 87 10000 4.1 310 21:38 04.02.2020
3128 Clouds 7 1030 87 10000 4.1 310 21:19 04.02.2020
3129 Clouds 7 1030 81 10000 4.6 320 20:55 04.02.2020
3130 Clouds 8 1029 87 10000 5.7 320 20:37 04.02.2020
3131 Clouds 8 1029 76 10000 4.1 330 20:18 04.02.2020
3132 Clouds 8 1029 76 10000 4.1 330 19:55 04.02.2020
3133 Clouds 8 1028 75 10000 4.6 310 19:36 04.02.2020
3134 Clouds 8 1027 75 10000 5.1 310 19:18 04.02.2020
3135 Clouds 8 1027 75 10000 5.7 310 18:41 04.02.2020
3136 Clouds 8 1027 75 10000 5.7 310 18:22 04.02.2020
3137 Clouds 8 1027 75 10000 5.7 310 18:21 04.02.2020
3138 Clouds 8 1026 75 10000 6.7 310 17:58 04.02.2020
3139 Clouds 9 1025 75 10000 7.7 310 17:40 04.02.2020
3140 Clouds 9 1025 70 10000 6.7 320 17:20 04.02.2020
3141 Clouds 9 1024 70 10000 5.1 320 16:39 04.02.2020
3142 Clouds 9 1024 70 10000 5.1 320 16:21 04.02.2020
3143 Clouds 9 1024 66 10000 6.7 300 15:58 04.02.2020
3144 Clouds 9 1024 66 10000 6.7 300 15:58 04.02.2020
3145 Clouds 9 1023 61 10000 8.2 300 15:39 04.02.2020
3146 Clouds 9 1023 66 10000 6.2 310 15:20 04.02.2020
3147 Clouds 9 1023 65 10000 7.2 310 14:57 04.02.2020
3148 Clouds 8 1022 61 10000 7.7 300 14:39 04.02.2020
3149 Clouds 8 1022 61 10000 7.7 300 14:20 04.02.2020
3150 Clouds 8 1021 57 10000 8.2 300 13:41 04.02.2020
3151 Clouds 8 1021 57 10000 8.7 300 13:23 04.02.2020
3152 Clouds 8 1020 53 10000 8.2 290 12:59 04.02.2020
3153 Clouds 8 1020 53 10000 8.2 290 12:59 04.02.2020
3154 Clouds 8 1020 53 10000 8.2 290 12:41 04.02.2020
3155 Clouds 8 1020 53 10000 9.3 290 12:22 04.02.2020
3156 Clouds 7 1019 53 10000 9.8 280 11:56 04.02.2020
3157 Clouds 7 1019 53 10000 9.3 280 11:37 04.02.2020
3158 Clouds 7 1019 57 10000 8.2 290 11:19 04.02.2020
3159 Clear 6 1018 65 10000 9.3 280 10:46 04.02.2020
3160 Clear 6 1018 65 10000 7.7 270 10:26 04.02.2020
3161 Clouds 5 1018 70 10000 8.7 260 09:57 04.02.2020
3162 Clear 5 1017 70 10000 8.2 270 09:39 04.02.2020
3163 Clear 5 1017 70 10000 8.2 270 09:20 04.02.2020
3164 Clear 5 1017 70 10000 7.7 270 08:46 04.02.2020
3165 Clear 5 1016 70 10000 10.3 270 08:27 04.02.2020
3166 Clouds 5 1016 80 10000 7.7 270 07:52 04.02.2020
3167 Clouds 5 1016 70 10000 9.8 260 07:25 04.02.2020
3168 Clouds 5 1015 70 10000 9.8 270 06:54 04.02.2020
3169 Rain 5 1015 70 10000 11.3 260 06:36 04.02.2020
3170 Rain 5 1014 70 10000 8.2 250 05:34 04.02.2020
3171 Rain 5 1014 70 10000 8.2 250 05:34 04.02.2020
3172 Clear 4 1014 63 10000 7.2 270 04:27 04.02.2020
3173 Clear 4 1015 75 10000 7.7 270 03:47 04.02.2020
3174 Clear 4 1014 63 10000 7.2 280 03:29 04.02.2020
3175 Clear 4 1014 80 10000 5.7 270 02:42 04.02.2020
3176 Clouds 4 1014 70 10000 7.2 260 02:24 04.02.2020
3177 Clouds 4 1014 70 10000 7.2 270 01:45 04.02.2020
3178 Clouds 5 1014 75 10000 5.7 270 00:56 04.02.2020
3179 Clouds 5 1013 75 10000 5.7 280 00:23 04.02.2020
3180 Clouds 5 1013 62 10000 4.1 290 23:49 03.02.2020
3181 Clouds 5 1013 62 10000 5.1 290 23:30 03.02.2020
3182 Rain 5 1012 59 10000 7.2 290 22:58 03.02.2020
3183 Rain 6 1012 59 10000 7.2 300 22:38 03.02.2020
3184 Rain 6 1012 59 10000 7.2 300 22:19 03.02.2020
3185 Rain 6 1011 59 10000 7.7 300 21:42 03.02.2020
3186 Clouds 7 1011 65 10000 6.2 300 21:20 03.02.2020
3187 Rain 7 1011 61 10000 6.7 290 20:56 03.02.2020
3188 Clouds 7 1011 81 10000 6.2 300 20:38 03.02.2020
3189 Clouds 8 1011 81 10000 6.2 300 20:18 03.02.2020
3190 Clouds 8 1011 75 10000 3.6 280 19:42 03.02.2020
3191 Rain 8 1011 81 10000 3.6 260 19:23 03.02.2020
3192 Rain 8 1011 81 10000 4.6 270 18:59 03.02.2020
3193 Rain 8 1012 75 9000 6.7 270 18:41 03.02.2020
3194 Rain 8 1012 75 9000 6.7 270 18:22 03.02.2020
3195 Rain 9 1012 70 9000 5.7 270 17:57 03.02.2020
3196 Rain 9 1012 70 10000 5.7 270 17:39 03.02.2020
3197 Clouds 9 1011 62 10000 6.7 260 17:19 03.02.2020
3198 Clouds 9 1011 62 10000 6.7 260 17:19 03.02.2020
3199 Clouds 10 1012 71 10000 6.7 260 16:40 03.02.2020
3200 Clouds 10 1012 71 10000 6.7 260 16:22 03.02.2020
3201 Clouds 10 1013 71 10000 5.1 260 15:59 03.02.2020
3202 Clouds 11 1013 71 10000 5.1 260 15:39 03.02.2020
3203 Clouds 11 1012 66 10000 5.7 250 15:20 03.02.2020
3204 Clouds 11 1013 62 10000 6.7 250 14:58 03.02.2020
3205 Clouds 11 1013 62 10000 6.7 250 14:58 03.02.2020
3206 Clouds 11 1013 62 10000 6.7 250 14:58 03.02.2020
3207 Clouds 11 1013 62 10000 6.7 250 14:39 03.02.2020
3208 Clouds 11 1014 71 10000 6.2 250 14:21 03.02.2020
3209 Clouds 11 1013 66 10000 6.2 260 13:54 03.02.2020
3210 Clouds 11 1014 71 10000 6.7 250 13:36 03.02.2020
3211 Clouds 11 1014 71 10000 6.7 250 13:18 03.02.2020
3212 Clouds 10 1015 71 10000 6.7 250 12:40 03.02.2020
3213 Clouds 10 1015 71 10000 6.7 250 12:21 03.02.2020
3214 Clouds 10 1015 71 10000 6.2 250 11:57 03.02.2020
3215 Clouds 10 1014 71 10000 5.7 250 11:37 03.02.2020
3216 Clouds 9 1015 87 10000 5.7 240 11:18 03.02.2020
3217 Clouds 9 1015 87 10000 5.7 240 11:18 03.02.2020
3218 Clouds 9 1014 76 10000 5.1 240 10:41 03.02.2020
3219 Clouds 9 1014 81 10000 6.2 240 10:23 03.02.2020
3220 Clouds 9 1014 81 10000 6.2 240 10:23 03.02.2020
3221 Clouds 8 1014 81 10000 5.7 250 09:49 03.02.2020
3222 Clouds 8 1013 76 10000 5.1 250 09:27 03.02.2020
3223 Clouds 8 1013 76 10000 5.1 250 08:58 03.02.2020
3224 Clouds 8 1013 76 10000 5.1 250 08:40 03.02.2020
3225 Clouds 8 1013 76 10000 5.1 250 08:40 03.02.2020
3226 Clouds 8 1013 76 10000 5.7 250 08:21 03.02.2020
3227 Clouds 9 1012 76 10000 6.2 260 07:41 03.02.2020
3228 Clouds 9 1012 76 10000 6.2 260 07:22 03.02.2020
3229 Clouds 9 1012 76 10000 6.2 260 07:22 03.02.2020
3230 Clouds 9 1012 81 10000 7.2 260 06:55 03.02.2020
3231 Clouds 9 1011 87 10000 9.3 270 06:30 03.02.2020
3232 Clouds 9 1011 76 10000 6.7 250 05:51 03.02.2020
3233 Clouds 9 1011 76 10000 7.7 250 05:31 03.02.2020
3234 Clouds 10 1010 76 10000 6.7 250 04:35 03.02.2020
3235 Clouds 10 1010 76 10000 7.2 250 02:38 03.02.2020
3236 Clouds 10 1010 76 10000 7.2 250 02:20 03.02.2020
3237 Clouds 10 1010 81 10000 6.7 230 00:49 03.02.2020
3238 Clouds 10 1009 81 10000 7.2 250 00:26 03.02.2020
3239 Clouds 10 1009 81 10000 7.7 250 23:55 02.02.2020
3240 Clouds 10 1009 81 10000 5.7 240 23:36 02.02.2020
3241 Clouds 10 1009 81 10000 5.7 240 23:18 02.02.2020
3242 Clouds 10 1010 87 10000 6.7 220 22:39 02.02.2020
3243 Clouds 10 1010 87 10000 6.2 220 22:21 02.02.2020
3244 Clouds 11 1009 76 10000 5.1 240 21:58 02.02.2020
3245 Clouds 11 1009 76 10000 5.1 240 21:39 02.02.2020
3246 Clouds 11 1009 76 10000 5.7 240 21:20 02.02.2020
3247 Clouds 11 1009 76 10000 5.7 240 20:57 02.02.2020
3248 Clouds 11 1009 76 10000 5.7 240 20:39 02.02.2020
3249 Clouds 11 1009 76 10000 5.7 240 20:20 02.02.2020
3250 Clouds 11 1009 76 10000 5.7 240 20:20 02.02.2020
3251 Clouds 11 1010 93 10000 6.7 210 19:57 02.02.2020
3252 Clouds 11 1010 93 10000 6.7 210 19:38 02.02.2020
3253 Clouds 11 1010 93 10000 7.2 220 19:20 02.02.2020
3254 Clouds 11 1010 87 10000 6.7 220 18:55 02.02.2020
3255 Clouds 11 1010 93 10000 7.2 220 18:37 02.02.2020
3256 Clouds 11 1010 93 10000 7.2 220 18:18 02.02.2020
3257 Clouds 11 1009 76 10000 5.7 240 17:57 02.02.2020
3258 Clouds 12 1008 66 10000 6.7 250 17:37 02.02.2020
3259 Clouds 12 1008 66 10000 6.7 250 17:18 02.02.2020
3260 Clouds 12 1008 66 10000 5.1 250 16:57 02.02.2020
3261 Clouds 12 1008 66 10000 7.7 260 16:37 02.02.2020
3262 Clouds 12 1008 66 10000 7.7 260 16:18 02.02.2020
3263 Clouds 12 1008 71 10000 7.7 250 15:55 02.02.2020
3264 Clouds 12 1008 71 10000 6.2 250 15:36 02.02.2020
3265 Clouds 12 1008 71 10000 6.2 250 15:18 02.02.2020
3266 Clouds 13 1007 66 10000 8.7 270 14:43 02.02.2020
3267 Clouds 13 1007 66 10000 9.8 270 14:19 02.02.2020
3268 Clouds 13 1006 71 10000 9.3 250 13:58 02.02.2020
3269 Clouds 13 1006 71 10000 9.3 250 13:39 02.02.2020
3270 Clouds 13 1006 71 10000 8.7 250 13:20 02.02.2020
3271 Clouds 12 1006 71 10000 9.8 260 12:56 02.02.2020
3272 Clouds 12 1005 76 10000 9.8 260 12:37 02.02.2020
3273 Clouds 12 1005 76 10000 9.8 260 12:18 02.02.2020
3274 Clouds 12 1004 76 10000 9.3 260 11:42 02.02.2020
3275 Clouds 12 1004 82 10000 8.2 250 11:19 02.02.2020
3276 Clouds 12 1003 87 10000 7.7 250 10:57 02.02.2020
3277 Rain 11 1003 87 10000 6.7 250 10:38 02.02.2020
3278 Rain 11 1003 87 10000 6.7 250 10:20 02.02.2020
3279 Rain 11 1002 93 10000 6.2 250 09:57 02.02.2020
3280 Clouds 11 1002 93 10000 5.7 250 09:39 02.02.2020
3281 Clouds 10 1002 93 10000 5.7 250 09:20 02.02.2020
3282 Rain 10 1003 93 8000 2.1 0 08:45 02.02.2020
3283 Rain 9 1002 93 10000 2.1 90 08:26 02.02.2020
3284 Drizzle 8 1003 100 4000 2.1 100 07:48 02.02.2020
3285 Rain 8 1004 93 3200 2.6 0 07:30 02.02.2020
3286 Rain 7 1004 93 6000 4.6 110 06:46 02.02.2020
3287 Rain 7 1005 93 8000 3.6 100 06:28 02.02.2020
3288 Rain 6 1006 93 8000 4.1 110 05:53 02.02.2020
3289 Rain 6 1007 93 8000 2.6 100 05:18 02.02.2020
3290 Rain 7 1009 87 9000 1.5 170 03:41 02.02.2020
3291 Rain 7 1009 75 10000 2.6 210 03:21 02.02.2020
3292 Clouds 7 1010 75 10000 3.1 230 02:19 02.02.2020
3293 Clouds 7 1010 75 10000 4.6 240 01:36 02.02.2020
3294 Clouds 7 1010 75 10000 5.1 240 00:49 02.02.2020
3295 Clouds 7 1010 70 10000 5.1 240 00:24 02.02.2020
3296 Clouds 7 1010 70 10000 5.7 240 23:55 01.02.2020
3297 Clouds 7 1010 70 10000 6.2 250 23:37 01.02.2020
3298 Clouds 7 1010 70 10000 6.2 250 23:18 01.02.2020
3299 Clouds 7 1010 70 10000 6.7 240 22:42 01.02.2020
3300 Clouds 7 1010 70 10000 6.7 240 22:18 01.02.2020
3301 Clouds 7 1010 70 10000 6.7 240 22:18 01.02.2020
3302 Clouds 7 1010 70 10000 6.7 240 21:40 01.02.2020
3303 Clouds 8 1009 66 10000 7.2 250 21:19 01.02.2020
3304 Clouds 8 1008 66 10000 7.2 250 20:55 01.02.2020
3305 Clouds 8 1008 70 10000 7.7 250 20:36 01.02.2020
3306 Clouds 8 1008 70 10000 7.7 250 20:18 01.02.2020
3307 Clouds 8 1008 65 10000 7.2 250 19:54 01.02.2020
3308 Clouds 8 1007 65 10000 6.7 250 19:36 01.02.2020
3309 Clouds 8 1007 65 10000 6.7 250 19:18 01.02.2020
3310 Clouds 9 1006 57 10000 11.8 250 18:55 01.02.2020
3311 Clouds 9 1007 58 10000 7.2 250 18:36 01.02.2020
3312 Clouds 9 1007 58 10000 7.2 250 18:18 01.02.2020
3313 Clouds 9 1006 57 10000 10.8 270 17:45 01.02.2020
3314 Clouds 10 1005 53 10000 10.3 260 17:21 01.02.2020
3315 Clouds 10 1005 53 10000 9.8 260 16:59 01.02.2020
3316 Clouds 10 1005 61 10000 9.3 260 16:39 01.02.2020
3317 Clouds 11 1004 50 10000 11.3 250 16:20 01.02.2020
3318 Clouds 11 1004 50 10000 11.3 250 15:45 01.02.2020
3319 Clouds 11 1004 54 10000 9.8 260 15:27 01.02.2020
3320 Clouds 11 1004 58 10000 9.3 260 14:58 01.02.2020
3321 Clouds 11 1004 54 10000 10.3 260 14:39 01.02.2020
3322 Clouds 11 1004 54 10000 10.3 260 14:20 01.02.2020
3323 Clouds 11 1003 54 10000 10.8 260 13:45 01.02.2020
3324 Clouds 11 1004 58 10000 9.3 260 13:21 01.02.2020
3325 Clouds 11 1003 58 10000 9.8 250 12:44 01.02.2020
3326 Clouds 11 1003 62 10000 8.7 250 12:26 01.02.2020
3327 Clouds 11 1003 71 10000 8.2 250 11:58 01.02.2020
3328 Clouds 10 1003 71 10000 8.7 260 11:38 01.02.2020
3329 Clouds 10 1003 71 10000 8.7 260 11:19 01.02.2020
3330 Clouds 10 1002 71 10000 8.2 250 10:56 01.02.2020
3331 Clouds 10 1002 76 10000 7.7 250 10:38 01.02.2020
3332 Clouds 10 1002 76 10000 7.7 250 10:20 01.02.2020
3333 Clouds 9 1002 87 10000 6.2 230 09:54 01.02.2020
3334 Clouds 9 1002 93 10000 6.2 230 09:36 01.02.2020
3335 Rain 9 1001 76 10000 7.2 240 09:18 01.02.2020
3336 Clouds 10 1001 87 10000 4.6 250 08:40 01.02.2020
3337 Clouds 10 1001 81 10000 5.7 240 07:48 01.02.2020
3338 Clouds 10 1001 81 10000 5.1 240 07:26 01.02.2020
3339 Clouds 10 1001 81 10000 4.6 240 06:54 01.02.2020
3340 Clouds 10 1001 81 10000 4.6 240 06:54 01.02.2020
3341 Clouds 10 1001 87 10000 3.6 240 06:31 01.02.2020
3342 Clouds 10 1001 87 10000 5.1 240 05:51 01.02.2020
3343 Clouds 11 1002 93 10000 5.1 210 03:48 01.02.2020
3344 Clouds 11 1002 87 10000 4.1 240 03:21 01.02.2020
3345 Clouds 11 1002 93 10000 4.1 230 02:44 01.02.2020
3346 Clouds 11 1002 81 10000 5.1 240 02:25 01.02.2020
3347 Clouds 11 1002 81 10000 6.7 230 01:50 01.02.2020
3348 Clouds 11 1002 93 10000 7.2 230 01:30 01.02.2020
3349 Clouds 11 1002 93 10000 5.7 230 00:29 01.02.2020
3350 Rain 11 1003 93 9000 6.7 220 23:43 31.01.2020
3351 Rain 11 1004 93 9000 7.2 220 23:20 31.01.2020
3352 Rain 11 1003 100 9000 8.2 210 22:59 31.01.2020
3353 Rain 11 1003 100 9000 8.2 210 22:40 31.01.2020
3354 Rain 11 1003 87 10000 5.7 230 22:22 31.01.2020
3355 Rain 11 1004 100 9000 9.3 210 21:57 31.01.2020
3356 Rain 11 1004 87 10000 6.2 230 21:39 31.01.2020
3357 Rain 11 1004 87 10000 6.2 230 21:19 31.01.2020
3358 Rain 11 1003 87 10000 6.2 230 20:56 31.01.2020
3359 Rain 11 1004 87 10000 6.7 230 20:38 31.01.2020
3360 Rain 11 1004 87 10000 6.7 230 20:20 31.01.2020
3361 Rain 11 1004 87 9000 5.7 230 19:56 31.01.2020
3362 Rain 11 1004 87 10000 5.7 230 19:37 31.01.2020
3363 Clouds 11 1004 87 10000 5.7 230 19:18 31.01.2020
3364 Clouds 11 1005 87 10000 6.2 210 18:42 31.01.2020
3365 Clouds 11 1005 87 10000 5.1 220 18:23 31.01.2020
3366 Clouds 11 1005 87 10000 5.1 220 17:55 31.01.2020
3367 Clouds 11 1005 81 10000 6.2 230 17:36 31.01.2020
3368 Clouds 11 1005 81 10000 6.2 230 17:18 31.01.2020
3369 Clouds 11 1005 81 10000 6.7 230 16:55 31.01.2020
3370 Clouds 11 1005 81 10000 7.2 230 16:37 31.01.2020
3371 Clouds 11 1005 81 10000 7.2 230 16:18 31.01.2020
3372 Clouds 11 1005 81 10000 7.2 230 16:18 31.01.2020
3373 Clouds 11 1006 81 10000 5.7 210 15:41 31.01.2020
3374 Clouds 11 1006 81 10000 5.7 210 15:21 31.01.2020
3375 Clouds 11 1006 81 10000 6.7 230 14:58 31.01.2020
3376 Clouds 11 1007 76 10000 6.7 230 14:39 31.01.2020
3377 Clouds 11 1007 76 10000 6.7 230 14:20 31.01.2020
3378 Clouds 11 1007 76 10000 6.7 230 13:43 31.01.2020
3379 Clouds 11 1007 82 10000 6.7 230 13:25 31.01.2020
3380 Clouds 11 1007 81 10000 5.7 220 12:45 31.01.2020
3381 Clouds 11 1007 81 10000 5.7 220 12:26 31.01.2020
3382 Clouds 11 1008 87 10000 5.7 220 11:56 31.01.2020
3383 Clouds 11 1008 87 10000 5.7 220 11:38 31.01.2020
3384 Clouds 10 1008 87 10000 5.1 240 11:20 31.01.2020
3385 Clouds 10 1008 87 10000 5.7 220 10:57 31.01.2020
3386 Clouds 10 1008 87 10000 5.7 230 10:37 31.01.2020
3387 Clouds 10 1008 87 10000 5.7 230 10:19 31.01.2020
3388 Clouds 9 1008 81 10000 6.7 230 09:42 31.01.2020
3389 Clouds 9 1007 87 10000 8.2 230 09:22 31.01.2020
3390 Clouds 9 1008 100 10000 7.2 220 08:57 31.01.2020
3391 Clouds 9 1008 100 10000 7.2 220 08:39 31.01.2020
3392 Clouds 9 1007 87 10000 7.2 240 08:20 31.01.2020
3393 Clouds 9 1007 87 10000 6.2 240 07:49 31.01.2020
3394 Clouds 9 1007 87 10000 5.7 250 07:19 31.01.2020
3395 Clouds 9 1007 81 10000 5.1 240 06:37 31.01.2020
3396 Clouds 9 1007 81 10000 5.1 240 05:56 31.01.2020
3397 Clouds 9 1006 87 10000 4.6 240 05:30 31.01.2020
3398 Clouds 9 1006 81 10000 5.1 240 04:36 31.01.2020
3399 Clouds 10 1006 87 10000 4.6 250 02:50 31.01.2020
3400 Clouds 10 1005 81 10000 6.7 270 01:32 31.01.2020
3401 Clouds 10 1005 81 10000 5.7 260 00:41 31.01.2020
3402 Clouds 11 1004 81 10000 7.7 250 00:23 31.01.2020
3403 Clouds 11 1004 81 10000 7.2 250 23:42 30.01.2020
3404 Clouds 11 1004 87 10000 6.2 250 23:23 30.01.2020
3405 Clouds 11 1003 93 10000 7.7 240 22:39 30.01.2020
3406 Clouds 11 1003 100 10000 7.2 240 22:21 30.01.2020
3407 Clouds 11 1002 87 10000 6.2 250 21:59 30.01.2020
3408 Clouds 11 1001 87 10000 7.7 250 21:41 30.01.2020
3409 Clouds 11 1001 87 10000 7.7 250 21:19 30.01.2020
3410 Clouds 12 1001 87 10000 7.2 250 20:57 30.01.2020
3411 Clouds 12 1000 87 10000 6.7 240 20:38 30.01.2020
3412 Clouds 12 1000 87 10000 6.7 240 20:20 30.01.2020
3413 Clouds 12 1000 87 10000 6.2 250 19:55 30.01.2020
3414 Clouds 12 1000 87 10000 5.7 240 19:36 30.01.2020
3415 Clouds 12 1000 87 10000 5.7 240 19:18 30.01.2020
3416 Clouds 12 1000 87 8000 6.7 250 18:38 30.01.2020
3417 Clouds 12 1000 87 8000 6.7 250 18:19 30.01.2020
3418 Clouds 12 1000 87 10000 6.7 250 17:55 30.01.2020
3419 Clouds 12 1000 87 10000 5.7 240 17:36 30.01.2020
3420 Clouds 11 1000 87 10000 5.7 240 17:18 30.01.2020
3421 Clouds 11 1000 87 10000 6.2 240 16:40 30.01.2020
3422 Clouds 11 999 87 10000 4.6 250 16:21 30.01.2020
3423 Clouds 11 999 87 10000 3.1 230 15:58 30.01.2020
3424 Clouds 11 999 87 10000 3.1 230 15:40 30.01.2020
3425 Drizzle 11 999 93 5000 3.6 240 15:19 30.01.2020
3426 Clouds 11 1000 93 10000 3.1 210 14:43 30.01.2020
3427 Clouds 11 1000 93 10000 3.1 210 14:43 30.01.2020
3428 Rain 10 1001 87 10000 3.1 220 14:25 30.01.2020
3429 Rain 10 1002 87 10000 3.6 220 13:43 30.01.2020
3430 Rain 10 1003 87 10000 3.6 260 13:24 30.01.2020
3431 Clouds 9 1002 87 10000 5.1 190 12:58 30.01.2020
3432 Clouds 9 1003 87 10000 4.1 190 12:39 30.01.2020
3433 Clouds 9 1003 87 10000 4.1 190 12:21 30.01.2020
3434 Clouds 9 1004 87 10000 3.1 160 11:41 30.01.2020
3435 Mist 9 1004 93 2000 6.7 170 11:23 30.01.2020
3436 Mist 9 1004 93 1600 6.2 170 10:59 30.01.2020
3437 Haze 8 1004 93 6000 4.6 180 10:41 30.01.2020
3438 Haze 8 1004 93 6000 4.6 180 10:21 30.01.2020
3439 Mist 8 1005 93 1600 6.2 160 09:47 30.01.2020
3440 Mist 8 1006 93 1800 6.7 170 09:28 30.01.2020
3441 Clouds 8 1006 93 10000 3.1 210 08:57 30.01.2020
3442 Clouds 8 1006 87 10000 3.6 220 08:37 30.01.2020
3443 Clouds 8 1006 87 10000 2.6 230 08:18 30.01.2020
3444 Clouds 8 1006 87 10000 2.6 230 07:48 30.01.2020
3445 Clouds 8 1006 93 10000 2.6 210 07:20 30.01.2020
3446 Clouds 8 1007 81 10000 3.1 210 06:47 30.01.2020
3447 Clouds 8 1007 81 10000 3.1 210 06:47 30.01.2020
3448 Clouds 8 1007 81 10000 3.1 210 06:47 30.01.2020
3449 Clouds 8 1007 81 10000 2.6 210 06:28 30.01.2020
3450 Clouds 8 1008 81 10000 5.7 240 05:44 30.01.2020
3451 Clouds 8 1008 81 10000 5.1 240 05:20 30.01.2020
3452 Clouds 8 1009 81 10000 4.1 240 03:53 30.01.2020
3453 Clouds 8 1009 81 10000 4.6 230 03:35 30.01.2020
3454 Clouds 8 1010 81 10000 5.1 240 02:19 30.01.2020
3455 Clouds 7 1010 81 10000 6.2 240 00:42 30.01.2020
3456 Clouds 7 1010 81 10000 5.7 240 00:20 30.01.2020
3457 Clouds 7 1011 76 10000 5.1 240 23:46 29.01.2020
3458 Clouds 7 1011 93 10000 6.2 220 23:21 29.01.2020
3459 Clouds 7 1011 81 10000 5.1 240 22:57 29.01.2020
3460 Clouds 7 1011 81 10000 6.2 240 22:38 29.01.2020
3461 Clouds 7 1011 81 10000 6.2 240 22:19 29.01.2020
3462 Clouds 7 1011 81 10000 5.1 240 21:58 29.01.2020
3463 Clouds 7 1011 81 10000 5.7 240 21:38 29.01.2020
3464 Clouds 7 1011 81 10000 5.7 240 21:19 29.01.2020
3465 Clouds 7 1011 81 10000 5.7 240 21:19 29.01.2020
3466 Clouds 7 1011 75 10000 4.1 230 20:58 29.01.2020
3467 Clouds 7 1011 75 10000 4.1 230 20:58 29.01.2020
3468 Clouds 7 1011 70 10000 4.6 240 20:38 29.01.2020
3469 Clouds 7 1011 70 10000 4.6 240 20:38 29.01.2020
3470 Clouds 7 1011 70 10000 4.6 240 20:19 29.01.2020
3471 Clouds 7 1011 81 10000 5.7 210 19:56 29.01.2020
3472 Clouds 7 1011 81 10000 5.1 210 19:37 29.01.2020
3473 Clouds 7 1011 81 10000 5.1 210 19:37 29.01.2020
3474 Clouds 7 1011 81 10000 5.1 210 19:37 29.01.2020
3475 Clouds 7 1011 81 10000 5.1 210 19:18 29.01.2020
3476 Clouds 7 1011 75 10000 4.6 220 18:46 29.01.2020
3477 Clouds 7 1011 75 10000 5.1 220 18:19 29.01.2020
3478 Clouds 7 1011 70 10000 3.6 240 17:58 29.01.2020
3479 Clouds 8 1010 66 10000 5.1 250 17:39 29.01.2020
3480 Clouds 8 1011 70 10000 5.1 240 17:20 29.01.2020
3481 Clouds 9 1011 66 10000 5.7 250 16:41 29.01.2020
3482 Clouds 9 1010 61 10000 7.7 260 16:23 29.01.2020
3483 Clouds 9 1010 61 10000 8.2 260 15:56 29.01.2020
3484 Clouds 9 1010 61 10000 8.2 260 15:56 29.01.2020
3485 Clouds 9 1010 57 10000 8.7 260 15:37 29.01.2020
3486 Clouds 9 1010 57 10000 8.7 260 15:18 29.01.2020
3487 Clouds 9 1010 61 10000 7.7 260 14:43 29.01.2020
3488 Clear 9 1010 61 10000 7.7 260 14:20 29.01.2020
3489 Clear 8 1010 61 10000 7.2 260 13:55 29.01.2020
3490 Clear 8 1010 65 10000 6.7 260 13:36 29.01.2020
3491 Clear 8 1010 65 10000 6.7 260 13:18 29.01.2020
3492 Clear 8 1010 65 10000 6.7 250 12:55 29.01.2020
3493 Clear 7 1010 70 10000 8.2 250 12:37 29.01.2020
3494 Clear 7 1010 70 10000 8.2 250 12:18 29.01.2020
3495 Clear 6 1010 70 10000 7.2 250 11:44 29.01.2020
3496 Clear 5 1009 70 10000 6.2 250 11:20 29.01.2020
3497 Clear 4 1009 75 10000 6.7 240 10:46 29.01.2020
3498 Clear 4 1009 75 10000 6.2 250 10:25 29.01.2020
3499 Clear 3 1008 75 10000 6.2 250 09:58 29.01.2020
3500 Clear 3 1008 75 10000 6.2 250 09:40 29.01.2020
3501 Clear 3 1008 75 10000 6.2 250 09:20 29.01.2020
3502 Clear 3 1008 73 10000 5.1 250 08:56 29.01.2020
3503 Clear 3 1007 73 10000 5.7 250 08:37 29.01.2020
3504 Clouds 3 1007 71 10000 5.7 250 08:18 29.01.2020
3505 Clouds 3 1007 71 10000 6.2 250 07:43 29.01.2020
3506 Clouds 3 1006 71 10000 5.1 260 07:21 29.01.2020
3507 Clouds 3 1006 80 10000 6.2 250 06:38 29.01.2020
3508 Clouds 3 1005 80 10000 5.1 250 06:20 29.01.2020
3509 Clouds 3 1005 80 10000 6.2 250 05:52 29.01.2020
3510 Clouds 3 1005 80 10000 6.2 250 05:52 29.01.2020
3511 Clouds 3 1005 80 10000 6.7 240 05:34 29.01.2020
3512 Clouds 3 1005 80 10000 6.7 240 04:39 29.01.2020
3513 Clouds 3 1004 80 10000 5.7 240 03:59 29.01.2020
3514 Clouds 3 1003 67 10000 5.1 250 02:39 29.01.2020
3515 Clear 3 1003 69 10000 5.7 250 01:34 29.01.2020
3516 Clear 3 1003 69 10000 6.2 250 00:39 29.01.2020
3517 Clear 3 1002 69 10000 6.2 250 00:21 29.01.2020
3518 Clear 3 1001 74 10000 5.7 250 23:41 28.01.2020
3519 Clear 3 1001 74 10000 5.7 250 23:20 28.01.2020
3520 Clear 3 1001 63 10000 6.2 250 22:57 28.01.2020
3521 Clear 3 1000 63 10000 5.7 260 22:39 28.01.2020
3522 Clear 3 1000 63 10000 5.7 260 22:20 28.01.2020
3523 Clear 3 999 63 10000 5.7 250 21:41 28.01.2020
3524 Clear 3 1000 63 10000 7.2 260 21:20 28.01.2020
3525 Clear 3 1000 63 10000 7.2 260 21:20 28.01.2020
3526 Clear 3 1000 63 10000 7.2 250 20:46 28.01.2020
3527 Clear 3 999 75 10000 6.7 260 20:28 28.01.2020
3528 Clouds 4 999 75 10000 6.7 250 19:59 28.01.2020
3529 Clouds 4 998 61 10000 5.1 250 19:38 28.01.2020
3530 Clouds 4 998 61 10000 5.1 250 19:20 28.01.2020
3531 Clouds 4 998 61 10000 5.1 240 18:58 28.01.2020
3532 Clouds 4 998 61 10000 5.1 250 18:39 28.01.2020
3533 Clouds 4 998 61 10000 5.1 250 18:21 28.01.2020
3534 Clouds 5 998 61 10000 5.7 260 17:56 28.01.2020
3535 Clouds 5 997 61 10000 5.1 260 17:37 28.01.2020
3536 Clouds 5 997 54 10000 6.7 250 17:19 28.01.2020
3537 Clouds 6 997 54 10000 7.7 250 16:46 28.01.2020
3538 Rain 6 997 54 10000 6.7 250 16:27 28.01.2020
3539 Clouds 6 997 54 10000 6.7 250 15:59 28.01.2020
3540 Clouds 6 997 61 10000 7.7 250 15:41 28.01.2020
3541 Clouds 7 997 65 10000 8.2 260 15:18 28.01.2020
3542 Clouds 7 997 61 10000 9.3 250 14:45 28.01.2020
3543 Clouds 7 997 61 10000 6.7 250 14:20 28.01.2020
3544 Clouds 7 997 65 10000 8.2 250 13:58 28.01.2020
3545 Clouds 7 997 65 10000 6.7 250 13:39 28.01.2020
3546 Clouds 6 997 65 10000 6.7 250 13:20 28.01.2020
3547 Clouds 6 996 50 10000 8.2 250 12:42 28.01.2020
3548 Clouds 5 996 50 10000 8.2 250 12:23 28.01.2020
3549 Clouds 4 996 75 10000 9.3 250 11:48 28.01.2020
3550 Clouds 4 996 75 10000 9.3 250 11:23 28.01.2020
3551 Clear 4 995 80 10000 6.7 250 10:58 28.01.2020
3552 Clear 3 995 80 10000 7.7 260 10:39 28.01.2020
3553 Clouds 3 995 54 10000 6.7 250 10:20 28.01.2020
3554 Clouds 2 994 54 10000 7.2 250 09:43 28.01.2020
3555 Clear 2 993 80 10000 7.2 260 09:21 28.01.2020
3556 Clear 2 993 80 10000 7.2 250 08:58 28.01.2020
3557 Clear 2 992 80 10000 8.2 250 08:39 28.01.2020
3558 Snow 2 992 80 10000 8.2 250 08:19 28.01.2020
3559 Snow 2 992 80 10000 8.2 250 08:19 28.01.2020
3560 Clouds 2 991 80 10000 8.2 260 07:37 28.01.2020
3561 Snow 3 991 93 10000 7.2 250 06:50 28.01.2020
3562 Rain 3 990 86 10000 7.7 250 06:26 28.01.2020
3563 Rain 3 991 93 8000 10.3 270 05:55 28.01.2020
3564 Rain 3 990 93 10000 5.7 280 05:27 28.01.2020
3565 Rain 4 989 93 10000 5.1 260 04:30 28.01.2020
3566 Rain 5 989 93 10000 4.6 220 02:58 28.01.2020
3567 Rain 5 989 93 9000 5.1 220 02:25 28.01.2020
3568 Rain 5 989 93 9000 5.1 220 02:25 28.01.2020
3569 Rain 5 990 93 10000 4.6 200 01:57 28.01.2020
3570 Rain 5 990 93 10000 3.6 210 01:32 28.01.2020
3571 Clouds 5 991 87 10000 4.6 200 00:51 28.01.2020
3572 Rain 5 991 93 10000 2.6 220 00:29 28.01.2020
3573 Clouds 5 992 93 10000 6.2 220 23:51 27.01.2020
3574 Clouds 5 992 93 10000 6.2 220 23:51 27.01.2020
3575 Clouds 5 992 87 10000 2.6 220 23:30 27.01.2020
3576 Clouds 6 993 87 10000 2.6 210 22:59 27.01.2020
3577 Clouds 6 993 87 10000 3.1 240 22:40 27.01.2020
3578 Clouds 5 993 87 10000 3.1 240 22:20 27.01.2020
3579 Rain 5 993 87 10000 4.1 240 21:56 27.01.2020
3580 Clouds 5 993 87 10000 3.1 230 21:37 27.01.2020
3581 Clouds 5 993 87 10000 3.1 230 21:18 27.01.2020
3582 Clouds 5 994 87 10000 2.1 230 20:55 27.01.2020
3583 Rain 5 994 87 10000 2.6 0 20:37 27.01.2020
3584 Rain 5 994 87 10000 2.6 0 20:18 27.01.2020
3585 Clouds 5 994 100 10000 4.1 210 19:41 27.01.2020
3586 Clouds 5 995 87 10000 2.1 0 19:23 27.01.2020
3587 Rain 5 995 87 10000 2.6 230 18:57 27.01.2020
3588 Rain 5 996 87 9000 3.6 250 18:39 27.01.2020
3589 Rain 5 996 87 9000 3.6 250 18:20 27.01.2020
3590 Rain 6 996 87 8000 3.6 280 17:55 27.01.2020
3591 Rain 6 997 87 4100 4.6 240 17:37 27.01.2020
3592 Rain 6 997 87 4100 4.6 240 17:18 27.01.2020
3593 Rain 7 997 81 10000 4.6 200 16:42 27.01.2020
3594 Rain 7 997 81 10000 4.6 200 16:42 27.01.2020
3595 Rain 7 997 81 10000 4.6 200 16:23 27.01.2020
3596 Rain 8 998 81 6000 3.1 220 15:55 27.01.2020
3597 Rain 8 999 76 10000 4.1 240 15:37 27.01.2020
3598 Rain 8 999 76 10000 4.1 240 15:19 27.01.2020
3599 Rain 9 999 76 10000 4.6 210 14:54 27.01.2020
3600 Rain 9 1000 76 10000 3.6 220 14:36 27.01.2020
3601 Clouds 9 1000 76 10000 3.6 220 14:18 27.01.2020
3602 Clouds 9 1001 76 10000 4.6 220 13:42 27.01.2020
3603 Clouds 9 1001 76 10000 4.6 220 13:21 27.01.2020
3604 Clouds 9 1002 76 10000 4.1 220 12:56 27.01.2020
3605 Rain 9 1002 81 10000 4.1 210 12:37 27.01.2020
3606 Rain 8 1002 81 10000 4.1 210 12:19 27.01.2020
3607 Rain 8 1002 81 10000 4.1 230 11:41 27.01.2020
3608 Clouds 8 1002 87 10000 6.7 200 11:21 27.01.2020
3609 Clouds 8 1002 87 10000 6.7 200 11:21 27.01.2020
3610 Clouds 7 1003 93 10000 6.7 210 10:44 27.01.2020
3611 Clouds 7 1003 93 10000 6.7 210 10:25 27.01.2020
3612 Clouds 7 1003 93 10000 7.2 200 09:58 27.01.2020
3613 Clouds 7 1003 87 10000 7.7 210 09:39 27.01.2020
3614 Clouds 7 1003 87 10000 7.7 210 09:39 27.01.2020
3615 Rain 7 1003 87 10000 7.7 210 09:18 27.01.2020
3616 Rain 7 1003 93 10000 7.2 210 08:47 27.01.2020
3617 Clouds 7 1003 93 10000 6.7 210 08:23 27.01.2020
3618 Clouds 8 1004 93 10000 6.7 210 07:55 27.01.2020
3619 Clouds 8 1003 93 10000 3.1 220 07:36 27.01.2020
3620 Clouds 8 1003 93 10000 4.1 210 06:55 27.01.2020
3621 Clouds 8 1003 93 10000 3.6 210 06:32 27.01.2020
3622 Clouds 7 1004 93 10000 4.1 220 05:37 27.01.2020
3623 Clouds 8 1004 93 10000 3.6 230 04:20 27.01.2020
3624 Clouds 8 1005 87 10000 3.1 220 03:27 27.01.2020
3625 Clouds 8 1006 87 10000 1.5 0 01:42 27.01.2020
3626 Clouds 8 1006 87 10000 2.6 220 01:22 27.01.2020
3627 Rain 8 1006 87 10000 3.1 230 00:40 27.01.2020
3628 Rain 8 1006 87 10000 3.1 230 00:19 27.01.2020
3629 Rain 8 1005 93 10000 3.6 230 23:42 26.01.2020
3630 Rain 8 1005 93 10000 3.6 230 23:20 26.01.2020
3631 Clouds 8 1006 100 10000 6.7 220 22:57 26.01.2020
3632 Clouds 8 1006 100 10000 6.2 220 22:37 26.01.2020
3633 Clouds 8 1006 100 10000 6.2 220 22:19 26.01.2020
3634 Clouds 8 1006 100 10000 6.2 220 22:19 26.01.2020
3635 Clouds 8 1005 87 10000 3.6 230 21:57 26.01.2020
3636 Clouds 8 1006 87 10000 3.6 230 21:38 26.01.2020
3637 Clouds 9 1006 87 10000 3.6 230 21:20 26.01.2020
3638 Clouds 9 1006 93 10000 8.2 210 20:57 26.01.2020
3639 Clouds 9 1006 93 10000 8.2 210 20:38 26.01.2020
3640 Rain 9 1006 100 10000 7.2 200 20:18 26.01.2020
3641 Drizzle 9 1006 100 10000 9.8 200 19:57 26.01.2020
3642 Rain 9 1006 87 10000 5.1 180 19:38 26.01.2020
3643 Rain 9 1006 100 10000 9.3 190 19:18 26.01.2020
3644 Rain 9 1005 93 6000 5.7 190 18:54 26.01.2020
3645 Rain 9 1007 93 9000 9.3 200 18:36 26.01.2020
3646 Rain 9 1007 87 10000 5.1 200 18:18 26.01.2020
3647 Rain 9 1007 87 10000 5.1 200 17:54 26.01.2020
3648 Rain 9 1007 87 10000 4.6 200 17:36 26.01.2020
3649 Rain 9 1007 87 10000 4.6 200 17:18 26.01.2020
3650 Rain 9 1008 87 8000 5.1 200 16:54 26.01.2020
3651 Rain 9 1008 93 10000 8.2 190 16:36 26.01.2020
3652 Rain 9 1008 93 10000 8.2 190 16:18 26.01.2020
3653 Rain 9 1008 85 0 6.26 217 15:41 26.01.2020
3654 Rain 10 1008 89 0 6.01 202 15:19 26.01.2020
3655 Rain 10 1008 81 0 5.36 202 14:55 26.01.2020
3656 Rain 10 1009 85 0 6.01 202 14:37 26.01.2020
3657 Clouds 10 1009 81 0 4.92 219 14:18 26.01.2020
3658 Clouds 10 1007 84 0 0.89 230 13:39 26.01.2020
3659 Clouds 10 1010 86 0 5.43 204 13:18 26.01.2020
3660 Clouds 9 1007 86 0 0.89 200 12:54 26.01.2020
3661 Clouds 9 1008 86 0 0.89 202 12:36 26.01.2020
3662 Clouds 9 1011 88 0 5.43 204 12:18 26.01.2020
3663 Clouds 9 1011 89 0 5.43 204 11:56 26.01.2020
3664 Clouds 9 1011 89 0 5.43 204 11:36 26.01.2020
3665 Clouds 8 1012 81 10000 2.6 190 11:18 26.01.2020
3666 Clouds 8 1012 81 10000 2.6 190 10:39 26.01.2020
3667 Clouds 8 1012 81 10000 2.6 190 10:21 26.01.2020
3668 Clouds 7 1012 87 10000 3.1 210 09:59 26.01.2020
3669 Clouds 7 1012 87 10000 3.1 210 09:41 26.01.2020
3670 Clouds 7 1012 87 10000 2.6 200 09:23 26.01.2020
3671 Clouds 7 1012 87 10000 2.1 200 08:57 26.01.2020
3672 Clouds 7 1012 87 10000 2.1 200 08:39 26.01.2020
3673 Clouds 7 1012 87 10000 3.6 170 08:21 26.01.2020
3674 Clouds 7 1012 87 10000 3.6 200 07:50 26.01.2020
3675 Clouds 7 1012 87 10000 3.1 210 07:25 26.01.2020
3676 Clouds 7 1012 87 10000 3.1 210 06:40 26.01.2020
3677 Clouds 7 1012 87 10000 3.1 170 06:22 26.01.2020
3678 Clouds 7 1012 100 5000 3.1 180 05:27 26.01.2020
3679 Haze 7 1013 87 4300 1.5 0 03:23 26.01.2020
3680 Mist 7 1014 93 3500 3.1 70 02:38 26.01.2020
3681 Mist 7 1014 93 2900 2.6 70 01:43 26.01.2020
3682 Mist 6 1015 100 2200 2.6 70 01:22 26.01.2020
3683 Mist 6 1015 100 2100 2.1 70 00:42 26.01.2020
3684 Mist 6 1015 93 1200 2.1 80 00:23 26.01.2020
3685 Clouds 6 1015 96 0 3.07 174 23:39 25.01.2020
3686 Clouds 6 1015 96 0 2.16 150 23:20 25.01.2020
3687 Clouds 6 1015 96 0 2.16 150 22:56 25.01.2020
3688 Clouds 6 1016 96 0 2.16 150 22:36 25.01.2020
3689 Clouds 6 1016 96 0 2.16 150 22:18 25.01.2020
3690 Clouds 5 1013 95 0 0.45 107 21:41 25.01.2020
3691 Clouds 6 1016 94 0 2.16 150 21:23 25.01.2020
3692 Clouds 5 1016 96 0 2.16 150 20:56 25.01.2020
3693 Clouds 5 1016 96 0 2.16 150 20:38 25.01.2020
3694 Clouds 6 1016 92 0 1.68 150 20:20 25.01.2020
3695 Clouds 5 1017 95 0 1.83 144 19:44 25.01.2020
3696 Clouds 6 1017 92 0 1.68 150 19:20 25.01.2020
3697 Clouds 6 1017 92 0 1.68 150 18:59 25.01.2020
3698 Clouds 6 1014 92 0 0.45 104 18:41 25.01.2020
3699 Clouds 6 1014 92 0 0.45 97 18:20 25.01.2020
3700 Clouds 6 1017 92 0 1.68 150 17:54 25.01.2020
3701 Clouds 6 1017 92 0 1.68 150 17:36 25.01.2020
3702 Clouds 6 1017 91 0 2.47 195 17:18 25.01.2020
3703 Clouds 6 1014 91 0 0.89 102 16:42 25.01.2020
3704 Clouds 6 1014 91 0 0.45 113 16:22 25.01.2020
3705 Clouds 6 1014 91 0 0.89 113 15:56 25.01.2020
3706 Clouds 6 1017 91 0 2.47 195 15:37 25.01.2020
3707 Clouds 6 1018 91 0 2.47 195 15:19 25.01.2020
3708 Clouds 6 1015 91 0 0.45 168 14:41 25.01.2020
3709 Clouds 6 1018 92 0 2.75 185 14:19 25.01.2020
3710 Clouds 6 1019 92 0 2.75 185 13:44 25.01.2020
3711 Clouds 6 1019 92 0 2.75 185 13:26 25.01.2020
3712 Clear 6 1019 92 0 2.49 191 12:57 25.01.2020
3713 Clouds 6 1020 87 6000 3.1 170 12:37 25.01.2020
3714 Clouds 6 1020 87 6000 3.1 170 12:19 25.01.2020
3715 Clouds 6 1020 87 6000 3.1 170 11:40 25.01.2020
3716 Haze 5 1020 93 4600 3.1 170 11:19 25.01.2020
3717 Drizzle 5 1019 87 5000 2.6 190 10:55 25.01.2020
3718 Haze 5 1020 87 3800 3.1 0 10:37 25.01.2020
3719 Haze 5 1020 87 3800 3.1 0 10:18 25.01.2020
3720 Drizzle 5 1020 100 1800 3.6 170 09:40 25.01.2020
3721 Haze 5 1020 87 5000 2.1 210 09:19 25.01.2020
3722 Clouds 5 1020 87 6000 2.1 210 08:42 25.01.2020
3723 Clouds 5 1020 87 6000 1.5 0 07:57 25.01.2020
3724 Clouds 5 1020 87 7000 2.1 220 07:28 25.01.2020
3725 Clouds 5 1019 81 10000 4.1 240 06:33 25.01.2020
3726 Clouds 5 1019 81 10000 4.1 240 06:33 25.01.2020
3727 Clouds 5 1020 81 10000 2.6 230 05:57 25.01.2020
3728 Clouds 5 1019 81 10000 2.1 210 05:38 25.01.2020
3729 Clouds 5 1019 81 10000 2.1 210 05:38 25.01.2020
3730 Clouds 5 1020 87 10000 2.6 210 04:19 25.01.2020
3731 Clouds 5 1020 87 10000 3.1 190 03:49 25.01.2020
3732 Clouds 5 1020 93 9000 2.6 210 02:37 25.01.2020
3733 Clouds 6 1021 93 8000 1.5 210 01:57 25.01.2020
3734 Clouds 6 1021 93 7000 2.1 210 01:23 25.01.2020
3735 Clouds 6 1021 93 7000 2.1 220 00:39 25.01.2020
3736 Clouds 6 1021 93 7000 2.1 220 00:18 25.01.2020
3737 Clouds 6 1021 100 7000 3.6 210 23:42 24.01.2020
3738 Clouds 6 1021 93 8000 1 200 23:24 24.01.2020
3739 Clouds 6 1022 93 9000 3.1 210 22:47 24.01.2020
3740 Clouds 6 1022 93 9000 3.1 200 22:28 24.01.2020
3741 Clouds 6 1022 100 7000 2.6 200 21:59 24.01.2020
3742 Clouds 6 1022 87 8000 2.6 0 21:41 24.01.2020
3743 Clouds 6 1022 93 10000 2.6 220 21:19 24.01.2020
3744 Clouds 6 1022 93 10000 2.6 220 20:44 24.01.2020
3745 Clouds 6 1021 100 9000 3.1 190 20:23 24.01.2020
3746 Haze 6 1021 87 7000 1.5 250 19:59 24.01.2020
3747 Mist 6 1021 93 5000 2.6 190 19:40 24.01.2020
3748 Mist 6 1021 93 5000 2.6 190 19:22 24.01.2020
3749 Haze 6 1021 87 7000 1.5 240 18:57 24.01.2020
3750 Mist 6 1021 93 3500 2.6 210 18:39 24.01.2020
3751 Haze 6 1021 87 7000 1 230 18:21 24.01.2020
3752 Haze 6 1021 87 7000 2.1 230 17:42 24.01.2020
3753 Haze 6 1021 87 7000 1.5 260 17:21 24.01.2020
3754 Haze 6 1021 87 6000 2.1 250 16:57 24.01.2020
3755 Haze 6 1021 87 6000 2.1 250 16:57 24.01.2020
3756 Rain 6 1022 87 10000 2.1 210 16:38 24.01.2020
3757 Rain 6 1022 87 10000 2.1 210 16:18 24.01.2020
3758 Rain 6 1022 87 10000 1.5 0 15:41 24.01.2020
3759 Clouds 6 1022 87 10000 1.5 0 15:21 24.01.2020
3760 Clouds 6 1022 87 10000 1.5 0 14:42 24.01.2020
3761 Clouds 6 1022 87 10000 2.1 160 14:24 24.01.2020
3762 Clouds 6 1023 87 10000 1 0 13:59 24.01.2020
3763 Clouds 6 1023 87 10000 1.5 0 13:40 24.01.2020
3764 Clouds 6 1023 87 10000 1.5 0 13:21 24.01.2020
3765 Rain 6 1024 87 7000 0.5 0 12:43 24.01.2020
3766 Rain 6 1024 87 7000 0.5 0 12:20 24.01.2020
3767 Rain 6 1024 87 8000 1.74 211 11:45 24.01.2020
3768 Mist 6 1023 100 2500 0.5 0 11:19 24.01.2020
3769 Rain 6 1024 87 8000 1.36 269 11:19 24.01.2020
3770 Mist 6 1023 100 2500 0.5 0 10:58 24.01.2020
3771 Mist 6 1023 100 2000 1 0 10:40 24.01.2020
3772 Mist 6 1023 100 2000 1 0 10:19 24.01.2020
3773 Clouds 5 1024 93 8000 1 0 09:41 24.01.2020
3774 Mist 5 1023 100 1800 2.6 10 09:23 24.01.2020
3775 Mist 5 1023 100 1800 1.5 350 08:41 24.01.2020
3776 Mist 5 1023 100 1800 1.5 350 08:41 24.01.2020
3777 Mist 5 1023 100 2000 1.5 340 08:21 24.01.2020
3778 Mist 5 1023 100 3000 0.97 227 07:59 24.01.2020
3779 Clouds 5 1023 100 3300 2.1 340 07:39 24.01.2020
3780 Clouds 5 1023 93 7000 1 350 06:55 24.01.2020
3781 Clouds 5 1023 100 3800 1 340 06:35 24.01.2020
3782 Clouds 5 1024 93 6000 1.5 360 05:59 24.01.2020
3783 Clouds 6 1024 93 4100 1.5 350 05:18 24.01.2020
3784 Haze 6 1025 93 4200 0.47 305 02:56 24.01.2020
3785 Clouds 6 1025 93 3400 2.1 340 02:38 24.01.2020
3786 Clouds 6 1025 93 3400 2.1 340 02:18 24.01.2020
3787 Rain 6 1026 93 5000 1 0 01:37 24.01.2020
3788 Rain 6 1027 93 7000 1 0 00:39 24.01.2020
3789 Rain 6 1027 93 7000 1 0 00:18 24.01.2020
3790 Rain 6 1027 93 3700 2.1 350 23:41 23.01.2020
3791 Rain 6 1027 93 3700 2.1 350 23:21 23.01.2020
3792 Rain 6 1027 93 4200 1 0 22:58 23.01.2020
3793 Haze 6 1027 93 4000 2.1 340 22:36 23.01.2020
3794 Haze 6 1027 93 4000 2.1 340 22:18 23.01.2020
3795 Clouds 6 1027 93 7000 2.1 340 21:55 23.01.2020
3796 Clouds 6 1027 93 5000 2.1 320 21:37 23.01.2020
3797 Clouds 6 1027 93 5000 2.1 320 21:18 23.01.2020
3798 Clouds 6 1027 93 10000 1.5 330 20:41 23.01.2020
3799 Clouds 7 1027 93 10000 1.5 330 20:22 23.01.2020
3800 Clouds 7 1027 87 10000 2.1 320 19:57 23.01.2020
3801 Clouds 7 1027 87 10000 0.5 0 19:39 23.01.2020
3802 Clouds 7 1027 87 10000 0.5 0 19:39 23.01.2020
3803 Clouds 7 1027 87 10000 0.5 0 19:21 23.01.2020
3804 Clouds 7 1028 87 10000 1.5 290 18:56 23.01.2020
3805 Clouds 7 1028 93 10000 1 20 18:38 23.01.2020
3806 Clouds 7 1028 93 10000 2.1 10 18:19 23.01.2020
3807 Clouds 7 1028 81 10000 1.5 0 17:45 23.01.2020
3808 Clouds 7 1028 87 10000 1 0 17:21 23.01.2020
3809 Clouds 7 1029 81 10000 1.5 0 16:59 23.01.2020
3810 Clouds 7 1029 87 6000 1.08 345 16:39 23.01.2020
3811 Clouds 7 1029 87 6000 1.08 345 16:20 23.01.2020
3812 Clouds 7 1030 87 7000 0.5 0 15:58 23.01.2020
3813 Clouds 7 1030 87 6000 1.08 345 15:39 23.01.2020
3814 Clouds 7 1030 87 6000 1.08 345 15:19 23.01.2020
3815 Clouds 7 1031 87 7000 1 60 14:58 23.01.2020
3816 Clouds 7 1031 87 6000 1.5 60 14:40 23.01.2020
3817 Clouds 7 1031 87 6000 1.5 60 14:22 23.01.2020
3818 Haze 7 1031 87 5000 1.5 70 13:54 23.01.2020
3819 Haze 7 1032 93 5000 1.5 80 13:36 23.01.2020
3820 Haze 7 1032 93 5000 1.5 80 13:18 23.01.2020
3821 Clouds 7 1032 93 6000 2.1 120 12:41 23.01.2020
3822 Clouds 7 1032 93 6000 2.1 120 12:22 23.01.2020
3823 Clouds 7 1033 93 7000 1.5 90 11:56 23.01.2020
3824 Mist 7 1033 100 2500 2.1 50 11:37 23.01.2020
3825 Mist 7 1033 100 2500 2.1 50 11:18 23.01.2020
3826 Mist 6 1032 93 2000 1.5 40 10:42 23.01.2020
3827 Clouds 6 1033 93 6000 1 50 10:19 23.01.2020
3828 Clouds 6 1033 93 6000 1 50 10:19 23.01.2020
3829 Clouds 6 1033 93 9000 1.5 90 09:42 23.01.2020
3830 Clouds 6 1033 93 9000 1.5 90 09:24 23.01.2020
3831 Clouds 6 1033 87 10000 3.1 90 08:58 23.01.2020
3832 Clouds 6 1033 93 6000 0.5 90 08:40 23.01.2020
3833 Clouds 6 1033 93 6000 0.5 90 08:21 23.01.2020
3834 Clouds 6 1033 93 6000 1.51 39 07:44 23.01.2020
3835 Clouds 6 1033 87 10000 1.5 100 07:24 23.01.2020
3836 Clouds 6 1033 93 10000 2.1 110 06:51 23.01.2020
3837 Clouds 6 1033 93 8000 1.5 30 06:20 23.01.2020
3838 Clouds 6 1034 93 9000 0.5 90 05:37 23.01.2020
3839 Clouds 6 1034 93 9000 0.5 60 04:24 23.01.2020
3840 Clouds 6 1035 93 10000 1.5 130 02:33 23.01.2020
3841 Clouds 6 1036 93 10000 2.1 110 00:58 23.01.2020
3842 Clouds 6 1036 93 10000 0.5 130 00:27 23.01.2020
3843 Haze 6 1036 100 3300 1.5 90 23:47 22.01.2020
3844 Clouds 6 1036 100 6000 3.1 90 23:29 22.01.2020
3845 Clouds 6 1036 93 6000 1.5 0 22:59 22.01.2020
3846 Clouds 6 1036 93 6000 1.5 0 22:40 22.01.2020
3847 Mist 6 1036 93 2000 2.1 100 22:22 22.01.2020
3848 Mist 7 1036 100 2900 1.5 70 21:40 22.01.2020
3849 Fog 6 1036 100 600 2.1 50 21:22 22.01.2020
3850 Fog 6 1036 100 400 2.1 50 20:57 22.01.2020
3851 Fog 6 1036 100 400 1.5 50 20:38 22.01.2020
3852 Fog 6 1036 100 400 1.5 50 20:38 22.01.2020
3853 Mist 7 1037 93 3400 1 0 20:20 22.01.2020
3854 Mist 7 1037 100 2500 1.5 0 19:56 22.01.2020
3855 Drizzle 7 1037 93 3500 1.5 90 19:37 22.01.2020
3856 Fog 7 1036 100 500 1.5 80 19:18 22.01.2020
3857 Mist 7 1037 100 2200 1.5 90 18:56 22.01.2020
3858 Mist 7 1037 93 2300 2.1 100 18:38 22.01.2020
3859 Mist 7 1037 93 2300 2.1 100 18:19 22.01.2020
3860 Mist 7 1037 93 2300 2.1 100 18:19 22.01.2020
3861 Haze 7 1036 93 3100 2.1 70 17:54 22.01.2020
3862 Haze 7 1036 93 3100 2.1 80 17:36 22.01.2020
3863 Rain 7 1036 93 3300 1.5 0 17:18 22.01.2020
3864 Rain 7 1036 100 3100 1 80 16:42 22.01.2020
3865 Haze 7 1036 100 3100 1 80 16:22 22.01.2020
3866 Haze 7 1037 100 3200 1.5 0 15:58 22.01.2020
3867 Haze 7 1037 93 3300 0.98 66 15:38 22.01.2020
3868 Haze 7 1037 93 3300 0.98 66 15:20 22.01.2020
3869 Haze 6 1037 93 2300 1 330 14:40 22.01.2020
3870 Haze 6 1037 93 2300 1 330 14:40 22.01.2020
3871 Haze 6 1037 93 2400 1.21 55 14:21 22.01.2020
3872 Haze 6 1037 93 2000 0.5 0 13:59 22.01.2020
3873 Mist 6 1038 93 2100 0.87 36 13:38 22.01.2020
3874 Mist 6 1038 93 2100 0.87 36 13:20 22.01.2020
3875 Drizzle 6 1038 100 1500 0.87 36 12:58 22.01.2020
3876 Mist 6 1038 93 1400 0.87 36 12:40 22.01.2020
3877 Mist 5 1038 93 1400 0.87 36 12:20 22.01.2020
3878 Mist 5 1038 93 2200 0.87 36 11:58 22.01.2020
3879 Mist 5 1038 100 2200 0.5 0 11:40 22.01.2020
3880 Mist 5 1038 100 2200 0.5 0 11:19 22.01.2020
3881 Mist 5 1038 100 1800 1.5 0 10:59 22.01.2020
3882 Rain 4 1038 93 2000 2.1 210 10:41 22.01.2020
3883 Rain 4 1038 93 2000 2.1 210 10:18 22.01.2020
3884 Haze 4 1037 93 2500 1 0 09:42 22.01.2020
3885 Haze 4 1037 93 2500 1 0 09:24 22.01.2020
3886 Mist 4 1037 100 2100 1.5 300 08:57 22.01.2020
3887 Mist 4 1037 100 1700 1.5 0 08:39 22.01.2020
3888 Mist 3 1037 100 1700 1.5 0 08:20 22.01.2020
3889 Haze 3 1037 100 1200 1.5 290 07:46 22.01.2020
3890 Haze 3 1037 93 1200 1 350 07:28 22.01.2020
3891 Haze 3 1037 93 3000 1.5 0 06:38 22.01.2020
3892 Haze 3 1037 93 3000 1.5 0 06:20 22.01.2020
3893 Clouds 3 1038 86 10000 1 0 05:21 22.01.2020
3894 Clouds 2 1038 93 10000 1.5 0 03:30 22.01.2020
3895 Clouds 2 1039 93 9000 2.1 230 02:57 22.01.2020
3896 Clouds 2 1039 93 9000 1.5 240 01:42 22.01.2020
3897 Clouds 2 1040 86 9000 1.5 210 00:44 22.01.2020
3898 Clouds 2 1039 93 9000 1.5 230 00:26 22.01.2020
3899 Clouds 1 1039 86 9000 1.5 220 23:38 21.01.2020
3900 Clouds 1 1039 86 9000 1.5 220 23:20 21.01.2020
3901 Clear 1 1039 86 9000 2.6 220 22:56 21.01.2020
3902 Clear 1 1039 93 10000 2.1 270 22:37 21.01.2020
3903 Clear 1 1039 93 10000 2.1 270 22:19 21.01.2020
3904 Clouds 1 1039 93 10000 1.5 270 21:55 21.01.2020
3905 Clear 1 1039 93 10000 2.1 270 21:37 21.01.2020
3906 Clear 1 1039 93 10000 2.1 270 21:18 21.01.2020
3907 Clear 1 1040 90 10000 2.1 330 20:55 21.01.2020
3908 Clear 2 1039 93 10000 2.1 230 20:37 21.01.2020
3909 Clouds 2 1039 93 10000 2.1 230 20:18 21.01.2020
3910 Clouds 2 1039 86 10000 2.1 240 19:55 21.01.2020
3911 Clouds 2 1040 86 10000 1.5 240 19:36 21.01.2020
3912 Clouds 2 1040 86 10000 1.5 240 19:18 21.01.2020
3913 Clouds 3 1040 86 10000 1.5 300 18:54 21.01.2020
3914 Clouds 3 1040 86 10000 1.5 250 18:36 21.01.2020
3915 Clouds 4 1040 86 10000 1.5 250 18:18 21.01.2020
3916 Clouds 5 1040 75 10000 2.1 240 17:42 21.01.2020
3917 Clouds 6 1040 75 10000 2.1 240 17:19 21.01.2020
3918 Clouds 6 1040 70 10000 2.1 250 16:57 21.01.2020
3919 Clouds 7 1040 70 10000 2.1 280 16:36 21.01.2020
3920 Clouds 7 1040 70 10000 2.1 280 16:18 21.01.2020
3921 Clouds 7 1040 70 10000 2.1 270 15:40 21.01.2020
3922 Clouds 7 1041 70 10000 1.5 0 15:20 21.01.2020
3923 Clouds 7 1041 70 10000 2.6 240 14:57 21.01.2020
3924 Clouds 7 1041 75 10000 2.1 260 14:37 21.01.2020
3925 Clear 6 1041 75 10000 2.1 260 14:18 21.01.2020
3926 Clear 6 1042 81 9000 2.1 230 13:39 21.01.2020
3927 Clear 5 1042 75 10000 2.6 220 13:18 21.01.2020
3928 Clear 4 1042 80 9000 2.6 220 12:43 21.01.2020
3929 Clear 3 1043 86 9000 3.1 230 12:25 21.01.2020
3930 Clear 3 1043 86 9000 2.6 230 11:57 21.01.2020
3931 Clear 2 1043 86 8000 2.6 200 11:38 21.01.2020
3932 Clear 1 1043 86 8000 2.6 200 11:19 21.01.2020
3933 Clouds 0 1043 93 7000 2.1 270 10:44 21.01.2020
3934 Clear 0 1042 93 7000 2.1 260 10:23 21.01.2020
3935 Clear -1 1042 81 7000 2.6 240 09:58 21.01.2020
3936 Clear -1 1042 81 7000 2.6 240 09:40 21.01.2020
3937 Clear -1 1042 81 7000 3.1 230 09:21 21.01.2020
3938 Clear -1 1042 81 7000 3.1 240 08:47 21.01.2020
3939 Rain -2 1042 81 8000 2.6 230 08:27 21.01.2020
3940 Rain -2 1042 75 8000 2.6 240 07:56 21.01.2020
3941 Clear -2 1042 75 9000 2.1 240 07:37 21.01.2020
3942 Clear -2 1042 75 9000 2.1 240 07:19 21.01.2020
3943 Clear -2 1042 75 10000 2.6 230 06:44 21.01.2020
3944 Clear -2 1042 100 5000 1 280 06:23 21.01.2020
3945 Clear -1 1042 100 4000 0.5 330 05:41 21.01.2020
3946 Clear -1 1043 100 3400 0.5 20 04:39 21.01.2020
3947 Clear -1 1043 100 3400 0.5 20 04:39 21.01.2020
3948 Clear -1 1044 72 10000 2.6 230 02:54 21.01.2020
3949 Mist -1 1044 70 5000 1.5 0 01:47 21.01.2020
3950 Clear 0 1045 69 6000 1 170 00:52 21.01.2020
3951 Clear 0 1044 92 6000 1 240 00:29 21.01.2020
3952 Clear 0 1045 86 10000 1.5 230 23:57 20.01.2020
3953 Clear 0 1045 86 10000 2.1 240 23:36 20.01.2020
3954 Clear 0 1045 86 10000 2.1 240 23:18 20.01.2020
3955 Clear 0 1045 80 10000 1.5 240 22:56 20.01.2020
3956 Clear 0 1045 80 10000 2.6 250 22:36 20.01.2020
3957 Clear 1 1045 80 10000 2.6 250 22:18 20.01.2020
3958 Clear 1 1045 74 10000 2.1 240 21:55 20.01.2020
3959 Clear 1 1045 74 10000 2.1 240 21:36 20.01.2020
3960 Clear 1 1045 74 10000 2.1 240 21:18 20.01.2020
3961 Clear 1 1045 74 10000 2.6 240 20:55 20.01.2020
3962 Clear 1 1045 74 10000 2.6 240 20:36 20.01.2020
3963 Clear 2 1045 74 10000 2.6 240 20:18 20.01.2020
3964 Clear 2 1045 56 10000 1.5 310 19:56 20.01.2020
3965 Clear 2 1046 56 10000 3.1 200 19:37 20.01.2020
3966 Clear 2 1046 56 10000 3.1 200 19:18 20.01.2020
3967 Clear 3 1045 56 10000 2.6 210 18:42 20.01.2020
3968 Clear 3 1046 56 10000 3.1 180 18:21 20.01.2020
3969 Clear 4 1046 56 10000 1.5 220 17:40 20.01.2020
3970 Clear 5 1046 65 10000 2.6 220 17:19 20.01.2020
3971 Clear 6 1046 61 10000 2.1 230 16:58 20.01.2020
3972 Clear 6 1047 61 10000 2.1 240 16:37 20.01.2020
3973 Clear 7 1047 61 10000 2.1 240 16:18 20.01.2020
3974 Clear 7 1047 61 10000 2.1 240 16:18 20.01.2020
3975 Clear 7 1047 61 10000 2.1 250 15:54 20.01.2020
3976 Clear 7 1047 61 10000 2.1 250 15:36 20.01.2020
3977 Clear 7 1047 61 10000 2.1 250 15:18 20.01.2020
3978 Clear 6 1048 65 10000 2.1 230 14:41 20.01.2020
3979 Clouds 6 1048 65 10000 2.1 230 14:22 20.01.2020
3980 Clouds 6 1048 70 10000 2.1 250 13:57 20.01.2020
3981 Clouds 6 1048 70 10000 2.6 230 13:39 20.01.2020
3982 Clear 5 1048 70 10000 2.6 230 13:20 20.01.2020
3983 Clear 5 1048 70 10000 2.6 230 12:45 20.01.2020
3984 Clear 5 1048 70 10000 2.6 240 12:26 20.01.2020
3985 Clear 4 1049 75 10000 3.1 240 11:57 20.01.2020
3986 Clear 3 1049 75 10000 3.1 240 11:38 20.01.2020
3987 Clouds 3 1049 75 10000 3.1 240 11:19 20.01.2020
3988 Clouds 2 1048 64 10000 1.5 230 10:47 20.01.2020
3989 Clouds 2 1048 69 10000 2.1 220 10:21 20.01.2020
3990 Clouds 2 1048 69 10000 2.1 220 10:21 20.01.2020
3991 Clouds 1 1048 64 10000 1.5 230 09:54 20.01.2020
3992 Clouds 1 1048 74 10000 1.5 260 09:36 20.01.2020
3993 Clouds 1 1048 74 10000 1.5 260 09:18 20.01.2020
3994 Clouds 1 1049 86 10000 2.6 230 08:42 20.01.2020
3995 Clouds 1 1049 86 10000 2.6 230 08:24 20.01.2020
3996 Clouds 1 1048 74 10000 2.1 200 07:42 20.01.2020
3997 Clouds 0 1048 63 8000 1 250 07:23 20.01.2020
3998 Clouds 0 1048 63 10000 2.1 230 06:46 20.01.2020
3999 Clouds 0 1048 63 10000 2.1 230 06:26 20.01.2020
4000 Clouds 0 1049 63 10000 1 280 05:42 20.01.2020
4001 Clouds 0 1048 64 9000 0.5 340 05:21 20.01.2020
4002 Clouds 1 1049 93 10000 1.5 0 04:41 20.01.2020
4003 Clouds 1 1049 64 10000 1 0 02:55 20.01.2020
4004 Clouds 1 1049 86 10000 2.1 210 01:52 20.01.2020
4005 Clouds 1 1049 86 10000 2.1 230 01:26 20.01.2020
4006 Clouds 1 1049 86 10000 1.5 220 00:44 20.01.2020
4007 Clouds 1 1049 86 10000 2.6 220 00:22 20.01.2020
4008 Clouds 1 1049 65 7000 1 0 23:39 19.01.2020
4009 Clear 0 1048 86 10000 1.5 170 23:20 19.01.2020
4010 Clear 0 1048 86 10000 1.5 170 23:20 19.01.2020
4011 Clear 0 1048 86 10000 1.5 170 23:20 19.01.2020
4012 Clear 0 1048 70 10000 0.5 0 22:56 19.01.2020
4013 Clear 0 1048 70 10000 0.5 0 22:56 19.01.2020
4014 Clear 0 1048 70 10000 0.5 0 22:38 19.01.2020
4015 Clear 0 1048 70 10000 0.5 0 22:20 19.01.2020
4016 Clear 0 1048 70 10000 0.5 0 21:56 19.01.2020
4017 Clear 1 1048 70 10000 0.5 0 21:38 19.01.2020
4018 Clear 1 1048 70 10000 1.5 310 21:20 19.01.2020
4019 Clear 1 1048 70 10000 2.1 330 20:57 19.01.2020
4020 Clear 1 1048 80 10000 1.5 340 20:39 19.01.2020
4021 Clear 1 1048 80 10000 1.5 340 20:20 19.01.2020
4022 Clear 2 1048 86 10000 1.5 330 19:57 19.01.2020
4023 Clear 2 1047 73 10000 1.5 0 19:39 19.01.2020
4024 Clear 2 1047 73 10000 1.5 0 19:20 19.01.2020
4025 Clear 3 1047 73 10000 2.1 360 18:57 19.01.2020
4026 Clear 3 1047 75 10000 0.5 0 18:38 19.01.2020
4027 Clear 3 1047 75 10000 0.5 0 18:38 19.01.2020
4028 Clear 3 1047 75 10000 0.5 0 18:38 19.01.2020
4029 Clear 3 1047 75 10000 1.5 0 18:20 19.01.2020
4030 Clear 4 1046 86 10000 3.1 360 17:58 19.01.2020
4031 Clear 4 1046 86 10000 3.1 360 17:40 19.01.2020
4032 Clear 5 1046 80 10000 3.6 360 17:21 19.01.2020
4033 Clear 6 1046 80 10000 3.6 360 16:59 19.01.2020
4034 Clear 6 1046 65 10000 2.6 340 16:39 19.01.2020
4035 Clear 6 1046 65 10000 2.6 340 16:21 19.01.2020
4036 Clear 7 1045 65 10000 3.6 320 15:59 19.01.2020
4037 Clear 7 1045 65 10000 2.6 340 15:39 19.01.2020
4038 Clear 7 1045 65 10000 2.6 340 15:20 19.01.2020
4039 Clear 7 1045 65 10000 2.1 340 14:59 19.01.2020
4040 Clear 6 1045 65 10000 2.6 310 14:39 19.01.2020
4041 Clear 6 1045 65 10000 2.6 310 14:18 19.01.2020
4042 Clear 6 1045 65 10000 2.6 310 13:58 19.01.2020
4043 Clear 6 1045 70 10000 3.1 300 13:38 19.01.2020
4044 Clear 5 1045 70 10000 3.1 300 13:20 19.01.2020
4045 Clear 5 1045 65 10000 2.6 300 12:56 19.01.2020
4046 Clear 4 1045 65 10000 1.5 0 12:37 19.01.2020
4047 Clear 4 1045 65 10000 1.5 0 12:19 19.01.2020
4048 Clear 3 1044 65 10000 2.6 300 11:43 19.01.2020
4049 Clear 2 1044 73 10000 2.6 290 11:21 19.01.2020
4050 Clear 1 1044 73 10000 2.1 270 10:57 19.01.2020
4051 Clear 0 1043 80 10000 2.1 260 10:39 19.01.2020
4052 Clear 0 1043 80 10000 2.1 260 10:19 19.01.2020
4053 Clear 0 1043 80 10000 0.5 0 09:56 19.01.2020
4054 Clear -1 1043 80 10000 0.5 0 09:56 19.01.2020
4055 Clear -1 1043 80 10000 0.5 0 09:56 19.01.2020
4056 Clear -1 1042 80 10000 1 0 09:37 19.01.2020
4057 Clear -1 1042 80 10000 1 0 09:19 19.01.2020
4058 Clear -1 1042 73 10000 1.5 0 08:54 19.01.2020
4059 Clear -1 1041 73 10000 1.5 0 08:30 19.01.2020
4060 Clouds -1 1041 73 10000 1.5 0 07:46 19.01.2020
4061 Clouds -1 1040 73 10000 1.5 0 07:27 19.01.2020
4062 Clouds 0 1040 73 10000 1.5 0 06:54 19.01.2020
4063 Clouds 0 1040 73 10000 2.1 300 06:21 19.01.2020
4064 Clouds 0 1039 74 10000 1 310 03:52 19.01.2020
4065 Clouds 1 1037 92 10000 0.5 330 02:32 19.01.2020
4066 Clouds 1 1037 72 10000 2.1 290 01:39 19.01.2020
4067 Clouds 1 1036 100 10000 1 290 01:18 19.01.2020
4068 Clouds 1 1035 86 10000 1.5 290 00:44 19.01.2020
4069 Clouds 1 1035 80 10000 1 290 00:19 19.01.2020
4070 Clouds 1 1035 80 10000 1 290 23:45 18.01.2020
4071 Clouds 2 1034 72 10000 0.5 320 23:25 18.01.2020
4072 Clouds 2 1034 75 10000 3.1 300 22:58 18.01.2020
4073 Clouds 2 1034 75 10000 3.1 300 22:40 18.01.2020
4074 Clouds 2 1033 75 10000 1.5 0 22:21 18.01.2020
4075 Clouds 2 1033 75 10000 2.1 290 21:58 18.01.2020
4076 Clouds 2 1033 71 10000 2.6 300 21:38 18.01.2020
4077 Clouds 2 1033 71 10000 2.6 300 21:20 18.01.2020
4078 Clouds 2 1032 71 10000 2.6 300 20:56 18.01.2020
4079 Clouds 2 1032 71 10000 2.1 320 20:38 18.01.2020
4080 Clouds 2 1032 74 10000 2.1 320 20:19 18.01.2020
4081 Clouds 3 1031 72 10000 2.1 320 19:43 18.01.2020
4082 Clouds 3 1031 72 10000 2.6 310 19:24 18.01.2020
4083 Clouds 3 1031 72 10000 2.1 300 18:43 18.01.2020
4084 Clouds 3 1030 72 10000 2.6 320 18:25 18.01.2020
4085 Clouds 3 1030 72 10000 2.6 320 18:25 18.01.2020
4086 Clouds 4 1030 72 10000 2.6 330 17:59 18.01.2020
4087 Clouds 4 1030 72 10000 2.6 330 17:40 18.01.2020
4088 Clear 5 1029 62 10000 3.6 320 17:20 18.01.2020
4089 Clear 6 1029 62 10000 3.1 320 16:57 18.01.2020
4090 Clouds 6 1029 62 10000 4.1 310 16:38 18.01.2020
4091 Clouds 6 1029 62 10000 4.1 310 16:38 18.01.2020
4092 Clouds 6 1029 62 10000 4.1 310 16:38 18.01.2020
4093 Clouds 6 1029 62 10000 4.1 310 16:19 18.01.2020
4094 Clear 7 1029 61 10000 3.6 310 15:47 18.01.2020
4095 Clear 7 1029 61 10000 3.6 310 15:47 18.01.2020
4096 Clear 7 1028 61 10000 5.1 300 15:26 18.01.2020
4097 Clear 7 1028 61 10000 4.6 300 14:59 18.01.2020
4098 Clear 7 1028 61 10000 4.6 300 14:40 18.01.2020
4099 Clear 7 1028 61 10000 5.7 300 14:19 18.01.2020
4100 Clear 6 1028 65 10000 4.6 280 13:57 18.01.2020
4101 Clear 6 1028 65 10000 4.1 300 13:36 18.01.2020
4102 Clear 6 1028 65 10000 4.1 300 13:18 18.01.2020
4103 Clear 6 1028 65 10000 4.1 300 13:18 18.01.2020
4104 Clear 5 1027 70 10000 4.1 280 12:41 18.01.2020
4105 Clear 5 1027 70 10000 4.1 280 12:22 18.01.2020
4106 Clear 4 1027 70 10000 4.1 280 11:57 18.01.2020
4107 Clear 4 1027 75 10000 4.1 280 11:38 18.01.2020
4108 Clear 3 1027 75 10000 4.1 280 11:19 18.01.2020
4109 Clear 2 1026 73 10000 3.1 280 10:43 18.01.2020
4110 Rain 1 1026 73 10000 3.1 270 10:21 18.01.2020
4111 Rain 1 1026 73 10000 3.6 280 09:55 18.01.2020
4112 Rain 1 1025 86 10000 3.1 250 09:37 18.01.2020
4113 Clear 1 1025 86 10000 3.6 250 08:59 18.01.2020
4114 Clear 1 1025 86 10000 3.6 250 08:41 18.01.2020
4115 Clouds 1 1024 70 10000 0.5 350 08:20 18.01.2020
4116 Clouds 1 1024 70 10000 0.5 350 08:20 18.01.2020
4117 Clouds 1 1025 100 10000 3.1 270 07:56 18.01.2020
4118 Clouds 1 1024 70 10000 2.1 270 07:37 18.01.2020
4119 Clouds 1 1023 86 10000 2.1 250 06:50 18.01.2020
4120 Clouds 1 1023 93 10000 3.6 240 06:22 18.01.2020
4121 Clouds 1 1023 93 10000 3.1 240 05:45 18.01.2020
4122 Clouds 2 1022 74 10000 1.5 300 04:19 18.01.2020
4123 Clouds 2 1021 86 10000 4.6 260 02:33 18.01.2020
4124 Clouds 2 1020 93 10000 2.6 270 01:36 18.01.2020
4125 Clouds 3 1019 86 10000 3.1 260 00:39 18.01.2020
4126 Clouds 3 1019 86 10000 3.1 260 00:39 18.01.2020
4127 Clouds 3 1019 86 10000 3.1 260 00:19 18.01.2020
4128 Clouds 3 1019 93 10000 3.6 230 23:58 17.01.2020
4129 Clouds 3 1018 86 10000 3.1 230 23:38 17.01.2020
4130 Clouds 3 1018 86 10000 3.1 230 23:18 17.01.2020
4131 Clouds 3 1018 80 10000 4.1 250 22:41 17.01.2020
4132 Clouds 3 1018 86 10000 3.6 230 22:19 17.01.2020
4133 Clouds 3 1017 86 10000 4.1 230 21:54 17.01.2020
4134 Clouds 4 1017 86 10000 5.1 220 21:36 17.01.2020
4135 Clouds 4 1017 86 10000 5.1 220 21:18 17.01.2020
4136 Clouds 4 1017 93 10000 3.6 220 20:41 17.01.2020
4137 Clouds 4 1017 93 10000 3.6 220 20:21 17.01.2020
4138 Clouds 4 1017 93 10000 3.6 220 20:21 17.01.2020
4139 Clouds 4 1017 86 10000 4.1 220 19:58 17.01.2020
4140 Clouds 4 1017 86 10000 4.1 220 19:38 17.01.2020
4141 Clouds 4 1017 86 10000 4.1 220 19:20 17.01.2020
4142 Clouds 5 1016 86 10000 4.1 240 18:58 17.01.2020
4143 Clouds 5 1016 86 10000 4.1 240 18:58 17.01.2020
4144 Clouds 5 1016 86 10000 3.6 240 18:39 17.01.2020
4145 Clouds 5 1016 86 10000 3.6 240 18:21 17.01.2020
4146 Clouds 6 1015 75 10000 4.1 260 17:40 17.01.2020
4147 Clouds 6 1015 75 10000 4.1 260 17:22 17.01.2020
4148 Clouds 6 1015 75 10000 5.1 260 16:57 17.01.2020
4149 Clouds 7 1014 61 10000 6.7 290 16:38 17.01.2020
4150 Clouds 7 1014 61 10000 6.7 290 16:19 17.01.2020
4151 Clouds 7 1013 61 10000 10.8 270 15:45 17.01.2020
4152 Clouds 7 1013 61 10000 7.7 270 15:26 17.01.2020
4153 Clouds 7 1012 70 10000 8.2 270 14:45 17.01.2020
4154 Clouds 7 1011 70 10000 9.3 260 14:27 17.01.2020
4155 Clouds 8 1011 66 10000 10.8 250 13:58 17.01.2020
4156 Clouds 8 1011 66 10000 10.8 250 13:58 17.01.2020
4157 Clouds 8 1010 81 10000 7.2 240 13:38 17.01.2020
4158 Clouds 8 1010 81 10000 7.2 240 13:19 17.01.2020
4159 Clouds 8 1009 76 10000 6.2 230 12:44 17.01.2020
4160 Clouds 8 1009 76 10000 6.2 230 12:22 17.01.2020
4161 Clouds 8 1009 76 10000 5.7 210 11:40 17.01.2020
4162 Rain 8 1009 81 10000 4.6 200 11:19 17.01.2020
4163 Clouds 8 1009 100 10000 5.1 180 10:45 17.01.2020
4164 Clouds 8 1009 100 10000 5.1 180 10:23 17.01.2020
4165 Clouds 8 1008 93 10000 2.6 200 09:59 17.01.2020
4166 Clouds 8 1008 93 10000 2.6 200 09:59 17.01.2020
4167 Clouds 8 1009 93 10000 5.1 200 09:41 17.01.2020
4168 Clouds 8 1009 93 10000 5.1 200 09:20 17.01.2020
4169 Rain 8 1008 93 10000 4.6 210 08:46 17.01.2020
4170 Rain 8 1009 87 10000 6.7 210 08:25 17.01.2020
4171 Rain 8 1009 87 10000 7.7 220 07:56 17.01.2020
4172 Rain 8 1008 93 2200 8.2 240 07:36 17.01.2020
4173 Rain 9 1008 93 2200 8.2 240 07:18 17.01.2020
4174 Rain 9 1008 93 10000 5.1 190 06:43 17.01.2020
4175 Clouds 9 1009 87 10000 3.1 200 05:59 17.01.2020
4176 Rain 10 1009 92 0 0.89 182 03:44 17.01.2020
4177 Rain 10 1009 92 0 1.34 193 02:55 17.01.2020
4178 Rain 10 1013 84 0 0.89 189 02:28 17.01.2020
4179 Rain 10 1009 92 0 1.79 170 01:32 17.01.2020
4180 Rain 10 1013 84 0 0.89 314 00:58 17.01.2020
4181 Rain 10 1010 92 0 3.13 193 00:29 17.01.2020
4182 Rain 10 1010 93 10000 10.8 190 23:54 16.01.2020
4183 Rain 10 1010 93 10000 10.8 190 23:36 16.01.2020
4184 Rain 11 1010 87 7000 7.2 200 23:18 16.01.2020
4185 Rain 11 1010 93 10000 10.8 190 22:40 16.01.2020
4186 Rain 11 1010 81 10000 6.2 200 22:21 16.01.2020
4187 Rain 11 1010 81 10000 5.1 190 21:56 16.01.2020
4188 Rain 11 1010 87 10000 10.8 180 21:37 16.01.2020
4189 Rain 11 1010 87 10000 10.8 180 21:18 16.01.2020
4190 Rain 11 1009 87 5000 7.2 200 20:56 16.01.2020
4191 Rain 11 1010 87 10000 11.8 170 20:37 16.01.2020
4192 Rain 11 1010 71 10000 6.2 180 20:18 16.01.2020
4193 Rain 11 1010 76 10000 11.3 170 19:54 16.01.2020
4194 Rain 11 1010 76 10000 11.3 170 19:54 16.01.2020
4195 Rain 11 1010 66 10000 7.2 180 19:36 16.01.2020
4196 Rain 11 1010 66 10000 7.2 180 19:18 16.01.2020
4197 Rain 11 1011 76 10000 11.8 170 18:54 16.01.2020
4198 Clouds 11 1011 76 10000 11.3 170 18:36 16.01.2020
4199 Clouds 11 1011 76 10000 11.3 170 18:18 16.01.2020
4200 Rain 11 1011 76 10000 10.3 180 17:41 16.01.2020
4201 Rain 11 1011 76 10000 10.3 180 17:21 16.01.2020
4202 Rain 11 1011 71 10000 6.2 180 16:57 16.01.2020
4203 Rain 11 1011 71 10000 7.2 180 16:38 16.01.2020
4204 Rain 11 1011 71 10000 7.2 180 16:19 16.01.2020
4205 Clouds 11 1011 76 10000 6.2 180 15:44 16.01.2020
4206 Rain 10 1012 76 10000 5.7 170 15:22 16.01.2020
4207 Clouds 10 1012 81 10000 6.7 170 14:56 16.01.2020
4208 Clouds 10 1013 87 10000 12.3 160 14:37 16.01.2020
4209 Clouds 10 1013 87 10000 12.3 160 14:19 16.01.2020
4210 Clouds 10 1015 76 10000 5.7 160 13:44 16.01.2020
4211 Clouds 10 1015 76 10000 5.7 150 13:25 16.01.2020
4212 Clouds 9 1016 81 10000 5.7 160 12:46 16.01.2020
4213 Clouds 9 1017 76 10000 5.1 160 12:28 16.01.2020
4214 Clouds 9 1017 76 10000 5.1 180 11:58 16.01.2020
4215 Clouds 9 1017 76 10000 3.6 160 11:39 16.01.2020
4216 Clouds 9 1017 76 10000 3.6 160 11:21 16.01.2020
4217 Clouds 8 1018 87 10000 3.6 140 10:40 16.01.2020
4218 Clouds 8 1018 87 10000 3.6 140 10:22 16.01.2020
4219 Clouds 7 1018 87 10000 4.1 140 09:59 16.01.2020
4220 Clouds 7 1018 87 10000 4.1 140 09:41 16.01.2020
4221 Clouds 7 1018 93 10000 4.1 130 09:23 16.01.2020
4222 Clouds 7 1018 87 10000 3.6 120 08:55 16.01.2020
4223 Clouds 6 1018 87 10000 3.6 130 08:36 16.01.2020
4224 Clouds 6 1017 87 10000 3.6 170 07:59 16.01.2020
4225 Clouds 6 1018 93 10000 3.1 150 07:41 16.01.2020
4226 Clouds 6 1018 93 10000 3.1 150 07:23 16.01.2020
4227 Clouds 6 1019 93 10000 3.1 0 06:46 16.01.2020
4228 Clouds 6 1019 87 10000 3.1 150 06:28 16.01.2020
4229 Clouds 6 1020 81 10000 3.1 170 05:46 16.01.2020
4230 Clouds 6 1019 93 10000 3.1 190 04:46 16.01.2020
4231 Clouds 7 1019 87 10000 2.6 170 03:29 16.01.2020
4232 Clouds 6 1019 81 10000 3.1 170 02:45 16.01.2020
4233 Clouds 6 1018 81 10000 3.6 210 01:32 16.01.2020
4234 Clouds 6 1019 81 10000 4.1 210 00:43 16.01.2020
4235 Clouds 6 1018 75 10000 3.6 210 00:23 16.01.2020
4236 Clouds 6 1018 87 10000 5.7 190 23:44 15.01.2020
4237 Clouds 6 1018 87 10000 5.7 200 23:22 15.01.2020
4238 Clouds 6 1018 87 10000 5.7 200 23:22 15.01.2020
4239 Clouds 6 1018 87 10000 5.7 200 23:21 15.01.2020
4240 Clouds 6 1017 75 10000 3.1 210 22:56 15.01.2020
4241 Clouds 6 1017 75 10000 3.6 210 22:38 15.01.2020
4242 Clouds 6 1017 81 10000 6.2 210 22:18 15.01.2020
4243 Clouds 6 1017 75 10000 3.1 220 21:56 15.01.2020
4244 Clouds 6 1016 87 10000 6.7 210 21:36 15.01.2020
4245 Clouds 6 1016 87 10000 6.7 210 21:18 15.01.2020
4246 Clouds 6 1016 87 10000 5.7 210 20:55 15.01.2020
4247 Clouds 6 1015 87 10000 5.7 210 20:37 15.01.2020
4248 Clouds 6 1015 87 10000 5.7 210 20:18 15.01.2020
4249 Clouds 7 1015 87 10000 5.7 210 19:54 15.01.2020
4250 Clouds 7 1014 81 10000 5.1 210 19:36 15.01.2020
4251 Clouds 7 1014 81 10000 5.1 210 19:18 15.01.2020
4252 Clouds 7 1013 81 10000 5.7 220 18:55 15.01.2020
4253 Clouds 7 1013 87 10000 5.1 210 18:37 15.01.2020
4254 Clouds 7 1013 87 10000 5.1 210 18:19 15.01.2020
4255 Clouds 8 1011 87 10000 5.1 220 17:41 15.01.2020
4256 Clouds 8 1011 87 10000 5.1 220 17:22 15.01.2020
4257 Rain 8 1010 71 10000 5.7 240 16:59 15.01.2020
4258 Rain 8 1009 71 10000 6.2 240 16:38 15.01.2020
4259 Rain 9 1009 71 10000 6.2 240 16:20 15.01.2020
4260 Rain 9 1009 71 10000 6.2 240 16:20 15.01.2020
4261 Rain 9 1009 71 10000 7.7 230 15:43 15.01.2020
4262 Clouds 9 1008 76 10000 5.7 240 15:21 15.01.2020
4263 Rain 9 1008 76 10000 5.7 240 14:58 15.01.2020
4264 Rain 8 1007 76 10000 5.7 240 14:39 15.01.2020
4265 Rain 8 1007 76 10000 5.7 240 14:18 15.01.2020
4266 Rain 8 1007 76 10000 5.7 240 14:18 15.01.2020
4267 Rain 8 1006 81 10000 3.6 220 13:45 15.01.2020
4268 Rain 7 1006 81 10000 3.6 220 13:26 15.01.2020
4269 Clouds 7 1006 81 10000 3.1 210 12:58 15.01.2020
4270 Clouds 7 1006 81 10000 3.1 210 12:39 15.01.2020
4271 Rain 7 1005 81 10000 4.1 210 12:19 15.01.2020
4272 Rain 6 1005 81 10000 3.6 210 11:56 15.01.2020
4273 Rain 6 1005 81 10000 4.1 240 11:37 15.01.2020
4274 Rain 6 1004 87 10000 3.6 200 11:19 15.01.2020
4275 Rain 6 1004 93 8000 4.1 250 10:43 15.01.2020
4276 Rain 6 1004 93 5000 3.6 260 10:25 15.01.2020
4277 Rain 7 1003 87 10000 5.7 260 09:44 15.01.2020
4278 Rain 7 1002 81 10000 5.7 270 09:23 15.01.2020
4279 Rain 7 1002 93 9000 2.6 260 08:56 15.01.2020
4280 Rain 7 1001 93 7000 3.6 260 08:38 15.01.2020
4281 Rain 7 1001 93 7000 3.6 260 08:19 15.01.2020
4282 Rain 8 1001 93 4000 3.1 250 07:51 15.01.2020
4283 Drizzle 8 1000 93 3700 2.1 230 07:31 15.01.2020
4284 Rain 8 1000 87 9000 2.6 250 06:45 15.01.2020
4285 Rain 8 1000 93 4100 5.1 270 06:20 15.01.2020
4286 Rain 10 998 82 10000 8.7 210 04:42 15.01.2020
4287 Rain 12 997 82 7000 10.3 210 02:38 15.01.2020
4288 Rain 12 997 82 8000 11.8 220 01:28 15.01.2020
4289 Rain 11 997 82 10000 9.3 210 00:46 15.01.2020
4290 Rain 11 997 82 6000 9.8 210 00:27 15.01.2020
4291 Rain 12 996 82 10000 9.8 220 23:57 14.01.2020
4292 Rain 12 996 82 6000 8.7 220 23:38 14.01.2020
4293 Rain 12 997 93 3000 16.5 210 23:19 14.01.2020
4294 Rain 12 996 87 5000 9.3 220 22:41 14.01.2020
4295 Rain 12 996 87 5000 9.3 220 22:19 14.01.2020
4296 Rain 12 995 87 6000 10.8 210 21:59 14.01.2020
4297 Rain 12 995 87 6000 11.3 210 21:40 14.01.2020
4298 Rain 12 995 87 6000 11.3 210 21:22 14.01.2020
4299 Rain 12 995 87 6000 10.3 210 20:59 14.01.2020
4300 Rain 12 995 87 6000 10.3 210 20:41 14.01.2020
4301 Drizzle 12 995 100 2500 16.5 200 20:21 14.01.2020
4302 Drizzle 12 995 100 2500 16.5 200 19:56 14.01.2020
4303 Drizzle 12 995 100 2500 16.5 200 19:38 14.01.2020
4304 Drizzle 12 995 100 2500 16.5 200 19:19 14.01.2020
4305 Drizzle 12 995 100 2500 14.4 200 18:56 14.01.2020
4306 Drizzle 12 995 93 2500 15.4 200 18:37 14.01.2020
4307 Drizzle 12 995 93 2500 15.4 200 18:19 14.01.2020
4308 Drizzle 12 995 93 2500 15.4 200 18:19 14.01.2020
4309 Drizzle 12 995 93 2500 15.4 200 17:39 14.01.2020
4310 Drizzle 12 992 93 4500 9.8 220 17:19 14.01.2020
4311 Drizzle 12 992 93 5000 9.8 220 16:56 14.01.2020
4312 Rain 13 992 93 5000 9.8 220 16:38 14.01.2020
4313 Rain 13 992 93 5000 9.8 220 16:20 14.01.2020
4314 Rain 12 992 93 10000 10.3 220 15:54 14.01.2020
4315 Rain 12 993 82 10000 11.3 210 15:36 14.01.2020
4316 Rain 12 994 87 7000 8.7 200 15:18 14.01.2020
4317 Drizzle 12 994 87 4900 5.7 190 14:41 14.01.2020
4318 Drizzle 11 994 87 4900 5.7 190 14:20 14.01.2020
4319 Rain 10 994 93 9000 7.7 200 13:42 14.01.2020
4320 Rain 10 996 81 10000 6.2 200 13:20 14.01.2020
4321 Rain 10 997 81 10000 7.2 200 12:59 14.01.2020
4322 Rain 10 998 81 10000 4.6 200 12:40 14.01.2020
4323 Rain 10 998 81 10000 4.6 200 12:20 14.01.2020
4324 Rain 9 999 93 10000 8.7 200 11:42 14.01.2020
4325 Rain 9 999 93 10000 8.7 200 11:23 14.01.2020
4326 Rain 9 999 93 10000 8.7 200 11:23 14.01.2020
4327 Clouds 9 998 81 10000 5.1 200 10:58 14.01.2020
4328 Clouds 9 999 81 10000 4.1 200 10:39 14.01.2020
4329 Clouds 8 999 81 10000 4.1 200 10:20 14.01.2020
4330 -273 0 0 0 0 0 09:57 14.01.2020
4331 Rain 8 999 81 10000 4.1 210 09:39 14.01.2020
4332 Rain 8 999 81 10000 4.1 210 09:20 14.01.2020
4333 Clouds 7 999 81 10000 3.6 210 08:46 14.01.2020
4334 Clouds 7 999 81 10000 4.1 220 08:24 14.01.2020
4335 Clouds 7 999 81 10000 4.6 210 07:53 14.01.2020
4336 Clouds 7 999 81 10000 3.6 220 07:33 14.01.2020
4337 Clouds 7 998 81 10000 5.1 230 06:54 14.01.2020
4338 Clouds 7 998 81 10000 4.1 230 06:27 14.01.2020
4339 Clouds 8 997 87 10000 4.1 220 05:25 14.01.2020
4340 Clouds 7 997 81 10000 3.1 230 03:52 14.01.2020
4341 Clouds 7 997 81 10000 4.6 230 02:43 14.01.2020
4342 Clouds 7 997 81 10000 4.6 230 01:53 14.01.2020
4343 Rain 7 997 93 10000 7.7 250 00:51 14.01.2020
4344 Drizzle 7 997 93 3800 7.2 260 00:33 14.01.2020
4345 Drizzle 7 997 93 3800 7.2 260 00:33 14.01.2020
4346 Rain 8 996 87 6000 9.3 260 23:55 13.01.2020
4347 Rain 8 996 93 8000 15.9 200 23:37 13.01.2020
4348 Rain 8 996 93 8000 15.9 200 23:18 13.01.2020
4349 Rain 9 995 81 10000 11.8 200 22:42 13.01.2020
4350 Rain 9 995 81 10000 11.8 200 22:21 13.01.2020
4351 Rain 10 996 81 9000 11.8 200 21:57 13.01.2020
4352 Rain 10 996 81 10000 10.3 210 21:38 13.01.2020
4353 Rain 10 996 81 10000 10.3 210 21:19 13.01.2020
4354 Drizzle 10 995 87 6000 10.8 210 20:59 13.01.2020
4355 Rain 10 998 93 10000 15.9 190 20:41 13.01.2020
4356 Rain 10 998 93 10000 15.9 190 20:22 13.01.2020
4357 Rain 10 998 93 10000 15.9 190 20:22 13.01.2020
4358 Rain 10 998 81 10000 8.7 210 19:59 13.01.2020
4359 Rain 10 998 81 10000 8.7 210 19:40 13.01.2020
4360 Rain 10 999 81 9000 9.8 210 19:20 13.01.2020
4361 Clouds 10 999 87 10000 13.4 200 18:56 13.01.2020
4362 Clouds 10 1000 76 10000 9.3 210 18:37 13.01.2020
4363 Rain 10 1000 76 10000 9.3 210 18:19 13.01.2020
4364 Rain 9 1001 76 10000 7.2 200 17:44 13.01.2020
4365 Drizzle 9 1002 81 3600 5.7 180 17:25 13.01.2020
4366 Drizzle 9 1001 87 4500 8.2 210 16:58 13.01.2020
4367 Rain 9 1002 92 0 7.66 195 16:38 13.01.2020
4368 Rain 9 1002 90 0 7.66 195 16:20 13.01.2020
4369 Rain 9 1003 85 0 7.66 195 15:54 13.01.2020
4370 Rain 9 1004 82 0 7.66 195 15:36 13.01.2020
4371 Rain 9 1013 68 0 1.79 108 15:18 13.01.2020
4372 Rain 9 1005 79 0 7.15 208 14:40 13.01.2020
4373 Clouds 9 1007 84 0 7.28 196 14:22 13.01.2020
4374 Clouds 9 1007 84 0 7.28 196 13:56 13.01.2020
4375 Clouds 9 1008 83 0 7.28 196 13:38 13.01.2020
4376 Clouds 9 1009 82 0 7.28 196 13:20 13.01.2020
4377 Clouds 9 1009 82 0 7.28 196 13:20 13.01.2020
4378 Clouds 9 1012 76 10000 4.6 0 12:43 13.01.2020
4379 Clouds 8 1011 81 10000 6.2 190 12:23 13.01.2020
4380 Clouds 8 1012 76 10000 4.6 0 11:59 13.01.2020
4381 Clouds 8 1012 76 10000 4.6 190 11:39 13.01.2020
4382 Clouds 8 1012 93 10000 8.7 180 11:19 13.01.2020
4383 Clouds 8 1012 93 10000 5.1 190 10:56 13.01.2020
4384 Clouds 8 1013 81 10000 3.6 0 10:38 13.01.2020
4385 Clouds 7 1013 93 10000 7.2 180 10:20 13.01.2020
4386 Rain 7 1014 93 10000 6.7 190 09:55 13.01.2020
4387 Rain 7 1014 100 9000 6.7 180 09:37 13.01.2020
4388 Rain 7 1014 100 9000 6.7 180 09:19 13.01.2020
4389 Clouds 7 1015 93 10000 5.7 180 08:39 13.01.2020
4390 Clouds 7 1015 93 10000 5.7 180 08:20 13.01.2020
4391 Clouds 7 1015 93 10000 5.7 180 08:20 13.01.2020
4392 Rain 6 1015 87 10000 4.1 210 07:46 13.01.2020
4393 Rain 6 1015 87 10000 4.1 210 07:27 13.01.2020
4394 Rain 6 1015 93 10000 3.6 220 06:40 13.01.2020
4395 Rain 6 1017 87 10000 3.1 220 06:19 13.01.2020
4396 Clouds 6 1017 81 10000 4.1 210 05:20 13.01.2020
4397 Rain 6 1018 81 10000 3.1 200 03:52 13.01.2020
4398 -273 0 0 0 0 0 03:22 13.01.2020
4399 Clouds 6 1019 87 10000 2.6 230 02:38 13.01.2020
4400 Clouds 5 1019 87 10000 2.6 230 02:18 13.01.2020
4401 Clouds 5 1020 81 10000 2.6 230 00:59 13.01.2020
4402 Clouds 5 1020 86 10000 3.1 230 00:40 13.01.2020
4403 Clouds 5 1020 81 10000 2.6 230 00:21 13.01.2020
4404 Clouds 5 1020 81 10000 2.6 230 23:42 12.01.2020
4405 Clouds 5 1020 93 10000 3.6 210 23:23 12.01.2020
4406 Clear 5 1021 93 10000 4.1 210 22:57 12.01.2020
4407 Clouds 6 1021 87 10000 4.1 200 22:39 12.01.2020
4408 Clouds 6 1021 87 10000 4.1 200 22:21 12.01.2020
4409 Clouds 6 1021 87 10000 4.1 210 21:55 12.01.2020
4410 Clouds 6 1021 87 10000 4.1 210 21:55 12.01.2020
4411 Clouds 6 1021 87 10000 4.6 210 21:37 12.01.2020
4412 Clouds 6 1021 87 10000 4.6 210 21:19 12.01.2020
4413 Clouds 6 1020 81 10000 3.1 230 20:56 12.01.2020
4414 Clear 6 1021 87 10000 3.6 220 20:37 12.01.2020
4415 Clouds 7 1021 87 10000 3.6 220 20:19 12.01.2020
4416 Clouds 7 1020 81 10000 3.1 230 19:55 12.01.2020
4417 Clouds 7 1020 81 10000 3.6 240 19:37 12.01.2020
4418 Clouds 7 1020 70 10000 5.7 250 19:18 12.01.2020
4419 Clouds 7 1020 70 10000 5.7 250 19:18 12.01.2020
4420 Clouds 8 1020 75 10000 4.1 250 18:57 12.01.2020
4421 Clouds 8 1020 75 10000 5.1 250 18:38 12.01.2020
4422 Clouds 8 1020 75 10000 5.1 250 18:20 12.01.2020
4423 Clouds 9 1020 66 10000 6.2 260 17:42 12.01.2020
4424 Clouds 9 1019 61 10000 7.7 260 17:22 12.01.2020
4425 Clouds 9 1019 70 10000 5.7 270 16:59 12.01.2020
4426 Clouds 10 1018 62 10000 10.3 260 16:39 12.01.2020
4427 Clouds 10 1018 62 10000 10.3 260 16:20 12.01.2020
4428 Clouds 10 1018 66 10000 8.2 260 15:57 12.01.2020
4429 Clouds 10 1018 66 10000 9.8 270 15:38 12.01.2020
4430 Clouds 11 1018 66 10000 9.8 270 15:20 12.01.2020
4431 Clouds 11 1017 66 10000 6.2 260 14:43 12.01.2020
4432 Clouds 11 1017 66 10000 6.2 260 14:43 12.01.2020
4433 Clouds 11 1017 66 10000 8.7 250 14:24 12.01.2020
4434 Clouds 11 1017 66 10000 8.7 260 13:57 12.01.2020
4435 Clouds 11 1017 66 10000 8.7 260 13:57 12.01.2020
4436 Clouds 11 1017 66 10000 8.2 250 13:39 12.01.2020
4437 Clouds 11 1017 66 10000 8.2 250 13:20 12.01.2020
4438 Clouds 11 1017 66 10000 9.3 250 12:57 12.01.2020
4439 Clouds 11 1017 66 10000 9.3 250 12:38 12.01.2020
4440 Clouds 11 1017 66 10000 9.3 250 12:19 12.01.2020
4441 Clouds 11 1016 76 10000 7.7 250 11:42 12.01.2020
4442 Clouds 10 1017 93 10000 6.7 220 11:22 12.01.2020
4443 Rain 10 1016 76 10000 7.2 240 10:58 12.01.2020
4444 Clouds 10 1016 87 10000 6.7 230 10:40 12.01.2020
4445 Clouds 10 1016 93 10000 7.7 270 10:21 12.01.2020
4446 Clouds 10 1015 81 10000 7.2 240 09:44 12.01.2020
4447 Clouds 10 1015 81 10000 7.2 240 09:24 12.01.2020
4448 Rain 10 1015 87 10000 5.1 230 08:57 12.01.2020
4449 Clouds 10 1015 87 10000 5.1 230 08:38 12.01.2020
4450 Clouds 10 1015 87 10000 5.1 230 08:19 12.01.2020
4451 Drizzle 10 1015 87 4400 6.2 220 07:38 12.01.2020
4452 Rain 10 1015 87 10000 7.7 220 07:19 12.01.2020
4453 Rain 10 1016 87 9000 6.2 230 06:42 12.01.2020
4454 Rain 9 1016 87 9000 6.2 230 06:18 12.01.2020
4455 Rain 9 1016 87 10000 6.7 220 05:21 12.01.2020
4456 Drizzle 9 1018 87 3200 6.2 220 03:45 12.01.2020
4457 Rain 9 1017 93 10000 6.7 220 03:22 12.01.2020
4458 Clouds 9 1018 87 10000 7.7 230 02:30 12.01.2020
4459 Clouds 10 1018 76 10000 7.2 220 01:42 12.01.2020
4460 Clouds 10 1019 76 10000 6.2 220 01:22 12.01.2020
4461 Clouds 10 1020 76 10000 7.2 210 00:40 12.01.2020
4462 Clouds 10 1020 76 10000 7.2 210 00:20 12.01.2020
4463 Clouds 10 1020 76 10000 6.7 230 23:42 11.01.2020
4464 Clouds 10 1020 76 10000 7.7 230 23:19 11.01.2020
4465 Clouds 10 1020 76 10000 6.7 220 22:57 11.01.2020
4466 Clouds 10 1021 76 10000 7.7 220 22:39 11.01.2020
4467 Clouds 10 1021 76 10000 7.7 220 22:20 11.01.2020
4468 Clouds 10 1021 76 10000 7.7 220 21:58 11.01.2020
4469 Clouds 10 1021 76 10000 7.7 220 21:39 11.01.2020
4470 Clouds 10 1021 76 10000 6.2 230 21:18 11.01.2020
4471 Clouds 10 1021 76 10000 6.2 220 20:40 11.01.2020
4472 Clouds 10 1021 76 10000 5.7 220 20:22 11.01.2020
4473 Clouds 10 1022 76 10000 6.7 220 19:58 11.01.2020
4474 Clouds 10 1022 76 10000 6.7 220 19:39 11.01.2020
4475 Clouds 10 1022 76 10000 5.7 230 19:21 11.01.2020
4476 Clouds 10 1022 76 10000 7.2 230 18:58 11.01.2020
4477 Clouds 10 1022 76 10000 5.7 230 18:38 11.01.2020
4478 Clouds 10 1022 76 10000 5.7 230 18:19 11.01.2020
4479 Clouds 10 1022 76 10000 5.7 210 17:57 11.01.2020
4480 Clouds 10 1022 76 10000 5.7 210 17:57 11.01.2020
4481 Clouds 10 1022 76 10000 6.7 210 17:39 11.01.2020
4482 Clouds 10 1022 76 10000 6.7 210 17:19 11.01.2020
4483 Clouds 10 1022 76 10000 8.2 210 16:45 11.01.2020
4484 Clouds 10 1023 76 10000 6.7 210 16:27 11.01.2020
4485 Clouds 10 1023 76 10000 6.7 220 15:58 11.01.2020
4486 Clouds 10 1023 76 10000 7.7 230 15:40 11.01.2020
4487 Clouds 10 1023 76 10000 7.7 230 15:22 11.01.2020
4488 Clouds 10 1023 76 10000 6.7 230 14:57 11.01.2020
4489 Clouds 10 1023 76 10000 6.2 220 14:38 11.01.2020
4490 Clouds 10 1023 76 10000 6.2 220 14:20 11.01.2020
4491 Clouds 10 1024 76 10000 6.2 230 13:40 11.01.2020
4492 Clouds 10 1024 76 10000 6.2 230 13:20 11.01.2020
4493 Clouds 10 1025 76 10000 6.7 230 12:58 11.01.2020
4494 Drizzle 9 1025 93 8000 8.7 210 12:40 11.01.2020
4495 Drizzle 9 1025 93 8000 8.7 210 12:21 11.01.2020
4496 Clouds 9 1025 81 10000 5.7 220 11:48 11.01.2020
4497 Clouds 9 1025 76 10000 6.2 220 11:26 11.01.2020
4498 Clouds 9 1026 76 10000 4.6 220 10:51 11.01.2020
4499 Clouds 9 1026 76 10000 6.2 0 10:30 11.01.2020
4500 Clouds 9 1025 76 10000 5.7 210 09:58 11.01.2020
4501 Clouds 9 1025 76 10000 5.7 210 09:38 11.01.2020
4502 Clouds 9 1025 76 10000 5.7 210 09:20 11.01.2020
4503 Clouds 9 1026 76 10000 6.2 210 08:42 11.01.2020
4504 Clouds 9 1026 76 10000 6.2 210 08:22 11.01.2020
4505 Clouds 9 1026 76 10000 5.1 220 07:44 11.01.2020
4506 Clouds 8 1026 81 10000 4.6 210 07:25 11.01.2020
4507 Clouds 8 1026 76 10000 6.2 210 06:51 11.01.2020
4508 Clouds 8 1027 76 10000 4.1 220 05:50 11.01.2020
4509 Clouds 7 1027 70 10000 5.7 210 04:47 11.01.2020
4510 Clouds 7 1028 75 10000 5.1 200 04:29 11.01.2020
4511 Clouds 6 1029 75 10000 4.6 210 02:58 11.01.2020
4512 Clouds 6 1029 75 10000 4.6 210 02:38 11.01.2020
4513 Clouds 5 1029 75 10000 4.6 210 01:43 11.01.2020
4514 Clouds 5 1029 75 10000 4.6 210 01:20 11.01.2020
4515 Clouds 5 1029 81 10000 4.6 200 00:43 11.01.2020
4516 Clouds 5 1029 75 10000 3.6 200 00:18 11.01.2020
4517 Clouds 4 1030 75 10000 2.6 220 23:40 10.01.2020
4518 Clouds 4 1030 75 10000 2.6 220 23:40 10.01.2020
4519 Clouds 4 1030 75 10000 2.6 220 23:22 10.01.2020
4520 Clouds 4 1030 75 10000 3.1 230 22:59 10.01.2020
4521 Clouds 4 1030 75 10000 2.6 230 22:40 10.01.2020
4522 Clouds 4 1030 75 10000 2.6 230 22:20 10.01.2020
4523 Clouds 4 1029 75 10000 2.6 230 21:57 10.01.2020
4524 Clouds 4 1029 80 10000 3.6 200 21:37 10.01.2020
4525 Clouds 4 1029 80 10000 3.6 200 21:19 10.01.2020
4526 Clouds 4 1029 75 10000 3.1 220 20:43 10.01.2020
4527 Clouds 4 1029 75 10000 3.1 220 20:25 10.01.2020
4528 Clouds 4 1029 75 10000 3.1 220 20:25 10.01.2020
4529 Clouds 4 1029 75 10000 3.1 220 19:59 10.01.2020
4530 Clouds 5 1029 75 10000 2.6 230 19:38 10.01.2020
4531 Clouds 5 1029 75 10000 2.6 230 19:20 10.01.2020
4532 Clouds 5 1028 75 10000 2.1 180 18:44 10.01.2020
4533 Clouds 5 1028 75 10000 2.1 180 18:20 10.01.2020
4534 Clouds 6 1028 80 10000 1.5 0 17:58 10.01.2020
4535 Clouds 6 1028 70 10000 2.6 260 17:39 10.01.2020
4536 Clouds 6 1028 65 10000 2.1 290 17:21 10.01.2020
4537 Clear 7 1027 65 10000 3.6 290 16:59 10.01.2020
4538 Clear 7 1027 65 10000 2.6 290 16:40 10.01.2020
4539 Clear 7 1027 65 10000 2.6 290 16:21 10.01.2020
4540 Clouds 7 1027 65 10000 3.6 290 15:56 10.01.2020
4541 Clear 7 1027 65 10000 3.1 280 15:37 10.01.2020
4542 Clear 7 1027 65 10000 3.1 280 15:19 10.01.2020
4543 Clouds 7 1026 65 10000 2.1 290 14:56 10.01.2020
4544 Clouds 7 1026 65 10000 3.1 290 14:38 10.01.2020
4545 Clouds 7 1026 65 10000 3.1 290 14:19 10.01.2020
4546 Clouds 7 1026 70 10000 5.1 290 13:45 10.01.2020
4547 Clouds 7 1026 70 10000 5.1 290 13:27 10.01.2020
4548 Clouds 7 1026 70 10000 5.7 280 12:59 10.01.2020
4549 Clouds 7 1025 70 10000 6.2 290 12:40 10.01.2020
4550 Clouds 6 1025 70 10000 6.2 290 12:21 10.01.2020
4551 Clouds 6 1024 70 10000 5.1 290 11:58 10.01.2020
4552 Clouds 6 1024 75 10000 5.1 290 11:40 10.01.2020
4553 Clouds 6 1024 75 10000 5.1 290 11:19 10.01.2020
4554 Clouds 6 1023 70 10000 4.6 290 10:59 10.01.2020
4555 Clouds 6 1022 70 10000 4.6 290 10:38 10.01.2020
4556 Clouds 6 1022 80 10000 4.1 290 10:19 10.01.2020
4557 Clouds 5 1021 86 10000 4.6 290 09:46 10.01.2020
4558 Clouds 5 1021 80 10000 4.6 310 09:26 10.01.2020
4559 Clouds 5 1020 75 10000 5.7 300 08:59 10.01.2020
4560 Clouds 5 1019 75 10000 5.7 300 08:38 10.01.2020
4561 Clouds 5 1019 75 10000 5.7 300 08:20 10.01.2020
4562 Clouds 5 1019 75 10000 5.7 310 07:41 10.01.2020
4563 Clouds 5 1018 81 10000 6.2 310 07:22 10.01.2020
4564 Clouds 5 1017 81 10000 5.1 300 06:43 10.01.2020
4565 Clouds 5 1016 81 10000 4.1 320 06:24 10.01.2020
4566 Clouds 6 1015 81 10000 4.6 310 05:33 10.01.2020
4567 Clouds 6 1012 87 10000 5.1 310 03:34 10.01.2020
4568 Clouds 6 1011 87 10000 6.2 310 02:57 10.01.2020
4569 Clouds 6 1010 87 10000 5.7 300 02:37 10.01.2020
4570 Clouds 6 1008 87 10000 5.7 310 01:38 10.01.2020
4571 Rain 6 1007 81 10000 5.1 240 00:58 10.01.2020
4572 Clouds 6 1006 81 10000 6.7 250 00:38 10.01.2020
4573 Clouds 7 1006 76 10000 8.2 250 23:57 09.01.2020
4574 Clouds 7 1006 87 10000 4.6 220 23:38 09.01.2020
4575 Clouds 7 1006 87 10000 4.6 220 23:20 09.01.2020
4576 Clouds 7 1006 87 10000 6.2 210 22:57 09.01.2020
4577 Clouds 8 1005 87 10000 5.7 200 22:37 09.01.2020
4578 Clouds 8 1005 87 10000 5.7 200 22:18 09.01.2020
4579 Clouds 8 1004 87 10000 3.6 200 21:56 09.01.2020
4580 Clouds 8 1005 93 10000 6.2 210 21:37 09.01.2020
4581 Clouds 8 1005 93 10000 6.2 210 21:37 09.01.2020
4582 Clouds 8 1005 93 10000 6.2 210 21:18 09.01.2020
4583 Clouds 8 1005 87 10000 5.1 210 20:56 09.01.2020
4584 Clouds 8 1005 87 10000 5.1 210 20:38 09.01.2020
4585 Rain 9 1004 87 10000 5.1 230 20:19 09.01.2020
4586 Rain 9 1004 87 10000 5.1 230 20:19 09.01.2020
4587 Clouds 9 1004 87 10000 7.7 220 19:55 09.01.2020
4588 Clouds 9 1004 87 10000 7.7 220 19:36 09.01.2020
4589 Rain 9 1004 93 10000 7.7 210 19:18 09.01.2020
4590 Rain 10 1004 93 10000 7.7 210 18:54 09.01.2020
4591 Rain 10 1004 93 10000 7.7 210 18:54 09.01.2020
4592 Rain 10 1004 93 10000 7.7 210 18:36 09.01.2020
4593 Rain 10 1003 81 10000 4.6 210 18:18 09.01.2020
4594 Rain 11 1003 87 10000 4.1 220 17:41 09.01.2020
4595 Rain 11 1003 93 3500 2.1 140 17:18 09.01.2020
4596 Rain 11 1003 93 3500 2.1 140 17:18 09.01.2020
4597 Rain 11 1004 87 2900 2.6 190 16:47 09.01.2020
4598 Rain 11 1003 87 5000 4.1 200 16:23 09.01.2020
4599 Rain 11 1003 87 5000 4.1 200 16:23 09.01.2020
4600 Rain 12 1004 82 10000 3.6 220 15:56 09.01.2020
4601 Rain 12 1004 82 10000 3.6 220 15:56 09.01.2020
4602 Clouds 12 1004 82 10000 3.6 220 15:38 09.01.2020
4603 Mist 12 1005 93 4000 5.7 200 15:18 09.01.2020
4604 Clouds 12 1005 76 10000 4.6 240 14:41 09.01.2020
4605 Clouds 12 1005 87 10000 6.2 210 14:21 09.01.2020
4606 Clouds 12 1005 87 10000 6.2 210 13:57 09.01.2020
4607 Clouds 12 1006 71 10000 5.7 230 13:39 09.01.2020
4608 Clouds 12 1006 71 10000 7.2 240 13:20 09.01.2020
4609 Clouds 12 1006 71 10000 7.2 240 12:58 09.01.2020
4610 Clouds 12 1006 71 10000 6.7 230 12:38 09.01.2020
4611 Clouds 12 1007 76 10000 7.7 240 12:19 09.01.2020
4612 Clouds 11 1007 87 10000 9.3 220 11:55 09.01.2020
4613 Clouds 11 1007 87 10000 9.3 220 11:37 09.01.2020
4614 Clouds 11 1007 87 10000 8.7 220 11:19 09.01.2020
4615 Clouds 11 1007 87 10000 11.8 210 10:42 09.01.2020
4616 Clouds 11 1007 93 10000 9.8 210 10:22 09.01.2020
4617 Clouds 11 1007 93 10000 10.8 210 09:55 09.01.2020
4618 Clouds 11 1007 93 10000 10.8 210 09:37 09.01.2020
4619 Clouds 11 1007 93 10000 11.3 210 09:18 09.01.2020
4620 Clouds 11 1007 93 10000 11.3 210 08:54 09.01.2020
4621 Clouds 12 1007 82 10000 6.7 230 08:36 09.01.2020
4622 Clouds 12 1007 87 10000 6.7 220 08:18 09.01.2020
4623 Rain 12 1007 87 10000 7.7 210 07:41 09.01.2020
4624 Rain 12 1008 87 10000 6.7 220 07:23 09.01.2020
4625 Rain 12 1008 87 10000 7.2 220 06:38 09.01.2020
4626 Rain 12 1008 87 10000 7.7 210 06:18 09.01.2020
4627 Clouds 12 1009 87 8000 7.7 210 05:43 09.01.2020
4628 Clouds 12 1010 100 8000 7.2 200 04:42 09.01.2020
4629 Rain 11 1011 100 10000 8.2 200 03:30 09.01.2020
4630 Rain 11 1012 93 9000 4.6 180 02:48 09.01.2020
4631 Rain 11 1012 96 0 6.91 210 02:23 09.01.2020
4632 Rain 10 1013 93 4600 4.6 160 01:35 09.01.2020
4633 Clouds 10 1016 93 7000 4.1 140 00:42 09.01.2020
4634 Clouds 10 1016 93 7000 4.1 140 00:42 09.01.2020
4635 Clouds 10 1017 93 8000 3.6 140 00:21 09.01.2020
4636 Clouds 9 1018 87 7000 3.6 150 23:42 08.01.2020
4637 Clouds 9 1018 87 7000 3.6 150 23:42 08.01.2020
4638 Clouds 9 1018 93 8000 3.6 130 23:24 08.01.2020
4639 Drizzle 9 1019 93 8000 4.1 150 22:59 08.01.2020
4640 Drizzle 9 1019 93 8000 4.1 150 22:39 08.01.2020
4641 Mist 9 1020 93 8000 3.1 150 22:20 08.01.2020
4642 Mist 9 1020 93 8000 3.1 150 21:57 08.01.2020
4643 Rain 9 1020 93 3000 3.1 170 21:38 08.01.2020
4644 Mist 9 1021 100 4000 3.6 190 21:19 08.01.2020
4645 Mist 9 1021 100 4000 3.6 190 20:58 08.01.2020
4646 Clouds 10 1021 93 9000 3.1 180 20:38 08.01.2020
4647 Clouds 9 1021 93 9000 2.6 170 20:20 08.01.2020
4648 Clouds 10 1022 87 9000 2.6 210 19:56 08.01.2020
4649 Clouds 10 1022 87 9000 2.6 210 19:56 08.01.2020
4650 Clouds 10 1022 87 9000 2.6 210 19:56 08.01.2020
4651 Clouds 10 1021 81 10000 2.1 170 19:37 08.01.2020
4652 Clouds 10 1021 81 10000 2.1 170 19:37 08.01.2020
4653 Clouds 10 1022 87 8000 2.1 220 19:18 08.01.2020
4654 Clouds 10 1022 87 8000 2.1 220 18:55 08.01.2020
4655 Clouds 10 1022 81 10000 1 220 18:37 08.01.2020
4656 Clouds 10 1023 93 9000 3.1 190 18:18 08.01.2020
4657 Clouds 10 1022 81 10000 1.5 250 17:47 08.01.2020
4658 Clouds 10 1023 93 9000 2.1 230 17:24 08.01.2020
4659 Clouds 11 1022 76 9000 2.6 240 16:57 08.01.2020
4660 Clouds 11 1022 76 9000 2.6 240 16:39 08.01.2020
4661 Clouds 11 1022 76 9000 2.6 240 16:39 08.01.2020
4662 Clouds 11 1022 76 9000 3.1 270 16:19 08.01.2020
4663 Clouds 11 1022 76 9000 4.1 250 15:59 08.01.2020
4664 Clouds 11 1022 76 9000 4.1 250 15:40 08.01.2020
4665 Clouds 11 1022 76 9000 3.6 250 15:20 08.01.2020
4666 Clouds 11 1022 76 9000 3.6 250 14:56 08.01.2020
4667 Clouds 11 1022 76 9000 3.6 250 14:38 08.01.2020
4668 Clouds 11 1022 76 9000 4.1 250 14:19 08.01.2020
4669 Clouds 11 1022 76 9000 4.1 250 13:39 08.01.2020
4670 Clouds 11 1022 76 10000 5.7 250 13:19 08.01.2020
4671 Clouds 11 1023 76 10000 4.6 250 12:42 08.01.2020
4672 Clouds 11 1023 76 10000 5.1 260 12:19 08.01.2020
4673 Clouds 11 1022 76 10000 5.7 250 11:55 08.01.2020
4674 Clouds 11 1022 76 10000 5.7 250 11:37 08.01.2020
4675 Clouds 11 1022 76 10000 6.2 260 11:19 08.01.2020
4676 Clouds 11 1022 76 10000 6.2 260 10:55 08.01.2020
4677 Clouds 11 1022 76 10000 6.2 260 10:37 08.01.2020
4678 Clouds 11 1021 76 10000 5.7 260 10:18 08.01.2020
4679 Clouds 10 1021 81 10000 5.7 250 09:41 08.01.2020
4680 Clouds 11 1021 81 10000 5.7 250 09:19 08.01.2020
4681 Clouds 11 1021 81 10000 5.7 250 08:56 08.01.2020
4682 Clouds 11 1020 82 10000 6.2 250 08:37 08.01.2020
4683 Clouds 11 1021 93 10000 5.1 240 08:19 08.01.2020
4684 Clouds 11 1021 93 10000 5.1 240 08:19 08.01.2020
4685 Clouds 11 1020 93 10000 5.1 230 07:48 08.01.2020
4686 Clouds 11 1020 93 10000 5.1 230 07:29 08.01.2020
4687 Clouds 12 1019 93 10000 5.7 240 06:45 08.01.2020
4688 Clouds 12 1020 100 10000 4.6 240 06:22 08.01.2020
4689 Clouds 12 1019 87 10000 6.2 240 05:41 08.01.2020
4690 Clouds 12 1019 87 10000 6.2 240 04:57 08.01.2020
4691 Clouds 12 1018 87 10000 4.6 240 04:25 08.01.2020
4692 Clouds 12 1018 87 10000 7.2 240 02:45 08.01.2020
4693 Clouds 12 1018 87 10000 7.7 240 02:22 08.01.2020
4694 Clouds 12 1018 100 10000 7.2 230 01:48 08.01.2020
4695 Rain 12 1018 100 7000 6.2 230 01:19 08.01.2020
4696 Clouds 12 1018 87 10000 7.2 230 00:38 08.01.2020
4697 Clouds 12 1018 87 10000 6.7 230 00:20 08.01.2020
4698 Clouds 12 1018 87 10000 7.2 230 23:43 07.01.2020
4699 Clouds 12 1018 87 10000 6.2 240 23:20 07.01.2020
4700 Clouds 12 1018 87 10000 6.2 240 23:20 07.01.2020
4701 Clouds 12 1018 87 10000 6.7 230 22:40 07.01.2020
4702 Clouds 12 1018 87 10000 7.2 230 22:20 07.01.2020
4703 Clouds 12 1018 87 10000 6.2 230 21:57 07.01.2020
4704 Clouds 12 1018 87 10000 6.2 230 21:38 07.01.2020
4705 Clouds 12 1018 87 10000 5.7 230 21:20 07.01.2020
4706 Clouds 12 1018 87 10000 6.2 220 20:56 07.01.2020
4707 Clouds 12 1018 87 10000 6.2 220 20:38 07.01.2020
4708 Clouds 12 1019 87 10000 6.2 220 20:19 07.01.2020
4709 Clouds 12 1019 87 10000 6.2 220 19:55 07.01.2020
4710 Clouds 12 1019 87 10000 5.1 220 19:36 07.01.2020
4711 Clouds 12 1019 87 10000 6.2 220 19:18 07.01.2020
4712 Clouds 11 1019 87 10000 6.2 230 18:55 07.01.2020
4713 Clouds 11 1019 87 10000 6.2 230 18:36 07.01.2020
4714 Clouds 11 1019 87 10000 5.7 210 18:18 07.01.2020
4715 Clouds 11 1019 93 10000 5.7 210 17:40 07.01.2020
4716 Clouds 11 1020 87 10000 5.7 220 17:22 07.01.2020
4717 Clouds 10 1020 87 10000 5.7 220 16:57 07.01.2020
4718 Clouds 10 1020 87 10000 5.7 220 16:38 07.01.2020
4719 Clouds 10 1020 87 10000 5.1 210 16:19 07.01.2020
4720 Clouds 10 1020 81 10000 6.2 210 15:58 07.01.2020
4721 Clouds 11 1021 76 10000 5.7 220 15:40 07.01.2020
4722 Clouds 11 1021 76 10000 5.7 220 15:22 07.01.2020
4723 Clouds 11 1021 76 10000 5.7 220 15:22 07.01.2020
4724 Clouds 11 1022 87 10000 6.7 200 14:55 07.01.2020
4725 Clouds 11 1022 87 10000 6.7 200 14:37 07.01.2020
4726 Clouds 11 1022 71 10000 5.7 220 14:18 07.01.2020
4727 Clouds 11 1022 76 10000 6.2 230 13:39 07.01.2020
4728 Clouds 11 1023 71 10000 4.6 220 13:19 07.01.2020
4729 Clouds 10 1023 76 10000 4.1 220 12:42 07.01.2020
4730 Clouds 10 1023 76 10000 4.6 220 12:21 07.01.2020
4731 Clouds 10 1023 76 10000 4.6 220 11:58 07.01.2020
4732 Clouds 9 1024 81 10000 3.6 220 11:38 07.01.2020
4733 Clouds 9 1024 87 9000 4.1 230 11:20 07.01.2020
4734 Clouds 8 1024 87 9000 3.6 220 10:42 07.01.2020
4735 Clouds 8 1024 87 9000 3.6 220 10:42 07.01.2020
4736 Clouds 8 1024 87 9000 3.1 210 10:24 07.01.2020
4737 Clouds 8 1024 87 9000 3.1 210 09:59 07.01.2020
4738 Clouds 7 1024 81 9000 3.1 220 09:38 07.01.2020
4739 Clouds 7 1024 87 9000 3.6 230 09:20 07.01.2020
4740 Clouds 6 1024 87 9000 3.6 230 08:46 07.01.2020
4741 Clouds 6 1024 87 10000 4.1 240 08:26 07.01.2020
4742 Clouds 6 1024 93 9000 4.1 240 07:54 07.01.2020
4743 Clouds 6 1024 93 9000 4.1 240 07:34 07.01.2020
4744 Clouds 5 1024 87 10000 3.6 230 06:54 07.01.2020
4745 Clouds 5 1024 87 10000 3.6 230 06:35 07.01.2020
4746 Clouds 5 1024 87 8000 3.6 230 05:58 07.01.2020
4747 Clouds 5 1024 87 8000 3.6 230 05:38 07.01.2020
4748 Clouds 5 1024 93 8000 3.1 230 03:44 07.01.2020
4749 Rain 6 1024 100 7000 2.6 210 02:25 07.01.2020
4750 Rain 6 1024 93 7000 3.1 260 01:59 07.01.2020
4751 Mist 6 1023 93 7000 2.1 250 01:35 07.01.2020
4752 Clouds 6 1022 87 8000 4.1 240 00:51 07.01.2020
4753 Clouds 6 1021 93 9000 5.1 250 00:20 07.01.2020
4754 Clouds 6 1021 93 9000 5.1 250 23:56 06.01.2020
4755 Clouds 7 1021 93 10000 4.1 250 23:37 06.01.2020
4756 Clouds 7 1021 93 10000 4.6 250 23:19 06.01.2020
4757 Clouds 7 1021 93 10000 5.1 250 22:43 06.01.2020
4758 Clouds 7 1020 100 10000 5.7 260 22:24 06.01.2020
4759 Clouds 7 1020 100 10000 5.7 260 22:24 06.01.2020
4760 Clouds 7 1020 100 10000 5.1 250 21:58 06.01.2020
4761 Clouds 7 1020 100 10000 5.7 260 21:58 06.01.2020
4762 Clouds 7 1020 100 10000 5.1 250 21:39 06.01.2020
4763 Clouds 8 1019 100 10000 5.1 240 21:20 06.01.2020
4764 Clouds 8 1019 100 10000 5.1 240 21:20 06.01.2020
4765 Clouds 8 1019 100 10000 5.1 240 21:20 06.01.2020
4766 Clouds 8 1019 100 10000 5.1 220 20:57 06.01.2020
4767 Clouds 8 1019 100 10000 5.1 220 20:38 06.01.2020
4768 Clouds 8 1019 100 10000 5.1 220 20:38 06.01.2020
4769 Clouds 8 1018 93 10000 5.1 240 20:20 06.01.2020
4770 Rain 8 1018 93 10000 5.1 230 19:56 06.01.2020
4771 Rain 8 1018 93 10000 5.1 230 19:38 06.01.2020
4772 Rain 8 1018 87 10000 5.1 230 19:20 06.01.2020
4773 Rain 8 1017 87 10000 4.6 230 18:48 06.01.2020
4774 Rain 8 1017 81 10000 4.6 220 18:23 06.01.2020
4775 Rain 8 1017 81 10000 4.6 220 17:59 06.01.2020
4776 Rain 8 1018 81 10000 4.6 220 17:38 06.01.2020
4777 Rain 8 1017 87 10000 5.7 220 17:18 06.01.2020
4778 Clouds 8 1017 76 10000 5.1 220 16:46 06.01.2020
4779 Clouds 8 1017 76 10000 5.1 220 16:46 06.01.2020
4780 Clouds 8 1018 70 10000 5.7 220 16:27 06.01.2020
4781 Clouds 8 1018 70 10000 5.7 220 15:59 06.01.2020
4782 Clouds 8 1018 75 10000 5.7 210 15:41 06.01.2020
4783 Clouds 8 1019 70 10000 6.2 220 15:20 06.01.2020
4784 Clouds 8 1019 70 10000 6.2 220 14:58 06.01.2020
4785 Clouds 8 1018 66 10000 6.7 240 14:40 06.01.2020
4786 Clouds 8 1019 70 10000 6.2 230 14:20 06.01.2020
4787 Clouds 8 1019 70 10000 6.2 230 13:57 06.01.2020
4788 Clouds 8 1019 66 10000 6.2 210 13:37 06.01.2020
4789 Clouds 8 1019 70 10000 7.2 220 13:19 06.01.2020
4790 Clouds 7 1020 70 10000 5.1 210 12:43 06.01.2020
4791 Clouds 7 1021 70 10000 6.2 200 12:21 06.01.2020
4792 Clouds 7 1021 70 10000 6.2 200 11:58 06.01.2020
4793 Clouds 7 1021 70 10000 5.1 210 11:39 06.01.2020
4794 Clouds 7 1021 81 10000 8.7 180 11:20 06.01.2020
4795 Clouds 7 1021 75 10000 5.1 200 10:54 06.01.2020
4796 Clouds 7 1021 75 10000 5.1 200 10:36 06.01.2020
4797 Clouds 6 1022 75 10000 4.1 200 10:18 06.01.2020
4798 Clouds 6 1024 75 10000 4.1 220 09:38 06.01.2020
4799 Clouds 6 1024 75 10000 5.7 220 09:19 06.01.2020
4800 Clouds 6 1023 75 10000 5.1 210 08:46 06.01.2020
4801 Clouds 6 1025 70 10000 5.7 230 08:26 06.01.2020
4802 Clouds 6 1025 70 10000 4.6 220 07:53 06.01.2020
4803 Clouds 6 1025 70 10000 4.6 220 07:32 06.01.2020
4804 Clouds 6 1025 75 10000 4.6 220 06:46 06.01.2020
4805 Clouds 6 1026 70 10000 6.2 210 06:23 06.01.2020
4806 Clouds 6 1026 75 10000 5.7 210 05:45 06.01.2020
4807 Clouds 7 1027 75 10000 5.7 220 04:38 06.01.2020
4808 Clouds 7 1027 75 10000 4.6 210 04:19 06.01.2020
4809 Clouds 7 1028 81 10000 4.6 210 02:56 06.01.2020
4810 Clouds 7 1028 87 10000 4.1 190 02:24 06.01.2020
4811 Clouds 7 1029 87 10000 2.1 210 01:45 06.01.2020
4812 Clouds 7 1029 87 10000 2.1 210 01:26 06.01.2020
4813 Clouds 7 1029 87 10000 3.1 210 00:42 06.01.2020
4814 Clouds 7 1029 87 10000 3.6 220 00:23 06.01.2020
4815 Clouds 7 1030 87 10000 4.1 220 23:43 05.01.2020
4816 Clouds 7 1030 87 10000 4.1 220 23:23 05.01.2020
4817 Clouds 7 1030 81 10000 3.1 220 22:58 05.01.2020
4818 Clouds 7 1030 81 10000 3.1 220 22:39 05.01.2020
4819 Clouds 7 1030 81 10000 3.6 230 22:20 05.01.2020
4820 Clouds 7 1030 81 10000 3.1 220 21:55 05.01.2020
4821 Clouds 7 1030 81 10000 3.1 220 21:37 05.01.2020
4822 Clouds 7 1030 81 10000 3.1 220 21:37 05.01.2020
4823 Clouds 7 1031 81 10000 3.6 220 21:19 05.01.2020
4824 Clouds 7 1031 81 10000 3.6 220 20:56 05.01.2020
4825 Clouds 7 1031 81 10000 3.6 220 20:37 05.01.2020
4826 Clouds 7 1031 75 10000 4.6 230 20:19 05.01.2020
4827 Clouds 7 1031 75 10000 4.6 230 19:57 05.01.2020
4828 Clouds 7 1032 87 10000 3.6 220 19:38 05.01.2020
4829 Rain 8 1032 87 10000 4.1 220 19:19 05.01.2020
4830 Clouds 8 1031 75 10000 3.6 230 18:55 05.01.2020
4831 Clouds 8 1031 75 10000 3.6 230 18:37 05.01.2020
4832 Clouds 8 1032 81 10000 3.6 240 18:18 05.01.2020
4833 Clouds 8 1032 81 10000 3.1 230 17:57 05.01.2020
4834 Clouds 8 1032 81 10000 3.1 230 17:38 05.01.2020
4835 Clouds 8 1032 70 10000 5.7 260 17:19 05.01.2020
4836 Clouds 8 1032 70 10000 4.6 250 16:55 05.01.2020
4837 Clouds 8 1032 70 10000 4.6 250 16:37 05.01.2020
4838 Clouds 8 1032 70 10000 4.1 260 16:19 05.01.2020
4839 Clouds 8 1032 70 10000 4.1 260 16:19 05.01.2020
4840 Clouds 8 1032 70 10000 4.1 260 16:19 05.01.2020
4841 Clouds 8 1032 70 10000 3.6 250 15:37 05.01.2020
4842 Clouds 8 1033 70 10000 5.7 260 15:18 05.01.2020
4843 Clouds 8 1033 70 10000 6.7 250 14:55 05.01.2020
4844 Clouds 8 1033 70 10000 6.7 250 14:37 05.01.2020
4845 Clouds 8 1033 70 10000 6.2 260 14:18 05.01.2020
4846 Clouds 8 1033 70 10000 6.2 250 13:54 05.01.2020
4847 Clouds 8 1033 70 10000 6.2 250 13:36 05.01.2020
4848 Clouds 8 1033 70 10000 5.1 250 13:18 05.01.2020
4849 Clouds 8 1034 70 10000 4.6 250 12:55 05.01.2020
4850 Clouds 8 1034 70 10000 4.6 250 12:36 05.01.2020
4851 Clouds 8 1034 70 10000 4.6 250 12:36 05.01.2020
4852 Clouds 8 1034 70 10000 4.6 250 12:18 05.01.2020
4853 Clouds 7 1034 81 10000 3.6 240 11:43 05.01.2020
4854 Clouds 7 1034 81 10000 3.6 240 11:43 05.01.2020
4855 Clouds 7 1034 81 10000 3.6 240 11:43 05.01.2020
4856 Clouds 7 1034 81 10000 3.6 240 11:43 05.01.2020
4857 Clouds 7 1034 81 10000 3.6 240 11:43 05.01.2020
4858 Clouds 7 1034 81 10000 3.1 240 11:19 05.01.2020
4859 Clouds 7 1034 81 10000 3.1 240 10:58 05.01.2020
4860 Clouds 7 1034 81 10000 3.1 240 10:39 05.01.2020
4861 Clouds 7 1034 81 10000 3.1 240 10:39 05.01.2020
4862 Clouds 7 1034 81 10000 3.1 240 10:39 05.01.2020
4863 Clouds 7 1034 81 10000 3.1 240 10:39 05.01.2020
4864 Clouds 7 1034 81 10000 3.1 240 10:39 05.01.2020
4865 Clouds 7 1033 87 10000 3.6 250 10:18 05.01.2020
4866 Clouds 6 1033 93 10000 3.1 240 09:42 05.01.2020
4867 Clouds 6 1034 93 10000 4.6 220 09:22 05.01.2020
4868 Clouds 6 1034 87 10000 3.6 240 08:50 05.01.2020
4869 Clouds 6 1034 87 10000 3.6 240 08:30 05.01.2020
4870 Rain 6 1034 93 10000 4.1 250 07:56 05.01.2020
4871 Clouds 6 1034 93 10000 4.1 240 07:37 05.01.2020
4872 Clouds 6 1034 93 10000 4.1 240 07:19 05.01.2020
4873 Drizzle 6 1035 93 8000 4.1 230 06:20 05.01.2020
4874 Clouds 6 1035 93 10000 4.1 240 05:33 05.01.2020
4875 Clouds 6 1035 93 10000 4.1 240 05:33 05.01.2020
4876 Clouds 6 1035 93 10000 4.1 240 05:33 05.01.2020
4877 Clouds 6 1035 93 10000 3.1 240 04:44 05.01.2020
4878 Clouds 6 1035 93 10000 3.6 240 04:18 05.01.2020
4879 Clouds 6 1035 81 10000 3.1 240 02:46 05.01.2020
4880 Clouds 6 1035 93 10000 3.1 230 02:24 05.01.2020
4881 Clouds 6 1035 93 10000 3.1 240 01:48 05.01.2020
4882 Clouds 6 1035 93 10000 2.6 240 01:19 05.01.2020
4883 Clouds 6 1035 87 10000 2.1 230 00:54 05.01.2020
4884 Clouds 6 1035 87 10000 2.1 230 00:36 05.01.2020
4885 Clouds 6 1035 87 10000 2.6 260 00:18 05.01.2020
4886 Clouds 6 1035 87 10000 3.1 250 23:40 04.01.2020
4887 Clouds 6 1035 81 10000 3.1 240 23:20 04.01.2020
4888 Clouds 6 1035 75 10000 3.6 240 22:40 04.01.2020
4889 Clouds 6 1035 75 10000 3.1 240 22:22 04.01.2020
4890 Clouds 6 1035 75 10000 3.1 240 21:58 04.01.2020
4891 Clouds 6 1035 75 10000 3.1 230 21:40 04.01.2020
4892 Clouds 6 1035 75 10000 3.1 240 21:21 04.01.2020
4893 Clouds 6 1035 75 10000 3.1 240 20:59 04.01.2020
4894 Clouds 6 1035 70 10000 3.1 240 20:40 04.01.2020
4895 Clouds 6 1035 70 10000 3.6 240 20:22 04.01.2020
4896 Clouds 6 1035 70 10000 3.6 240 19:57 04.01.2020
4897 Clouds 6 1035 70 10000 4.1 260 19:38 04.01.2020
4898 Clouds 6 1035 70 10000 4.6 270 19:20 04.01.2020
4899 Clouds 6 1035 70 10000 3.6 270 18:56 04.01.2020
4900 Clouds 6 1035 81 10000 3.1 260 18:37 04.01.2020
4901 Clouds 6 1035 81 10000 2.6 240 18:19 04.01.2020
4902 Clouds 7 1034 81 10000 2.6 260 17:41 04.01.2020
4903 Clouds 7 1034 75 10000 3.1 280 17:23 04.01.2020
4904 Clouds 7 1034 75 10000 3.1 280 16:59 04.01.2020
4905 Clouds 8 1034 70 10000 4.1 260 16:40 04.01.2020
4906 Clouds 8 1033 70 10000 4.6 260 16:22 04.01.2020
4907 Clouds 8 1033 70 10000 4.6 260 15:56 04.01.2020
4908 Clouds 8 1033 70 10000 4.6 270 15:38 04.01.2020
4909 Clouds 8 1033 70 10000 5.1 270 15:19 04.01.2020
4910 Clouds 8 1033 66 10000 6.2 260 14:54 04.01.2020
4911 Clouds 8 1033 66 10000 6.2 260 14:36 04.01.2020
4912 Clouds 8 1033 70 10000 5.1 260 14:18 04.01.2020
4913 Clouds 8 1033 70 10000 5.1 260 13:39 04.01.2020
4914 Clouds 8 1033 70 10000 5.1 260 13:39 04.01.2020
4915 Clouds 8 1034 75 10000 5.1 260 13:20 04.01.2020
4916 Clouds 8 1034 75 10000 5.1 260 12:59 04.01.2020
4917 Clouds 7 1034 70 10000 5.7 260 12:41 04.01.2020
4918 Clouds 7 1034 75 10000 5.7 250 12:19 04.01.2020
4919 Clouds 7 1034 75 10000 5.7 250 11:57 04.01.2020
4920 Clouds 7 1034 75 10000 5.7 250 11:38 04.01.2020
4921 Clouds 6 1034 75 10000 6.7 250 11:19 04.01.2020
4922 Clouds 6 1033 75 10000 7.2 250 10:42 04.01.2020
4923 Clouds 5 1033 81 10000 6.2 250 10:23 04.01.2020
4924 Clouds 5 1033 81 10000 6.2 250 09:58 04.01.2020
4925 Clouds 5 1033 81 10000 6.2 260 09:39 04.01.2020
4926 Clouds 5 1033 81 10000 6.2 250 09:21 04.01.2020
4927 Clouds 4 1033 81 10000 5.7 250 08:41 04.01.2020
4928 Clouds 5 1033 81 10000 5.7 250 08:21 04.01.2020
4929 Clouds 5 1033 81 10000 4.6 240 07:42 04.01.2020
4930 Clouds 5 1032 81 10000 5.1 250 07:20 04.01.2020
4931 Clouds 5 1032 81 10000 5.1 240 06:33 04.01.2020
4932 Clouds 4 1033 80 10000 4.1 240 05:22 04.01.2020
4933 Clouds 4 1033 80 10000 4.6 250 04:42 04.01.2020
4934 Clouds 4 1032 80 10000 4.6 240 04:24 04.01.2020
4935 Clouds 3 1032 80 10000 5.1 230 03:18 04.01.2020
4936 Clouds 3 1032 80 10000 3.6 240 02:22 04.01.2020
4937 Clouds 3 1032 80 10000 3.6 240 01:55 04.01.2020
4938 Clouds 3 1033 86 10000 1 0 01:32 04.01.2020
4939 Clouds 4 1032 80 10000 2.6 310 00:46 04.01.2020
4940 Clouds 4 1032 80 10000 3.6 300 00:27 04.01.2020
4941 Clouds 4 1031 86 10000 3.1 260 23:48 03.01.2020
4942 Clouds 4 1031 80 10000 3.1 280 23:26 03.01.2020
4943 Clouds 4 1031 80 10000 3.1 280 22:55 03.01.2020
4944 Clouds 4 1031 80 10000 3.1 280 22:36 03.01.2020
4945 Clouds 4 1031 80 10000 3.1 280 22:18 03.01.2020
4946 Clouds 4 1031 80 10000 3.1 280 21:55 03.01.2020
4947 Clouds 4 1031 80 10000 3.6 280 21:37 03.01.2020
4948 Clouds 4 1030 86 10000 2.6 280 21:18 03.01.2020
4949 Clouds 4 1030 86 10000 3.1 260 20:43 03.01.2020
4950 Clouds 4 1029 75 10000 3.1 290 20:19 03.01.2020
4951 Clouds 5 1029 75 10000 3.1 290 19:59 03.01.2020
4952 Clouds 5 1029 75 10000 3.6 300 19:41 03.01.2020
4953 Clouds 5 1029 75 10000 3.6 300 19:22 03.01.2020
4954 Clouds 5 1028 75 10000 4.6 300 18:46 03.01.2020
4955 Clouds 5 1027 70 10000 3.6 310 18:26 03.01.2020
4956 Clouds 6 1027 70 10000 3.6 310 17:58 03.01.2020
4957 Clouds 6 1027 70 10000 3.6 310 17:40 03.01.2020
4958 Clouds 7 1026 70 10000 4.1 310 17:21 03.01.2020
4959 Clouds 7 1025 70 10000 4.6 330 16:44 03.01.2020
4960 Clouds 7 1024 65 10000 5.1 330 16:25 03.01.2020
4961 Clouds 8 1024 57 10000 5.1 310 15:59 03.01.2020
4962 Clouds 8 1024 61 10000 4.6 310 15:41 03.01.2020
4963 Clouds 8 1024 70 10000 5.7 300 15:19 03.01.2020
4964 Clouds 8 1023 75 10000 4.6 310 14:40 03.01.2020
4965 Clouds 8 1022 75 10000 5.1 310 14:20 03.01.2020
4966 Clouds 8 1022 75 10000 5.1 310 13:57 03.01.2020
4967 Clouds 8 1021 70 10000 4.6 310 13:39 03.01.2020
4968 Clouds 8 1021 70 10000 5.7 300 13:20 03.01.2020
4969 Clouds 8 1020 70 10000 6.7 300 12:41 03.01.2020
4970 Rain 8 1019 76 10000 6.7 300 12:22 03.01.2020
4971 Clouds 8 1019 76 10000 8.2 300 11:54 03.01.2020
4972 Rain 8 1019 76 10000 8.2 300 11:35 03.01.2020
4973 Rain 9 1017 100 10000 6.2 270 10:58 03.01.2020
4974 Clouds 9 1016 87 10000 5.7 260 10:39 03.01.2020
4975 Clouds 9 1016 87 10000 6.2 250 10:21 03.01.2020
4976 Clouds 10 1016 87 10000 6.2 250 09:55 03.01.2020
4977 Clouds 10 1015 87 10000 5.1 250 09:37 03.01.2020
4978 Rain 10 1015 87 10000 5.1 250 09:19 03.01.2020
4979 Rain 10 1014 87 10000 5.7 250 08:45 03.01.2020
4980 Rain 10 1014 87 10000 6.2 250 08:23 03.01.2020
4981 Rain 10 1013 87 10000 5.7 250 07:56 03.01.2020
4982 Rain 10 1013 87 10000 5.7 250 07:37 03.01.2020
4983 Rain 10 1013 87 10000 5.7 260 07:18 03.01.2020
4984 Clouds 10 1013 87 10000 7.7 260 06:42 03.01.2020
4985 Rain 10 1012 93 10000 8.2 250 06:22 03.01.2020
4986 Drizzle 10 1012 100 5000 6.2 230 05:20 03.01.2020
4987 Clouds 10 1013 87 10000 5.7 210 03:42 03.01.2020
4988 Clouds 10 1013 87 10000 5.1 210 02:54 03.01.2020
4989 Clouds 10 1014 87 10000 5.1 210 01:54 03.01.2020
4990 Clouds 10 1014 87 10000 5.1 210 01:36 03.01.2020
4991 Clouds 10 1014 87 10000 5.1 210 01:36 03.01.2020
4992 Clouds 10 1015 81 10000 5.1 220 00:46 03.01.2020
4993 Clouds 10 1015 81 10000 5.1 220 00:26 03.01.2020
4994 Clouds 10 1015 81 10000 6.2 230 23:55 02.01.2020
4995 Clouds 10 1015 81 10000 6.2 230 23:37 02.01.2020
4996 Clouds 10 1015 81 10000 5.7 230 23:18 02.01.2020
4997 Clouds 10 1015 81 10000 4.6 230 22:42 02.01.2020
4998 Clouds 10 1015 81 10000 4.6 210 22:20 02.01.2020
4999 Clouds 10 1016 81 10000 5.1 220 21:57 02.01.2020
5000 Clouds 10 1015 81 10000 4.6 210 21:57 02.01.2020
5001 Clouds 10 1016 81 10000 5.1 220 21:38 02.01.2020
5002 Clouds 10 1016 81 10000 4.6 230 21:20 02.01.2020
5003 Clouds 10 1016 81 10000 6.7 230 20:57 02.01.2020
5004 Rain 10 1016 93 10000 5.7 220 20:38 02.01.2020
5005 Clouds 10 1016 100 10000 5.1 220 20:20 02.01.2020
5006 Clouds 10 1016 100 10000 5.1 220 20:20 02.01.2020
5007 Drizzle 10 1016 100 10000 5.7 220 19:55 02.01.2020
5008 Drizzle 10 1016 100 10000 5.7 220 19:36 02.01.2020
5009 Rain 10 1016 93 6000 6.7 210 19:18 02.01.2020
5010 Clouds 9 1016 87 10000 7.2 220 18:56 02.01.2020
5011 Clouds 9 1016 87 10000 7.2 220 18:37 02.01.2020
5012 Clouds 9 1016 87 10000 6.2 230 18:19 02.01.2020
5013 Clouds 9 1016 81 10000 6.7 220 17:55 02.01.2020
5014 Clouds 9 1016 81 10000 6.7 220 17:36 02.01.2020
5015 Clouds 9 1017 81 10000 5.7 220 17:18 02.01.2020
5016 Clouds 9 1017 81 10000 5.7 220 17:18 02.01.2020
5017 Clouds 9 1017 76 10000 6.7 230 16:54 02.01.2020
5018 Clouds 10 1017 76 10000 6.7 230 16:36 02.01.2020
5019 Clouds 10 1018 81 10000 6.2 210 16:18 02.01.2020
5020 Clouds 10 1018 81 10000 8.7 200 15:42 02.01.2020
5021 Clouds 10 1018 76 10000 4.6 230 15:24 02.01.2020
5022 Clouds 10 1019 76 10000 5.7 210 14:57 02.01.2020
5023 Clouds 10 1019 87 10000 5.7 200 14:37 02.01.2020
5024 Clouds 10 1019 76 10000 5.7 200 14:19 02.01.2020
5025 Clouds 10 1020 81 10000 4.1 200 13:58 02.01.2020
5026 Clouds 9 1020 81 10000 4.1 200 13:38 02.01.2020
5027 Clouds 9 1021 81 10000 4.1 210 12:59 02.01.2020
5028 Clouds 9 1021 81 10000 4.1 210 12:40 02.01.2020
5029 Drizzle 9 1022 87 10000 3.6 190 12:20 02.01.2020
5030 Drizzle 8 1022 87 10000 3.6 190 11:41 02.01.2020
5031 Clouds 8 1022 87 10000 3.6 200 11:21 02.01.2020
5032 Clouds 8 1022 93 10000 4.1 200 10:46 02.01.2020
5033 Clouds 8 1022 93 10000 4.1 200 10:27 02.01.2020
5034 Rain 7 1022 100 8000 4.6 200 09:56 02.01.2020
5035 Mist 7 1023 100 5000 4.1 180 09:35 02.01.2020
5036 Clouds 7 1023 100 10000 3.6 150 08:59 02.01.2020
5037 Clouds 7 1023 87 10000 2.6 150 08:39 02.01.2020
5038 Clouds 7 1023 87 10000 3.6 150 08:19 02.01.2020
5039 Clouds 7 1023 87 10000 3.1 160 07:47 02.01.2020
5040 Rain 7 1023 87 10000 2.6 160 07:26 02.01.2020
5041 Clouds 7 1024 87 10000 2.6 180 06:41 02.01.2020
5042 Clouds 6 1024 93 10000 2.1 220 05:40 02.01.2020
5043 Clouds 6 1025 93 10000 2.1 180 04:35 02.01.2020
5044 Clouds 6 1025 93 10000 1.5 0 03:44 02.01.2020
5045 Clouds 6 1026 93 10000 2.6 220 02:21 02.01.2020
5046 Clouds 6 1026 93 10000 2.6 220 01:57 02.01.2020
5047 Clouds 6 1026 93 8000 2.6 220 01:26 02.01.2020
5048 Clouds 6 1027 87 6000 1.5 0 00:52 02.01.2020
5049 Clouds 6 1027 87 6000 1.5 0 00:28 02.01.2020
5050 Clouds 6 1028 87 6000 1 0 23:47 01.01.2020
5051 Haze 6 1028 87 5000 1.5 0 23:24 01.01.2020
5052 Clouds 6 1028 87 6000 1.5 0 22:54 01.01.2020
5053 Clouds 6 1028 87 6000 1.5 0 22:36 01.01.2020
5054 Clouds 6 1028 87 7000 1.5 0 22:18 01.01.2020
5055 Clouds 6 1028 87 7000 2.1 150 21:42 01.01.2020
5056 Clouds 6 1028 87 7000 1.5 0 21:21 01.01.2020
5057 Mist 6 1028 93 3000 3.1 180 20:58 01.01.2020
5058 Mist 6 1028 93 3000 2.1 170 20:39 01.01.2020
5059 Mist 6 1028 93 3000 1.5 170 20:20 01.01.2020
5060 Mist 6 1028 93 3000 1.5 170 19:58 01.01.2020
5061 Mist 6 1029 93 3000 1.5 180 19:39 01.01.2020
5062 Clouds 6 1029 93 10000 1.5 0 19:20 01.01.2020
5063 Clouds 6 1029 93 10000 1.5 0 18:57 01.01.2020
5064 Haze 6 1028 87 8000 1 130 18:39 01.01.2020
5065 Clouds 6 1029 87 6000 2.1 190 18:20 01.01.2020
5066 Haze 6 1028 87 5000 1.5 0 17:59 01.01.2020
5067 Haze 6 1028 87 5000 1.5 0 17:40 01.01.2020
5068 Clouds 6 1028 81 6000 1.5 0 17:20 01.01.2020
5069 Clouds 6 1028 81 6000 1.5 0 16:59 01.01.2020
5070 Haze 6 1028 81 5000 1.5 0 16:38 01.01.2020
5071 Haze 6 1029 87 5000 1.5 0 16:20 01.01.2020
5072 Haze 6 1029 87 5000 1.5 0 15:57 01.01.2020
5073 Haze 6 1029 87 5000 1.5 230 15:38 01.01.2020
5074 Clouds 6 1029 87 6000 1.5 0 15:20 01.01.2020
5075 Clouds 6 1029 87 7000 1.5 0 14:56 01.01.2020
5076 Clouds 6 1029 87 7000 1.5 0 14:37 01.01.2020
5077 Clouds 6 1029 87 7000 1.5 120 14:19 01.01.2020
5078 Clouds 6 1029 87 7000 1.5 120 14:19 01.01.2020
5079 Clouds 6 1029 87 6000 1.5 110 13:55 01.01.2020
5080 Clouds 6 1029 87 6000 1.5 110 13:36 01.01.2020
5081 Mist 5 1030 93 4300 2.6 100 13:18 01.01.2020
5082 Mist 5 1030 93 4000 2.1 110 12:54 01.01.2020
5083 Mist 5 1030 93 4300 2.6 100 12:54 01.01.2020
5084 Mist 5 1030 93 4300 2.6 100 12:54 01.01.2020
5085 Mist 5 1030 93 4000 2.1 110 12:36 01.01.2020
5086 Mist 5 1030 100 3700 2.6 90 12:18 01.01.2020
5087 Mist 5 1030 100 2900 2.1 90 11:42 01.01.2020
5088 Mist 5 1030 100 2200 2.1 100 11:21 01.01.2020
5089 Rain 4 1030 100 1900 2.6 100 10:57 01.01.2020
5090 Rain 4 1030 100 1900 2.6 100 10:38 01.01.2020
5091 Rain 4 1030 100 450 2.1 100 10:19 01.01.2020
5092 Drizzle 4 1030 100 150 2.1 70 09:55 01.01.2020
5093 Drizzle 4 1030 100 150 2.1 70 09:36 01.01.2020
5094 Rain 4 1030 100 150 2.1 60 09:18 01.01.2020
5095 Rain 4 1030 100 150 1.5 0 08:54 01.01.2020
5096 Rain 4 1030 100 150 1.5 0 08:36 01.01.2020
5097 Rain 4 1030 93 100 1.5 70 08:18 01.01.2020
5098 Fog 4 1029 100 50 2.1 60 07:42 01.01.2020
5099 Fog 4 1029 100 50 2.1 60 07:24 01.01.2020
5100 Fog 4 1030 93 50 0.5 0 06:44 01.01.2020
5101 Haze 4 1030 86 3400 0.5 0 06:19 01.01.2020
5102 Mist 4 1030 100 2200 2.6 120 04:38 01.01.2020
5103 Haze 4 1030 100 2800 3.1 110 03:41 01.01.2020
5104 Haze 4 1030 93 2400 1.5 100 03:22 01.01.2020
5105 Haze 4 1030 93 3800 1.5 100 02:55 01.01.2020
5106 Haze 4 1030 93 3800 1.5 100 02:32 01.01.2020
5107 Clouds 4 1031 86 7000 2.1 100 01:45 01.01.2020
5108 Clouds 4 1031 87 8000 3.1 90 01:24 01.01.2020
5109 Clouds 4 1031 87 8000 3.1 90 00:57 01.01.2020
5110 Clouds 5 1031 87 9000 3.1 110 00:37 01.01.2020
5111 Clouds 5 1031 81 10000 3.1 130 00:19 01.01.2020
5112 Clouds 5 1031 93 6000 4.1 110 23:40 31.12.2019
5113 Clouds 6 1031 87 7000 4.1 100 23:21 31.12.2019
5114 Clouds 7 1031 87 7000 4.1 100 22:57 31.12.2019
5115 Clouds 7 1031 87 7000 4.1 100 22:38 31.12.2019
5116 Clouds 7 1032 87 9000 5.7 90 22:18 31.12.2019
5117 Clouds 7 1032 87 9000 5.7 90 21:54 31.12.2019
5118 Clouds 7 1032 87 7000 4.6 90 21:36 31.12.2019
5119 Clouds 8 1032 87 6000 3.1 100 21:18 31.12.2019
5120 Haze 8 1032 87 5000 5.1 100 20:40 31.12.2019
5121 Clouds 8 1032 93 6000 4.6 100 20:22 31.12.2019
5122 Clouds 8 1032 93 6000 4.6 100 19:59 31.12.2019
5123 Clouds 8 1032 93 6000 6.2 90 19:40 31.12.2019
5124 Haze 8 1032 93 5000 6.2 90 19:22 31.12.2019
5125 Haze 8 1032 93 5000 6.2 90 19:22 31.12.2019
5126 Haze 8 1032 93 5000 6.2 90 18:58 31.12.2019
5127 Rain 8 1032 93 5000 6.2 100 18:40 31.12.2019
5128 Drizzle 8 1032 93 4100 6.2 90 18:20 31.12.2019
5129 Drizzle 8 1032 93 3800 5.7 80 17:56 31.12.2019
5130 Drizzle 8 1032 93 3800 5.7 80 17:38 31.12.2019
5131 Drizzle 8 1032 93 3700 5.1 100 17:19 31.12.2019
5132 Drizzle 8 1032 93 3700 5.1 100 16:57 31.12.2019
5133 Mist 9 1032 93 3300 5.1 90 16:38 31.12.2019
5134 Haze 9 1032 93 3400 5.1 90 16:19 31.12.2019
5135 Haze 8 1032 93 3400 5.1 90 15:56 31.12.2019
5136 Haze 8 1032 93 3800 4.6 90 15:38 31.12.2019
5137 Drizzle 8 1032 100 4300 5.1 100 15:20 31.12.2019
5138 Drizzle 8 1032 100 4300 5.1 100 14:58 31.12.2019
5139 Drizzle 8 1032 93 4000 4.6 90 14:38 31.12.2019
5140 Drizzle 8 1033 93 2400 3.6 90 14:19 31.12.2019
5141 Drizzle 8 1033 93 2400 3.6 90 13:58 31.12.2019
5142 Drizzle 8 1033 100 2200 3.6 80 13:40 31.12.2019
5143 Drizzle 8 1033 93 1800 3.6 80 13:21 31.12.2019
5144 Drizzle 8 1033 93 1800 3.6 80 12:58 31.12.2019
5145 Drizzle 8 1033 93 1700 3.6 80 12:40 31.12.2019
5146 Haze 7 1033 93 3300 3.6 80 12:20 31.12.2019
5147 Haze 7 1033 93 3300 3.6 80 11:56 31.12.2019
5148 Haze 7 1033 87 5000 3.6 70 11:38 31.12.2019
5149 Haze 7 1033 87 5000 3.6 70 11:20 31.12.2019
5150 Haze 7 1033 87 5000 3.6 70 10:58 31.12.2019
5151 Haze 6 1033 87 5000 3.1 80 10:38 31.12.2019
5152 Clouds 6 1032 93 6000 3.6 100 10:20 31.12.2019
5153 Clouds 6 1032 93 6000 3.6 100 09:59 31.12.2019
5154 Clouds 6 1032 93 6000 3.1 80 09:39 31.12.2019
5155 Clouds 6 1032 93 6000 3.6 70 09:21 31.12.2019
5156 Clouds 6 1032 93 6000 3.6 70 08:57 31.12.2019
5157 Clouds 6 1032 93 6000 3.6 90 08:39 31.12.2019
5158 Clouds 6 1032 93 6000 2.6 90 08:19 31.12.2019
5159 Clouds 6 1031 100 6000 1 0 07:43 31.12.2019
5160 Clouds 5 1031 100 6000 1 0 07:21 31.12.2019
5161 Mist 5 1031 100 4200 0.5 0 06:50 31.12.2019
5162 Mist 5 1031 100 2300 0.5 0 05:58 31.12.2019
5163 Fog 5 1031 93 150 0.5 0 04:30 31.12.2019
5164 Fog 5 1031 93 250 2.1 330 03:59 31.12.2019
5165 Fog 5 1031 93 250 2.1 330 03:59 31.12.2019
5166 Fog 5 1030 93 350 1 0 02:56 31.12.2019
5167 Mist 5 1030 93 1300 2.1 210 02:19 31.12.2019
5168 Mist 5 1030 100 1700 1.5 240 01:48 31.12.2019
5169 Mist 5 1030 100 1700 1.5 240 01:48 31.12.2019
5170 Mist 5 1030 100 1700 1.5 240 01:28 31.12.2019
5171 Mist 5 1031 93 2000 2.6 240 00:47 31.12.2019
5172 Haze 5 1030 93 2200 3.1 230 00:23 31.12.2019
5173 Haze 6 1030 93 3200 2.1 240 23:58 30.12.2019
5174 Rain 6 1030 93 3200 2.1 240 23:38 30.12.2019
5175 Rain 6 1030 93 4600 2.1 250 23:20 30.12.2019
5176 Rain 6 1030 87 8000 2.6 290 22:59 30.12.2019
5177 Clear 6 1030 87 8000 2.6 290 22:40 30.12.2019
5178 Clear 6 1029 87 10000 3.6 270 22:20 30.12.2019
5179 Clear 6 1029 87 10000 3.6 270 22:20 30.12.2019
5180 Clear 6 1029 87 10000 4.1 260 21:57 30.12.2019
5181 Clear 6 1029 87 10000 4.1 260 21:39 30.12.2019
5182 Clear 6 1029 87 10000 4.1 260 21:39 30.12.2019
5183 Clear 6 1028 87 10000 3.6 250 21:20 30.12.2019
5184 Clear 6 1028 87 10000 3.6 250 20:58 30.12.2019
5185 Clear 6 1029 81 10000 3.1 210 20:40 30.12.2019
5186 Clear 7 1028 81 10000 4.1 240 20:20 30.12.2019
5187 Clear 7 1028 81 10000 4.1 240 19:58 30.12.2019
5188 Clear 6 1028 81 10000 4.1 240 19:39 30.12.2019
5189 Clear 7 1028 81 10000 3.6 230 19:19 30.12.2019
5190 Clear 7 1028 81 10000 3.6 230 18:59 30.12.2019
5191 Clear 7 1028 81 10000 3.1 240 18:40 30.12.2019
5192 Clear 7 1028 81 10000 7.2 190 18:20 30.12.2019
5193 Clear 7 1028 81 10000 7.2 190 18:20 30.12.2019
5194 Clear 7 1028 81 10000 7.2 190 17:57 30.12.2019
5195 Clear 8 1027 81 10000 3.6 240 17:39 30.12.2019
5196 Clear 8 1027 81 10000 2.6 240 17:19 30.12.2019
5197 Clear 9 1028 76 10000 4.6 200 16:58 30.12.2019
5198 Clear 9 1027 71 10000 3.1 250 16:37 30.12.2019
5199 Clear 9 1028 76 10000 5.7 190 16:19 30.12.2019
5200 Clear 10 1027 71 10000 4.6 250 15:56 30.12.2019
5201 Clear 10 1027 71 10000 3.1 240 15:37 30.12.2019
5202 Clear 10 1027 71 10000 3.1 250 15:18 30.12.2019
5203 Clear 10 1028 71 10000 3.6 240 14:43 30.12.2019
5204 Clear 10 1028 71 10000 4.6 240 14:20 30.12.2019
5205 Clear 9 1028 71 10000 4.6 240 13:58 30.12.2019
5206 Clear 9 1028 81 10000 4.1 250 13:40 30.12.2019
5207 Clear 9 1029 81 10000 4.1 250 13:22 30.12.2019
5208 Clear 9 1029 81 10000 4.1 250 13:22 30.12.2019
5209 Clear 8 1029 81 10000 4.1 250 12:57 30.12.2019
5210 Clear 8 1029 87 10000 3.6 250 12:37 30.12.2019
5211 Clear 7 1029 93 9000 3.1 270 12:18 30.12.2019
5212 Clear 7 1029 93 8000 3.6 240 11:45 30.12.2019
5213 Mist 6 1030 93 5000 3.6 240 11:22 30.12.2019
5214 Mist 6 1030 93 5000 3.6 240 10:59 30.12.2019
5215 Mist 5 1030 100 3700 3.1 240 10:40 30.12.2019
5216 Mist 5 1029 93 2400 3.1 250 10:19 30.12.2019
5217 Fog 5 1030 93 450 4.1 240 09:42 30.12.2019
5218 Fog 5 1030 100 300 4.6 240 09:21 30.12.2019
5219 Fog 4 1029 93 350 5.1 250 08:57 30.12.2019
5220 Fog 5 1029 93 350 5.1 250 08:38 30.12.2019
5221 Clouds 4 1029 93 7000 4.1 250 08:19 30.12.2019
5222 Clouds 4 1029 93 6000 2.6 230 07:46 30.12.2019
5223 Rain 4 1030 93 4700 2.1 250 07:23 30.12.2019
5224 Mist 4 1030 93 3500 3.1 260 06:30 30.12.2019
5225 Mist 4 1030 100 2200 2.6 260 04:31 30.12.2019
5226 Mist 4 1030 100 3200 1 220 03:47 30.12.2019
5227 Haze 4 1031 93 4100 1.5 220 02:47 30.12.2019
5228 Haze 4 1031 93 4100 1.5 220 02:26 30.12.2019
5229 Haze 4 1031 93 4300 1 0 01:29 30.12.2019
5230 Haze 4 1031 93 5000 1 0 00:59 30.12.2019
5231 Rain 4 1031 93 5000 1 0 00:39 30.12.2019
5232 Rain 5 1031 93 5000 1.5 0 23:55 29.12.2019
5233 Haze 5 1031 93 5000 1.5 220 23:36 29.12.2019
5234 Clear 5 1031 93 6000 2.1 230 23:18 29.12.2019
5235 Clear 5 1032 87 6000 3.1 240 22:40 29.12.2019
5236 Clear 5 1032 93 6000 2.1 250 22:21 29.12.2019
5237 Clear 5 1032 87 8000 2.1 240 21:56 29.12.2019
5238 Clear 5 1032 87 8000 2.1 240 21:38 29.12.2019
5239 Clear 5 1032 87 8000 3.6 240 21:19 29.12.2019
5240 Clear 5 1032 87 10000 3.6 240 20:55 29.12.2019
5241 Clear 6 1032 87 10000 3.6 240 20:37 29.12.2019
5242 Clouds 6 1032 87 10000 2.6 0 20:18 29.12.2019
5243 Clouds 6 1032 87 10000 2.6 0 19:56 29.12.2019
5244 Clouds 6 1032 87 10000 2.1 230 19:38 29.12.2019
5245 Clouds 6 1031 100 9000 8.2 190 19:19 29.12.2019
5246 Clouds 6 1031 100 9000 8.2 190 18:55 29.12.2019
5247 Clouds 6 1031 100 10000 8.2 190 18:37 29.12.2019
5248 Clouds 6 1031 93 10000 7.7 190 18:18 29.12.2019
5249 Clouds 6 1032 93 10000 6.2 180 17:56 29.12.2019
5250 Clouds 7 1032 93 10000 6.2 180 17:38 29.12.2019
5251 Clouds 7 1032 93 10000 4.1 200 17:19 29.12.2019
5252 Clouds 8 1032 87 10000 5.1 200 16:56 29.12.2019
5253 Clouds 8 1032 87 10000 5.1 200 16:36 29.12.2019
5254 Clouds 8 1032 87 10000 5.7 190 16:18 29.12.2019
5255 Clouds 8 1032 81 10000 5.1 190 15:56 29.12.2019
5256 Clouds 9 1032 71 10000 4.1 210 15:38 29.12.2019
5257 Clouds 9 1032 81 10000 6.2 200 15:19 29.12.2019
5258 Clouds 9 1032 71 10000 4.1 210 14:55 29.12.2019
5259 Clouds 9 1033 76 10000 3.6 230 14:37 29.12.2019
5260 Clouds 8 1033 76 10000 4.1 220 14:18 29.12.2019
5261 Clouds 8 1033 76 10000 4.1 220 14:18 29.12.2019
5262 Clouds 8 1033 76 10000 3.1 210 13:55 29.12.2019
5263 Clouds 8 1033 76 10000 3.1 210 13:37 29.12.2019
5264 Clouds 8 1034 81 10000 3.1 210 13:18 29.12.2019
5265 Clouds 8 1034 81 10000 3.6 210 12:43 29.12.2019
5266 Clouds 8 1034 81 10000 4.1 210 12:25 29.12.2019
5267 Clouds 8 1034 81 10000 4.1 210 12:25 29.12.2019
5268 Clouds 7 1034 81 10000 4.1 210 11:56 29.12.2019
5269 Clouds 7 1034 81 10000 3.1 210 11:38 29.12.2019
5270 Clouds 7 1034 81 10000 2.1 220 11:20 29.12.2019
5271 Clouds 7 1034 81 10000 2.1 210 10:42 29.12.2019
5272 Clouds 7 1033 87 10000 3.1 210 10:23 29.12.2019
5273 Clouds 7 1033 87 10000 3.1 200 09:57 29.12.2019
5274 Clouds 6 1034 93 9000 6.2 190 09:38 29.12.2019
5275 Clouds 6 1034 81 10000 2.1 190 09:20 29.12.2019
5276 Clouds 7 1034 81 10000 3.1 200 08:47 29.12.2019
5277 Clouds 6 1034 81 10000 2.6 210 08:24 29.12.2019
5278 Clouds 7 1034 81 10000 2.6 210 07:55 29.12.2019
5279 Clouds 7 1034 81 10000 2.6 200 07:28 29.12.2019
5280 Clouds 7 1034 81 10000 1.5 0 06:56 29.12.2019
5281 Clouds 7 1035 81 10000 2.1 200 06:26 29.12.2019
5282 Clouds 7 1035 81 10000 2.6 220 05:52 29.12.2019
5283 Clouds 7 1035 81 10000 3.1 210 04:36 29.12.2019
5284 Clouds 7 1035 81 10000 2.6 220 03:54 29.12.2019
5285 Clouds 7 1035 81 10000 2.1 210 03:20 29.12.2019
5286 Clouds 7 1036 81 10000 2.6 210 02:20 29.12.2019
5287 Clouds 7 1035 81 10000 3.6 210 01:38 29.12.2019
5288 Clouds 7 1036 81 10000 4.1 210 01:19 29.12.2019
5289 Clouds 7 1036 81 10000 3.1 200 00:40 29.12.2019
5290 Clouds 7 1036 81 10000 3.6 190 00:22 29.12.2019
5291 Clouds 7 1036 81 10000 3.6 190 23:44 28.12.2019
5292 Clouds 7 1036 87 10000 4.6 190 23:18 28.12.2019
5293 Clouds 7 1036 87 10000 4.1 190 22:39 28.12.2019
5294 Clouds 8 1036 87 10000 4.6 190 22:21 28.12.2019
5295 Clouds 8 1036 87 10000 4.6 190 21:58 28.12.2019
5296 Clouds 8 1037 87 10000 3.6 190 21:39 28.12.2019
5297 Clouds 8 1036 87 10000 5.1 180 21:21 28.12.2019
5298 Clouds 8 1036 87 10000 5.1 180 20:58 28.12.2019
5299 Clouds 8 1036 87 10000 5.1 160 20:38 28.12.2019
5300 Clouds 8 1036 87 10000 5.1 180 20:20 28.12.2019
5301 Clouds 8 1036 81 10000 3.6 170 19:58 28.12.2019
5302 Clouds 8 1036 81 10000 3.6 170 19:39 28.12.2019
5303 Clouds 8 1037 81 10000 3.1 180 19:21 28.12.2019
5304 Clouds 8 1037 81 10000 3.1 180 18:58 28.12.2019
5305 Clouds 8 1037 81 10000 2.6 170 18:40 28.12.2019
5306 Clouds 8 1037 81 10000 2.6 230 18:19 28.12.2019
5307 Clouds 8 1036 93 10000 4.1 180 17:55 28.12.2019
5308 Clouds 8 1036 93 10000 4.1 180 17:37 28.12.2019
5309 Clouds 8 1036 87 10000 2.6 210 17:18 28.12.2019
5310 Clouds 8 1036 87 10000 2.6 210 17:18 28.12.2019
5311 Clouds 8 1036 87 10000 3.6 210 16:46 28.12.2019
5312 Clouds 9 1036 87 10000 4.1 190 16:26 28.12.2019
5313 Clouds 9 1036 87 10000 4.1 190 16:26 28.12.2019
5314 Clouds 9 1036 87 10000 4.1 190 16:26 28.12.2019
5315 Clouds 9 1036 87 10000 3.1 190 15:49 28.12.2019
5316 Clouds 9 1036 87 10000 3.1 210 15:25 28.12.2019
5317 Clouds 9 1036 87 10000 3.1 210 15:00 28.12.2019
5318 Clouds 9 1036 87 10000 4.1 200 14:40 28.12.2019
5319 Clouds 9 1036 87 10000 4.1 200 14:40 28.12.2019
5320 Clouds 9 1036 87 10000 4.1 190 14:21 28.12.2019
5321 Clouds 9 1036 87 10000 3.1 210 13:57 28.12.2019
5322 Clouds 9 1036 87 10000 3.1 210 13:38 28.12.2019
5323 Clouds 8 1037 87 10000 1 0 13:19 28.12.2019
5324 Clouds 8 1037 87 10000 1 0 13:19 28.12.2019
5325 Clouds 8 1037 87 10000 2.1 230 12:43 28.12.2019
5326 Clouds 8 1037 87 10000 2.1 230 12:24 28.12.2019
5327 Clouds 8 1037 87 10000 1.5 0 11:58 28.12.2019
5328 Clouds 8 1037 93 10000 3.6 180 11:39 28.12.2019
5329 Clouds 8 1037 87 10000 2.6 160 11:20 28.12.2019
5330 Clouds 7 1037 87 10000 1.5 0 10:46 28.12.2019
5331 Clouds 7 1037 87 10000 1 0 10:23 28.12.2019
5332 Clouds 7 1037 87 10000 1 0 09:58 28.12.2019
5333 Clouds 7 1037 87 9000 2.1 170 09:40 28.12.2019
5334 Clouds 7 1036 93 6000 2.1 80 09:21 28.12.2019
5335 Clouds 7 1036 93 7000 1.5 0 08:45 28.12.2019
5336 Clouds 7 1036 93 7000 1.5 0 08:27 28.12.2019
5337 Clouds 7 1036 100 6000 2.1 90 07:59 28.12.2019
5338 Mist 7 1036 93 5000 2.1 90 07:39 28.12.2019
5339 Mist 7 1036 93 2400 3.1 100 06:50 28.12.2019
5340 Mist 7 1036 93 2300 2.1 90 05:31 28.12.2019
5341 Mist 6 1036 100 3300 0.5 0 03:47 28.12.2019
5342 Mist 6 1035 100 3400 1 0 02:49 28.12.2019
5343 Mist 6 1035 100 2700 1 0 02:19 28.12.2019
5344 Mist 6 1035 93 2600 0.5 0 01:50 28.12.2019
5345 Mist 6 1035 93 3500 1.5 130 01:21 28.12.2019
5346 Mist 6 1035 93 2700 1 0 00:42 28.12.2019
5347 Haze 6 1035 93 3600 2.1 80 00:23 28.12.2019
5348 Haze 6 1035 93 4400 2.1 80 23:45 27.12.2019
5349 Clouds 6 1035 93 7000 1.65 160 23:21 27.12.2019
5350 Clouds 6 1034 93 8000 1 0 22:58 27.12.2019
5351 Clouds 6 1034 93 8000 1 0 22:39 27.12.2019
5352 Clouds 6 1034 87 6000 0.5 0 22:21 27.12.2019
5353 Clouds 6 1034 87 6000 0.5 0 21:59 27.12.2019
5354 Clouds 6 1034 93 8000 1.5 0 21:40 27.12.2019
5355 Clouds 6 1034 93 10000 1.5 0 21:22 27.12.2019
5356 Clouds 6 1034 93 10000 2.1 230 20:42 27.12.2019
5357 Haze 6 1033 93 9000 0.5 240 20:24 27.12.2019
5358 Haze 6 1033 93 9000 0.5 240 19:57 27.12.2019
5359 Haze 6 1033 93 9000 0.5 240 19:57 27.12.2019
5360 Clouds 6 1033 87 10000 2.1 230 19:38 27.12.2019
5361 Clouds 6 1033 87 10000 2.1 230 19:38 27.12.2019
5362 Clouds 6 1033 87 10000 2.1 250 19:19 27.12.2019
5363 Clouds 6 1033 87 10000 2.1 250 18:55 27.12.2019
5364 Clouds 7 1032 93 10000 0.5 0 18:36 27.12.2019
5365 Clouds 7 1032 93 10000 0.5 0 18:18 27.12.2019
5366 Clouds 7 1032 93 10000 2.1 290 17:42 27.12.2019
5367 Clouds 7 1032 81 10000 1.5 0 17:20 27.12.2019
5368 Clouds 7 1031 81 10000 1 0 16:59 27.12.2019
5369 Clouds 7 1031 81 10000 1 0 16:41 27.12.2019
5370 Clouds 7 1031 81 10000 1 0 16:41 27.12.2019
5371 Clouds 8 1031 81 10000 2.1 270 16:22 27.12.2019
5372 Clouds 8 1031 81 10000 2.1 270 15:57 27.12.2019
5373 Clouds 8 1031 81 10000 1.5 290 15:37 27.12.2019
5374 Clouds 8 1030 81 10000 1 0 15:18 27.12.2019
5375 Clouds 8 1030 76 10000 1.5 0 14:55 27.12.2019
5376 Clouds 8 1030 76 10000 1.5 0 14:37 27.12.2019
5377 Clouds 8 1030 76 10000 2.1 210 14:19 27.12.2019
5378 Clouds 8 1030 81 10000 1 120 13:44 27.12.2019
5379 Clouds 8 1029 93 10000 2.1 310 13:22 27.12.2019
5380 Clouds 8 1029 81 10000 2.1 300 12:49 27.12.2019
5381 Clouds 8 1029 81 10000 2.1 300 12:29 27.12.2019
5382 Clouds 7 1029 81 10000 1.5 0 11:59 27.12.2019
5383 Clouds 7 1029 87 10000 1.5 60 11:41 27.12.2019
5384 Clouds 7 1029 87 10000 2.1 340 11:20 27.12.2019
5385 Clouds 7 1029 87 10000 2.1 340 11:20 27.12.2019
5386 Clouds 7 1029 87 10000 2.1 340 11:20 27.12.2019
5387 Clouds 7 1029 87 10000 2.1 350 10:47 27.12.2019
5388 Clouds 7 1028 87 10000 2.6 300 10:24 27.12.2019
5389 Clouds 7 1028 93 10000 3.1 330 09:58 27.12.2019
5390 Clouds 7 1027 93 10000 3.1 330 09:38 27.12.2019
5391 Clouds 7 1027 93 10000 3.1 330 09:38 27.12.2019
5392 Clouds 7 1027 93 10000 2.6 320 09:20 27.12.2019
5393 Clouds 7 1026 93 10000 4.1 350 08:46 27.12.2019
5394 Clouds 7 1026 87 10000 2.6 300 08:27 27.12.2019
5395 Clouds 7 1025 87 10000 2.1 300 07:48 27.12.2019
5396 Clouds 7 1025 93 10000 2.6 360 07:25 27.12.2019
5397 Clouds 7 1024 87 10000 3.1 0 06:33 27.12.2019
5398 Clouds 7 1022 87 10000 3.6 310 04:48 27.12.2019
5399 Clouds 7 1020 87 10000 5.1 300 02:35 27.12.2019
5400 Clouds 7 1019 87 10000 5.7 300 01:48 27.12.2019
5401 Clouds 7 1018 81 10000 7.2 300 01:23 27.12.2019
5402 Clouds 8 1018 87 10000 6.2 310 00:52 27.12.2019
5403 Clouds 8 1018 87 10000 6.2 310 00:34 27.12.2019
5404 Clouds 8 1018 87 10000 6.2 310 00:34 27.12.2019
5405 Clouds 8 1018 93 9000 3.1 300 23:59 26.12.2019
5406 Clouds 8 1017 93 8000 3.6 290 23:40 26.12.2019
5407 Rain 8 1016 87 10000 4.6 290 23:21 26.12.2019
5408 Clouds 8 1015 81 10000 5.7 270 22:43 26.12.2019
5409 Clouds 8 1015 87 8000 6.2 260 22:21 26.12.2019
5410 Clouds 8 1015 100 8000 6.2 280 21:56 26.12.2019
5411 Rain 8 1015 87 8000 5.7 250 21:37 26.12.2019
5412 Rain 8 1015 87 7000 4.1 250 21:19 26.12.2019
5413 Clouds 9 1015 87 10000 3.6 250 20:45 26.12.2019
5414 Clouds 9 1015 87 10000 4.1 250 20:22 26.12.2019
5415 Clouds 8 1015 87 10000 4.1 250 19:58 26.12.2019
5416 Clouds 9 1014 87 10000 5.1 250 19:39 26.12.2019
5417 Clouds 9 1014 87 10000 5.1 250 19:20 26.12.2019
5418 Clouds 9 1014 81 10000 6.2 250 18:57 26.12.2019
5419 Clouds 9 1014 81 10000 6.2 250 18:38 26.12.2019
5420 Rain 9 1014 81 10000 8.7 250 18:19 26.12.2019
5421 Clouds 9 1013 81 10000 9.8 250 17:43 26.12.2019
5422 Clouds 9 1013 81 10000 9.8 250 17:43 26.12.2019
5423 Clouds 9 1013 81 10000 9.8 250 17:22 26.12.2019
5424 Clouds 9 1013 81 10000 9.8 250 16:59 26.12.2019
5425 Clouds 9 1013 87 10000 8.2 240 16:41 26.12.2019
5426 Clouds 9 1012 87 8000 8.7 240 16:21 26.12.2019
5427 Rain 9 1011 87 9000 7.7 230 15:55 26.12.2019
5428 Rain 9 1011 87 9000 7.7 230 15:37 26.12.2019
5429 Rain 9 1011 93 3500 6.2 200 15:18 26.12.2019
5430 Drizzle 9 1011 100 6000 10.3 190 14:39 26.12.2019
5431 Rain 9 1012 87 7000 4.6 170 14:21 26.12.2019
5432 Rain 9 1012 93 10000 6.2 140 13:43 26.12.2019
5433 Rain 9 1013 87 10000 6.7 130 13:21 26.12.2019
5434 Rain 9 1013 87 10000 6.7 130 13:21 26.12.2019
5435 Rain 8 1013 87 10000 6.7 130 12:58 26.12.2019
5436 Clouds 8 1014 87 10000 6.2 150 12:39 26.12.2019
5437 Clouds 8 1015 87 10000 6.2 140 12:20 26.12.2019
5438 Clouds 7 1015 87 10000 6.2 140 11:57 26.12.2019
5439 Rain 7 1016 93 10000 6.2 120 11:39 26.12.2019
5440 Rain 7 1016 87 9000 4.6 120 11:20 26.12.2019
5441 Rain 6 1017 87 10000 5.1 120 10:47 26.12.2019
5442 Rain 6 1017 81 10000 4.6 120 10:19 26.12.2019
5443 Rain 6 1017 81 10000 5.7 120 09:50 26.12.2019
5444 Rain 6 1017 81 10000 5.7 120 09:32 26.12.2019
5445 Clouds 6 1019 87 10000 5.7 120 08:55 26.12.2019
5446 Rain 6 1018 87 10000 5.1 100 08:36 26.12.2019
5447 Clouds 6 1019 87 10000 4.1 90 08:18 26.12.2019
5448 Clouds 5 1019 87 10000 3.1 90 07:30 26.12.2019
5449 Clouds 5 1019 87 10000 3.1 90 07:30 26.12.2019
5450 Clouds 5 1020 93 10000 3.1 100 06:54 26.12.2019
5451 Clouds 5 1020 93 10000 3.1 100 06:32 26.12.2019
5452 Clouds 4 1021 86 10000 3.1 110 05:46 26.12.2019
5453 Clouds 3 1021 93 10000 3.6 100 04:59 26.12.2019
5454 Clouds 3 1021 93 10000 3.6 100 04:30 26.12.2019
5455 Rain 2 1023 93 10000 2.6 100 03:19 26.12.2019
5456 Clouds 2 1023 93 10000 3.1 90 02:40 26.12.2019
5457 Clouds 1 1023 100 9000 3.6 100 02:19 26.12.2019
5458 Clouds 1 1023 100 10000 3.1 100 01:41 26.12.2019
5459 Clouds 1 1024 93 10000 3.6 100 01:22 26.12.2019
5460 Clouds 1 1024 93 10000 2.1 70 00:41 26.12.2019
5461 Clouds 1 1025 93 10000 1.5 0 00:22 26.12.2019
5462 Mist 1 1024 100 4700 1 0 23:42 25.12.2019
5463 Clouds 1 1024 100 7000 1 0 23:21 25.12.2019
5464 Clouds 1 1025 93 10000 1.82 162 22:59 25.12.2019
5465 Clouds 1 1025 93 10000 1.82 162 22:40 25.12.2019
5466 Clouds 1 1025 93 10000 1.82 162 22:22 25.12.2019
5467 Clouds 1 1025 93 10000 1.82 162 21:59 25.12.2019
5468 Clouds 1 1025 93 10000 0.5 0 21:40 25.12.2019
5469 Clouds 1 1025 93 10000 1.82 162 21:22 25.12.2019
5470 Clouds 1 1025 93 10000 1.82 162 20:58 25.12.2019
5471 Clouds 1 1025 93 10000 1.5 100 20:40 25.12.2019
5472 Clouds 2 1025 93 10000 1.5 0 20:18 25.12.2019
5473 Clouds 2 1025 93 10000 1.5 140 19:44 25.12.2019
5474 Clouds 2 1025 93 10000 1.5 140 19:25 25.12.2019
5475 Clouds 3 1025 93 10000 1.5 0 18:59 25.12.2019
5476 Clouds 3 1025 86 10000 2.1 190 18:39 25.12.2019
5477 Clouds 3 1025 93 10000 0.81 162 18:20 25.12.2019
5478 Clouds 4 1025 81 10000 1 40 17:43 25.12.2019
5479 Clouds 5 1025 81 10000 0.5 250 17:21 25.12.2019
5480 Clouds 6 1025 81 10000 0.5 250 16:59 25.12.2019
5481 Clouds 7 1025 70 10000 0.5 60 16:39 25.12.2019
5482 Clouds 7 1025 70 10000 2.1 290 16:19 25.12.2019
5483 Clouds 7 1025 70 10000 2.1 290 15:57 25.12.2019
5484 Clouds 8 1025 70 10000 2.1 300 15:39 25.12.2019
5485 Clouds 8 1025 70 10000 2.1 300 15:39 25.12.2019
5486 Clouds 8 1025 70 10000 2.1 300 15:39 25.12.2019
5487 Clouds 8 1025 70 10000 2.6 290 15:21 25.12.2019
5488 Clouds 8 1025 70 10000 2.6 290 14:58 25.12.2019
5489 Clouds 8 1025 70 10000 3.1 290 14:40 25.12.2019
5490 Clear 8 1025 75 10000 2.6 300 14:21 25.12.2019
5491 Clear 8 1025 75 10000 2.6 300 14:21 25.12.2019
5492 Clear 8 1025 75 10000 2.6 300 14:21 25.12.2019
5493 Clear 8 1025 75 10000 2.6 300 14:21 25.12.2019
5494 Clear 8 1025 75 10000 2.6 300 14:21 25.12.2019
5495 Clear 7 1025 75 10000 2.6 300 13:57 25.12.2019
5496 Clear 8 1025 70 10000 3.1 290 13:38 25.12.2019
5497 Clear 7 1025 70 10000 3.1 290 13:19 25.12.2019
5498 Clear 7 1025 75 10000 3.6 280 12:42 25.12.2019
5499 Clear 7 1025 75 10000 3.1 250 12:20 25.12.2019
5500 Clear 6 1025 81 10000 3.1 230 11:57 25.12.2019
5501 Clear 6 1025 81 10000 3.1 230 11:39 25.12.2019
5502 Clear 5 1024 81 10000 2.6 220 11:18 25.12.2019
5503 Clear 4 1024 81 10000 2.1 250 10:39 25.12.2019
5504 Clear 3 1023 100 10000 1.5 270 10:21 25.12.2019
5505 Clouds 3 1023 100 10000 1.5 260 09:51 25.12.2019
5506 Clouds 3 1023 100 10000 1.5 260 09:33 25.12.2019
5507 Clouds 4 1022 93 10000 0.5 190 08:51 25.12.2019
5508 Clouds 4 1022 93 10000 0.5 190 08:51 25.12.2019
5509 Clouds 4 1022 93 10000 0.5 190 08:31 25.12.2019
5510 Clear 4 1022 93 10000 1 300 07:59 25.12.2019
5511 Clear 4 1021 86 10000 3.6 270 07:37 25.12.2019
5512 Clear 4 1021 93 10000 3.1 280 07:19 25.12.2019
5513 Clear 5 1021 93 10000 3.1 280 06:23 25.12.2019
5514 Clear 5 1020 93 10000 4.1 270 05:43 25.12.2019
5515 Clouds 6 1019 81 10000 3.1 290 04:39 25.12.2019
5516 Clouds 6 1019 81 10000 3.6 300 04:20 25.12.2019
5517 Clouds 7 1019 75 10000 4.1 300 03:43 25.12.2019
5518 Clouds 7 1018 75 10000 4.6 290 02:57 25.12.2019
5519 Clouds 7 1018 75 10000 4.6 290 02:28 25.12.2019
5520 Clouds 8 1016 76 10000 5.1 290 01:36 25.12.2019
5521 Clouds 8 1017 76 10000 4.6 290 01:18 25.12.2019
5522 Clouds 8 1015 76 10000 6.7 290 00:40 25.12.2019
5523 Clouds 9 1014 81 10000 7.7 290 00:22 25.12.2019
5524 Clouds 9 1014 81 10000 7.7 290 00:22 25.12.2019
5525 Rain 9 1014 81 10000 7.2 290 23:39 24.12.2019
5526 Clouds 9 1013 87 10000 6.2 280 23:20 24.12.2019
5527 Rain 9 1013 87 10000 4.6 270 22:42 24.12.2019
5528 Rain 9 1012 87 10000 4.6 250 22:24 24.12.2019
5529 Clouds 9 1011 87 10000 5.7 250 21:59 24.12.2019
5530 Clouds 9 1011 87 10000 5.7 250 21:40 24.12.2019
5531 Clouds 9 1011 87 10000 5.1 250 21:19 24.12.2019
5532 Clouds 9 1010 87 10000 5.7 250 20:42 24.12.2019
5533 Clouds 9 1010 87 10000 6.7 250 20:23 24.12.2019
5534 Clouds 9 1009 81 10000 7.2 250 19:55 24.12.2019
5535 Clouds 9 1009 81 10000 7.2 250 19:37 24.12.2019
5536 Clouds 9 1009 81 10000 6.2 250 19:18 24.12.2019
5537 Clouds 9 1009 81 10000 6.2 250 19:18 24.12.2019
5538 Clouds 9 1009 76 10000 5.7 250 18:42 24.12.2019
5539 Clouds 10 1009 71 10000 5.7 250 18:19 24.12.2019
5540 Clouds 10 1008 76 10000 5.1 250 17:44 24.12.2019
5541 Clouds 10 1008 81 10000 5.1 230 17:23 24.12.2019
5542 Rain 10 1008 81 10000 5.1 230 16:58 24.12.2019
5543 Rain 10 1008 81 10000 5.1 230 16:58 24.12.2019
5544 Clouds 10 1008 81 10000 6.7 240 16:40 24.12.2019
5545 Clouds 10 1008 66 10000 6.7 250 16:21 24.12.2019
5546 Rain 11 1006 81 10000 7.7 250 15:58 24.12.2019
5547 Clouds 11 1008 66 10000 7.2 240 15:38 24.12.2019
5548 Clouds 11 1008 66 10000 7.7 250 15:19 24.12.2019
5549 Clouds 11 1007 71 10000 7.2 260 14:58 24.12.2019
5550 Clouds 11 1007 71 10000 7.2 260 14:40 24.12.2019
5551 Clouds 11 1007 71 10000 6.7 250 14:22 24.12.2019
5552 Clouds 11 1007 71 10000 6.7 250 13:56 24.12.2019
5553 Clouds 11 1007 71 10000 7.7 250 13:38 24.12.2019
5554 Clouds 11 1007 76 10000 8.7 250 13:20 24.12.2019
5555 Clouds 10 1007 76 10000 8.7 250 12:57 24.12.2019
5556 Clouds 10 1007 76 10000 8.2 250 12:38 24.12.2019
5557 Clouds 10 1007 76 10000 8.2 250 12:19 24.12.2019
5558 Clouds 10 1007 76 10000 8.2 250 11:57 24.12.2019
5559 Rain 9 1007 81 6000 7.7 250 11:38 24.12.2019
5560 Clouds 9 1007 81 10000 7.7 250 11:20 24.12.2019
5561 Clouds 9 1007 81 10000 7.7 250 10:57 24.12.2019
5562 Clouds 9 1006 81 10000 6.2 240 10:38 24.12.2019
5563 Clouds 8 1007 87 10000 6.7 220 10:20 24.12.2019
5564 Clouds 8 1007 87 10000 6.7 220 09:58 24.12.2019
5565 Clouds 8 1007 93 10000 5.7 230 09:40 24.12.2019
5566 Clouds 8 1006 87 10000 5.1 240 09:22 24.12.2019
5567 Clouds 8 1006 87 10000 5.1 240 08:56 24.12.2019
5568 Clouds 8 1006 87 10000 6.2 250 08:37 24.12.2019
5569 Clouds 8 1005 87 10000 5.7 250 08:18 24.12.2019
5570 Clouds 8 1005 93 10000 5.7 250 07:43 24.12.2019
5571 Clouds 8 1006 100 10000 4.6 240 07:21 24.12.2019
5572 Rain 8 1005 93 10000 3.1 250 06:41 24.12.2019
5573 Rain 8 1005 93 10000 2.1 230 06:22 24.12.2019
5574 Rain 8 1005 93 10000 2.1 230 05:56 24.12.2019
5575 Rain 8 1005 93 10000 1.5 0 05:20 24.12.2019
5576 Rain 8 1006 87 5000 3.6 150 04:22 24.12.2019
5577 Rain 7 1007 93 6000 2.6 160 03:50 24.12.2019
5578 Rain 8 1009 87 10000 2.6 180 02:37 24.12.2019
5579 Rain 8 1009 81 10000 2.6 170 02:18 24.12.2019
5580 Rain 7 1010 81 10000 2.1 180 01:42 24.12.2019
5581 Clouds 7 1010 81 10000 2.6 170 01:19 24.12.2019
5582 Clouds 7 1011 87 10000 2.1 170 00:41 24.12.2019
5583 Clouds 7 1011 87 10000 2.1 160 00:22 24.12.2019
5584 Clouds 7 1011 93 10000 4.1 180 23:55 23.12.2019
5585 Clouds 7 1011 93 10000 4.1 180 23:37 23.12.2019
5586 Clouds 7 1011 81 10000 3.1 200 23:19 23.12.2019
5587 Clouds 7 1012 81 10000 2.6 230 22:54 23.12.2019
5588 Clouds 7 1012 81 10000 2.6 230 22:36 23.12.2019
5589 Clouds 7 1012 81 10000 2.6 220 22:18 23.12.2019
5590 Clouds 7 1012 93 10000 4.6 200 21:54 23.12.2019
5591 Clouds 7 1012 81 10000 3.1 220 21:36 23.12.2019
5592 Clouds 7 1012 81 10000 2.6 230 21:18 23.12.2019
5593 Clouds 7 1012 81 10000 2.6 230 20:55 23.12.2019
5594 Clouds 7 1012 81 10000 3.6 230 20:37 23.12.2019
5595 Clouds 7 1012 87 10000 5.1 200 20:18 23.12.2019
5596 Clouds 7 1012 87 10000 5.1 200 19:54 23.12.2019
5597 Clouds 7 1012 76 10000 3.6 220 19:36 23.12.2019
5598 Clouds 7 1012 76 10000 4.1 250 19:18 23.12.2019
5599 Clouds 7 1012 87 10000 4.6 210 18:54 23.12.2019
5600 Clouds 8 1012 87 10000 4.6 210 18:36 23.12.2019
5601 Rain 8 1012 81 10000 4.6 210 18:18 23.12.2019
5602 Rain 8 1011 76 10000 5.7 240 17:55 23.12.2019
5603 Rain 8 1011 76 10000 5.7 240 17:37 23.12.2019
5604 Rain 8 1011 76 10000 5.7 240 17:37 23.12.2019
5605 Clouds 8 1011 81 10000 5.1 240 17:18 23.12.2019
5606 Clouds 8 1011 81 10000 4.6 240 16:42 23.12.2019
5607 Clouds 9 1011 75 10000 5.1 250 16:19 23.12.2019
5608 Clouds 9 1011 75 10000 5.1 250 16:19 23.12.2019
5609 Clouds 9 1011 75 10000 5.1 250 15:58 23.12.2019
5610 Clouds 9 1011 70 10000 5.7 260 15:38 23.12.2019
5611 Clouds 9 1010 70 10000 5.7 260 15:19 23.12.2019
5612 Clouds 10 1010 57 10000 7.2 270 14:58 23.12.2019
5613 Clouds 10 1009 62 10000 7.2 260 14:39 23.12.2019
5614 Clouds 10 1009 62 10000 7.2 260 14:21 23.12.2019
5615 Clouds 10 1009 66 10000 6.7 260 13:58 23.12.2019
5616 Clouds 10 1009 66 10000 6.7 260 13:40 23.12.2019
5617 Clouds 9 1009 71 10000 8.2 260 13:22 23.12.2019
5618 Clouds 9 1009 71 10000 7.2 250 12:56 23.12.2019
5619 Clouds 9 1009 71 10000 7.2 250 12:37 23.12.2019
5620 Clear 9 1008 76 10000 6.2 250 12:19 23.12.2019
5621 Clear 9 1008 76 10000 6.7 250 11:44 23.12.2019
5622 Clouds 8 1007 76 10000 6.2 250 11:26 23.12.2019
5623 Clear 8 1007 70 10000 6.2 260 10:57 23.12.2019
5624 Clear 8 1007 70 10000 6.2 260 10:57 23.12.2019
5625 Clear 7 1007 70 10000 6.2 260 10:39 23.12.2019
5626 Clear 7 1006 75 10000 7.2 260 10:20 23.12.2019
5627 Clear 7 1006 81 10000 8.2 250 09:59 23.12.2019
5628 Clear 7 1006 81 10000 8.2 250 09:40 23.12.2019
5629 Clear 7 1005 87 10000 6.7 260 09:21 23.12.2019
5630 Clear 7 1005 87 10000 6.7 260 08:58 23.12.2019
5631 Clouds 7 1005 87 10000 5.1 260 08:40 23.12.2019
5632 Clouds 7 1004 81 10000 6.2 260 08:22 23.12.2019
5633 Clouds 7 1003 87 10000 7.2 260 07:47 23.12.2019
5634 Clouds 7 1003 81 10000 5.7 250 07:20 23.12.2019
5635 Clouds 7 1002 87 10000 5.1 250 06:53 23.12.2019
5636 Clouds 7 1001 87 10000 6.2 250 06:26 23.12.2019
5637 Clouds 7 1001 81 10000 5.7 240 05:56 23.12.2019
5638 Clouds 7 1001 81 10000 5.7 240 05:29 23.12.2019
5639 Clear 6 1000 87 10000 4.1 250 04:34 23.12.2019
5640 Clear 6 998 87 10000 4.6 250 03:26 23.12.2019
5641 Rain 6 998 87 10000 3.6 250 02:42 23.12.2019
5642 Rain 6 998 87 10000 4.1 240 02:19 23.12.2019
5643 Clouds 6 997 87 10000 3.6 240 01:44 23.12.2019
5644 Clouds 6 997 87 10000 4.6 240 01:26 23.12.2019
5645 Clear 6 997 93 10000 4.6 260 00:44 23.12.2019
5646 Clear 6 996 93 10000 5.1 260 00:24 23.12.2019
5647 Clouds 6 995 87 10000 6.7 250 23:40 22.12.2019
5648 Clouds 6 994 87 10000 6.2 250 23:22 22.12.2019
5649 Clouds 6 994 87 10000 6.2 250 22:58 22.12.2019
5650 Clouds 7 994 81 10000 5.7 260 22:40 22.12.2019
5651 Clouds 7 993 81 10000 5.1 250 22:22 22.12.2019
5652 Clouds 7 993 81 10000 5.1 250 21:59 22.12.2019
5653 Clouds 7 993 93 10000 4.1 230 21:40 22.12.2019
5654 Clouds 7 992 93 10000 4.6 220 21:21 22.12.2019
5655 Clouds 7 992 93 10000 4.6 220 20:59 22.12.2019
5656 Clouds 7 992 93 10000 4.1 220 20:39 22.12.2019
5657 Clouds 7 992 93 10000 4.6 220 20:19 22.12.2019
5658 Clouds 7 991 93 10000 4.6 220 19:57 22.12.2019
5659 Clouds 7 991 93 10000 4.6 220 19:39 22.12.2019
5660 Clouds 7 991 93 10000 4.6 220 19:20 22.12.2019
5661 Clouds 7 991 93 10000 4.1 220 18:43 22.12.2019
5662 Clouds 7 990 93 10000 3.6 230 18:25 22.12.2019
5663 Clouds 7 990 93 10000 3.6 230 17:57 22.12.2019
5664 Clouds 7 990 81 10000 4.6 240 17:57 22.12.2019
5665 Clouds 7 990 81 10000 4.6 240 17:39 22.12.2019
5666 Clouds 8 989 81 10000 5.7 260 17:19 22.12.2019
5667 Clouds 8 989 81 10000 5.7 260 17:19 22.12.2019
5668 Clouds 8 989 81 10000 5.7 260 16:59 22.12.2019
5669 Clouds 8 988 87 10000 4.1 250 16:41 22.12.2019
5670 Clouds 8 988 87 10000 5.1 240 16:22 22.12.2019
5671 Clouds 8 988 87 10000 5.1 240 16:22 22.12.2019
5672 Clouds 8 988 81 10000 6.2 250 15:57 22.12.2019
5673 Clouds 8 988 81 10000 6.2 250 15:39 22.12.2019
5674 Clouds 9 987 76 10000 6.7 250 15:21 22.12.2019
5675 Clouds 9 987 76 10000 6.2 270 14:56 22.12.2019
5676 Clouds 8 987 76 10000 6.2 270 14:38 22.12.2019
5677 Clouds 8 987 76 10000 5.1 260 14:19 22.12.2019
5678 Clouds 8 986 76 10000 6.2 270 13:56 22.12.2019
5679 Clouds 8 986 76 10000 6.2 270 13:38 22.12.2019
5680 Clouds 8 986 76 10000 6.2 260 13:19 22.12.2019
5681 Clouds 8 986 76 10000 6.2 260 13:19 22.12.2019
5682 Clouds 8 986 81 10000 7.2 270 12:57 22.12.2019
5683 Clouds 8 986 81 10000 7.2 270 12:38 22.12.2019
5684 Clouds 8 985 81 10000 6.2 260 12:19 22.12.2019
5685 Clouds 7 985 81 10000 7.2 280 11:57 22.12.2019
5686 Clouds 7 985 93 10000 5.1 270 11:38 22.12.2019
5687 Clouds 7 985 100 10000 6.2 270 11:19 22.12.2019
5688 Clouds 7 985 100 10000 6.2 270 10:57 22.12.2019
5689 Drizzle 7 984 100 5000 6.2 280 10:38 22.12.2019
5690 Drizzle 7 983 100 10000 7.2 280 10:19 22.12.2019
5691 Drizzle 7 983 100 10000 7.2 280 09:58 22.12.2019
5692 Clouds 7 982 93 10000 6.7 280 09:39 22.12.2019
5693 Rain 7 981 93 10000 7.2 290 09:21 22.12.2019
5694 Rain 7 981 87 10000 6.2 300 08:45 22.12.2019
5695 Rain 7 980 93 10000 6.2 310 08:23 22.12.2019
5696 Rain 7 979 93 10000 5.7 290 07:50 22.12.2019
5697 Rain 8 979 93 9000 5.1 290 07:22 22.12.2019
5698 Rain 8 977 93 10000 3.6 250 06:57 22.12.2019
5699 Rain 8 977 93 10000 3.6 250 06:27 22.12.2019
5700 Rain 8 976 93 10000 2.6 230 05:43 22.12.2019
5701 Rain 8 975 93 9000 1.5 230 05:21 22.12.2019
5702 Clouds 8 975 93 9000 1.5 230 04:27 22.12.2019
5703 Clouds 8 974 93 7000 2.6 210 03:24 22.12.2019
5704 Rain 8 973 100 7000 3.1 190 02:34 22.12.2019
5705 Rain 8 973 93 8000 3.1 190 01:33 22.12.2019
5706 Rain 8 972 100 7000 2.6 220 00:59 22.12.2019
5707 Rain 8 972 100 7000 2.6 220 00:41 22.12.2019
5708 Rain 8 972 93 10000 3.6 200 00:21 22.12.2019
5709 Rain 8 972 93 9000 2.6 140 23:42 21.12.2019
5710 Rain 8 972 93 10000 5.7 110 23:24 21.12.2019
5711 Rain 8 972 93 10000 5.7 110 22:59 21.12.2019
5712 Rain 8 972 93 10000 6.2 110 22:40 21.12.2019
5713 Rain 8 972 87 10000 6.7 100 22:19 21.12.2019
5714 Rain 7 973 87 10000 6.2 100 21:57 21.12.2019
5715 Rain 7 973 87 10000 6.2 100 21:37 21.12.2019
5716 Rain 7 973 87 10000 6.7 110 21:19 21.12.2019
5717 Rain 7 973 87 10000 6.7 120 20:58 21.12.2019
5718 Rain 8 974 87 10000 4.6 150 20:39 21.12.2019
5719 Rain 8 975 87 10000 4.6 130 20:21 21.12.2019
5720 Rain 8 974 93 10000 4.1 130 19:58 21.12.2019
5721 Rain 8 975 87 10000 4.1 130 19:40 21.12.2019
5722 Rain 8 976 87 10000 4.1 130 19:19 21.12.2019
5723 Rain 8 976 87 10000 4.1 130 19:19 21.12.2019
5724 Rain 8 976 93 10000 7.2 150 18:45 21.12.2019
5725 Rain 8 976 93 10000 6.2 150 18:24 21.12.2019
5726 Rain 9 978 81 10000 4.1 170 17:57 21.12.2019
5727 Rain 9 978 81 10000 4.1 170 17:39 21.12.2019
5728 Clouds 9 978 81 10000 4.6 180 17:21 21.12.2019
5729 Rain 9 977 93 10000 5.1 160 16:59 21.12.2019
5730 Clouds 9 979 81 10000 4.1 190 16:41 21.12.2019
5731 Clouds 9 978 87 10000 3.6 170 16:19 21.12.2019
5732 Clouds 9 978 87 10000 3.6 170 15:57 21.12.2019
5733 Rain 9 979 87 10000 4.1 170 15:38 21.12.2019
5734 Rain 9 979 81 10000 4.6 180 15:19 21.12.2019
5735 Rain 9 979 93 10000 6.2 180 14:57 21.12.2019
5736 Rain 9 979 93 10000 6.2 180 14:38 21.12.2019
5737 Rain 9 980 93 10000 7.7 180 14:18 21.12.2019
5738 Rain 9 980 76 10000 4.6 200 13:55 21.12.2019
5739 Clouds 9 980 76 10000 5.1 200 13:37 21.12.2019
5740 Clouds 9 981 81 10000 5.1 200 13:18 21.12.2019
5741 Rain 9 981 81 10000 4.6 190 12:54 21.12.2019
5742 Rain 9 981 81 10000 4.6 190 12:36 21.12.2019
5743 Rain 9 982 81 10000 5.1 200 12:18 21.12.2019
5744 Rain 8 982 93 10000 8.2 190 11:42 21.12.2019
5745 Clouds 8 982 93 10000 7.7 200 11:24 21.12.2019
5746 Rain 8 982 81 10000 3.1 200 10:56 21.12.2019
5747 Rain 7 982 81 10000 3.1 200 10:37 21.12.2019
5748 Rain 7 982 81 10000 4.1 200 10:19 21.12.2019
5749 Rain 7 982 81 10000 4.1 200 10:19 21.12.2019
5750 Rain 7 982 87 10000 4.1 190 09:42 21.12.2019
5751 Rain 7 982 100 8000 5.1 200 09:21 21.12.2019
5752 Rain 7 982 100 8000 5.1 200 08:57 21.12.2019
5753 Rain 7 982 87 10000 4.1 210 08:37 21.12.2019
5754 Rain 7 982 87 10000 5.1 220 08:19 21.12.2019
5755 Rain 7 982 93 6000 5.1 210 07:44 21.12.2019
5756 Rain 7 982 93 10000 7.7 190 07:22 21.12.2019
5757 Rain 8 982 87 10000 4.1 180 06:44 21.12.2019
5758 Rain 8 983 87 10000 3.6 190 06:25 21.12.2019
5759 Clouds 7 983 87 10000 3.6 190 05:49 21.12.2019
5760 Rain 7 983 93 10000 3.6 190 04:58 21.12.2019
5761 Rain 7 984 87 10000 2.6 170 03:57 21.12.2019
5762 Rain 6 984 87 10000 2.6 180 02:52 21.12.2019
5763 Rain 6 984 87 10000 3.6 200 01:59 21.12.2019
5764 Rain 6 985 87 10000 4.1 200 01:28 21.12.2019
5765 Rain 6 984 93 10000 3.1 180 00:55 21.12.2019
5766 Clouds 5 985 87 10000 2.6 170 00:37 21.12.2019
5767 Rain 5 985 87 10000 2.1 0 00:18 21.12.2019
5768 Rain 5 984 93 10000 4.6 180 23:38 20.12.2019
5769 Clouds 5 984 93 10000 5.1 190 23:19 20.12.2019
5770 Clouds 5 984 93 10000 5.1 190 23:19 20.12.2019
5771 Clouds 5 984 93 10000 3.6 210 22:43 20.12.2019
5772 Clouds 5 984 93 10000 4.6 210 22:21 20.12.2019
5773 Clouds 5 984 93 10000 4.6 210 21:59 20.12.2019
5774 Clouds 5 984 93 10000 4.1 210 21:40 20.12.2019
5775 Clouds 5 984 93 10000 4.6 210 21:20 20.12.2019
5776 Clouds 6 984 100 10000 4.1 220 20:55 20.12.2019
5777 Clouds 6 984 100 10000 4.1 220 20:36 20.12.2019
5778 Clouds 6 983 87 10000 3.6 230 20:18 20.12.2019
5779 Clouds 6 983 81 10000 3.6 240 19:41 20.12.2019
5780 Rain 7 982 81 10000 4.1 240 19:20 20.12.2019
5781 Rain 7 982 81 10000 4.1 240 18:58 20.12.2019
5782 Rain 7 982 81 10000 5.1 260 18:38 20.12.2019
5783 Rain 7 981 87 5000 7.7 260 18:20 20.12.2019
5784 Rain 7 980 81 10000 6.2 230 17:54 20.12.2019
5785 Rain 8 980 81 10000 6.2 230 17:36 20.12.2019
5786 Clouds 8 980 81 10000 6.2 230 17:18 20.12.2019
5787 Clouds 8 980 81 10000 6.2 230 17:18 20.12.2019
5788 Rain 8 980 93 10000 6.7 220 16:40 20.12.2019
5789 Rain 8 979 81 10000 5.7 230 16:20 20.12.2019
5790 Rain 8 979 81 10000 7.7 210 15:57 20.12.2019
5791 Clouds 9 979 81 10000 7.7 210 15:39 20.12.2019
5792 Clouds 9 978 81 10000 8.2 220 15:20 20.12.2019
5793 Rain 9 978 93 10000 5.7 250 14:59 20.12.2019
5794 Rain 9 978 93 10000 5.7 250 14:59 20.12.2019
5795 Rain 9 978 93 10000 5.7 250 14:40 20.12.2019
5796 Rain 9 978 93 10000 7.2 220 14:22 20.12.2019
5797 Rain 9 978 87 10000 6.7 240 13:56 20.12.2019
5798 Rain 9 978 87 10000 6.2 240 13:37 20.12.2019
5799 Rain 9 978 87 10000 6.2 240 13:18 20.12.2019
5800 Rain 9 978 93 10000 5.1 240 12:55 20.12.2019
5801 Rain 9 977 87 10000 7.2 250 12:36 20.12.2019
5802 Rain 9 977 87 10000 7.2 250 12:18 20.12.2019
5803 Rain 9 977 93 10000 7.2 270 11:56 20.12.2019
5804 Rain 9 977 93 9000 6.2 220 11:37 20.12.2019
5805 Rain 9 977 93 9000 6.2 220 11:18 20.12.2019
5806 Rain 9 976 93 8000 3.1 240 10:54 20.12.2019
5807 Rain 9 976 93 9000 3.1 240 10:36 20.12.2019
5808 Rain 9 976 93 9000 3.1 240 10:18 20.12.2019
5809 Rain 9 976 93 5000 2.1 230 09:41 20.12.2019
5810 Rain 9 976 93 5000 2.1 260 09:21 20.12.2019
5811 Rain 9 976 93 5000 2.1 260 09:21 20.12.2019
5812 Rain 9 976 93 2300 1.5 300 08:44 20.12.2019
5813 Rain 9 977 93 2200 1 310 08:26 20.12.2019
5814 Rain 9 977 100 1200 2.35 309 07:59 20.12.2019
5815 Rain 9 977 100 1200 2.35 309 07:41 20.12.2019
5816 Rain 9 978 100 6000 1.5 0 07:20 20.12.2019
5817 Rain 9 979 100 4800 2.6 60 06:52 20.12.2019
5818 Rain 9 980 100 6000 1.5 0 06:33 20.12.2019
5819 Rain 9 981 100 5000 1.5 0 05:56 20.12.2019
5820 Rain 9 982 93 3300 2.6 70 05:38 20.12.2019
5821 Rain 8 983 93 9000 2.6 70 04:46 20.12.2019
5822 Rain 8 985 93 7000 4.1 140 03:33 20.12.2019
5823 Rain 8 985 87 10000 3.1 120 02:45 20.12.2019
5824 Rain 9 987 87 10000 2.6 100 01:55 20.12.2019
5825 Rain 9 988 81 10000 2.6 150 01:35 20.12.2019
5826 Rain 9 989 81 10000 4.6 150 00:53 20.12.2019
5827 Rain 9 988 87 10000 4.6 180 00:34 20.12.2019
5828 Rain 10 990 87 10000 7.7 170 23:57 19.12.2019
5829 Rain 10 990 93 10000 9.3 170 23:39 19.12.2019
5830 Rain 10 990 93 10000 9.3 170 23:19 19.12.2019
5831 Rain 11 991 87 10000 9.3 170 22:39 19.12.2019
5832 Rain 11 991 87 10000 9.3 170 22:20 19.12.2019
5833 Clouds 11 991 81 10000 10.3 170 21:56 19.12.2019
5834 Clouds 11 991 81 10000 10.3 170 21:56 19.12.2019
5835 Clouds 11 991 76 10000 10.3 170 21:38 19.12.2019
5836 Clouds 11 991 76 10000 10.3 170 21:19 19.12.2019
5837 Clouds 12 991 81 10000 10.3 160 20:56 19.12.2019
5838 Rain 12 992 76 10000 6.7 150 20:37 19.12.2019
5839 Rain 12 992 76 10000 6.7 150 20:19 19.12.2019
5840 Rain 11 992 76 10000 6.2 150 19:58 19.12.2019
5841 Rain 11 992 87 10000 8.2 160 19:39 19.12.2019
5842 Rain 11 992 87 10000 8.2 160 19:19 19.12.2019
5843 Rain 11 992 87 10000 8.2 160 19:19 19.12.2019
5844 Clouds 11 993 87 10000 8.7 170 18:57 19.12.2019
5845 Clouds 11 993 87 10000 10.3 180 18:39 19.12.2019
5846 Clouds 11 993 87 10000 10.3 180 18:19 19.12.2019
5847 Clouds 11 993 87 10000 10.3 170 17:55 19.12.2019
5848 Rain 11 994 93 10000 9.8 170 17:37 19.12.2019
5849 Rain 12 993 82 10000 7.2 170 17:18 19.12.2019
5850 Rain 12 994 93 10000 10.3 160 16:55 19.12.2019
5851 Rain 11 994 87 10000 5.7 140 16:37 19.12.2019
5852 Rain 11 994 87 10000 5.7 140 16:19 19.12.2019
5853 Rain 11 995 87 10000 4.6 150 15:56 19.12.2019
5854 Rain 11 995 87 8000 4.1 130 15:37 19.12.2019
5855 Rain 11 995 87 8000 4.1 130 15:18 19.12.2019
5856 Rain 11 995 87 8000 4.1 130 15:18 19.12.2019
5857 Rain 11 995 87 8000 8.2 160 14:43 19.12.2019
5858 Clouds 12 996 76 10000 5.1 130 14:20 19.12.2019
5859 Clouds 12 996 76 10000 6.2 170 13:59 19.12.2019
5860 Clouds 12 998 87 10000 6.7 160 13:38 19.12.2019
5861 Clouds 12 998 87 10000 6.7 160 13:19 19.12.2019
5862 Clouds 12 998 87 10000 6.7 160 12:57 19.12.2019
5863 Clouds 12 999 87 10000 8.2 170 12:39 19.12.2019
5864 Clouds 12 999 87 10000 8.2 170 12:19 19.12.2019
5865 Clouds 12 999 87 10000 7.7 170 11:58 19.12.2019
5866 Clouds 12 999 87 10000 7.7 170 11:40 19.12.2019
5867 Clouds 11 999 87 10000 9.8 180 11:18 19.12.2019
5868 Clouds 11 999 87 10000 4.1 180 10:58 19.12.2019
5869 Clouds 11 1000 93 9000 9.8 180 10:38 19.12.2019
5870 Clouds 11 1000 93 9000 9.8 180 10:20 19.12.2019
5871 Rain 11 999 87 10000 4.6 190 09:55 19.12.2019
5872 Clouds 11 1000 87 10000 5.1 180 09:37 19.12.2019
5873 Clouds 11 1000 87 10000 5.1 180 09:18 19.12.2019
5874 Clouds 11 1000 87 10000 5.1 180 08:55 19.12.2019
5875 Clouds 11 1000 87 10000 5.7 170 08:36 19.12.2019
5876 Clouds 11 1000 87 10000 5.7 170 08:18 19.12.2019
5877 Clouds 11 1000 87 10000 5.7 160 07:40 19.12.2019
5878 Rain 11 999 93 10000 5.1 180 07:22 19.12.2019
5879 Rain 10 1000 81 10000 5.7 160 06:54 19.12.2019
5880 Rain 10 999 93 10000 5.1 170 06:36 19.12.2019
5881 Rain 10 999 93 10000 5.1 170 06:18 19.12.2019
5882 Rain 10 1001 93 10000 5.1 150 05:42 19.12.2019
5883 Rain 10 1001 93 10000 5.1 150 05:18 19.12.2019
5884 Rain 10 1002 87 8000 5.7 170 03:51 19.12.2019
5885 Rain 10 1002 87 10000 5.1 170 02:28 19.12.2019
5886 Rain 10 1003 87 10000 6.2 180 01:24 19.12.2019
5887 Rain 10 1003 87 10000 6.2 180 00:57 19.12.2019
5888 Rain 10 1003 87 10000 6.2 170 00:38 19.12.2019
5889 Rain 10 1003 87 10000 6.2 170 00:19 19.12.2019
5890 Rain 10 1003 100 10000 10.3 170 23:44 18.12.2019
5891 Rain 10 1003 93 10000 8.7 170 23:19 18.12.2019
5892 Rain 10 1004 93 8000 9.8 170 22:56 18.12.2019
5893 Rain 9 1004 81 10000 6.2 150 22:38 18.12.2019
5894 Rain 9 1004 81 10000 6.2 150 22:20 18.12.2019
5895 Rain 9 1005 87 10000 5.7 150 21:58 18.12.2019
5896 Rain 9 1005 87 10000 5.7 150 21:40 18.12.2019
5897 Rain 9 1005 87 10000 5.1 150 21:20 18.12.2019
5898 Rain 9 1005 81 10000 6.2 150 20:57 18.12.2019
5899 Rain 9 1006 87 10000 4.6 140 20:38 18.12.2019
5900 Rain 8 1006 87 10000 4.6 140 20:20 18.12.2019
5901 Rain 8 1005 87 10000 6.2 130 19:57 18.12.2019
5902 Rain 8 1006 81 10000 6.2 130 19:39 18.12.2019
5903 Rain 8 1006 81 10000 6.2 130 19:19 18.12.2019
5904 Rain 8 1006 81 10000 7.2 130 18:55 18.12.2019
5905 Clouds 8 1006 81 10000 6.7 130 18:37 18.12.2019
5906 Clouds 8 1006 81 10000 6.7 130 18:18 18.12.2019
5907 Clouds 8 1007 76 10000 5.7 120 17:55 18.12.2019
5908 Clouds 8 1007 81 10000 5.7 120 17:37 18.12.2019
5909 Clouds 8 1007 81 10000 5.7 120 17:18 18.12.2019
5910 Clouds 8 1008 81 10000 4.6 120 16:42 18.12.2019
5911 Clouds 8 1008 87 10000 5.1 140 16:23 18.12.2019
5912 Clouds 8 1008 87 10000 5.1 140 15:57 18.12.2019
5913 Clouds 9 1009 76 10000 5.1 140 15:39 18.12.2019
5914 Clouds 9 1009 76 10000 4.1 140 15:21 18.12.2019
5915 Clouds 9 1009 76 10000 4.1 140 14:56 18.12.2019
5916 Clouds 9 1009 76 10000 4.1 140 14:56 18.12.2019
5917 Clouds 9 1010 76 10000 4.6 150 14:38 18.12.2019
5918 Clouds 9 1010 76 10000 5.7 150 14:19 18.12.2019
5919 Clouds 9 1011 81 10000 4.1 160 13:55 18.12.2019
5920 Clouds 8 1011 81 10000 4.1 160 13:36 18.12.2019
5921 Clear 8 1011 81 10000 4.1 160 13:18 18.12.2019
5922 Clear 8 1011 81 10000 4.1 160 13:18 18.12.2019
5923 Clear 8 1011 81 10000 4.1 160 13:18 18.12.2019
5924 Clear 8 1011 81 10000 3.1 140 12:40 18.12.2019
5925 Clear 7 1011 87 10000 3.1 140 12:21 18.12.2019
5926 Clear 6 1011 81 10000 3.6 130 11:57 18.12.2019
5927 Clear 6 1011 81 10000 3.6 130 11:39 18.12.2019
5928 Clouds 5 1011 93 10000 6.7 170 11:20 18.12.2019
5929 Clouds 5 1011 93 10000 6.7 170 10:58 18.12.2019
5930 Clear 4 1010 93 10000 6.2 170 10:39 18.12.2019
5931 Clear 4 1010 93 10000 3.6 170 10:21 18.12.2019
5932 Clear 4 1010 93 10000 3.6 170 09:59 18.12.2019
5933 Clear 4 1010 93 10000 3.6 170 09:59 18.12.2019
5934 Rain 3 1010 93 10000 2.1 160 09:21 18.12.2019
5935 Rain 3 1010 93 10000 1.5 0 08:55 18.12.2019
5936 Rain 3 1010 93 10000 1.5 0 08:37 18.12.2019
5937 Clouds 2 1010 93 10000 1 0 08:19 18.12.2019
5938 Clouds 3 1010 100 10000 0.5 0 07:42 18.12.2019
5939 Clouds 2 1010 93 10000 2.24 187 07:21 18.12.2019
5940 Clouds 2 1009 93 7000 2.24 187 06:52 18.12.2019
5941 Clouds 2 1009 93 8000 0.5 0 06:26 18.12.2019
5942 Clouds 3 1009 93 7000 1.5 0 05:39 18.12.2019
5943 Haze 3 1009 93 5000 1.61 184 04:35 18.12.2019
5944 Clouds 4 1008 93 6000 1.5 210 02:50 18.12.2019
5945 Clouds 4 1008 93 6000 1.5 210 02:30 18.12.2019
5946 Clouds 4 1008 93 7000 1.5 0 01:47 18.12.2019
5947 Clouds 4 1008 93 7000 1.5 0 01:28 18.12.2019
5948 Clouds 5 1007 93 7000 0.5 0 00:59 18.12.2019
5949 Mist 4 1007 93 2900 1.5 0 00:40 18.12.2019
5950 Clouds 5 1006 93 6000 1.5 250 00:21 18.12.2019
5951 Clouds 5 1006 100 10000 3.1 190 23:54 17.12.2019
5952 Clouds 5 1006 100 10000 3.1 190 23:36 17.12.2019
5953 Clouds 5 1006 93 10000 3.1 190 23:18 17.12.2019
5954 Mist 5 1005 100 7000 2.1 230 22:54 17.12.2019
5955 Mist 5 1005 100 7000 2.1 230 22:36 17.12.2019
5956 Clouds 5 1005 93 10000 3.1 190 22:18 17.12.2019
5957 Haze 5 1004 100 7000 2.6 250 21:55 17.12.2019
5958 Haze 5 1004 100 7000 2.6 250 21:36 17.12.2019
5959 Clouds 6 1004 100 10000 3.1 200 21:18 17.12.2019
5960 Haze 6 1004 93 7000 3.1 250 20:40 17.12.2019
5961 Clouds 6 1004 100 10000 3.1 200 20:19 17.12.2019
5962 Clouds 6 1004 100 10000 3.1 200 19:59 17.12.2019
5963 Clouds 6 1003 93 10000 3.1 200 19:41 17.12.2019
5964 Clouds 6 1003 93 10000 3.1 200 19:41 17.12.2019
5965 Clouds 6 1003 93 10000 3.1 200 19:41 17.12.2019
5966 Clouds 6 1003 100 10000 3.1 190 19:20 17.12.2019
5967 Clouds 6 1003 100 10000 3.1 190 18:58 17.12.2019
5968 Rain 6 1003 93 10000 1.5 240 18:40 17.12.2019
5969 Drizzle 6 1003 93 8000 2.6 220 18:21 17.12.2019
5970 Drizzle 6 1002 93 8000 2.1 220 17:58 17.12.2019
5971 Drizzle 6 1002 93 8000 2.1 220 17:39 17.12.2019
5972 Drizzle 6 1002 100 8000 2.1 240 17:18 17.12.2019
5973 Rain 7 1001 100 5000 2.1 240 16:56 17.12.2019
5974 Rain 7 1001 100 5000 2.1 240 16:37 17.12.2019
5975 Rain 7 1001 87 10000 2.1 250 16:18 17.12.2019
5976 Rain 7 1001 87 10000 1.5 0 15:54 17.12.2019
5977 Rain 7 1001 87 10000 1.5 0 15:36 17.12.2019
5978 Rain 7 1001 87 10000 2.1 290 15:18 17.12.2019
5979 Clouds 7 1000 87 10000 2.1 270 14:54 17.12.2019
5980 Clouds 7 1000 87 10000 2.6 300 14:36 17.12.2019
5981 Clouds 7 1000 87 10000 2.1 270 14:36 17.12.2019
5982 Clouds 7 1000 87 10000 2.6 300 14:18 17.12.2019
5983 Rain 7 999 87 10000 2.1 310 13:55 17.12.2019
5984 Rain 7 999 87 10000 2.1 310 13:37 17.12.2019
5985 Rain 7 999 87 10000 3.1 310 13:18 17.12.2019
5986 Rain 7 999 87 10000 2.1 300 12:40 17.12.2019
5987 Rain 7 999 93 9000 1 0 12:19 17.12.2019
5988 Rain 7 999 93 7000 1.5 0 11:59 17.12.2019
5989 Rain 6 999 93 7000 1.5 0 11:37 17.12.2019
5990 Rain 6 999 93 8000 3.1 300 11:19 17.12.2019
5991 Rain 6 998 93 10000 2.1 300 10:59 17.12.2019
5992 Rain 6 998 93 10000 2.1 300 10:40 17.12.2019
5993 Rain 6 998 93 10000 1 0 10:21 17.12.2019
5994 Rain 6 997 93 10000 2.1 70 09:59 17.12.2019
5995 Rain 6 997 93 10000 2.1 70 09:41 17.12.2019
5996 Rain 6 997 93 10000 2.1 70 09:41 17.12.2019
5997 Rain 6 997 93 10000 1.5 0 09:20 17.12.2019
5998 Rain 6 997 93 10000 1.5 0 08:56 17.12.2019
5999 Rain 6 997 93 10000 1.5 0 08:38 17.12.2019
6000 Rain 6 997 100 7000 2.1 20 08:19 17.12.2019
6001 Rain 6 997 93 7000 1.5 0 07:46 17.12.2019
6002 Rain 6 997 93 10000 1 0 07:26 17.12.2019
6003 Rain 6 996 93 10000 2.1 60 06:59 17.12.2019
6004 Rain 6 996 93 10000 2.1 60 06:35 17.12.2019
6005 Rain 6 996 93 10000 2.1 60 05:54 17.12.2019
6006 Rain 6 997 93 10000 4.1 100 05:36 17.12.2019
6007 Rain 6 997 93 10000 3.6 80 04:31 17.12.2019
6008 Rain 6 997 100 3300 3.1 90 02:34 17.12.2019
6009 Rain 6 998 100 5000 2.1 70 01:55 17.12.2019
6010 Rain 6 998 100 9000 1.5 80 01:18 17.12.2019
6011 Rain 7 998 100 9000 2.1 100 00:38 17.12.2019
6012 Rain 7 998 93 4300 1 70 00:19 17.12.2019
6013 Rain 7 998 93 6000 1 0 23:42 16.12.2019
6014 Rain 7 999 93 7000 1.5 50 23:19 16.12.2019
6015 Rain 7 999 93 7000 1.5 50 23:19 16.12.2019
6016 Rain 7 999 93 7000 1.5 50 23:19 16.12.2019
6017 Rain 7 999 93 8000 2.1 40 22:58 16.12.2019
6018 Rain 7 999 93 8000 2.1 40 22:37 16.12.2019
6019 Rain 7 999 93 10000 2.1 40 22:19 16.12.2019
6020 Rain 7 999 93 10000 2.1 40 22:19 16.12.2019
6021 Rain 7 999 93 10000 2.1 40 22:19 16.12.2019
6022 Rain 7 999 93 10000 2.1 50 21:56 16.12.2019
6023 Rain 7 999 93 10000 2.1 50 21:37 16.12.2019
6024 Rain 7 999 93 10000 2.1 50 21:19 16.12.2019
6025 Rain 7 999 93 10000 2.1 50 20:57 16.12.2019
6026 Rain 7 999 93 10000 1.5 0 20:38 16.12.2019
6027 Rain 7 999 93 10000 1.5 0 20:38 16.12.2019
6028 Clouds 7 999 93 10000 2.6 140 20:19 16.12.2019
6029 Clouds 7 999 87 10000 1.5 130 19:56 16.12.2019
6030 Clouds 7 999 87 10000 1.5 130 19:37 16.12.2019
6031 Clouds 7 1000 100 10000 2.6 130 19:19 16.12.2019
6032 Clouds 7 999 87 10000 2.1 130 18:56 16.12.2019
6033 Clouds 7 999 87 10000 2.1 130 18:38 16.12.2019
6034 Clouds 7 1000 100 10000 2.6 140 18:38 16.12.2019
6035 Clouds 7 1000 100 10000 2.6 140 18:19 16.12.2019
6036 Clouds 7 1000 93 10000 2.1 160 17:57 16.12.2019
6037 Clouds 7 1000 93 10000 3.6 150 17:38 16.12.2019
6038 Clouds 7 1000 93 10000 3.6 150 17:20 16.12.2019
6039 Clouds 7 1000 87 10000 1.5 170 16:57 16.12.2019
6040 Clouds 8 1001 81 10000 1.5 0 16:38 16.12.2019
6041 Rain 8 1000 81 10000 1.5 0 16:19 16.12.2019
6042 Rain 8 1000 81 10000 1.5 0 15:58 16.12.2019
6043 Clouds 8 1000 81 10000 2.1 170 15:38 16.12.2019
6044 Clouds 8 1000 93 10000 3.6 180 15:20 16.12.2019
6045 Clouds 8 1000 93 10000 4.6 180 14:57 16.12.2019
6046 Clouds 8 1000 93 10000 4.6 180 14:37 16.12.2019
6047 Clouds 8 1000 93 10000 4.6 180 14:19 16.12.2019
6048 Clouds 8 1000 93 10000 4.6 180 14:19 16.12.2019
6049 Clouds 8 1000 93 10000 4.6 180 13:56 16.12.2019
6050 Clouds 8 1000 93 10000 4.6 180 13:56 16.12.2019
6051 Clouds 8 1001 81 10000 2.6 210 13:37 16.12.2019
6052 Clouds 8 1001 81 10000 3.1 210 13:19 16.12.2019
6053 Clouds 8 1001 81 10000 3.6 230 12:57 16.12.2019
6054 Clouds 8 1001 81 10000 3.6 230 12:39 16.12.2019
6055 Clouds 8 1001 87 10000 3.1 200 12:19 16.12.2019
6056 Clouds 7 1002 93 10000 4.6 190 11:58 16.12.2019
6057 Clouds 7 1002 93 10000 4.6 190 11:40 16.12.2019
6058 Clouds 7 1002 93 10000 4.6 190 11:20 16.12.2019
6059 Clouds 7 1001 81 10000 3.6 240 10:56 16.12.2019
6060 Clouds 6 1001 93 10000 4.6 190 10:38 16.12.2019
6061 Clouds 6 1001 93 10000 4.6 190 10:19 16.12.2019
6062 Clouds 6 1001 93 10000 4.6 190 09:45 16.12.2019
6063 Clouds 6 1000 93 10000 5.7 180 09:27 16.12.2019
6064 Clouds 6 999 93 10000 3.6 210 08:55 16.12.2019
6065 Clouds 6 999 93 10000 3.6 210 08:37 16.12.2019
6066 Rain 6 1000 87 10000 7.2 210 08:18 16.12.2019
6067 Clouds 6 1000 93 10000 7.2 200 07:42 16.12.2019
6068 Rain 6 999 93 10000 3.6 220 07:21 16.12.2019
6069 Rain 6 999 93 10000 3.6 200 06:45 16.12.2019
6070 Rain 6 999 93 10000 3.1 210 06:22 16.12.2019
6071 Rain 6 999 93 10000 3.1 200 05:49 16.12.2019
6072 Rain 6 999 93 10000 3.1 200 05:30 16.12.2019
6073 Rain 6 999 93 10000 4.1 190 04:21 16.12.2019
6074 Rain 6 999 87 10000 5.7 210 01:59 16.12.2019
6075 Rain 6 1000 87 10000 4.6 220 01:40 16.12.2019
6076 Rain 6 999 76 10000 6.7 200 00:42 16.12.2019
6077 Clouds 7 999 76 10000 6.2 210 00:24 16.12.2019
6078 Thunderstorm 7 998 87 7000 5.1 200 23:58 15.12.2019
6079 Thunderstorm 7 998 87 7000 5.1 200 23:38 15.12.2019
6080 Rain 7 999 76 10000 5.7 200 23:20 15.12.2019
6081 Rain 7 999 76 10000 6.2 200 22:56 15.12.2019
6082 Rain 7 998 87 10000 4.1 200 22:37 15.12.2019
6083 Clouds 7 999 87 10000 8.7 200 22:18 15.12.2019
6084 Clouds 7 999 87 10000 8.7 200 22:18 15.12.2019
6085 Clouds 7 999 87 10000 8.7 200 21:56 15.12.2019
6086 Rain 7 999 93 6000 4.1 230 21:56 15.12.2019
6087 Rain 7 999 93 6000 4.1 230 21:37 15.12.2019
6088 Rain 7 999 93 6000 4.1 230 21:37 15.12.2019
6089 Rain 7 999 81 10000 8.7 200 21:19 15.12.2019
6090 Rain 7 999 87 10000 9.3 190 20:56 15.12.2019
6091 Rain 7 999 87 10000 9.3 190 20:37 15.12.2019
6092 Rain 7 999 87 10000 7.7 190 20:18 15.12.2019
6093 Clouds 7 999 87 10000 7.7 190 19:57 15.12.2019
6094 Clouds 7 999 87 10000 7.7 190 19:57 15.12.2019
6095 Clouds 7 999 87 10000 8.2 200 19:38 15.12.2019
6096 Clouds 7 999 81 10000 7.7 200 19:18 15.12.2019
6097 Clouds 7 999 81 10000 7.7 200 19:18 15.12.2019
6098 Clouds 7 999 81 10000 9.3 200 18:56 15.12.2019
6099 Clouds 7 999 81 10000 9.3 200 18:56 15.12.2019
6100 Clouds 7 999 81 10000 9.3 200 18:38 15.12.2019
6101 Clouds 7 999 75 10000 8.7 210 18:18 15.12.2019
6102 Clouds 8 999 75 10000 7.7 200 17:56 15.12.2019
6103 Clouds 8 998 66 10000 5.7 210 17:37 15.12.2019
6104 Clouds 8 999 75 10000 6.2 220 17:18 15.12.2019
6105 Clouds 8 998 75 10000 6.2 220 16:56 15.12.2019
6106 Clouds 8 998 75 10000 6.2 220 16:38 15.12.2019
6107 Clouds 8 998 61 10000 6.7 230 16:20 15.12.2019
6108 Clouds 9 997 61 10000 7.2 240 15:55 15.12.2019
6109 Clouds 9 997 61 10000 7.2 240 15:55 15.12.2019
6110 Clouds 9 997 61 10000 7.2 240 15:36 15.12.2019
6111 Clouds 9 998 75 10000 7.2 220 15:18 15.12.2019
6112 Clouds 9 997 70 10000 5.7 220 14:55 15.12.2019
6113 Clouds 9 997 70 10000 5.7 220 14:36 15.12.2019
6114 Clouds 9 997 66 10000 6.7 240 14:18 15.12.2019
6115 Clouds 9 997 66 10000 6.7 240 14:18 15.12.2019
6116 Clouds 9 997 66 10000 7.2 230 13:55 15.12.2019
6117 Clouds 9 997 66 10000 7.2 230 13:36 15.12.2019
6118 Clouds 9 997 66 10000 7.2 240 13:18 15.12.2019
6119 Clouds 8 997 70 10000 4.6 230 12:55 15.12.2019
6120 Clouds 8 997 70 10000 4.6 230 12:37 15.12.2019
6121 Clouds 8 997 70 10000 4.6 230 12:37 15.12.2019
6122 Clouds 8 996 70 10000 4.1 230 12:19 15.12.2019
6123 Clouds 7 996 70 10000 4.6 230 11:38 15.12.2019
6124 Clouds 7 996 75 10000 3.6 220 11:20 15.12.2019
6125 Clouds 7 996 70 10000 4.6 230 10:58 15.12.2019
6126 Clouds 7 996 70 10000 4.6 230 10:40 15.12.2019
6127 Clouds 6 995 75 10000 4.1 220 10:20 15.12.2019
6128 Clouds 6 995 70 10000 3.6 230 09:59 15.12.2019
6129 Clouds 6 995 70 10000 3.6 230 09:38 15.12.2019
6130 Clouds 5 994 70 10000 4.6 230 09:20 15.12.2019
6131 Clouds 5 994 70 10000 5.1 250 08:55 15.12.2019
6132 Clouds 5 993 75 10000 5.7 230 08:37 15.12.2019
6133 Rain 5 993 75 10000 5.7 240 08:19 15.12.2019
6134 Clouds 5 993 70 10000 6.2 240 07:53 15.12.2019
6135 Clouds 5 993 70 10000 6.2 240 07:31 15.12.2019
6136 Rain 5 991 75 10000 6.2 250 06:30 15.12.2019
6137 Rain 5 991 75 10000 8.2 240 05:49 15.12.2019
6138 Clouds 5 990 75 10000 7.7 250 05:22 15.12.2019
6139 Rain 6 989 87 10000 8.2 250 04:24 15.12.2019
6140 Rain 6 988 93 10000 6.7 230 02:59 15.12.2019
6141 Rain 6 988 93 10000 5.7 230 02:32 15.12.2019
6142 Rain 7 988 87 10000 7.2 240 01:42 15.12.2019
6143 Rain 7 988 87 3200 4.6 260 01:20 15.12.2019
6144 Rain 7 988 87 10000 3.6 240 00:51 15.12.2019
6145 Rain 7 987 87 5000 4.6 230 00:33 15.12.2019
6146 Thunderstorm 8 989 93 3000 8.2 260 23:56 14.12.2019
6147 Thunderstorm 8 989 93 3000 8.2 260 23:38 14.12.2019
6148 Rain 8 989 71 10000 5.7 200 23:18 14.12.2019
6149 Clouds 8 990 66 10000 4.6 190 22:56 14.12.2019
6150 Clouds 8 989 75 10000 10.3 180 22:37 14.12.2019
6151 Clouds 8 990 70 10000 4.6 190 22:19 14.12.2019
6152 Clouds 8 991 70 10000 5.7 190 21:55 14.12.2019
6153 Clouds 7 991 70 10000 5.7 190 21:37 14.12.2019
6154 Clouds 7 991 70 10000 5.7 190 21:37 14.12.2019
6155 Clouds 7 992 65 10000 3.6 190 21:18 14.12.2019
6156 Clouds 6 993 65 10000 2.6 190 20:43 14.12.2019
6157 Clouds 5 993 65 10000 4.1 200 20:21 14.12.2019
6158 Clouds 5 993 65 10000 4.1 200 19:59 14.12.2019
6159 Clouds 5 994 57 10000 5.7 190 19:40 14.12.2019
6160 Clouds 5 994 57 10000 6.2 200 19:21 14.12.2019
6161 Clouds 5 994 57 10000 6.2 200 19:21 14.12.2019
6162 Clouds 5 995 57 10000 5.1 210 18:57 14.12.2019
6163 Clouds 5 995 57 10000 5.1 210 18:39 14.12.2019
6164 Clouds 5 995 65 10000 5.7 220 18:21 14.12.2019
6165 Clouds 6 995 57 10000 5.1 220 17:59 14.12.2019
6166 Clouds 6 995 57 10000 5.1 220 17:41 14.12.2019
6167 Clouds 6 995 46 10000 5.7 240 17:22 14.12.2019
6168 Clouds 6 994 70 10000 6.2 230 16:41 14.12.2019
6169 Clouds 7 993 52 10000 9.3 260 16:19 14.12.2019
6170 Clouds 7 993 52 10000 9.8 260 15:57 14.12.2019
6171 Clouds 7 993 52 10000 9.8 260 15:38 14.12.2019
6172 Clouds 7 993 52 10000 10.8 260 15:19 14.12.2019
6173 Clear 7 992 52 10000 11.3 270 14:57 14.12.2019
6174 Clear 7 992 52 10000 11.3 270 14:38 14.12.2019
6175 Clouds 7 992 54 10000 8.2 270 14:18 14.12.2019
6176 Clouds 7 992 54 10000 8.2 270 14:18 14.12.2019
6177 Clouds 7 991 54 10000 11.8 280 13:44 14.12.2019
6178 Clouds 7 990 61 10000 11.3 250 13:20 14.12.2019
6179 Clouds 7 990 70 10000 9.8 280 12:58 14.12.2019
6180 Clouds 7 989 61 10000 12.9 270 12:40 14.12.2019
6181 Clouds 7 989 61 10000 12.9 270 12:40 14.12.2019
6182 Clouds 7 989 66 10000 11.3 250 12:20 14.12.2019
6183 Rain 7 989 70 10000 4.6 220 11:58 14.12.2019
6184 Rain 7 989 70 10000 4.6 220 11:58 14.12.2019
6185 Rain 7 989 70 10000 4.6 220 11:39 14.12.2019
6186 Rain 6 989 70 10000 5.7 240 11:19 14.12.2019
6187 Clouds 6 989 75 10000 6.7 240 10:57 14.12.2019
6188 Clouds 6 989 75 10000 6.7 240 10:39 14.12.2019
6189 Clouds 6 990 70 10000 6.2 240 10:20 14.12.2019
6190 Clouds 5 988 80 10000 6.2 220 09:55 14.12.2019
6191 Clouds 5 989 70 10000 5.1 240 09:37 14.12.2019
6192 Clouds 5 989 70 10000 5.1 240 09:18 14.12.2019
6193 Clouds 4 989 70 10000 5.7 240 08:42 14.12.2019
6194 Clouds 4 989 70 10000 5.7 240 08:42 14.12.2019
6195 Rain 4 988 61 10000 8.2 250 08:19 14.12.2019
6196 Rain 5 988 70 10000 9.8 260 07:44 14.12.2019
6197 Clouds 5 988 75 10000 8.2 260 07:23 14.12.2019
6198 Rain 5 987 81 10000 8.2 250 06:56 14.12.2019
6199 Rain 5 987 81 10000 8.2 250 06:37 14.12.2019
6200 Rain 5 985 87 10000 7.7 250 05:59 14.12.2019
6201 Clouds 5 984 87 10000 8.7 250 04:48 14.12.2019
6202 Clouds 5 983 93 10000 5.7 260 02:35 14.12.2019
6203 Rain 5 982 93 7000 4.1 300 01:56 14.12.2019
6204 Rain 5 982 93 7000 4.1 300 01:37 14.12.2019
6205 Drizzle 5 980 93 2900 1 0 00:49 14.12.2019
6206 Rain 5 980 93 8000 1 0 00:28 14.12.2019
6207 Rain 5 981 93 8000 1.5 0 23:57 13.12.2019
6208 Rain 5 981 93 8000 1.5 0 23:37 13.12.2019
6209 Rain 5 981 93 10000 2.6 210 23:18 13.12.2019
6210 Drizzle 6 982 93 3000 4.6 220 22:41 13.12.2019
6211 Rain 6 982 75 10000 6.2 220 22:19 13.12.2019
6212 Clouds 6 982 70 10000 8.7 220 21:56 13.12.2019
6213 Clouds 6 982 70 10000 8.7 220 21:38 13.12.2019
6214 Clouds 6 982 75 10000 7.7 220 21:20 13.12.2019
6215 Clouds 6 983 75 10000 6.7 230 20:54 13.12.2019
6216 Clouds 6 983 75 10000 6.7 230 20:36 13.12.2019
6217 Clouds 6 984 70 10000 6.7 240 20:18 13.12.2019
6218 Clouds 6 984 70 10000 6.7 240 19:41 13.12.2019
6219 Clouds 6 984 75 10000 6.7 240 19:23 13.12.2019
6220 Clouds 6 984 75 10000 5.1 230 18:59 13.12.2019
6221 Clouds 6 984 70 10000 6.7 250 18:41 13.12.2019
6222 Clouds 6 984 70 10000 6.7 250 18:19 13.12.2019
6223 Clouds 6 985 70 10000 6.2 250 17:57 13.12.2019
6224 Clouds 7 984 70 10000 5.1 250 17:39 13.12.2019
6225 Clouds 7 984 70 10000 5.1 250 17:18 13.12.2019
6226 Clouds 7 984 70 10000 5.1 250 17:18 13.12.2019
6227 Clouds 7 984 65 10000 6.7 260 16:55 13.12.2019
6228 Clouds 7 984 65 10000 7.2 260 16:36 13.12.2019
6229 Clouds 8 983 65 10000 7.2 270 16:18 13.12.2019
6230 Clouds 8 983 65 10000 7.2 270 15:41 13.12.2019
6231 Clouds 8 983 65 10000 6.7 270 15:21 13.12.2019
6232 Clouds 8 983 65 10000 7.7 260 14:56 13.12.2019
6233 Clouds 8 983 65 10000 7.7 260 14:36 13.12.2019
6234 Clouds 8 983 65 10000 7.7 260 14:18 13.12.2019
6235 Clouds 8 982 70 10000 7.7 280 13:43 13.12.2019
6236 Clouds 8 982 65 10000 8.2 280 13:24 13.12.2019
6237 Clouds 8 981 70 10000 8.2 260 12:55 13.12.2019
6238 Clouds 8 981 70 10000 8.2 270 12:37 13.12.2019
6239 Clouds 7 980 70 10000 8.2 260 12:18 13.12.2019
6240 Clouds 7 980 70 10000 8.7 260 11:43 13.12.2019
6241 Clouds 7 980 81 10000 6.7 280 11:25 13.12.2019
6242 Clouds 7 979 81 10000 8.2 280 10:56 13.12.2019
6243 Clouds 6 979 81 10000 7.7 280 10:38 13.12.2019
6244 Clouds 6 979 81 10000 7.7 280 10:20 13.12.2019
6245 Rain 6 977 86 10000 7.2 280 09:42 13.12.2019
6246 Rain 6 977 86 10000 7.2 280 09:21 13.12.2019
6247 Rain 6 975 86 10000 8.2 280 08:45 13.12.2019
6248 Rain 6 975 86 10000 8.2 280 08:27 13.12.2019
6249 Rain 6 974 81 10000 8.2 290 07:50 13.12.2019
6250 Rain 6 974 75 10000 7.7 290 07:26 13.12.2019
6251 Rain 6 973 87 10000 7.7 280 06:57 13.12.2019
6252 Rain 6 972 87 10000 10.3 280 06:32 13.12.2019
6253 Clouds 6 973 87 10000 7.2 280 05:52 13.12.2019
6254 Rain 6 972 81 10000 8.2 290 05:33 13.12.2019
6255 Clouds 6 972 87 10000 7.7 280 04:54 13.12.2019
6256 Rain 6 971 87 10000 6.7 290 03:52 13.12.2019
6257 Rain 7 970 93 10000 4.1 250 02:35 13.12.2019
6258 Rain 7 971 93 6000 3.1 210 01:54 13.12.2019
6259 Rain 7 972 93 8000 3.6 210 01:34 13.12.2019
6260 Rain 7 973 87 10000 3.1 210 00:50 13.12.2019
6261 Rain 7 974 87 10000 2.6 210 00:28 13.12.2019
6262 Clouds 7 974 100 10000 5.7 210 23:43 12.12.2019
6263 Clouds 7 975 93 10000 5.1 210 23:25 12.12.2019
6264 Clouds 7 976 93 10000 5.7 220 22:57 12.12.2019
6265 Clouds 7 976 93 10000 5.7 230 22:39 12.12.2019
6266 Clouds 7 976 93 10000 5.7 230 22:21 12.12.2019
6267 Clouds 7 977 93 10000 6.2 240 21:56 12.12.2019
6268 Clouds 7 977 93 10000 6.2 250 21:37 12.12.2019
6269 Clouds 8 977 93 10000 6.2 250 21:19 12.12.2019
6270 Clouds 8 977 93 10000 6.7 260 20:59 12.12.2019
6271 Rain 8 977 100 10000 6.2 260 20:40 12.12.2019
6272 Rain 8 977 100 10000 6.2 260 20:22 12.12.2019
6273 Drizzle 8 977 100 8000 5.1 240 19:56 12.12.2019
6274 Rain 8 977 100 9000 4.1 260 19:37 12.12.2019
6275 Rain 8 977 100 9000 4.1 260 19:18 12.12.2019
6276 Rain 8 978 100 9000 8.2 160 18:56 12.12.2019
6277 Drizzle 8 979 93 8000 8.2 170 18:38 12.12.2019
6278 Drizzle 8 979 93 8000 8.2 170 18:19 12.12.2019
6279 Drizzle 8 980 93 6000 9.8 180 17:57 12.12.2019
6280 Drizzle 8 981 93 6000 10.8 180 17:38 12.12.2019
6281 Drizzle 8 981 93 6000 10.8 180 17:19 12.12.2019
6282 Rain 8 982 93 7000 4.6 170 16:55 12.12.2019
6283 Drizzle 8 982 100 7000 9.3 180 16:36 12.12.2019
6284 Drizzle 8 982 100 7000 9.3 180 16:18 12.12.2019
6285 Drizzle 8 983 93 6000 9.3 170 15:54 12.12.2019
6286 Rain 8 984 93 8000 5.1 170 15:36 12.12.2019
6287 Rain 8 984 93 8000 5.1 170 15:18 12.12.2019
6288 Drizzle 8 986 87 4000 5.7 180 14:38 12.12.2019
6289 Drizzle 8 986 87 4000 5.7 180 14:19 12.12.2019
6290 Rain 8 987 87 6000 6.2 170 13:57 12.12.2019
6291 Drizzle 8 988 93 4200 6.2 160 13:38 12.12.2019
6292 Drizzle 8 988 93 4200 6.2 160 13:20 12.12.2019
6293 Rain 7 990 87 10000 5.7 150 12:57 12.12.2019
6294 Rain 7 991 81 10000 5.1 160 12:38 12.12.2019
6295 Rain 7 991 81 10000 5.1 160 12:38 12.12.2019
6296 Rain 7 991 81 10000 5.1 160 12:19 12.12.2019
6297 Rain 6 992 87 10000 4.6 160 11:55 12.12.2019
6298 Rain 6 993 87 10000 4.1 140 11:37 12.12.2019
6299 Rain 6 993 87 10000 4.1 140 11:19 12.12.2019
6300 Clouds 5 994 87 10000 4.1 150 10:54 12.12.2019
6301 Clouds 5 995 81 10000 3.6 160 10:36 12.12.2019
6302 Clouds 4 995 81 10000 3.6 160 10:18 12.12.2019
6303 Rain 4 996 81 10000 4.1 160 09:41 12.12.2019
6304 Rain 3 997 80 10000 3.6 170 09:23 12.12.2019
6305 Clouds 3 998 80 10000 3.1 170 08:56 12.12.2019
6306 Clouds 2 998 93 10000 5.1 180 08:38 12.12.2019
6307 Clouds 2 998 93 10000 5.1 180 08:20 12.12.2019
6308 Clouds 2 999 93 10000 3.6 180 07:43 12.12.2019
6309 Clouds 2 999 86 10000 2.6 230 07:24 12.12.2019
6310 Clouds 1 1000 86 10000 2.1 230 06:50 12.12.2019
6311 Clouds 1 1000 86 10000 2.6 240 06:32 12.12.2019
6312 Clouds 1 1001 74 10000 1.5 170 05:39 12.12.2019
6313 Clear 1 1002 100 10000 3.1 220 04:52 12.12.2019
6314 Rain 1 1003 86 10000 3.6 250 03:31 12.12.2019
6315 Clear 1 1003 72 10000 2.1 250 02:38 12.12.2019
6316 Clouds 1 1003 73 10000 2.1 250 02:20 12.12.2019
6317 Clouds 1 1003 93 10000 2.6 260 01:40 12.12.2019
6318 Clouds 1 1003 93 10000 2.6 260 01:22 12.12.2019
6319 Clouds 1 1003 93 10000 3.1 260 00:46 12.12.2019
6320 Clouds 2 1003 93 10000 2.6 260 00:20 12.12.2019
6321 Clouds 2 1003 93 10000 3.6 260 23:44 11.12.2019
6322 Clouds 2 1003 93 10000 3.6 250 23:21 11.12.2019
6323 Clouds 2 1003 93 10000 4.1 250 22:57 11.12.2019
6324 Clouds 2 1003 93 10000 3.1 260 22:39 11.12.2019
6325 Clouds 3 1003 93 10000 3.1 260 22:20 11.12.2019
6326 Clouds 3 1002 93 10000 4.1 260 21:57 11.12.2019
6327 Clouds 3 1002 93 10000 3.6 260 21:38 11.12.2019
6328 Clouds 3 1002 93 10000 3.6 260 21:20 11.12.2019
6329 Clouds 3 1002 93 10000 3.6 260 20:56 11.12.2019
6330 Clouds 4 1002 93 10000 3.1 240 20:38 11.12.2019
6331 Rain 4 1002 93 10000 3.1 240 20:19 11.12.2019
6332 Rain 4 1001 93 10000 3.1 240 19:58 11.12.2019
6333 Clouds 4 1001 93 10000 4.1 230 19:39 11.12.2019
6334 Clouds 4 1001 93 10000 4.1 230 19:19 11.12.2019
6335 Clouds 5 1001 81 10000 4.6 260 18:55 11.12.2019
6336 Clouds 5 1001 93 10000 4.1 220 18:36 11.12.2019
6337 Clouds 5 1001 81 10000 4.6 240 18:18 11.12.2019
6338 Clouds 5 1001 86 10000 4.1 220 17:54 11.12.2019
6339 Rain 6 1001 86 10000 4.6 210 17:36 11.12.2019
6340 Rain 6 1001 86 10000 4.6 210 17:18 11.12.2019
6341 Clouds 6 1001 93 10000 7.2 190 16:55 11.12.2019
6342 Rain 6 1001 93 10000 5.1 180 16:36 11.12.2019
6343 Rain 6 1001 93 10000 6.2 180 16:18 11.12.2019
6344 Rain 7 1001 75 10000 5.1 210 15:41 11.12.2019
6345 Rain 7 1002 87 10000 6.2 200 15:23 11.12.2019
6346 Clouds 7 1002 87 10000 6.2 200 14:57 11.12.2019
6347 Clouds 7 1003 70 10000 5.1 220 14:39 11.12.2019
6348 Clouds 7 1003 70 10000 5.1 220 14:20 11.12.2019
6349 Rain 7 1003 87 10000 5.1 210 13:56 11.12.2019
6350 Clouds 7 1004 70 10000 4.6 210 13:38 11.12.2019
6351 Clouds 7 1004 70 10000 4.6 210 13:19 11.12.2019
6352 Clouds 7 1004 70 10000 4.1 210 12:57 11.12.2019
6353 Clouds 7 1005 75 10000 3.6 230 12:38 11.12.2019
6354 Clouds 7 1005 75 10000 3.6 230 12:19 11.12.2019
6355 Clouds 6 1006 75 10000 3.6 230 11:57 11.12.2019
6356 Clouds 6 1006 75 10000 3.1 0 11:38 11.12.2019
6357 Clouds 6 1006 75 10000 3.1 0 11:38 11.12.2019
6358 Clear 5 1006 81 10000 2.1 240 11:18 11.12.2019
6359 Clear 5 1006 81 10000 2.1 240 11:18 11.12.2019
6360 Clear 4 1006 81 10000 3.1 230 10:55 11.12.2019
6361 Clear 4 1006 81 10000 3.1 230 10:37 11.12.2019
6362 Clear 3 1006 93 10000 5.1 210 10:19 11.12.2019
6363 Clear 3 1007 86 10000 2.6 230 09:40 11.12.2019
6364 Clear 3 1007 86 10000 2.6 230 09:21 11.12.2019
6365 Clear 3 1007 93 10000 5.1 200 08:58 11.12.2019
6366 Clear 3 1007 93 10000 4.1 200 08:38 11.12.2019
6367 Clouds 3 1007 86 10000 4.1 210 08:19 11.12.2019
6368 Clouds 3 1007 86 10000 4.1 210 07:56 11.12.2019
6369 Clouds 3 1007 93 10000 1 150 07:38 11.12.2019
6370 Clouds 3 1007 93 10000 1 150 07:19 11.12.2019
6371 Clouds 3 1008 93 10000 3.6 220 06:44 11.12.2019
6372 Clouds 3 1008 81 10000 5.1 240 06:22 11.12.2019
6373 Clouds 4 1008 86 10000 3.6 220 05:45 11.12.2019
6374 Clouds 4 1008 93 10000 3.6 210 05:21 11.12.2019
6375 Clouds 4 1008 93 10000 3.6 220 04:38 11.12.2019
6376 Clouds 6 1009 93 10000 3.6 220 02:49 11.12.2019
6377 Rain 7 1008 87 10000 3.6 250 01:26 11.12.2019
6378 Rain 7 1007 81 10000 6.2 250 00:49 11.12.2019
6379 Rain 8 1007 87 10000 5.1 260 00:23 11.12.2019
6380 Rain 8 1006 87 10000 4.6 250 23:59 10.12.2019
6381 Rain 8 1006 87 10000 5.7 260 23:40 10.12.2019
6382 Rain 8 1006 81 10000 6.7 260 23:21 10.12.2019
6383 Rain 9 1006 87 10000 7.7 260 22:41 10.12.2019
6384 Rain 9 1005 87 8000 8.2 260 22:22 10.12.2019
6385 Rain 10 1004 87 10000 11.3 280 21:58 10.12.2019
6386 Rain 10 1004 87 10000 8.7 270 21:39 10.12.2019
6387 Rain 10 1004 87 10000 8.7 270 21:21 10.12.2019
6388 Rain 11 1003 87 7000 8.2 210 20:58 10.12.2019
6389 Rain 11 1004 87 6000 8.7 200 20:38 10.12.2019
6390 Rain 11 1004 87 6000 8.7 200 20:19 10.12.2019
6391 Rain 11 1004 87 6000 8.7 200 20:19 10.12.2019
6392 Rain 11 1004 87 6000 8.7 200 20:19 10.12.2019
6393 Rain 11 1004 87 6000 8.7 200 20:19 10.12.2019
6394 Clouds 11 1005 87 7000 9.3 200 19:56 10.12.2019
6395 Rain 11 1005 87 6000 9.8 200 19:38 10.12.2019
6396 Rain 11 1005 87 6000 9.8 200 19:20 10.12.2019
6397 Drizzle 10 1006 100 3000 14.4 200 18:55 10.12.2019
6398 Clouds 10 1006 87 10000 8.7 210 18:36 10.12.2019
6399 Clouds 10 1006 87 10000 8.7 210 18:36 10.12.2019
6400 Clouds 10 1006 87 10000 8.7 210 18:18 10.12.2019
6401 Haze 10 1008 81 5000 9.8 210 17:42 10.12.2019
6402 Haze 10 1008 81 5000 9.8 210 17:23 10.12.2019
6403 Clouds 10 1008 81 10000 7.7 200 16:58 10.12.2019
6404 Clouds 10 1009 81 10000 8.2 210 16:39 10.12.2019
6405 Clouds 9 1010 87 8000 8.2 200 16:19 10.12.2019
6406 Clouds 9 1010 87 9000 9.8 210 15:39 10.12.2019
6407 Clouds 9 1010 87 9000 9.8 210 15:19 10.12.2019
6408 Clouds 9 1011 87 10000 8.2 200 14:57 10.12.2019
6409 Rain 9 1012 81 4900 8.2 210 14:38 10.12.2019
6410 Rain 9 1013 81 10000 8.2 210 14:20 10.12.2019
6411 Rain 9 1013 81 10000 8.2 210 13:58 10.12.2019
6412 Rain 9 1012 93 4000 6.7 200 13:40 10.12.2019
6413 Rain 9 1015 81 10000 8.2 200 13:20 10.12.2019
6414 Rain 9 1015 81 10000 8.2 200 12:55 10.12.2019
6415 Rain 9 1015 76 10000 7.7 200 12:36 10.12.2019
6416 Rain 9 1015 76 10000 7.7 200 12:18 10.12.2019
6417 Clouds 9 1017 76 10000 7.2 210 11:40 10.12.2019
6418 Clouds 9 1017 76 10000 7.2 210 11:22 10.12.2019
6419 Clouds 8 1018 76 10000 6.2 210 10:55 10.12.2019
6420 Clouds 8 1018 76 10000 5.7 200 10:36 10.12.2019
6421 Clouds 8 1018 76 10000 5.7 200 10:18 10.12.2019
6422 Clouds 7 1019 76 10000 5.7 210 09:54 10.12.2019
6423 Clouds 7 1019 75 10000 3.1 190 09:36 10.12.2019
6424 Clouds 7 1019 75 10000 3.1 190 09:18 10.12.2019
6425 Clouds 5 1020 75 10000 3.6 170 08:41 10.12.2019
6426 Clouds 4 1020 75 10000 3.6 170 08:22 10.12.2019
6427 Clouds 4 1020 75 10000 3.6 170 08:22 10.12.2019
6428 Clouds 4 1021 81 10000 3.1 170 07:57 10.12.2019
6429 Clouds 3 1022 81 10000 2.1 0 07:39 10.12.2019
6430 Clouds 3 1022 81 10000 2.1 0 07:21 10.12.2019
6431 Clouds 2 1022 80 10000 4.1 210 06:46 10.12.2019
6432 Clouds 2 1023 75 10000 2.6 200 06:19 10.12.2019
6433 Clouds 2 1023 80 10000 3.1 210 05:52 10.12.2019
6434 Clouds 0 1024 86 10000 1.5 0 04:51 10.12.2019
6435 Clouds 0 1024 92 10000 1 170 03:36 10.12.2019
6436 Clouds 0 1024 93 10000 2.1 190 02:44 10.12.2019
6437 Clear 0 1025 93 10000 1.5 230 01:44 10.12.2019
6438 Clear 1 1024 75 10000 1.5 150 01:20 10.12.2019
6439 Clear 1 1025 93 10000 1.5 0 00:41 10.12.2019
6440 Clear 1 1025 75 10000 0.5 300 00:21 10.12.2019
6441 Clear 1 1025 75 10000 2.6 240 23:41 09.12.2019
6442 Clear 1 1024 64 10000 2.6 220 23:23 09.12.2019
6443 Clear 2 1024 64 10000 2.1 250 22:58 09.12.2019
6444 Clear 2 1024 64 10000 3.1 250 22:40 09.12.2019
6445 Clear 2 1024 64 10000 3.1 250 22:20 09.12.2019
6446 Clear 2 1024 64 10000 2.6 250 21:57 09.12.2019
6447 Clear 3 1024 74 10000 2.6 270 21:38 09.12.2019
6448 Clear 3 1024 74 10000 2.6 270 21:19 09.12.2019
6449 Clear 3 1023 74 10000 2.6 270 20:56 09.12.2019
6450 Clear 3 1023 65 10000 3.6 300 20:38 09.12.2019
6451 Clear 4 1023 65 10000 3.6 300 20:20 09.12.2019
6452 Clear 4 1022 65 10000 3.6 300 19:56 09.12.2019
6453 Clear 4 1021 56 10000 3.6 310 19:37 09.12.2019
6454 Clear 5 1021 56 10000 3.6 310 19:19 09.12.2019
6455 Clear 5 1021 56 10000 3.6 310 19:19 09.12.2019
6456 Clear 5 1021 56 10000 3.1 280 18:56 09.12.2019
6457 Clear 5 1020 56 10000 4.6 310 18:38 09.12.2019
6458 Clear 6 1020 56 10000 4.6 310 18:19 09.12.2019
6459 Clear 6 1019 60 10000 6.2 320 17:58 09.12.2019
6460 Clouds 6 1018 56 10000 7.2 310 17:39 09.12.2019
6461 Clouds 7 1018 52 10000 7.2 310 17:20 09.12.2019
6462 Clear 7 1018 52 10000 6.2 300 16:56 09.12.2019
6463 Clouds 8 1017 57 10000 6.7 300 16:37 09.12.2019
6464 Clouds 8 1017 57 10000 6.7 300 16:19 09.12.2019
6465 Clouds 8 1016 52 10000 6.2 330 15:55 09.12.2019
6466 Clouds 8 1015 52 10000 10.3 320 15:37 09.12.2019
6467 Clear 9 1015 52 10000 7.7 300 15:19 09.12.2019
6468 Clear 9 1014 52 10000 7.2 300 14:57 09.12.2019
6469 Clear 9 1013 52 10000 8.2 310 14:39 09.12.2019
6470 Clouds 9 1013 54 10000 8.2 310 14:18 09.12.2019
6471 Clouds 9 1012 54 10000 7.2 300 13:40 09.12.2019
6472 Clouds 9 1012 54 10000 7.2 300 13:40 09.12.2019
6473 Clouds 9 1011 54 10000 8.7 300 13:20 09.12.2019
6474 Clouds 9 1010 53 10000 8.7 300 12:58 09.12.2019
6475 Clouds 9 1009 61 10000 9.3 300 12:40 09.12.2019
6476 Clouds 9 1009 61 10000 9.3 300 12:21 09.12.2019
6477 Clouds 8 1008 61 10000 9.3 300 11:59 09.12.2019
6478 Clouds 8 1007 66 10000 7.7 300 11:40 09.12.2019
6479 Clouds 8 1007 66 10000 7.7 300 11:21 09.12.2019
6480 Clouds 8 1006 66 10000 7.7 300 10:57 09.12.2019
6481 Clouds 8 1004 66 10000 9.3 300 10:38 09.12.2019
6482 Clouds 8 1003 70 10000 8.7 310 10:19 09.12.2019
6483 Clouds 8 1003 70 10000 8.7 310 10:19 09.12.2019
6484 Clouds 8 1003 70 10000 8.7 310 09:44 09.12.2019
6485 Clouds 8 1002 70 10000 8.7 300 09:24 09.12.2019
6486 Clouds 8 1000 76 10000 7.2 300 08:57 09.12.2019
6487 Clouds 8 999 76 10000 7.7 290 08:39 09.12.2019
6488 Rain 8 997 76 10000 6.2 300 08:20 09.12.2019
6489 Rain 8 997 76 10000 6.2 300 07:49 09.12.2019
6490 Clouds 8 996 76 10000 7.2 300 07:30 09.12.2019
6491 Rain 8 995 87 10000 6.2 280 06:58 09.12.2019
6492 Rain 8 994 87 10000 5.1 260 06:31 09.12.2019
6493 Rain 7 993 81 10000 5.7 250 05:48 09.12.2019
6494 Rain 7 992 81 10000 5.1 250 05:23 09.12.2019
6495 Clouds 7 992 75 10000 7.2 260 04:28 09.12.2019
6496 Rain 7 990 87 10000 5.7 240 02:35 09.12.2019
6497 Rain 7 991 81 7000 5.1 230 01:47 09.12.2019
6498 Rain 7 992 70 10000 4.6 230 00:59 09.12.2019
6499 Rain 7 993 70 10000 6.2 230 00:34 09.12.2019
6500 Rain 7 993 70 10000 6.2 230 00:34 09.12.2019
6501 Rain 6 994 70 10000 6.7 240 23:58 08.12.2019
6502 Rain 6 994 70 10000 7.2 240 23:37 08.12.2019
6503 Clouds 6 994 70 10000 7.2 240 23:19 08.12.2019
6504 Clouds 6 995 80 10000 8.2 220 22:56 08.12.2019
6505 Clouds 6 996 75 10000 7.2 220 22:38 08.12.2019
6506 Clouds 6 996 75 10000 7.2 220 22:18 08.12.2019
6507 Clouds 6 996 75 10000 6.7 220 21:57 08.12.2019
6508 Clouds 6 997 75 10000 6.7 230 21:38 08.12.2019
6509 Clouds 6 996 70 10000 7.2 240 21:19 08.12.2019
6510 Clouds 7 997 70 10000 7.7 240 20:56 08.12.2019
6511 Clouds 7 997 70 10000 7.7 240 20:38 08.12.2019
6512 Clouds 6 997 75 10000 7.2 230 20:19 08.12.2019
6513 Clouds 6 998 75 10000 7.7 220 19:56 08.12.2019
6514 Clouds 6 998 75 10000 6.2 220 19:38 08.12.2019
6515 Clouds 6 997 70 10000 6.7 240 19:20 08.12.2019
6516 Clouds 6 998 70 10000 7.2 240 18:55 08.12.2019
6517 Clouds 7 998 70 10000 7.2 250 18:36 08.12.2019
6518 Clouds 7 998 70 10000 7.2 250 18:18 08.12.2019
6519 Clouds 7 998 75 10000 6.7 240 17:56 08.12.2019
6520 Clouds 7 999 75 10000 7.2 240 17:37 08.12.2019
6521 Rain 7 999 75 10000 7.2 240 17:19 08.12.2019
6522 Rain 7 999 70 10000 6.2 240 16:55 08.12.2019
6523 Rain 8 998 66 10000 8.7 250 16:37 08.12.2019
6524 Rain 8 998 66 10000 8.7 250 16:18 08.12.2019
6525 Rain 9 999 57 10000 10.3 250 15:38 08.12.2019
6526 Rain 9 999 57 10000 10.3 250 15:19 08.12.2019
6527 Clouds 10 999 57 10000 9.8 250 14:59 08.12.2019
6528 Clouds 10 1000 62 10000 7.7 250 14:39 08.12.2019
6529 Clouds 10 1000 62 10000 7.7 250 14:21 08.12.2019
6530 Clouds 10 1000 62 10000 10.8 250 13:57 08.12.2019
6531 Clouds 10 1000 62 10000 10.8 250 13:57 08.12.2019
6532 Clouds 10 1000 62 10000 10.3 250 13:38 08.12.2019
6533 Clouds 10 1000 62 10000 10.3 250 13:19 08.12.2019
6534 Clouds 10 1001 66 10000 8.7 240 12:54 08.12.2019
6535 Clouds 10 1001 66 10000 8.2 240 12:36 08.12.2019
6536 Clouds 10 1001 66 10000 8.2 240 12:18 08.12.2019
6537 Clouds 10 1001 71 10000 7.7 250 11:39 08.12.2019
6538 Clouds 10 1001 71 10000 7.7 250 11:20 08.12.2019
6539 Clouds 10 1001 71 10000 7.7 250 10:59 08.12.2019
6540 Clouds 9 1001 81 10000 7.2 240 10:38 08.12.2019
6541 Clouds 9 1001 81 10000 7.2 240 10:20 08.12.2019
6542 Clouds 9 1000 76 10000 7.2 260 09:57 08.12.2019
6543 Clouds 9 1000 76 10000 7.2 260 09:57 08.12.2019
6544 Clouds 9 1000 76 10000 8.2 250 09:38 08.12.2019
6545 Clouds 9 1000 76 10000 8.2 250 09:19 08.12.2019
6546 Clouds 9 1000 71 10000 8.2 250 08:58 08.12.2019
6547 Clouds 9 999 71 10000 9.8 260 08:38 08.12.2019
6548 Rain 10 999 71 10000 9.8 260 08:19 08.12.2019
6549 Clouds 10 999 71 10000 9.3 250 07:44 08.12.2019
6550 Rain 11 998 93 10000 7.2 240 07:20 08.12.2019
6551 Rain 11 998 87 6000 7.2 230 06:51 08.12.2019
6552 Clouds 11 999 87 10000 6.7 230 06:22 08.12.2019
6553 Clouds 11 999 87 10000 7.2 230 05:51 08.12.2019
6554 Rain 11 1000 87 10000 7.2 220 05:18 08.12.2019
6555 Rain 10 1002 87 6000 6.7 220 03:51 08.12.2019
6556 Rain 10 1002 87 10000 6.2 220 03:26 08.12.2019
6557 Rain 10 1003 81 10000 9.3 220 02:40 08.12.2019
6558 Clouds 11 1005 81 10000 6.7 210 01:56 08.12.2019
6559 Clouds 11 1005 87 10000 7.2 220 01:27 08.12.2019
6560 Clouds 11 1006 87 10000 6.2 210 00:42 08.12.2019
6561 Clouds 11 1007 81 10000 6.7 230 00:21 08.12.2019
6562 Clouds 10 1008 81 10000 7.2 230 23:55 07.12.2019
6563 Clouds 10 1008 81 10000 6.7 230 23:36 07.12.2019
6564 Clouds 10 1008 81 10000 6.7 230 23:18 07.12.2019
6565 Clouds 10 1009 81 10000 7.2 230 22:54 07.12.2019
6566 Clouds 10 1009 76 10000 6.7 230 22:36 07.12.2019
6567 Clouds 10 1009 76 10000 6.7 230 22:18 07.12.2019
6568 Clouds 10 1010 76 10000 6.2 230 21:54 07.12.2019
6569 Clouds 10 1011 76 10000 7.2 230 21:36 07.12.2019
6570 Clouds 10 1011 76 10000 7.2 230 21:18 07.12.2019
6571 Clouds 10 1012 81 10000 6.7 220 20:37 07.12.2019
6572 Clouds 10 1012 81 10000 6.7 220 20:19 07.12.2019
6573 Clouds 10 1012 76 10000 6.2 240 19:57 07.12.2019
6574 Clouds 9 1012 76 10000 5.1 230 19:38 07.12.2019
6575 Clouds 9 1012 76 10000 5.1 230 19:20 07.12.2019
6576 Clouds 9 1012 76 10000 4.6 230 18:57 07.12.2019
6577 Clouds 9 1013 81 10000 5.1 220 18:38 07.12.2019
6578 Clouds 9 1013 81 10000 5.1 220 18:18 07.12.2019
6579 Clouds 9 1013 81 10000 5.1 220 17:55 07.12.2019
6580 Clouds 10 1013 81 10000 4.6 210 17:36 07.12.2019
6581 Clouds 10 1013 81 10000 4.6 210 17:18 07.12.2019
6582 Clouds 10 1013 76 10000 4.6 230 16:54 07.12.2019
6583 Clouds 10 1013 71 10000 5.1 240 16:36 07.12.2019
6584 Clouds 10 1013 71 10000 5.1 240 16:18 07.12.2019
6585 Clouds 10 1013 66 10000 4.1 240 15:40 07.12.2019
6586 Clouds 10 1013 66 10000 4.1 240 15:22 07.12.2019
6587 Clouds 10 1014 66 10000 5.7 250 14:43 07.12.2019
6588 Clouds 10 1014 66 10000 5.7 250 14:19 07.12.2019
6589 Clouds 10 1014 71 10000 4.1 250 13:59 07.12.2019
6590 Clouds 10 1014 71 10000 5.1 250 13:39 07.12.2019
6591 Clouds 10 1014 71 10000 5.1 250 13:19 07.12.2019
6592 Clouds 10 1014 71 10000 4.6 250 12:55 07.12.2019
6593 Clouds 9 1014 76 10000 4.1 250 12:36 07.12.2019
6594 Clouds 9 1014 76 10000 4.1 250 12:18 07.12.2019
6595 Clouds 9 1015 76 10000 4.1 240 11:41 07.12.2019
6596 Clouds 9 1014 81 10000 3.6 250 11:23 07.12.2019
6597 Clouds 8 1014 81 10000 5.1 250 10:56 07.12.2019
6598 Clouds 8 1014 87 10000 3.1 220 10:36 07.12.2019
6599 Clouds 8 1014 87 10000 3.1 220 10:18 07.12.2019
6600 Clouds 7 1014 81 10000 4.1 240 09:39 07.12.2019
6601 Clouds 7 1014 81 10000 4.1 240 09:21 07.12.2019
6602 Clouds 7 1013 81 10000 3.1 220 08:46 07.12.2019
6603 Clouds 7 1013 87 10000 2.1 250 08:25 07.12.2019
6604 Clouds 7 1013 87 10000 2.6 240 07:53 07.12.2019
6605 Clear 7 1012 87 10000 3.6 240 07:30 07.12.2019
6606 Clear 7 1012 87 10000 3.6 260 06:53 07.12.2019
6607 Clear 7 1012 87 10000 3.6 260 06:53 07.12.2019
6608 Clear 8 1011 81 10000 3.1 250 06:28 07.12.2019
6609 Clouds 8 1011 81 10000 3.6 270 05:50 07.12.2019
6610 Clouds 8 1011 81 10000 5.1 270 04:49 07.12.2019
6611 Clouds 9 1011 81 10000 5.7 270 03:52 07.12.2019
6612 Clouds 8 1010 81 10000 5.7 260 02:50 07.12.2019
6613 Clouds 8 1009 81 10000 5.1 250 02:19 07.12.2019
6614 Clear 8 1009 81 10000 6.2 250 01:31 07.12.2019
6615 Clear 8 1009 87 10000 5.1 250 00:43 07.12.2019
6616 Clear 8 1009 87 10000 5.1 250 00:19 07.12.2019
6617 Clouds 8 1008 87 10000 5.7 250 23:45 06.12.2019
6618 Clouds 8 1008 87 10000 4.6 250 23:24 06.12.2019
6619 Clouds 8 1007 81 10000 5.1 260 22:58 06.12.2019
6620 Clouds 9 1007 81 10000 6.2 270 22:37 06.12.2019
6621 Clouds 9 1007 81 10000 6.2 270 22:18 06.12.2019
6622 Clouds 9 1007 87 10000 6.7 260 21:56 06.12.2019
6623 Clouds 9 1006 81 10000 5.7 260 21:38 06.12.2019
6624 Clouds 9 1006 81 10000 5.7 260 21:19 06.12.2019
6625 Clouds 10 1006 87 10000 5.7 260 20:42 06.12.2019
6626 Clouds 10 1006 87 10000 5.7 260 20:42 06.12.2019
6627 Clouds 10 1005 81 10000 7.7 250 20:22 06.12.2019
6628 Clouds 10 1004 81 10000 6.7 280 19:58 06.12.2019
6629 Clouds 10 1004 81 10000 6.7 280 19:57 06.12.2019
6630 Clouds 10 1004 81 10000 7.7 260 19:39 06.12.2019
6631 Clouds 10 1004 81 10000 7.7 260 19:21 06.12.2019
6632 Drizzle 10 1003 81 10000 7.2 250 18:55 06.12.2019
6633 Clouds 10 1002 76 10000 8.7 260 18:36 06.12.2019
6634 Clouds 10 1002 76 10000 8.7 260 18:18 06.12.2019
6635 Rain 11 1001 81 10000 9.3 250 17:55 06.12.2019
6636 Rain 11 1002 93 2500 6.2 230 17:37 06.12.2019
6637 Rain 11 1002 93 2500 6.2 230 17:19 06.12.2019
6638 Rain 11 1002 87 10000 6.2 230 16:42 06.12.2019
6639 Rain 11 1001 71 10000 7.2 250 16:23 06.12.2019
6640 Rain 12 1002 71 10000 9.3 260 15:56 06.12.2019
6641 Clouds 12 1003 87 10000 6.7 240 15:38 06.12.2019
6642 Rain 12 1003 87 10000 6.7 240 15:18 06.12.2019
6643 Rain 12 1003 93 10000 8.2 240 14:55 06.12.2019
6644 Rain 12 1002 82 10000 9.3 240 14:37 06.12.2019
6645 Rain 12 1002 82 10000 9.3 240 14:18 06.12.2019
6646 Clouds 12 1003 87 10000 8.2 240 13:42 06.12.2019
6647 Clouds 12 1003 87 10000 8.2 240 13:23 06.12.2019
6648 Clouds 12 1004 87 8000 7.7 240 12:42 06.12.2019
6649 Clouds 12 1004 87 10000 7.7 240 12:22 06.12.2019
6650 Clouds 12 1005 93 10000 9.3 220 11:57 06.12.2019
6651 Rain 12 1006 100 10000 8.7 220 11:39 06.12.2019
6652 Rain 12 1005 87 10000 6.7 240 11:19 06.12.2019
6653 Drizzle 12 1005 87 3500 7.2 240 10:43 06.12.2019
6654 Rain 11 1006 87 10000 8.2 240 10:21 06.12.2019
6655 Rain 11 1006 87 10000 6.2 240 09:57 06.12.2019
6656 Rain 11 1006 93 9000 6.2 230 09:37 06.12.2019
6657 Rain 11 1006 93 9000 6.2 230 09:37 06.12.2019
6658 Rain 11 1006 93 9000 6.2 230 09:19 06.12.2019
6659 Rain 11 1007 93 10000 5.1 230 08:45 06.12.2019
6660 Rain 11 1007 93 10000 5.7 230 08:26 06.12.2019
6661 Rain 11 1007 87 6000 5.7 230 07:56 06.12.2019
6662 Clouds 11 1007 87 10000 7.2 240 07:36 06.12.2019
6663 Clouds 11 1007 87 10000 7.2 240 07:18 06.12.2019
6664 Clouds 11 1008 87 10000 7.2 230 06:29 06.12.2019
6665 Rain 11 1008 87 7000 7.7 230 05:53 06.12.2019
6666 Rain 11 1008 87 10000 7.7 230 05:33 06.12.2019
6667 Clouds 10 1010 93 10000 7.7 230 02:19 06.12.2019
6668 Clouds 10 1011 93 10000 7.2 240 01:30 06.12.2019
6669 Clouds 9 1012 81 10000 7.2 230 00:41 06.12.2019
6670 Clouds 9 1012 87 10000 6.7 240 00:20 06.12.2019
6671 Clouds 9 1013 87 10000 9.8 220 23:47 05.12.2019
6672 Clouds 10 1013 87 10000 8.7 220 23:19 05.12.2019
6673 Clouds 9 1014 81 10000 8.7 220 22:57 05.12.2019
6674 Clouds 9 1014 87 10000 9.8 220 22:38 05.12.2019
6675 Clouds 9 1014 87 10000 9.8 220 22:18 05.12.2019
6676 Clouds 9 1014 87 10000 9.8 220 22:18 05.12.2019
6677 Clouds 9 1014 87 10000 7.7 220 21:55 05.12.2019
6678 Clouds 9 1015 93 10000 8.2 220 21:36 05.12.2019
6679 Clouds 9 1015 93 10000 8.2 220 21:18 05.12.2019
6680 Clouds 9 1014 76 10000 7.2 240 20:40 05.12.2019
6681 Clouds 9 1014 76 10000 7.2 240 20:40 05.12.2019
6682 Clouds 9 1015 87 10000 9.3 210 20:21 05.12.2019
6683 Clouds 9 1015 93 10000 8.2 220 19:59 05.12.2019
6684 Clouds 9 1015 93 10000 8.2 220 19:40 05.12.2019
6685 Clouds 9 1015 76 10000 6.2 230 19:21 05.12.2019
6686 Clouds 9 1015 76 10000 6.2 230 18:58 05.12.2019
6687 Clouds 8 1015 81 10000 5.1 230 18:38 05.12.2019
6688 Clouds 8 1016 81 10000 5.1 230 18:20 05.12.2019
6689 Clouds 8 1016 81 10000 5.1 230 17:40 05.12.2019
6690 Clouds 7 1016 81 10000 4.6 220 17:20 05.12.2019
6691 Clouds 7 1016 81 10000 4.6 220 16:58 05.12.2019
6692 Clouds 7 1017 81 10000 4.1 220 16:40 05.12.2019
6693 Clouds 7 1017 81 10000 6.2 240 16:21 05.12.2019
6694 Clouds 7 1017 81 10000 6.2 240 15:58 05.12.2019
6695 Clouds 7 1018 81 10000 5.1 240 15:58 05.12.2019
6696 Clouds 8 1018 81 10000 5.1 240 15:39 05.12.2019
6697 Clouds 8 1018 81 10000 4.6 240 15:20 05.12.2019
6698 Clouds 7 1019 81 10000 4.1 240 14:56 05.12.2019
6699 Clouds 7 1019 81 10000 4.1 240 14:56 05.12.2019
6700 Rain 7 1019 81 10000 4.1 240 14:38 05.12.2019
6701 Rain 7 1019 81 10000 2.6 240 14:19 05.12.2019
6702 Rain 6 1020 81 10000 4.1 250 13:57 05.12.2019
6703 Clouds 6 1020 81 10000 4.1 250 13:39 05.12.2019
6704 Clouds 6 1020 87 10000 3.1 250 13:20 05.12.2019
6705 Clouds 6 1020 87 10000 4.1 250 12:58 05.12.2019
6706 Clouds 6 1020 87 10000 4.1 250 12:39 05.12.2019
6707 Clouds 5 1021 81 10000 4.1 250 12:21 05.12.2019
6708 Clouds 5 1021 81 9000 4.1 250 11:40 05.12.2019
6709 Clouds 4 1021 87 8000 3.1 250 11:22 05.12.2019
6710 Clouds 4 1021 87 8000 3.1 250 10:58 05.12.2019
6711 Clouds 4 1021 86 8000 2.6 0 10:40 05.12.2019
6712 Clouds 3 1021 86 7000 3.6 240 10:19 05.12.2019
6713 Clouds 3 1021 86 7000 3.6 240 09:57 05.12.2019
6714